<?xml version='1.0' encoding='UTF-8'?><gpx version="1.1" creator="JPX - https://github.com/jenetics/jpx" xmlns="http://www.topografix.com/GPX/1/1"><trk><trkseg><trkpt lat="43.678285" lon="12.51134"><ele>291.0</ele><time>2026-03-22T07:44:22.651Z</time></trkpt><trkpt lat="43.6782667" lon="12.5114233"><ele>291.0</ele><time>2026-03-22T07:45:17.654Z</time></trkpt><trkpt lat="43.6781933" lon="12.51151"><ele>291.0</ele><time>2026-03-22T07:48:26.655Z</time></trkpt><trkpt lat="43.678265" lon="12.511425"><ele>291.0</ele><time>2026-03-22T07:49:57.651Z</time></trkpt><trkpt lat="43.6783117" lon="12.5113433"><ele>291.0</ele><time>2026-03-22T07:49:59.653Z</time></trkpt><trkpt lat="43.6783583" lon="12.511265"><ele>291.0</ele><time>2026-03-22T07:50:03.654Z</time></trkpt><trkpt lat="43.678315" lon="12.511165"><ele>291.0</ele><time>2026-03-22T07:50:05.653Z</time></trkpt><trkpt lat="43.6782817" lon="12.51109"><ele>291.0</ele><time>2026-03-22T07:50:06.654Z</time></trkpt><trkpt lat="43.678245" lon="12.5110167"><ele>291.0</ele><time>2026-03-22T07:50:07.651Z</time></trkpt><trkpt lat="43.6781933" lon="12.5109567"><ele>291.0</ele><time>2026-03-22T07:50:08.65Z</time></trkpt><trkpt lat="43.6781283" lon="12.510905"><ele>291.0</ele><time>2026-03-22T07:50:09.65Z</time></trkpt><trkpt lat="43.6780567" lon="12.5108633"><ele>291.0</ele><time>2026-03-22T07:50:10.65Z</time></trkpt><trkpt lat="43.6779783" lon="12.5108383"><ele>291.0</ele><time>2026-03-22T07:50:11.654Z</time></trkpt><trkpt lat="43.6778983" lon="12.5108283"><ele>291.0</ele><time>2026-03-22T07:50:12.653Z</time></trkpt><trkpt lat="43.6778183" lon="12.5108383"><ele>291.0</ele><time>2026-03-22T07:50:13.651Z</time></trkpt><trkpt lat="43.6777483" lon="12.51086"><ele>291.0</ele><time>2026-03-22T07:50:14.651Z</time></trkpt><trkpt lat="43.677685" lon="12.510885"><ele>291.0</ele><time>2026-03-22T07:50:15.654Z</time></trkpt><trkpt lat="43.677615" lon="12.5109"><ele>291.0</ele><time>2026-03-22T07:50:16.655Z</time></trkpt><trkpt lat="43.6775067" lon="12.5109167"><ele>291.0</ele><time>2026-03-22T07:50:18.655Z</time></trkpt><trkpt lat="43.6774317" lon="12.510985"><ele>291.0</ele><time>2026-03-22T07:50:20.655Z</time></trkpt><trkpt lat="43.6773833" lon="12.5111683"><ele>291.0</ele><time>2026-03-22T07:50:22.655Z</time></trkpt><trkpt lat="43.677365" lon="12.5113067"><ele>291.0</ele><time>2026-03-22T07:50:23.657Z</time></trkpt><trkpt lat="43.6773567" lon="12.5114867"><ele>291.0</ele><time>2026-03-22T07:50:24.653Z</time></trkpt><trkpt lat="43.67734" lon="12.51167"><ele>290.75</ele><time>2026-03-22T07:50:25.653Z</time></trkpt><trkpt lat="43.6773183" lon="12.5118533"><ele>290.5</ele><time>2026-03-22T07:50:26.653Z</time></trkpt><trkpt lat="43.6772883" lon="12.5120283"><ele>290.25</ele><time>2026-03-22T07:50:27.653Z</time></trkpt><trkpt lat="43.677255" lon="12.512195"><ele>290.0</ele><time>2026-03-22T07:50:28.653Z</time></trkpt><trkpt lat="43.6772217" lon="12.5123633"><ele>290.0</ele><time>2026-03-22T07:50:29.651Z</time></trkpt><trkpt lat="43.67718" lon="12.5125267"><ele>290.0</ele><time>2026-03-22T07:50:30.651Z</time></trkpt><trkpt lat="43.6771233" lon="12.5126783"><ele>290.0</ele><time>2026-03-22T07:50:31.65Z</time></trkpt><trkpt lat="43.6770383" lon="12.512795"><ele>290.0</ele><time>2026-03-22T07:50:32.655Z</time></trkpt><trkpt lat="43.6769267" lon="12.51288"><ele>288.25</ele><time>2026-03-22T07:50:33.654Z</time></trkpt><trkpt lat="43.6767967" lon="12.51292"><ele>286.5</ele><time>2026-03-22T07:50:34.654Z</time></trkpt><trkpt lat="43.676655" lon="12.5129283"><ele>284.75</ele><time>2026-03-22T07:50:35.653Z</time></trkpt><trkpt lat="43.67651" lon="12.5129183"><ele>283.0</ele><time>2026-03-22T07:50:36.655Z</time></trkpt><trkpt lat="43.6763583" lon="12.5129033"><ele>282.75</ele><time>2026-03-22T07:50:37.653Z</time></trkpt><trkpt lat="43.6762067" lon="12.5128917"><ele>282.5</ele><time>2026-03-22T07:50:38.65Z</time></trkpt><trkpt lat="43.6760567" lon="12.5128917"><ele>282.25</ele><time>2026-03-22T07:50:39.653Z</time></trkpt><trkpt lat="43.6759133" lon="12.512915"><ele>282.0</ele><time>2026-03-22T07:50:40.651Z</time></trkpt><trkpt lat="43.67578" lon="12.5129767"><ele>283.75</ele><time>2026-03-22T07:50:41.653Z</time></trkpt><trkpt lat="43.6756567" lon="12.51308"><ele>285.5</ele><time>2026-03-22T07:50:42.655Z</time></trkpt><trkpt lat="43.6755367" lon="12.513205"><ele>287.25</ele><time>2026-03-22T07:50:43.653Z</time></trkpt><trkpt lat="43.6754167" lon="12.51333"><ele>289.0</ele><time>2026-03-22T07:50:44.654Z</time></trkpt><trkpt lat="43.6753083" lon="12.5134467"><ele>289.59999999999997</ele><time>2026-03-22T07:50:45.655Z</time></trkpt><trkpt lat="43.6752083" lon="12.5135367"><ele>290.2</ele><time>2026-03-22T07:50:46.654Z</time></trkpt><trkpt lat="43.6751117" lon="12.51359"><ele>290.79999999999995</ele><time>2026-03-22T07:50:47.653Z</time></trkpt><trkpt lat="43.6750067" lon="12.513605"><ele>291.4</ele><time>2026-03-22T07:50:48.654Z</time></trkpt><trkpt lat="43.674895" lon="12.5135833"><ele>292.0</ele><time>2026-03-22T07:50:49.653Z</time></trkpt><trkpt lat="43.6747833" lon="12.5135267"><ele>292.0</ele><time>2026-03-22T07:50:50.654Z</time></trkpt><trkpt lat="43.674685" lon="12.513435"><ele>292.0</ele><time>2026-03-22T07:50:51.654Z</time></trkpt><trkpt lat="43.6746067" lon="12.513305"><ele>292.0</ele><time>2026-03-22T07:50:52.655Z</time></trkpt><trkpt lat="43.6745467" lon="12.5131467"><ele>292.0</ele><time>2026-03-22T07:50:53.654Z</time></trkpt><trkpt lat="43.67449" lon="12.512965"><ele>293.0</ele><time>2026-03-22T07:50:54.653Z</time></trkpt><trkpt lat="43.6744283" lon="12.5127733"><ele>294.0</ele><time>2026-03-22T07:50:55.654Z</time></trkpt><trkpt lat="43.6743667" lon="12.5125783"><ele>295.0</ele><time>2026-03-22T07:50:56.654Z</time></trkpt><trkpt lat="43.6743033" lon="12.5123833"><ele>295.0</ele><time>2026-03-22T07:50:57.654Z</time></trkpt><trkpt lat="43.6742383" lon="12.51219"><ele>295.0</ele><time>2026-03-22T07:50:58.655Z</time></trkpt><trkpt lat="43.6741783" lon="12.512"><ele>295.0</ele><time>2026-03-22T07:50:59.654Z</time></trkpt><trkpt lat="43.6741183" lon="12.5118183"><ele>295.0</ele><time>2026-03-22T07:51:00.654Z</time></trkpt><trkpt lat="43.6740617" lon="12.511655"><ele>294.8</ele><time>2026-03-22T07:51:01.654Z</time></trkpt><trkpt lat="43.6740117" lon="12.511505"><ele>294.6</ele><time>2026-03-22T07:51:02.653Z</time></trkpt><trkpt lat="43.6739633" lon="12.5113783"><ele>294.4</ele><time>2026-03-22T07:51:03.65Z</time></trkpt><trkpt lat="43.6739" lon="12.511295"><ele>294.2</ele><time>2026-03-22T07:51:04.653Z</time></trkpt><trkpt lat="43.6738183" lon="12.5112517"><ele>294.0</ele><time>2026-03-22T07:51:05.655Z</time></trkpt><trkpt lat="43.6737167" lon="12.5112467"><ele>295.5</ele><time>2026-03-22T07:51:06.651Z</time></trkpt><trkpt lat="43.673605" lon="12.5112683"><ele>297.0</ele><time>2026-03-22T07:51:07.651Z</time></trkpt><trkpt lat="43.6734833" lon="12.5113"><ele>298.5</ele><time>2026-03-22T07:51:08.655Z</time></trkpt><trkpt lat="43.6733517" lon="12.5113333"><ele>300.0</ele><time>2026-03-22T07:51:09.654Z</time></trkpt><trkpt lat="43.6732117" lon="12.5113717"><ele>300.0</ele><time>2026-03-22T07:51:10.656Z</time></trkpt><trkpt lat="43.6730717" lon="12.51141"><ele>300.0</ele><time>2026-03-22T07:51:11.654Z</time></trkpt><trkpt lat="43.6729333" lon="12.511465"><ele>300.0</ele><time>2026-03-22T07:51:12.655Z</time></trkpt><trkpt lat="43.6728" lon="12.5115433"><ele>300.0</ele><time>2026-03-22T07:51:13.65Z</time></trkpt><trkpt lat="43.672675" lon="12.5116517"><ele>300.3333333333333</ele><time>2026-03-22T07:51:14.654Z</time></trkpt><trkpt lat="43.6725617" lon="12.5117933"><ele>300.66666666666663</ele><time>2026-03-22T07:51:15.654Z</time></trkpt><trkpt lat="43.6724583" lon="12.5119567"><ele>301.0</ele><time>2026-03-22T07:51:16.655Z</time></trkpt><trkpt lat="43.6723583" lon="12.5121383"><ele>300.0</ele><time>2026-03-22T07:51:17.65Z</time></trkpt><trkpt lat="43.672255" lon="12.5123333"><ele>299.0</ele><time>2026-03-22T07:51:18.652Z</time></trkpt><trkpt lat="43.67215" lon="12.5125333"><ele>298.0</ele><time>2026-03-22T07:51:19.65Z</time></trkpt><trkpt lat="43.672045" lon="12.5127333"><ele>297.0</ele><time>2026-03-22T07:51:20.652Z</time></trkpt><trkpt lat="43.6719367" lon="12.5129383"><ele>296.0</ele><time>2026-03-22T07:51:21.651Z</time></trkpt><trkpt lat="43.67183" lon="12.5131433"><ele>295.0</ele><time>2026-03-22T07:51:22.65Z</time></trkpt><trkpt lat="43.671725" lon="12.513345"><ele>295.0</ele><time>2026-03-22T07:51:23.652Z</time></trkpt><trkpt lat="43.6716233" lon="12.513535"><ele>295.0</ele><time>2026-03-22T07:51:24.651Z</time></trkpt><trkpt lat="43.6715267" lon="12.513715"><ele>295.0</ele><time>2026-03-22T07:51:25.651Z</time></trkpt><trkpt lat="43.6714367" lon="12.5138817"><ele>293.75</ele><time>2026-03-22T07:51:26.65Z</time></trkpt><trkpt lat="43.6713533" lon="12.5140367"><ele>292.5</ele><time>2026-03-22T07:51:27.651Z</time></trkpt><trkpt lat="43.67128" lon="12.514185"><ele>291.25</ele><time>2026-03-22T07:51:28.65Z</time></trkpt><trkpt lat="43.6712067" lon="12.514335"><ele>290.0</ele><time>2026-03-22T07:51:29.651Z</time></trkpt><trkpt lat="43.671125" lon="12.51449"><ele>290.6666666666667</ele><time>2026-03-22T07:51:30.655Z</time></trkpt><trkpt lat="43.6710383" lon="12.51466"><ele>291.3333333333333</ele><time>2026-03-22T07:51:31.653Z</time></trkpt><trkpt lat="43.670945" lon="12.5148383"><ele>292.0</ele><time>2026-03-22T07:51:32.651Z</time></trkpt><trkpt lat="43.6708433" lon="12.51502"><ele>292.0</ele><time>2026-03-22T07:51:33.651Z</time></trkpt><trkpt lat="43.67073" lon="12.5152017"><ele>292.0</ele><time>2026-03-22T07:51:34.651Z</time></trkpt><trkpt lat="43.6706" lon="12.5153783"><ele>292.0</ele><time>2026-03-22T07:51:35.651Z</time></trkpt><trkpt lat="43.670455" lon="12.5155533"><ele>292.0</ele><time>2026-03-22T07:51:36.65Z</time></trkpt><trkpt lat="43.6703" lon="12.515725"><ele>292.0</ele><time>2026-03-22T07:51:37.651Z</time></trkpt><trkpt lat="43.6701417" lon="12.5158967"><ele>292.0</ele><time>2026-03-22T07:51:38.65Z</time></trkpt><trkpt lat="43.6699833" lon="12.5160617"><ele>292.0</ele><time>2026-03-22T07:51:39.65Z</time></trkpt><trkpt lat="43.6698283" lon="12.516225"><ele>292.0</ele><time>2026-03-22T07:51:40.65Z</time></trkpt><trkpt lat="43.66967" lon="12.5163817"><ele>292.0</ele><time>2026-03-22T07:51:41.65Z</time></trkpt><trkpt lat="43.6695017" lon="12.5165117"><ele>290.66666666666663</ele><time>2026-03-22T07:51:42.651Z</time></trkpt><trkpt lat="43.6693267" lon="12.516615"><ele>289.3333333333333</ele><time>2026-03-22T07:51:43.651Z</time></trkpt><trkpt lat="43.6691583" lon="12.5166967"><ele>288.0</ele><time>2026-03-22T07:51:44.654Z</time></trkpt><trkpt lat="43.6689933" lon="12.516765"><ele>288.0</ele><time>2026-03-22T07:51:45.654Z</time></trkpt><trkpt lat="43.6688333" lon="12.51683"><ele>288.0</ele><time>2026-03-22T07:51:46.655Z</time></trkpt><trkpt lat="43.66868" lon="12.5168983"><ele>288.0</ele><time>2026-03-22T07:51:47.651Z</time></trkpt><trkpt lat="43.66853" lon="12.51697"><ele>287.3333333333333</ele><time>2026-03-22T07:51:48.652Z</time></trkpt><trkpt lat="43.6683833" lon="12.5170383"><ele>286.66666666666663</ele><time>2026-03-22T07:51:49.653Z</time></trkpt><trkpt lat="43.668235" lon="12.5170983"><ele>286.0</ele><time>2026-03-22T07:51:50.651Z</time></trkpt><trkpt lat="43.6680833" lon="12.517155"><ele>286.0</ele><time>2026-03-22T07:51:51.651Z</time></trkpt><trkpt lat="43.66793" lon="12.51722"><ele>286.0</ele><time>2026-03-22T07:51:52.651Z</time></trkpt><trkpt lat="43.66778" lon="12.51729"><ele>286.0</ele><time>2026-03-22T07:51:53.651Z</time></trkpt><trkpt lat="43.66763" lon="12.5173583"><ele>286.0</ele><time>2026-03-22T07:51:54.65Z</time></trkpt><trkpt lat="43.6674833" lon="12.51743"><ele>286.0</ele><time>2026-03-22T07:51:55.651Z</time></trkpt><trkpt lat="43.66734" lon="12.5174983"><ele>286.0</ele><time>2026-03-22T07:51:56.651Z</time></trkpt><trkpt lat="43.6672033" lon="12.5175683"><ele>286.0</ele><time>2026-03-22T07:51:57.651Z</time></trkpt><trkpt lat="43.6670783" lon="12.517645"><ele>286.0</ele><time>2026-03-22T07:51:58.654Z</time></trkpt><trkpt lat="43.6669783" lon="12.5177283"><ele>286.0</ele><time>2026-03-22T07:51:59.653Z</time></trkpt><trkpt lat="43.66689" lon="12.5177933"><ele>286.0</ele><time>2026-03-22T07:52:00.655Z</time></trkpt><trkpt lat="43.6668167" lon="12.517825"><ele>286.0</ele><time>2026-03-22T07:52:01.652Z</time></trkpt><trkpt lat="43.6667533" lon="12.51782"><ele>286.2</ele><time>2026-03-22T07:52:02.651Z</time></trkpt><trkpt lat="43.6666867" lon="12.5177067"><ele>286.40000000000003</ele><time>2026-03-22T07:52:04.651Z</time></trkpt><trkpt lat="43.666675" lon="12.5175983"><ele>286.6</ele><time>2026-03-22T07:52:05.655Z</time></trkpt><trkpt lat="43.6666517" lon="12.5174883"><ele>286.8</ele><time>2026-03-22T07:52:06.654Z</time></trkpt><trkpt lat="43.6666233" lon="12.517355"><ele>287.0</ele><time>2026-03-22T07:52:07.654Z</time></trkpt><trkpt lat="43.6666017" lon="12.5172033"><ele>287.25</ele><time>2026-03-22T07:52:08.651Z</time></trkpt><trkpt lat="43.6665867" lon="12.5170517"><ele>287.5</ele><time>2026-03-22T07:52:09.65Z</time></trkpt><trkpt lat="43.6665733" lon="12.516895"><ele>287.75</ele><time>2026-03-22T07:52:10.655Z</time></trkpt><trkpt lat="43.6665467" lon="12.5167383"><ele>288.0</ele><time>2026-03-22T07:52:11.649Z</time></trkpt><trkpt lat="43.6665117" lon="12.5165833"><ele>288.0</ele><time>2026-03-22T07:52:12.651Z</time></trkpt><trkpt lat="43.6664633" lon="12.516445"><ele>288.0</ele><time>2026-03-22T07:52:13.655Z</time></trkpt><trkpt lat="43.6664017" lon="12.516315"><ele>288.0</ele><time>2026-03-22T07:52:14.654Z</time></trkpt><trkpt lat="43.6663267" lon="12.5161917"><ele>288.0</ele><time>2026-03-22T07:52:15.654Z</time></trkpt><trkpt lat="43.66625" lon="12.516065"><ele>288.0</ele><time>2026-03-22T07:52:16.654Z</time></trkpt><trkpt lat="43.66618" lon="12.5159317"><ele>288.0</ele><time>2026-03-22T07:52:17.651Z</time></trkpt><trkpt lat="43.666125" lon="12.5158"><ele>288.0</ele><time>2026-03-22T07:52:18.651Z</time></trkpt><trkpt lat="43.66608" lon="12.5156667"><ele>288.0</ele><time>2026-03-22T07:52:19.651Z</time></trkpt><trkpt lat="43.6660467" lon="12.5155333"><ele>288.0</ele><time>2026-03-22T07:52:20.65Z</time></trkpt><trkpt lat="43.66602" lon="12.5153917"><ele>289.0</ele><time>2026-03-22T07:52:21.65Z</time></trkpt><trkpt lat="43.6660017" lon="12.51524"><ele>290.0</ele><time>2026-03-22T07:52:22.651Z</time></trkpt><trkpt lat="43.665995" lon="12.5150767"><ele>291.0</ele><time>2026-03-22T07:52:23.651Z</time></trkpt><trkpt lat="43.666" lon="12.5149083"><ele>292.0</ele><time>2026-03-22T07:52:24.651Z</time></trkpt><trkpt lat="43.66601" lon="12.5147383"><ele>293.25</ele><time>2026-03-22T07:52:25.652Z</time></trkpt><trkpt lat="43.666025" lon="12.514565"><ele>294.5</ele><time>2026-03-22T07:52:26.652Z</time></trkpt><trkpt lat="43.6660383" lon="12.5143917"><ele>295.75</ele><time>2026-03-22T07:52:27.652Z</time></trkpt><trkpt lat="43.66605" lon="12.5142267"><ele>297.0</ele><time>2026-03-22T07:52:28.654Z</time></trkpt><trkpt lat="43.66605" lon="12.5140683"><ele>297.0</ele><time>2026-03-22T07:52:29.654Z</time></trkpt><trkpt lat="43.6660367" lon="12.5139067"><ele>297.0</ele><time>2026-03-22T07:52:30.654Z</time></trkpt><trkpt lat="43.6660167" lon="12.51374"><ele>297.0</ele><time>2026-03-22T07:52:31.654Z</time></trkpt><trkpt lat="43.66599" lon="12.5135767"><ele>297.0</ele><time>2026-03-22T07:52:32.654Z</time></trkpt><trkpt lat="43.6659633" lon="12.5134233"><ele>297.8</ele><time>2026-03-22T07:52:33.65Z</time></trkpt><trkpt lat="43.6659333" lon="12.5132817"><ele>298.6</ele><time>2026-03-22T07:52:34.65Z</time></trkpt><trkpt lat="43.6658933" lon="12.5131433"><ele>299.40000000000003</ele><time>2026-03-22T07:52:35.653Z</time></trkpt><trkpt lat="43.66584" lon="12.5130067"><ele>300.2</ele><time>2026-03-22T07:52:36.653Z</time></trkpt><trkpt lat="43.66577" lon="12.5128717"><ele>301.0</ele><time>2026-03-22T07:52:37.654Z</time></trkpt><trkpt lat="43.665695" lon="12.5127283"><ele>302.75</ele><time>2026-03-22T07:52:38.654Z</time></trkpt><trkpt lat="43.6656317" lon="12.51258"><ele>304.5</ele><time>2026-03-22T07:52:39.654Z</time></trkpt><trkpt lat="43.66559" lon="12.5124283"><ele>306.25</ele><time>2026-03-22T07:52:40.654Z</time></trkpt><trkpt lat="43.6655633" lon="12.5122783"><ele>308.0</ele><time>2026-03-22T07:52:41.654Z</time></trkpt><trkpt lat="43.665545" lon="12.512115"><ele>310.25</ele><time>2026-03-22T07:52:42.654Z</time></trkpt><trkpt lat="43.66553" lon="12.51195"><ele>312.5</ele><time>2026-03-22T07:52:43.654Z</time></trkpt><trkpt lat="43.665505" lon="12.5117833"><ele>314.75</ele><time>2026-03-22T07:52:44.654Z</time></trkpt><trkpt lat="43.6654717" lon="12.511625"><ele>317.0</ele><time>2026-03-22T07:52:45.654Z</time></trkpt><trkpt lat="43.665435" lon="12.51147"><ele>317.0</ele><time>2026-03-22T07:52:46.651Z</time></trkpt><trkpt lat="43.6653917" lon="12.5113183"><ele>317.0</ele><time>2026-03-22T07:52:47.651Z</time></trkpt><trkpt lat="43.66534" lon="12.5111733"><ele>317.0</ele><time>2026-03-22T07:52:48.651Z</time></trkpt><trkpt lat="43.665275" lon="12.5110333"><ele>317.0</ele><time>2026-03-22T07:52:49.652Z</time></trkpt><trkpt lat="43.6652117" lon="12.510895"><ele>314.5</ele><time>2026-03-22T07:52:50.65Z</time></trkpt><trkpt lat="43.665155" lon="12.5107417"><ele>312.0</ele><time>2026-03-22T07:52:51.651Z</time></trkpt><trkpt lat="43.6651017" lon="12.5105683"><ele>309.5</ele><time>2026-03-22T07:52:52.65Z</time></trkpt><trkpt lat="43.6650583" lon="12.5103867"><ele>307.0</ele><time>2026-03-22T07:52:53.651Z</time></trkpt><trkpt lat="43.6650267" lon="12.5101983"><ele>307.0</ele><time>2026-03-22T07:52:54.65Z</time></trkpt><trkpt lat="43.6650067" lon="12.5100133"><ele>307.0</ele><time>2026-03-22T07:52:55.651Z</time></trkpt><trkpt lat="43.664985" lon="12.509855"><ele>307.0</ele><time>2026-03-22T07:52:56.65Z</time></trkpt><trkpt lat="43.6649417" lon="12.509715"><ele>307.0</ele><time>2026-03-22T07:52:57.651Z</time></trkpt><trkpt lat="43.6648833" lon="12.5095883"><ele>309.5</ele><time>2026-03-22T07:52:58.654Z</time></trkpt><trkpt lat="43.664805" lon="12.5094633"><ele>312.0</ele><time>2026-03-22T07:52:59.654Z</time></trkpt><trkpt lat="43.6647067" lon="12.509335"><ele>314.5</ele><time>2026-03-22T07:53:00.654Z</time></trkpt><trkpt lat="43.6646" lon="12.50921"><ele>317.0</ele><time>2026-03-22T07:53:01.653Z</time></trkpt><trkpt lat="43.6644917" lon="12.5090867"><ele>317.25</ele><time>2026-03-22T07:53:02.654Z</time></trkpt><trkpt lat="43.66437" lon="12.5089733"><ele>317.5</ele><time>2026-03-22T07:53:03.65Z</time></trkpt><trkpt lat="43.66425" lon="12.5088733"><ele>317.75</ele><time>2026-03-22T07:53:04.65Z</time></trkpt><trkpt lat="43.6641367" lon="12.50878"><ele>318.0</ele><time>2026-03-22T07:53:05.65Z</time></trkpt><trkpt lat="43.664035" lon="12.5086867"><ele>318.0</ele><time>2026-03-22T07:53:06.655Z</time></trkpt><trkpt lat="43.6639517" lon="12.5085767"><ele>318.0</ele><time>2026-03-22T07:53:07.655Z</time></trkpt><trkpt lat="43.6638817" lon="12.5084567"><ele>318.0</ele><time>2026-03-22T07:53:08.653Z</time></trkpt><trkpt lat="43.6638217" lon="12.5083383"><ele>318.0</ele><time>2026-03-22T07:53:09.654Z</time></trkpt><trkpt lat="43.66377" lon="12.508205"><ele>318.0</ele><time>2026-03-22T07:53:10.65Z</time></trkpt><trkpt lat="43.6637217" lon="12.50807"><ele>318.0</ele><time>2026-03-22T07:53:11.653Z</time></trkpt><trkpt lat="43.663675" lon="12.5079183"><ele>318.0</ele><time>2026-03-22T07:53:12.655Z</time></trkpt><trkpt lat="43.6636283" lon="12.50775"><ele>318.0</ele><time>2026-03-22T07:53:13.654Z</time></trkpt><trkpt lat="43.6635667" lon="12.507575"><ele>318.0</ele><time>2026-03-22T07:53:14.654Z</time></trkpt><trkpt lat="43.66349" lon="12.507385"><ele>316.6666666666667</ele><time>2026-03-22T07:53:15.653Z</time></trkpt><trkpt lat="43.6634" lon="12.5071783"><ele>315.33333333333337</ele><time>2026-03-22T07:53:16.651Z</time></trkpt><trkpt lat="43.66331" lon="12.5069717"><ele>314.0</ele><time>2026-03-22T07:53:17.65Z</time></trkpt><trkpt lat="43.663215" lon="12.506765"><ele>314.0</ele><time>2026-03-22T07:53:18.651Z</time></trkpt><trkpt lat="43.6631267" lon="12.5065617"><ele>314.0</ele><time>2026-03-22T07:53:19.652Z</time></trkpt><trkpt lat="43.6630467" lon="12.50636"><ele>314.0</ele><time>2026-03-22T07:53:20.651Z</time></trkpt><trkpt lat="43.6629733" lon="12.5061583"><ele>314.33333333333337</ele><time>2026-03-22T07:53:21.652Z</time></trkpt><trkpt lat="43.6629033" lon="12.5059583"><ele>314.6666666666667</ele><time>2026-03-22T07:53:22.652Z</time></trkpt><trkpt lat="43.6628367" lon="12.5057667"><ele>315.0</ele><time>2026-03-22T07:53:23.655Z</time></trkpt><trkpt lat="43.6627783" lon="12.5055833"><ele>315.75</ele><time>2026-03-22T07:53:24.655Z</time></trkpt><trkpt lat="43.66272" lon="12.5054083"><ele>316.5</ele><time>2026-03-22T07:53:25.652Z</time></trkpt><trkpt lat="43.6626633" lon="12.5052467"><ele>317.25</ele><time>2026-03-22T07:53:26.656Z</time></trkpt><trkpt lat="43.662605" lon="12.50509"><ele>318.0</ele><time>2026-03-22T07:53:27.655Z</time></trkpt><trkpt lat="43.6625267" lon="12.5049483"><ele>318.0</ele><time>2026-03-22T07:53:28.653Z</time></trkpt><trkpt lat="43.66243" lon="12.5048017"><ele>318.0</ele><time>2026-03-22T07:53:29.654Z</time></trkpt><trkpt lat="43.6623167" lon="12.5046383"><ele>318.0</ele><time>2026-03-22T07:53:30.652Z</time></trkpt><trkpt lat="43.6621967" lon="12.5044583"><ele>320.0</ele><time>2026-03-22T07:53:31.651Z</time></trkpt><trkpt lat="43.6620717" lon="12.5042733"><ele>322.0</ele><time>2026-03-22T07:53:32.655Z</time></trkpt><trkpt lat="43.6619467" lon="12.5040783"><ele>324.0</ele><time>2026-03-22T07:53:33.65Z</time></trkpt><trkpt lat="43.661825" lon="12.50389"><ele>326.3333333333333</ele><time>2026-03-22T07:53:34.651Z</time></trkpt><trkpt lat="43.6617117" lon="12.5037167"><ele>328.66666666666663</ele><time>2026-03-22T07:53:35.652Z</time></trkpt><trkpt lat="43.6616033" lon="12.50355"><ele>331.0</ele><time>2026-03-22T07:53:36.653Z</time></trkpt><trkpt lat="43.6615" lon="12.50339"><ele>331.0</ele><time>2026-03-22T07:53:37.653Z</time></trkpt><trkpt lat="43.6613933" lon="12.5032333"><ele>331.0</ele><time>2026-03-22T07:53:38.651Z</time></trkpt><trkpt lat="43.66128" lon="12.5030833"><ele>331.0</ele><time>2026-03-22T07:53:39.65Z</time></trkpt><trkpt lat="43.661165" lon="12.5029317"><ele>334.3333333333333</ele><time>2026-03-22T07:53:40.651Z</time></trkpt><trkpt lat="43.6610467" lon="12.502785"><ele>337.6666666666667</ele><time>2026-03-22T07:53:41.652Z</time></trkpt><trkpt lat="43.6609317" lon="12.5026433"><ele>341.0</ele><time>2026-03-22T07:53:42.651Z</time></trkpt><trkpt lat="43.66083" lon="12.5024983"><ele>341.0</ele><time>2026-03-22T07:53:43.651Z</time></trkpt><trkpt lat="43.6607433" lon="12.5023467"><ele>341.0</ele><time>2026-03-22T07:53:44.655Z</time></trkpt><trkpt lat="43.6606733" lon="12.5021833"><ele>341.0</ele><time>2026-03-22T07:53:45.65Z</time></trkpt><trkpt lat="43.6606183" lon="12.5020117"><ele>341.0</ele><time>2026-03-22T07:53:46.652Z</time></trkpt><trkpt lat="43.6605633" lon="12.50183"><ele>342.25</ele><time>2026-03-22T07:53:47.651Z</time></trkpt><trkpt lat="43.6605067" lon="12.5016467"><ele>343.5</ele><time>2026-03-22T07:53:48.652Z</time></trkpt><trkpt lat="43.6604533" lon="12.50146"><ele>344.75</ele><time>2026-03-22T07:53:49.651Z</time></trkpt><trkpt lat="43.6604017" lon="12.5012683"><ele>346.0</ele><time>2026-03-22T07:53:50.651Z</time></trkpt><trkpt lat="43.66035" lon="12.5010767"><ele>348.5</ele><time>2026-03-22T07:53:51.651Z</time></trkpt><trkpt lat="43.6603" lon="12.500885"><ele>351.0</ele><time>2026-03-22T07:53:52.651Z</time></trkpt><trkpt lat="43.6602517" lon="12.500695"><ele>353.5</ele><time>2026-03-22T07:53:53.651Z</time></trkpt><trkpt lat="43.6602067" lon="12.500505"><ele>356.0</ele><time>2026-03-22T07:53:54.65Z</time></trkpt><trkpt lat="43.6601683" lon="12.500315"><ele>359.25</ele><time>2026-03-22T07:53:55.655Z</time></trkpt><trkpt lat="43.660135" lon="12.5001183"><ele>362.5</ele><time>2026-03-22T07:53:56.654Z</time></trkpt><trkpt lat="43.660105" lon="12.4999217"><ele>365.75</ele><time>2026-03-22T07:53:57.655Z</time></trkpt><trkpt lat="43.660075" lon="12.4997367"><ele>369.0</ele><time>2026-03-22T07:53:58.653Z</time></trkpt><trkpt lat="43.660035" lon="12.49956"><ele>372.0</ele><time>2026-03-22T07:53:59.654Z</time></trkpt><trkpt lat="43.6599917" lon="12.4993967"><ele>375.0</ele><time>2026-03-22T07:54:00.654Z</time></trkpt><trkpt lat="43.659945" lon="12.499245"><ele>378.0</ele><time>2026-03-22T07:54:01.654Z</time></trkpt><trkpt lat="43.659905" lon="12.4991067"><ele>381.0</ele><time>2026-03-22T07:54:02.654Z</time></trkpt><trkpt lat="43.6598717" lon="12.4989733"><ele>381.0</ele><time>2026-03-22T07:54:03.654Z</time></trkpt><trkpt lat="43.6598467" lon="12.498845"><ele>381.0</ele><time>2026-03-22T07:54:04.651Z</time></trkpt><trkpt lat="43.65982" lon="12.498735"><ele>381.0</ele><time>2026-03-22T07:54:05.651Z</time></trkpt><trkpt lat="43.6597983" lon="12.4986517"><ele>381.0</ele><time>2026-03-22T07:54:06.655Z</time></trkpt><trkpt lat="43.65978" lon="12.49851"><ele>381.0</ele><time>2026-03-22T07:54:08.652Z</time></trkpt><trkpt lat="43.659815" lon="12.4984267"><ele>381.0</ele><time>2026-03-22T07:54:10.654Z</time></trkpt><trkpt lat="43.659915" lon="12.49847"><ele>381.0</ele><time>2026-03-22T07:54:13.652Z</time></trkpt><trkpt lat="43.6600183" lon="12.49857"><ele>381.0</ele><time>2026-03-22T07:54:15.652Z</time></trkpt><trkpt lat="43.6600817" lon="12.4986317"><ele>381.0</ele><time>2026-03-22T07:54:16.652Z</time></trkpt><trkpt lat="43.66016" lon="12.4987017"><ele>381.0</ele><time>2026-03-22T07:54:17.654Z</time></trkpt><trkpt lat="43.6602383" lon="12.4987717"><ele>381.0</ele><time>2026-03-22T07:54:18.654Z</time></trkpt><trkpt lat="43.660305" lon="12.49884"><ele>382.1428571428571</ele><time>2026-03-22T07:54:19.653Z</time></trkpt><trkpt lat="43.660365" lon="12.4989033"><ele>383.28571428571433</ele><time>2026-03-22T07:54:20.654Z</time></trkpt><trkpt lat="43.66042" lon="12.4989583"><ele>384.42857142857144</ele><time>2026-03-22T07:54:21.654Z</time></trkpt><trkpt lat="43.660475" lon="12.4990067"><ele>385.57142857142856</ele><time>2026-03-22T07:54:22.654Z</time></trkpt><trkpt lat="43.660535" lon="12.4990583"><ele>386.71428571428567</ele><time>2026-03-22T07:54:23.655Z</time></trkpt><trkpt lat="43.6605967" lon="12.4991217"><ele>387.8571428571429</ele><time>2026-03-22T07:54:24.654Z</time></trkpt><trkpt lat="43.6606483" lon="12.4991883"><ele>389.0</ele><time>2026-03-22T07:54:25.65Z</time></trkpt><trkpt lat="43.66072" lon="12.4992867"><ele>388.99999999999994</ele><time>2026-03-22T07:54:27.65Z</time></trkpt><trkpt lat="43.6606967" lon="12.499205"><ele>389.0</ele><time>2026-03-22T07:54:47.653Z</time></trkpt><trkpt lat="43.660615" lon="12.4991333"><ele>389.0</ele><time>2026-03-22T07:54:49.655Z</time></trkpt><trkpt lat="43.6605633" lon="12.4990833"><ele>389.0</ele><time>2026-03-22T07:54:50.654Z</time></trkpt><trkpt lat="43.6605" lon="12.4990217"><ele>388.99999999999994</ele><time>2026-03-22T07:54:51.654Z</time></trkpt><trkpt lat="43.6604333" lon="12.4989617"><ele>389.0</ele><time>2026-03-22T07:54:52.655Z</time></trkpt><trkpt lat="43.660365" lon="12.4989033"><ele>389.0</ele><time>2026-03-22T07:54:53.654Z</time></trkpt><trkpt lat="43.6603017" lon="12.4988483"><ele>389.0</ele><time>2026-03-22T07:54:54.654Z</time></trkpt><trkpt lat="43.6602467" lon="12.4987983"><ele>389.0</ele><time>2026-03-22T07:54:55.654Z</time></trkpt><trkpt lat="43.660145" lon="12.4987133"><ele>389.0</ele><time>2026-03-22T07:54:57.654Z</time></trkpt><trkpt lat="43.6600567" lon="12.4986283"><ele>389.0</ele><time>2026-03-22T07:54:59.654Z</time></trkpt><trkpt lat="43.65998" lon="12.49856"><ele>387.16666666666663</ele><time>2026-03-22T07:55:01.651Z</time></trkpt><trkpt lat="43.6599183" lon="12.49851"><ele>385.3333333333333</ele><time>2026-03-22T07:55:03.651Z</time></trkpt><trkpt lat="43.6598483" lon="12.498445"><ele>383.5</ele><time>2026-03-22T07:55:06.651Z</time></trkpt><trkpt lat="43.6598383" lon="12.4983467"><ele>381.66666666666663</ele><time>2026-03-22T07:55:09.654Z</time></trkpt><trkpt lat="43.6598967" lon="12.498255"><ele>379.8333333333333</ele><time>2026-03-22T07:55:11.655Z</time></trkpt><trkpt lat="43.6599583" lon="12.4981733"><ele>378.0</ele><time>2026-03-22T07:55:12.655Z</time></trkpt><trkpt lat="43.6600383" lon="12.4980667"><ele>378.0</ele><time>2026-03-22T07:55:13.653Z</time></trkpt><trkpt lat="43.66012" lon="12.4979567"><ele>378.0</ele><time>2026-03-22T07:55:14.65Z</time></trkpt><trkpt lat="43.6601967" lon="12.4978483"><ele>378.0</ele><time>2026-03-22T07:55:15.656Z</time></trkpt><trkpt lat="43.6602633" lon="12.497755"><ele>378.0</ele><time>2026-03-22T07:55:16.655Z</time></trkpt><trkpt lat="43.6603233" lon="12.4976817"><ele>378.0</ele><time>2026-03-22T07:55:17.655Z</time></trkpt><trkpt lat="43.6603867" lon="12.4976283"><ele>375.0</ele><time>2026-03-22T07:55:18.655Z</time></trkpt><trkpt lat="43.66046" lon="12.497605"><ele>372.0</ele><time>2026-03-22T07:55:19.654Z</time></trkpt><trkpt lat="43.66054" lon="12.4975983"><ele>369.0</ele><time>2026-03-22T07:55:20.655Z</time></trkpt><trkpt lat="43.6606233" lon="12.4975767"><ele>366.0</ele><time>2026-03-22T07:55:21.654Z</time></trkpt><trkpt lat="43.6607017" lon="12.497535"><ele>363.0</ele><time>2026-03-22T07:55:22.653Z</time></trkpt><trkpt lat="43.6607883" lon="12.4974567"><ele>360.0</ele><time>2026-03-22T07:55:23.655Z</time></trkpt><trkpt lat="43.660895" lon="12.497345"><ele>360.0</ele><time>2026-03-22T07:55:24.654Z</time></trkpt><trkpt lat="43.661025" lon="12.4972083"><ele>360.0</ele><time>2026-03-22T07:55:25.655Z</time></trkpt><trkpt lat="43.66115" lon="12.497075"><ele>360.0</ele><time>2026-03-22T07:55:26.655Z</time></trkpt><trkpt lat="43.661265" lon="12.496935"><ele>357.5</ele><time>2026-03-22T07:55:27.655Z</time></trkpt><trkpt lat="43.6613717" lon="12.4967883"><ele>355.0</ele><time>2026-03-22T07:55:28.656Z</time></trkpt><trkpt lat="43.6614717" lon="12.4966483"><ele>352.5</ele><time>2026-03-22T07:55:29.655Z</time></trkpt><trkpt lat="43.6615617" lon="12.4965317"><ele>350.0</ele><time>2026-03-22T07:55:30.65Z</time></trkpt><trkpt lat="43.6616333" lon="12.496445"><ele>350.0</ele><time>2026-03-22T07:55:31.651Z</time></trkpt><trkpt lat="43.661685" lon="12.4963817"><ele>350.0</ele><time>2026-03-22T07:55:32.651Z</time></trkpt><trkpt lat="43.661675" lon="12.49626"><ele>350.0</ele><time>2026-03-22T07:55:42.654Z</time></trkpt><trkpt lat="43.6616233" lon="12.49619"><ele>350.0</ele><time>2026-03-22T07:55:43.652Z</time></trkpt><trkpt lat="43.6615567" lon="12.4961133"><ele>350.0</ele><time>2026-03-22T07:55:44.65Z</time></trkpt><trkpt lat="43.6614817" lon="12.4960217"><ele>350.0</ele><time>2026-03-22T07:55:45.65Z</time></trkpt><trkpt lat="43.6613967" lon="12.4959167"><ele>349.5</ele><time>2026-03-22T07:55:46.652Z</time></trkpt><trkpt lat="43.6613083" lon="12.4958"><ele>349.0</ele><time>2026-03-22T07:55:47.654Z</time></trkpt><trkpt lat="43.6612167" lon="12.49567"><ele>348.5</ele><time>2026-03-22T07:55:48.655Z</time></trkpt><trkpt lat="43.6611183" lon="12.4955183"><ele>348.0</ele><time>2026-03-22T07:55:49.655Z</time></trkpt><trkpt lat="43.6610167" lon="12.495345"><ele>348.0</ele><time>2026-03-22T07:55:50.655Z</time></trkpt><trkpt lat="43.6609167" lon="12.4951567"><ele>348.0</ele><time>2026-03-22T07:55:51.655Z</time></trkpt><trkpt lat="43.66082" lon="12.4949667"><ele>348.0</ele><time>2026-03-22T07:55:52.655Z</time></trkpt><trkpt lat="43.6607317" lon="12.494785"><ele>348.0</ele><time>2026-03-22T07:55:53.655Z</time></trkpt><trkpt lat="43.660645" lon="12.4946217"><ele>348.0</ele><time>2026-03-22T07:55:54.654Z</time></trkpt><trkpt lat="43.6605467" lon="12.4944833"><ele>348.0</ele><time>2026-03-22T07:55:55.655Z</time></trkpt><trkpt lat="43.6604267" lon="12.49437"><ele>348.0</ele><time>2026-03-22T07:55:56.655Z</time></trkpt><trkpt lat="43.66028" lon="12.4942917"><ele>346.6666666666667</ele><time>2026-03-22T07:55:57.653Z</time></trkpt><trkpt lat="43.660115" lon="12.49424"><ele>345.33333333333337</ele><time>2026-03-22T07:55:58.653Z</time></trkpt><trkpt lat="43.6599517" lon="12.4942017"><ele>344.0</ele><time>2026-03-22T07:55:59.654Z</time></trkpt><trkpt lat="43.6598033" lon="12.494145"><ele>344.0</ele><time>2026-03-22T07:56:00.651Z</time></trkpt><trkpt lat="43.65967" lon="12.4940583"><ele>344.0</ele><time>2026-03-22T07:56:01.652Z</time></trkpt><trkpt lat="43.65956" lon="12.4939317"><ele>344.0</ele><time>2026-03-22T07:56:02.65Z</time></trkpt><trkpt lat="43.6594717" lon="12.493765"><ele>344.0</ele><time>2026-03-22T07:56:03.655Z</time></trkpt><trkpt lat="43.6594033" lon="12.493565"><ele>343.6666666666667</ele><time>2026-03-22T07:56:04.65Z</time></trkpt><trkpt lat="43.6593483" lon="12.493335"><ele>343.3333333333333</ele><time>2026-03-22T07:56:05.654Z</time></trkpt><trkpt lat="43.6592917" lon="12.4930867"><ele>343.0</ele><time>2026-03-22T07:56:06.655Z</time></trkpt><trkpt lat="43.6592233" lon="12.49284"><ele>344.66666666666663</ele><time>2026-03-22T07:56:07.653Z</time></trkpt><trkpt lat="43.6591433" lon="12.49259"><ele>346.3333333333333</ele><time>2026-03-22T07:56:08.654Z</time></trkpt><trkpt lat="43.6590483" lon="12.4923533"><ele>348.0</ele><time>2026-03-22T07:56:09.654Z</time></trkpt><trkpt lat="43.65894" lon="12.492125"><ele>347.6666666666667</ele><time>2026-03-22T07:56:10.655Z</time></trkpt><trkpt lat="43.658825" lon="12.4918967"><ele>347.33333333333337</ele><time>2026-03-22T07:56:11.65Z</time></trkpt><trkpt lat="43.658705" lon="12.4916667"><ele>347.0</ele><time>2026-03-22T07:56:12.65Z</time></trkpt><trkpt lat="43.65858" lon="12.4914317"><ele>350.0</ele><time>2026-03-22T07:56:13.651Z</time></trkpt><trkpt lat="43.6584517" lon="12.4911983"><ele>353.0</ele><time>2026-03-22T07:56:14.651Z</time></trkpt><trkpt lat="43.6583267" lon="12.49097"><ele>356.0</ele><time>2026-03-22T07:56:15.65Z</time></trkpt><trkpt lat="43.6582083" lon="12.49075"><ele>356.0</ele><time>2026-03-22T07:56:16.652Z</time></trkpt><trkpt lat="43.6581033" lon="12.4905483"><ele>356.0</ele><time>2026-03-22T07:56:17.651Z</time></trkpt><trkpt lat="43.6580133" lon="12.4903533"><ele>356.0</ele><time>2026-03-22T07:56:18.654Z</time></trkpt><trkpt lat="43.657945" lon="12.49016"><ele>359.6666666666667</ele><time>2026-03-22T07:56:19.655Z</time></trkpt><trkpt lat="43.657895" lon="12.4899633"><ele>363.3333333333333</ele><time>2026-03-22T07:56:20.654Z</time></trkpt><trkpt lat="43.6578517" lon="12.4897617"><ele>367.0</ele><time>2026-03-22T07:56:21.654Z</time></trkpt><trkpt lat="43.65781" lon="12.4895567"><ele>366.3333333333333</ele><time>2026-03-22T07:56:22.654Z</time></trkpt><trkpt lat="43.6577617" lon="12.48935"><ele>365.6666666666667</ele><time>2026-03-22T07:56:23.654Z</time></trkpt><trkpt lat="43.6577117" lon="12.4891483"><ele>365.0</ele><time>2026-03-22T07:56:24.654Z</time></trkpt><trkpt lat="43.65765" lon="12.48895"><ele>365.0</ele><time>2026-03-22T07:56:25.655Z</time></trkpt><trkpt lat="43.6575767" lon="12.4887667"><ele>365.0</ele><time>2026-03-22T07:56:26.654Z</time></trkpt><trkpt lat="43.6574833" lon="12.488585"><ele>365.0</ele><time>2026-03-22T07:56:27.655Z</time></trkpt><trkpt lat="43.6573817" lon="12.4884067"><ele>368.33333333333337</ele><time>2026-03-22T07:56:28.655Z</time></trkpt><trkpt lat="43.6572767" lon="12.4882267"><ele>371.6666666666667</ele><time>2026-03-22T07:56:29.654Z</time></trkpt><trkpt lat="43.6571717" lon="12.4880383"><ele>375.0</ele><time>2026-03-22T07:56:30.654Z</time></trkpt><trkpt lat="43.6570583" lon="12.487845"><ele>373.6666666666667</ele><time>2026-03-22T07:56:31.655Z</time></trkpt><trkpt lat="43.6569383" lon="12.487645"><ele>372.33333333333337</ele><time>2026-03-22T07:56:32.65Z</time></trkpt><trkpt lat="43.656815" lon="12.4874383"><ele>371.0</ele><time>2026-03-22T07:56:33.655Z</time></trkpt><trkpt lat="43.6566833" lon="12.4872233"><ele>375.6666666666667</ele><time>2026-03-22T07:56:34.651Z</time></trkpt><trkpt lat="43.6565483" lon="12.487"><ele>380.33333333333337</ele><time>2026-03-22T07:56:35.655Z</time></trkpt><trkpt lat="43.6564083" lon="12.48677"><ele>385.0</ele><time>2026-03-22T07:56:36.655Z</time></trkpt><trkpt lat="43.6562633" lon="12.48654"><ele>385.0</ele><time>2026-03-22T07:56:37.654Z</time></trkpt><trkpt lat="43.6561283" lon="12.4863217"><ele>385.0</ele><time>2026-03-22T07:56:38.655Z</time></trkpt><trkpt lat="43.656" lon="12.4861117"><ele>385.0</ele><time>2026-03-22T07:56:39.654Z</time></trkpt><trkpt lat="43.6558817" lon="12.4859133"><ele>384.0</ele><time>2026-03-22T07:56:40.654Z</time></trkpt><trkpt lat="43.6557717" lon="12.48573"><ele>383.0</ele><time>2026-03-22T07:56:41.65Z</time></trkpt><trkpt lat="43.65567" lon="12.4855633"><ele>382.0</ele><time>2026-03-22T07:56:42.651Z</time></trkpt><trkpt lat="43.655585" lon="12.4854217"><ele>385.0</ele><time>2026-03-22T07:56:43.651Z</time></trkpt><trkpt lat="43.655515" lon="12.4853033"><ele>388.0</ele><time>2026-03-22T07:56:44.651Z</time></trkpt><trkpt lat="43.6554567" lon="12.4852083"><ele>391.0</ele><time>2026-03-22T07:56:45.654Z</time></trkpt><trkpt lat="43.65541" lon="12.4851367"><ele>394.0</ele><time>2026-03-22T07:56:46.65Z</time></trkpt><trkpt lat="43.6553867" lon="12.4850333"><ele>397.00000000000006</ele><time>2026-03-22T07:56:48.655Z</time></trkpt><trkpt lat="43.6554717" lon="12.4850317"><ele>400.0</ele><time>2026-03-22T07:56:51.655Z</time></trkpt><trkpt lat="43.655545" lon="12.4851617"><ele>400.00000000000006</ele><time>2026-03-22T07:56:53.655Z</time></trkpt><trkpt lat="43.655595" lon="12.4852367"><ele>400.0</ele><time>2026-03-22T07:56:54.654Z</time></trkpt><trkpt lat="43.65565" lon="12.4853083"><ele>400.0</ele><time>2026-03-22T07:56:55.655Z</time></trkpt><trkpt lat="43.655715" lon="12.4853567"><ele>400.0</ele><time>2026-03-22T07:56:56.654Z</time></trkpt><trkpt lat="43.6557917" lon="12.4853967"><ele>400.00000000000006</ele><time>2026-03-22T07:56:57.654Z</time></trkpt><trkpt lat="43.6558867" lon="12.48543"><ele>400.0</ele><time>2026-03-22T07:56:58.654Z</time></trkpt><trkpt lat="43.656005" lon="12.48547"><ele>399.5</ele><time>2026-03-22T07:56:59.654Z</time></trkpt><trkpt lat="43.6561417" lon="12.4855183"><ele>399.0</ele><time>2026-03-22T07:57:00.655Z</time></trkpt><trkpt lat="43.656285" lon="12.485575"><ele>398.5</ele><time>2026-03-22T07:57:01.651Z</time></trkpt><trkpt lat="43.6564233" lon="12.4856433"><ele>398.0</ele><time>2026-03-22T07:57:02.655Z</time></trkpt><trkpt lat="43.65655" lon="12.4857083"><ele>398.0</ele><time>2026-03-22T07:57:03.655Z</time></trkpt><trkpt lat="43.6566667" lon="12.4857633"><ele>398.0</ele><time>2026-03-22T07:57:04.655Z</time></trkpt><trkpt lat="43.656775" lon="12.4858133"><ele>398.0</ele><time>2026-03-22T07:57:05.654Z</time></trkpt><trkpt lat="43.6568767" lon="12.485845"><ele>398.0</ele><time>2026-03-22T07:57:06.654Z</time></trkpt><trkpt lat="43.656975" lon="12.4858517"><ele>398.0</ele><time>2026-03-22T07:57:07.655Z</time></trkpt><trkpt lat="43.6570783" lon="12.4858383"><ele>398.79999999999995</ele><time>2026-03-22T07:57:08.655Z</time></trkpt><trkpt lat="43.6571783" lon="12.48581"><ele>399.6</ele><time>2026-03-22T07:57:09.654Z</time></trkpt><trkpt lat="43.657275" lon="12.48576"><ele>400.4</ele><time>2026-03-22T07:57:10.653Z</time></trkpt><trkpt lat="43.65737" lon="12.4857033"><ele>401.20000000000005</ele><time>2026-03-22T07:57:11.655Z</time></trkpt><trkpt lat="43.6574633" lon="12.4856367"><ele>402.0</ele><time>2026-03-22T07:57:12.654Z</time></trkpt><trkpt lat="43.657555" lon="12.4855617"><ele>402.0</ele><time>2026-03-22T07:57:13.651Z</time></trkpt><trkpt lat="43.657645" lon="12.4854767"><ele>402.0</ele><time>2026-03-22T07:57:14.654Z</time></trkpt><trkpt lat="43.65773" lon="12.4853883"><ele>402.0</ele><time>2026-03-22T07:57:15.655Z</time></trkpt><trkpt lat="43.6578167" lon="12.4853033"><ele>402.0</ele><time>2026-03-22T07:57:16.654Z</time></trkpt><trkpt lat="43.6579033" lon="12.4852267"><ele>402.0</ele><time>2026-03-22T07:57:17.655Z</time></trkpt><trkpt lat="43.65798" lon="12.4851633"><ele>404.1666666666667</ele><time>2026-03-22T07:57:18.655Z</time></trkpt><trkpt lat="43.6580467" lon="12.4851033"><ele>406.33333333333337</ele><time>2026-03-22T07:57:19.654Z</time></trkpt><trkpt lat="43.658105" lon="12.4850433"><ele>408.5</ele><time>2026-03-22T07:57:20.654Z</time></trkpt><trkpt lat="43.65811" lon="12.4849233"><ele>410.6666666666667</ele><time>2026-03-22T07:57:22.655Z</time></trkpt><trkpt lat="43.65802" lon="12.48488"><ele>412.83333333333337</ele><time>2026-03-22T07:57:24.654Z</time></trkpt><trkpt lat="43.6579433" lon="12.4848983"><ele>415.0</ele><time>2026-03-22T07:57:25.655Z</time></trkpt><trkpt lat="43.6578583" lon="12.484925"><ele>416.0</ele><time>2026-03-22T07:57:26.655Z</time></trkpt><trkpt lat="43.6577633" lon="12.4849533"><ele>417.0</ele><time>2026-03-22T07:57:27.655Z</time></trkpt><trkpt lat="43.6576467" lon="12.484985"><ele>418.0</ele><time>2026-03-22T07:57:28.655Z</time></trkpt><trkpt lat="43.65752" lon="12.4850233"><ele>419.0</ele><time>2026-03-22T07:57:29.654Z</time></trkpt><trkpt lat="43.6574033" lon="12.48507"><ele>418.99999999999994</ele><time>2026-03-22T07:57:30.655Z</time></trkpt><trkpt lat="43.657305" lon="12.48512"><ele>419.0</ele><time>2026-03-22T07:57:31.653Z</time></trkpt><trkpt lat="43.65722" lon="12.48517"><ele>419.0</ele><time>2026-03-22T07:57:32.654Z</time></trkpt><trkpt lat="43.6571483" lon="12.4852067"><ele>419.0</ele><time>2026-03-22T07:57:33.655Z</time></trkpt><trkpt lat="43.6570633" lon="12.4851817"><ele>418.99999999999994</ele><time>2026-03-22T07:57:35.65Z</time></trkpt><trkpt lat="43.6570867" lon="12.485075"><ele>419.0</ele><time>2026-03-22T07:57:37.653Z</time></trkpt><trkpt lat="43.6571817" lon="12.4849883"><ele>419.0</ele><time>2026-03-22T07:57:39.654Z</time></trkpt><trkpt lat="43.6572467" lon="12.4849317"><ele>419.0</ele><time>2026-03-22T07:57:40.655Z</time></trkpt><trkpt lat="43.6573217" lon="12.4848467"><ele>419.0</ele><time>2026-03-22T07:57:41.651Z</time></trkpt><trkpt lat="43.6574017" lon="12.4847417"><ele>419.0</ele><time>2026-03-22T07:57:42.65Z</time></trkpt><trkpt lat="43.6574967" lon="12.4846183"><ele>419.0</ele><time>2026-03-22T07:57:43.651Z</time></trkpt><trkpt lat="43.6575967" lon="12.4845117"><ele>421.75</ele><time>2026-03-22T07:57:44.65Z</time></trkpt><trkpt lat="43.657705" lon="12.4844183"><ele>424.5</ele><time>2026-03-22T07:57:45.654Z</time></trkpt><trkpt lat="43.6578117" lon="12.484355"><ele>427.25</ele><time>2026-03-22T07:57:46.654Z</time></trkpt><trkpt lat="43.6579117" lon="12.4842967"><ele>430.0</ele><time>2026-03-22T07:57:47.652Z</time></trkpt><trkpt lat="43.6580033" lon="12.4842317"><ele>430.0</ele><time>2026-03-22T07:57:48.653Z</time></trkpt><trkpt lat="43.6580933" lon="12.4841433"><ele>430.0</ele><time>2026-03-22T07:57:49.652Z</time></trkpt><trkpt lat="43.6581733" lon="12.48406"><ele>430.0</ele><time>2026-03-22T07:57:50.652Z</time></trkpt><trkpt lat="43.6582417" lon="12.4839833"><ele>430.0</ele><time>2026-03-22T07:57:51.651Z</time></trkpt><trkpt lat="43.6582883" lon="12.48391"><ele>430.0</ele><time>2026-03-22T07:57:52.651Z</time></trkpt><trkpt lat="43.65829" lon="12.4837933"><ele>430.0</ele><time>2026-03-22T07:57:54.655Z</time></trkpt><trkpt lat="43.6581767" lon="12.4837683"><ele>430.0</ele><time>2026-03-22T07:57:56.654Z</time></trkpt><trkpt lat="43.6581067" lon="12.4837917"><ele>430.0</ele><time>2026-03-22T07:57:57.654Z</time></trkpt><trkpt lat="43.65801" lon="12.4838617"><ele>430.0</ele><time>2026-03-22T07:57:58.654Z</time></trkpt><trkpt lat="43.6579167" lon="12.4839383"><ele>430.0</ele><time>2026-03-22T07:57:59.655Z</time></trkpt><trkpt lat="43.657815" lon="12.4839933"><ele>432.25</ele><time>2026-03-22T07:58:00.654Z</time></trkpt><trkpt lat="43.6576883" lon="12.484045"><ele>434.5</ele><time>2026-03-22T07:58:01.654Z</time></trkpt><trkpt lat="43.6575433" lon="12.4840967"><ele>436.75</ele><time>2026-03-22T07:58:02.654Z</time></trkpt><trkpt lat="43.6573967" lon="12.4841417"><ele>439.0</ele><time>2026-03-22T07:58:03.654Z</time></trkpt><trkpt lat="43.6572667" lon="12.4841817"><ele>439.0</ele><time>2026-03-22T07:58:04.655Z</time></trkpt><trkpt lat="43.657155" lon="12.4841983"><ele>439.0</ele><time>2026-03-22T07:58:05.654Z</time></trkpt><trkpt lat="43.6570717" lon="12.48419"><ele>439.0</ele><time>2026-03-22T07:58:06.655Z</time></trkpt><trkpt lat="43.6569917" lon="12.484115"><ele>439.0</ele><time>2026-03-22T07:58:08.654Z</time></trkpt><trkpt lat="43.6570367" lon="12.4840467"><ele>439.0</ele><time>2026-03-22T07:58:10.655Z</time></trkpt><trkpt lat="43.6571483" lon="12.4840483"><ele>439.0</ele><time>2026-03-22T07:58:12.651Z</time></trkpt><trkpt lat="43.657215" lon="12.4840183"><ele>439.0</ele><time>2026-03-22T07:58:13.655Z</time></trkpt><trkpt lat="43.6572833" lon="12.4839483"><ele>439.0</ele><time>2026-03-22T07:58:14.653Z</time></trkpt><trkpt lat="43.6573567" lon="12.483865"><ele>439.0</ele><time>2026-03-22T07:58:15.651Z</time></trkpt><trkpt lat="43.6574617" lon="12.483715"><ele>439.0</ele><time>2026-03-22T07:58:16.652Z</time></trkpt><trkpt lat="43.6575717" lon="12.48357"><ele>441.0</ele><time>2026-03-22T07:58:17.65Z</time></trkpt><trkpt lat="43.65768" lon="12.4834267"><ele>443.0</ele><time>2026-03-22T07:58:18.65Z</time></trkpt><trkpt lat="43.6577883" lon="12.483315"><ele>445.0</ele><time>2026-03-22T07:58:19.652Z</time></trkpt><trkpt lat="43.6579067" lon="12.4832233"><ele>447.0</ele><time>2026-03-22T07:58:20.651Z</time></trkpt><trkpt lat="43.6580367" lon="12.4831383"><ele>447.0</ele><time>2026-03-22T07:58:21.652Z</time></trkpt><trkpt lat="43.6581533" lon="12.4830633"><ele>447.00000000000006</ele><time>2026-03-22T07:58:22.652Z</time></trkpt><trkpt lat="43.6582417" lon="12.4830017"><ele>447.00000000000006</ele><time>2026-03-22T07:58:23.655Z</time></trkpt><trkpt lat="43.6583083" lon="12.4829567"><ele>447.0</ele><time>2026-03-22T07:58:24.655Z</time></trkpt><trkpt lat="43.6583917" lon="12.4828633"><ele>447.0</ele><time>2026-03-22T07:58:26.654Z</time></trkpt><trkpt lat="43.65833" lon="12.48279"><ele>447.0</ele><time>2026-03-22T07:58:28.654Z</time></trkpt><trkpt lat="43.6582083" lon="12.48285"><ele>447.00000000000006</ele><time>2026-03-22T07:58:30.655Z</time></trkpt><trkpt lat="43.658125" lon="12.482895"><ele>447.00000000000006</ele><time>2026-03-22T07:58:31.654Z</time></trkpt><trkpt lat="43.6580317" lon="12.4829317"><ele>447.0</ele><time>2026-03-22T07:58:32.655Z</time></trkpt><trkpt lat="43.65792" lon="12.48295"><ele>447.0</ele><time>2026-03-22T07:58:33.655Z</time></trkpt><trkpt lat="43.6577917" lon="12.4829733"><ele>450.75</ele><time>2026-03-22T07:58:34.655Z</time></trkpt><trkpt lat="43.657655" lon="12.4830133"><ele>454.5</ele><time>2026-03-22T07:58:35.654Z</time></trkpt><trkpt lat="43.6575133" lon="12.4830733"><ele>458.25</ele><time>2026-03-22T07:58:36.657Z</time></trkpt><trkpt lat="43.657385" lon="12.48314"><ele>462.0</ele><time>2026-03-22T07:58:37.655Z</time></trkpt><trkpt lat="43.6572817" lon="12.4831883"><ele>462.0</ele><time>2026-03-22T07:58:38.655Z</time></trkpt><trkpt lat="43.6572017" lon="12.483215"><ele>462.0</ele><time>2026-03-22T07:58:39.654Z</time></trkpt><trkpt lat="43.6571367" lon="12.4832167"><ele>462.0</ele><time>2026-03-22T07:58:40.655Z</time></trkpt><trkpt lat="43.657095" lon="12.4831317"><ele>462.0</ele><time>2026-03-22T07:58:42.655Z</time></trkpt><trkpt lat="43.6571617" lon="12.4830633"><ele>462.0</ele><time>2026-03-22T07:58:44.654Z</time></trkpt><trkpt lat="43.657275" lon="12.4830483"><ele>462.0</ele><time>2026-03-22T07:58:46.651Z</time></trkpt><trkpt lat="43.6573383" lon="12.4830033"><ele>468.0</ele><time>2026-03-22T07:58:47.65Z</time></trkpt><trkpt lat="43.6574067" lon="12.4829167"><ele>474.0</ele><time>2026-03-22T07:58:48.652Z</time></trkpt><trkpt lat="43.6574883" lon="12.4828067"><ele>480.0</ele><time>2026-03-22T07:58:49.651Z</time></trkpt><trkpt lat="43.6575817" lon="12.4826983"><ele>486.0</ele><time>2026-03-22T07:58:50.651Z</time></trkpt><trkpt lat="43.65769" lon="12.4825967"><ele>486.8333333333333</ele><time>2026-03-22T07:58:51.651Z</time></trkpt><trkpt lat="43.6577867" lon="12.4825117"><ele>487.66666666666663</ele><time>2026-03-22T07:58:52.651Z</time></trkpt><trkpt lat="43.657865" lon="12.4824383"><ele>488.5</ele><time>2026-03-22T07:58:53.654Z</time></trkpt><trkpt lat="43.6579267" lon="12.48237"><ele>489.3333333333333</ele><time>2026-03-22T07:58:54.655Z</time></trkpt><trkpt lat="43.657975" lon="12.4822933"><ele>490.16666666666663</ele><time>2026-03-22T07:58:55.654Z</time></trkpt><trkpt lat="43.658015" lon="12.4822017"><ele>491.0</ele><time>2026-03-22T07:58:56.654Z</time></trkpt><trkpt lat="43.658055" lon="12.48209"><ele>491.0</ele><time>2026-03-22T07:58:57.655Z</time></trkpt><trkpt lat="43.6580983" lon="12.4819733"><ele>491.0</ele><time>2026-03-22T07:58:58.655Z</time></trkpt><trkpt lat="43.6581483" lon="12.4818683"><ele>491.0</ele><time>2026-03-22T07:58:59.654Z</time></trkpt><trkpt lat="43.6582183" lon="12.48178"><ele>491.0</ele><time>2026-03-22T07:59:00.651Z</time></trkpt><trkpt lat="43.65831" lon="12.48169"><ele>491.0</ele><time>2026-03-22T07:59:01.654Z</time></trkpt><trkpt lat="43.6584183" lon="12.4815867"><ele>491.0</ele><time>2026-03-22T07:59:02.652Z</time></trkpt><trkpt lat="43.6585217" lon="12.4814783"><ele>491.0</ele><time>2026-03-22T07:59:03.651Z</time></trkpt><trkpt lat="43.658615" lon="12.48139"><ele>491.0</ele><time>2026-03-22T07:59:04.65Z</time></trkpt><trkpt lat="43.6586867" lon="12.481325"><ele>491.0</ele><time>2026-03-22T07:59:05.651Z</time></trkpt><trkpt lat="43.6587433" lon="12.4812667"><ele>491.0</ele><time>2026-03-22T07:59:06.652Z</time></trkpt><trkpt lat="43.6587667" lon="12.4811567"><ele>495.0</ele><time>2026-03-22T07:59:08.651Z</time></trkpt><trkpt lat="43.6586717" lon="12.48106"><ele>499.0</ele><time>2026-03-22T07:59:10.655Z</time></trkpt><trkpt lat="43.6585467" lon="12.481085"><ele>503.0</ele><time>2026-03-22T07:59:11.655Z</time></trkpt><trkpt lat="43.6584283" lon="12.481115"><ele>507.0</ele><time>2026-03-22T07:59:12.654Z</time></trkpt><trkpt lat="43.6582883" lon="12.4811667"><ele>508.25</ele><time>2026-03-22T07:59:13.654Z</time></trkpt><trkpt lat="43.6581533" lon="12.4812233"><ele>509.5</ele><time>2026-03-22T07:59:14.654Z</time></trkpt><trkpt lat="43.6580283" lon="12.4813"><ele>510.75</ele><time>2026-03-22T07:59:15.654Z</time></trkpt><trkpt lat="43.6579117" lon="12.481405"><ele>512.0</ele><time>2026-03-22T07:59:16.651Z</time></trkpt><trkpt lat="43.6577967" lon="12.4815267"><ele>510.75</ele><time>2026-03-22T07:59:17.653Z</time></trkpt><trkpt lat="43.65768" lon="12.481635"><ele>509.5</ele><time>2026-03-22T07:59:18.652Z</time></trkpt><trkpt lat="43.6575617" lon="12.4817183"><ele>508.25</ele><time>2026-03-22T07:59:19.652Z</time></trkpt><trkpt lat="43.6574633" lon="12.481775"><ele>507.0</ele><time>2026-03-22T07:59:20.65Z</time></trkpt><trkpt lat="43.6573817" lon="12.4817983"><ele>507.0</ele><time>2026-03-22T07:59:21.652Z</time></trkpt><trkpt lat="43.6573017" lon="12.4817917"><ele>507.0</ele><time>2026-03-22T07:59:22.653Z</time></trkpt><trkpt lat="43.6572267" lon="12.48175"><ele>507.0</ele><time>2026-03-22T07:59:23.654Z</time></trkpt><trkpt lat="43.6571617" lon="12.4816833"><ele>507.0</ele><time>2026-03-22T07:59:24.655Z</time></trkpt><trkpt lat="43.65711" lon="12.4815983"><ele>507.0</ele><time>2026-03-22T07:59:25.654Z</time></trkpt><trkpt lat="43.6570767" lon="12.4815067"><ele>507.0</ele><time>2026-03-22T07:59:26.654Z</time></trkpt><trkpt lat="43.6570967" lon="12.4813383"><ele>507.0</ele><time>2026-03-22T07:59:28.655Z</time></trkpt><trkpt lat="43.65715" lon="12.4812667"><ele>507.0</ele><time>2026-03-22T07:59:29.655Z</time></trkpt><trkpt lat="43.657225" lon="12.4812067"><ele>507.0</ele><time>2026-03-22T07:59:30.656Z</time></trkpt><trkpt lat="43.657315" lon="12.4811617"><ele>507.0</ele><time>2026-03-22T07:59:31.651Z</time></trkpt><trkpt lat="43.6574" lon="12.4811167"><ele>507.0</ele><time>2026-03-22T07:59:32.654Z</time></trkpt><trkpt lat="43.657465" lon="12.4810483"><ele>507.0</ele><time>2026-03-22T07:59:33.655Z</time></trkpt><trkpt lat="43.657515" lon="12.4809417"><ele>508.0</ele><time>2026-03-22T07:59:34.655Z</time></trkpt><trkpt lat="43.65756" lon="12.4808117"><ele>509.00000000000006</ele><time>2026-03-22T07:59:35.651Z</time></trkpt><trkpt lat="43.6576133" lon="12.4806967"><ele>510.00000000000006</ele><time>2026-03-22T07:59:36.651Z</time></trkpt><trkpt lat="43.6576817" lon="12.480605"><ele>511.0</ele><time>2026-03-22T07:59:37.651Z</time></trkpt><trkpt lat="43.65776" lon="12.480535"><ele>512.0</ele><time>2026-03-22T07:59:38.655Z</time></trkpt><trkpt lat="43.65785" lon="12.4804783"><ele>516.0</ele><time>2026-03-22T07:59:39.654Z</time></trkpt><trkpt lat="43.657935" lon="12.4804283"><ele>520.0</ele><time>2026-03-22T07:59:40.654Z</time></trkpt><trkpt lat="43.65801" lon="12.4803633"><ele>524.0</ele><time>2026-03-22T07:59:41.651Z</time></trkpt><trkpt lat="43.6580733" lon="12.4802683"><ele>528.0</ele><time>2026-03-22T07:59:42.65Z</time></trkpt><trkpt lat="43.658135" lon="12.4801417"><ele>532.0</ele><time>2026-03-22T07:59:43.655Z</time></trkpt><trkpt lat="43.6582017" lon="12.4799983"><ele>532.0</ele><time>2026-03-22T07:59:44.655Z</time></trkpt><trkpt lat="43.6582717" lon="12.479865"><ele>532.0</ele><time>2026-03-22T07:59:45.65Z</time></trkpt><trkpt lat="43.6583267" lon="12.4797617"><ele>532.0</ele><time>2026-03-22T07:59:46.65Z</time></trkpt><trkpt lat="43.6583733" lon="12.4796683"><ele>532.0</ele><time>2026-03-22T07:59:47.655Z</time></trkpt><trkpt lat="43.6583967" lon="12.479585"><ele>532.0</ele><time>2026-03-22T07:59:48.654Z</time></trkpt><trkpt lat="43.6583367" lon="12.479485"><ele>532.0</ele><time>2026-03-22T07:59:50.654Z</time></trkpt><trkpt lat="43.6581633" lon="12.4796283"><ele>532.0</ele><time>2026-03-22T07:59:52.654Z</time></trkpt><trkpt lat="43.6580583" lon="12.479735"><ele>532.0</ele><time>2026-03-22T07:59:53.65Z</time></trkpt><trkpt lat="43.6579383" lon="12.4798433"><ele>532.0</ele><time>2026-03-22T07:59:54.654Z</time></trkpt><trkpt lat="43.657815" lon="12.4799433"><ele>532.0</ele><time>2026-03-22T07:59:55.654Z</time></trkpt><trkpt lat="43.6577117" lon="12.4800267"><ele>532.0</ele><time>2026-03-22T07:59:56.654Z</time></trkpt><trkpt lat="43.6576333" lon="12.480075"><ele>532.0</ele><time>2026-03-22T07:59:57.651Z</time></trkpt><trkpt lat="43.65757" lon="12.480085"><ele>532.0</ele><time>2026-03-22T07:59:58.652Z</time></trkpt><trkpt lat="43.6574983" lon="12.4799933"><ele>534.1666666666667</ele><time>2026-03-22T08:00:00.65Z</time></trkpt><trkpt lat="43.65748" lon="12.47991"><ele>536.3333333333334</ele><time>2026-03-22T08:00:01.652Z</time></trkpt><trkpt lat="43.6574733" lon="12.479815"><ele>538.5</ele><time>2026-03-22T08:00:02.651Z</time></trkpt><trkpt lat="43.657475" lon="12.4797167"><ele>540.6666666666666</ele><time>2026-03-22T08:00:03.65Z</time></trkpt><trkpt lat="43.6574933" lon="12.47961"><ele>542.8333333333333</ele><time>2026-03-22T08:00:04.651Z</time></trkpt><trkpt lat="43.65752" lon="12.479485"><ele>545.0</ele><time>2026-03-22T08:00:05.652Z</time></trkpt><trkpt lat="43.657565" lon="12.4793417"><ele>545.0</ele><time>2026-03-22T08:00:06.65Z</time></trkpt><trkpt lat="43.6576217" lon="12.47922"><ele>545.0</ele><time>2026-03-22T08:00:07.651Z</time></trkpt><trkpt lat="43.6577017" lon="12.4791233"><ele>545.0</ele><time>2026-03-22T08:00:08.651Z</time></trkpt><trkpt lat="43.657795" lon="12.4790283"><ele>545.0</ele><time>2026-03-22T08:00:09.651Z</time></trkpt><trkpt lat="43.6578917" lon="12.4789333"><ele>545.0</ele><time>2026-03-22T08:00:10.651Z</time></trkpt><trkpt lat="43.6579817" lon="12.478825"><ele>550.25</ele><time>2026-03-22T08:00:11.65Z</time></trkpt><trkpt lat="43.6580733" lon="12.4787133"><ele>555.5</ele><time>2026-03-22T08:00:12.651Z</time></trkpt><trkpt lat="43.6581633" lon="12.478605"><ele>560.75</ele><time>2026-03-22T08:00:13.654Z</time></trkpt><trkpt lat="43.6582567" lon="12.4785167"><ele>566.0</ele><time>2026-03-22T08:00:14.654Z</time></trkpt><trkpt lat="43.658355" lon="12.4784567"><ele>566.0</ele><time>2026-03-22T08:00:15.65Z</time></trkpt><trkpt lat="43.65846" lon="12.4784233"><ele>566.0</ele><time>2026-03-22T08:00:16.651Z</time></trkpt><trkpt lat="43.658575" lon="12.478405"><ele>566.0</ele><time>2026-03-22T08:00:17.652Z</time></trkpt><trkpt lat="43.6586883" lon="12.4783933"><ele>566.0</ele><time>2026-03-22T08:00:18.651Z</time></trkpt><trkpt lat="43.6587967" lon="12.47839"><ele>566.0</ele><time>2026-03-22T08:00:19.651Z</time></trkpt><trkpt lat="43.658885" lon="12.4783867"><ele>565.5</ele><time>2026-03-22T08:00:20.65Z</time></trkpt><trkpt lat="43.6589583" lon="12.4783867"><ele>565.0</ele><time>2026-03-22T08:00:21.651Z</time></trkpt><trkpt lat="43.6590617" lon="12.4783833"><ele>564.5</ele><time>2026-03-22T08:00:23.655Z</time></trkpt><trkpt lat="43.659125" lon="12.47838"><ele>564.0</ele><time>2026-03-22T08:00:26.653Z</time></trkpt><trkpt lat="43.6592083" lon="12.4783717"><ele>563.5</ele><time>2026-03-22T08:00:29.65Z</time></trkpt><trkpt lat="43.659325" lon="12.478405"><ele>563.0</ele><time>2026-03-22T08:00:31.651Z</time></trkpt><trkpt lat="43.659385" lon="12.4784617"><ele>563.0</ele><time>2026-03-22T08:00:32.651Z</time></trkpt><trkpt lat="43.6594367" lon="12.47855"><ele>563.0</ele><time>2026-03-22T08:00:33.651Z</time></trkpt><trkpt lat="43.6594917" lon="12.4786533"><ele>563.0</ele><time>2026-03-22T08:00:34.65Z</time></trkpt><trkpt lat="43.6595667" lon="12.4787567"><ele>563.0</ele><time>2026-03-22T08:00:35.651Z</time></trkpt><trkpt lat="43.6596683" lon="12.478845"><ele>563.0</ele><time>2026-03-22T08:00:36.65Z</time></trkpt><trkpt lat="43.6597733" lon="12.4789133"><ele>562.8</ele><time>2026-03-22T08:00:37.651Z</time></trkpt><trkpt lat="43.6598817" lon="12.4789617"><ele>562.5999999999999</ele><time>2026-03-22T08:00:38.65Z</time></trkpt><trkpt lat="43.6599833" lon="12.478975"><ele>562.4000000000001</ele><time>2026-03-22T08:00:39.65Z</time></trkpt><trkpt lat="43.6600833" lon="12.4789583"><ele>562.2</ele><time>2026-03-22T08:00:40.652Z</time></trkpt><trkpt lat="43.660185" lon="12.4789117"><ele>562.0</ele><time>2026-03-22T08:00:41.654Z</time></trkpt><trkpt lat="43.6602833" lon="12.47884"><ele>562.5</ele><time>2026-03-22T08:00:42.652Z</time></trkpt><trkpt lat="43.6603817" lon="12.47876"><ele>563.0</ele><time>2026-03-22T08:00:43.655Z</time></trkpt><trkpt lat="43.6604817" lon="12.4786733"><ele>563.5</ele><time>2026-03-22T08:00:44.651Z</time></trkpt><trkpt lat="43.660585" lon="12.4785833"><ele>564.0</ele><time>2026-03-22T08:00:45.654Z</time></trkpt><trkpt lat="43.6606867" lon="12.4784917"><ele>564.0</ele><time>2026-03-22T08:00:46.651Z</time></trkpt><trkpt lat="43.6607933" lon="12.4783967"><ele>564.0</ele><time>2026-03-22T08:00:47.654Z</time></trkpt><trkpt lat="43.660895" lon="12.4783117"><ele>564.0</ele><time>2026-03-22T08:00:48.655Z</time></trkpt><trkpt lat="43.6609983" lon="12.478245"><ele>564.0</ele><time>2026-03-22T08:00:49.654Z</time></trkpt><trkpt lat="43.6611067" lon="12.4781883"><ele>566.5</ele><time>2026-03-22T08:00:50.655Z</time></trkpt><trkpt lat="43.6612283" lon="12.4781383"><ele>569.0</ele><time>2026-03-22T08:00:51.654Z</time></trkpt><trkpt lat="43.66136" lon="12.4780917"><ele>571.5</ele><time>2026-03-22T08:00:52.655Z</time></trkpt><trkpt lat="43.661495" lon="12.4780517"><ele>574.0</ele><time>2026-03-22T08:00:53.651Z</time></trkpt><trkpt lat="43.6616283" lon="12.4780183"><ele>574.0</ele><time>2026-03-22T08:00:54.654Z</time></trkpt><trkpt lat="43.6617517" lon="12.477985"><ele>574.0</ele><time>2026-03-22T08:00:55.655Z</time></trkpt><trkpt lat="43.6618633" lon="12.477945"><ele>574.0</ele><time>2026-03-22T08:00:56.654Z</time></trkpt><trkpt lat="43.6619617" lon="12.4778867"><ele>574.0</ele><time>2026-03-22T08:00:57.651Z</time></trkpt><trkpt lat="43.6620517" lon="12.47781"><ele>571.0</ele><time>2026-03-22T08:00:58.652Z</time></trkpt><trkpt lat="43.6621433" lon="12.4777067"><ele>568.0</ele><time>2026-03-22T08:00:59.651Z</time></trkpt><trkpt lat="43.6622283" lon="12.4775733"><ele>565.0</ele><time>2026-03-22T08:01:00.653Z</time></trkpt><trkpt lat="43.66231" lon="12.47742"><ele>562.0</ele><time>2026-03-22T08:01:01.651Z</time></trkpt><trkpt lat="43.66239" lon="12.4772867"><ele>562.0</ele><time>2026-03-22T08:01:02.651Z</time></trkpt><trkpt lat="43.6624733" lon="12.4771717"><ele>562.0</ele><time>2026-03-22T08:01:03.65Z</time></trkpt><trkpt lat="43.6625567" lon="12.4770817"><ele>562.0</ele><time>2026-03-22T08:01:04.652Z</time></trkpt><trkpt lat="43.6626367" lon="12.477025"><ele>562.0</ele><time>2026-03-22T08:01:05.651Z</time></trkpt><trkpt lat="43.6627117" lon="12.4770017"><ele>562.0</ele><time>2026-03-22T08:01:06.651Z</time></trkpt><trkpt lat="43.662795" lon="12.4770017"><ele>561.2</ele><time>2026-03-22T08:01:07.652Z</time></trkpt><trkpt lat="43.6628917" lon="12.47702"><ele>560.4000000000001</ele><time>2026-03-22T08:01:08.65Z</time></trkpt><trkpt lat="43.6629967" lon="12.4770533"><ele>559.5999999999999</ele><time>2026-03-22T08:01:09.651Z</time></trkpt><trkpt lat="43.663105" lon="12.4771133"><ele>558.8</ele><time>2026-03-22T08:01:10.652Z</time></trkpt><trkpt lat="43.6632167" lon="12.4771683"><ele>558.0</ele><time>2026-03-22T08:01:11.65Z</time></trkpt><trkpt lat="43.6633383" lon="12.477205"><ele>558.0</ele><time>2026-03-22T08:01:12.654Z</time></trkpt><trkpt lat="43.663455" lon="12.4772333"><ele>558.0</ele><time>2026-03-22T08:01:13.652Z</time></trkpt><trkpt lat="43.6635583" lon="12.4772583"><ele>558.0</ele><time>2026-03-22T08:01:14.65Z</time></trkpt><trkpt lat="43.66366" lon="12.4772683"><ele>558.0</ele><time>2026-03-22T08:01:15.651Z</time></trkpt><trkpt lat="43.6637567" lon="12.4772633"><ele>558.0</ele><time>2026-03-22T08:01:16.653Z</time></trkpt><trkpt lat="43.6638483" lon="12.4772417"><ele>556.0</ele><time>2026-03-22T08:01:17.652Z</time></trkpt><trkpt lat="43.6639333" lon="12.4772133"><ele>554.0</ele><time>2026-03-22T08:01:18.651Z</time></trkpt><trkpt lat="43.6640133" lon="12.4771883"><ele>552.0</ele><time>2026-03-22T08:01:19.652Z</time></trkpt><trkpt lat="43.6641" lon="12.4771617"><ele>550.0</ele><time>2026-03-22T08:01:20.65Z</time></trkpt><trkpt lat="43.66419" lon="12.4771283"><ele>548.0</ele><time>2026-03-22T08:01:21.652Z</time></trkpt><trkpt lat="43.66428" lon="12.4770833"><ele>546.0</ele><time>2026-03-22T08:01:22.651Z</time></trkpt><trkpt lat="43.6643633" lon="12.47703"><ele>544.5</ele><time>2026-03-22T08:01:23.654Z</time></trkpt><trkpt lat="43.6644433" lon="12.4769717"><ele>543.0</ele><time>2026-03-22T08:01:24.656Z</time></trkpt><trkpt lat="43.664515" lon="12.476905"><ele>541.5</ele><time>2026-03-22T08:01:25.654Z</time></trkpt><trkpt lat="43.664575" lon="12.476825"><ele>540.0</ele><time>2026-03-22T08:01:26.655Z</time></trkpt><trkpt lat="43.6646317" lon="12.476735"><ele>538.5</ele><time>2026-03-22T08:01:27.651Z</time></trkpt><trkpt lat="43.66468" lon="12.476655"><ele>537.0</ele><time>2026-03-22T08:01:28.651Z</time></trkpt><trkpt lat="43.664725" lon="12.4765933"><ele>537.0</ele><time>2026-03-22T08:01:29.65Z</time></trkpt><trkpt lat="43.664835" lon="12.476515"><ele>537.0</ele><time>2026-03-22T08:01:31.652Z</time></trkpt><trkpt lat="43.6649017" lon="12.4765167"><ele>537.0</ele><time>2026-03-22T08:01:32.65Z</time></trkpt><trkpt lat="43.6649733" lon="12.4765417"><ele>537.0</ele><time>2026-03-22T08:01:33.651Z</time></trkpt><trkpt lat="43.6650483" lon="12.47658"><ele>537.0</ele><time>2026-03-22T08:01:34.651Z</time></trkpt><trkpt lat="43.66512" lon="12.47664"><ele>537.0</ele><time>2026-03-22T08:01:35.651Z</time></trkpt><trkpt lat="43.6651867" lon="12.47671"><ele>537.0</ele><time>2026-03-22T08:01:36.652Z</time></trkpt><trkpt lat="43.665245" lon="12.4767833"><ele>537.0</ele><time>2026-03-22T08:01:37.652Z</time></trkpt><trkpt lat="43.6653" lon="12.4768683"><ele>537.0</ele><time>2026-03-22T08:01:38.65Z</time></trkpt><trkpt lat="43.6653517" lon="12.4769567"><ele>537.0</ele><time>2026-03-22T08:01:39.652Z</time></trkpt><trkpt lat="43.6654067" lon="12.4770433"><ele>537.0</ele><time>2026-03-22T08:01:40.652Z</time></trkpt><trkpt lat="43.6654683" lon="12.4771117"><ele>537.0</ele><time>2026-03-22T08:01:41.654Z</time></trkpt><trkpt lat="43.6655367" lon="12.4771583"><ele>537.8000000000001</ele><time>2026-03-22T08:01:42.651Z</time></trkpt><trkpt lat="43.6656133" lon="12.47718"><ele>538.6</ele><time>2026-03-22T08:01:43.652Z</time></trkpt><trkpt lat="43.6657" lon="12.4771667"><ele>539.4000000000001</ele><time>2026-03-22T08:01:44.651Z</time></trkpt><trkpt lat="43.6657917" lon="12.47712"><ele>540.2</ele><time>2026-03-22T08:01:45.652Z</time></trkpt><trkpt lat="43.6658833" lon="12.477045"><ele>541.0</ele><time>2026-03-22T08:01:46.652Z</time></trkpt><trkpt lat="43.66598" lon="12.47696"><ele>539.25</ele><time>2026-03-22T08:01:47.655Z</time></trkpt><trkpt lat="43.6660883" lon="12.4768583"><ele>537.5</ele><time>2026-03-22T08:01:48.655Z</time></trkpt><trkpt lat="43.6662017" lon="12.4767433"><ele>535.75</ele><time>2026-03-22T08:01:49.654Z</time></trkpt><trkpt lat="43.666305" lon="12.4766317"><ele>534.0</ele><time>2026-03-22T08:01:50.654Z</time></trkpt><trkpt lat="43.666405" lon="12.4765333"><ele>534.0</ele><time>2026-03-22T08:01:51.654Z</time></trkpt><trkpt lat="43.6664967" lon="12.4764467"><ele>534.0</ele><time>2026-03-22T08:01:52.657Z</time></trkpt><trkpt lat="43.6665917" lon="12.47636"><ele>534.0</ele><time>2026-03-22T08:01:53.655Z</time></trkpt><trkpt lat="43.6666867" lon="12.4762833"><ele>534.0</ele><time>2026-03-22T08:01:54.651Z</time></trkpt><trkpt lat="43.6667817" lon="12.4762117"><ele>534.0</ele><time>2026-03-22T08:01:55.655Z</time></trkpt><trkpt lat="43.6668817" lon="12.4761583"><ele>529.6666666666666</ele><time>2026-03-22T08:01:56.65Z</time></trkpt><trkpt lat="43.66698" lon="12.476115"><ele>525.3333333333334</ele><time>2026-03-22T08:01:57.651Z</time></trkpt><trkpt lat="43.667075" lon="12.4760883"><ele>521.0</ele><time>2026-03-22T08:01:58.651Z</time></trkpt><trkpt lat="43.66716" lon="12.4760767"><ele>516.6666666666667</ele><time>2026-03-22T08:01:59.651Z</time></trkpt><trkpt lat="43.6672367" lon="12.4760817"><ele>512.3333333333334</ele><time>2026-03-22T08:02:00.65Z</time></trkpt><trkpt lat="43.6673033" lon="12.47611"><ele>508.0</ele><time>2026-03-22T08:02:01.652Z</time></trkpt><trkpt lat="43.667365" lon="12.4761667"><ele>508.0</ele><time>2026-03-22T08:02:02.65Z</time></trkpt><trkpt lat="43.6674083" lon="12.4762683"><ele>507.99999999999994</ele><time>2026-03-22T08:02:03.651Z</time></trkpt><trkpt lat="43.6674417" lon="12.4763983"><ele>507.99999999999994</ele><time>2026-03-22T08:02:04.65Z</time></trkpt><trkpt lat="43.6674733" lon="12.4765483"><ele>508.0</ele><time>2026-03-22T08:02:05.651Z</time></trkpt><trkpt lat="43.6675" lon="12.4767"><ele>508.0</ele><time>2026-03-22T08:02:06.651Z</time></trkpt><trkpt lat="43.6675267" lon="12.4768467"><ele>509.75</ele><time>2026-03-22T08:02:07.651Z</time></trkpt><trkpt lat="43.66755" lon="12.4769933"><ele>511.5</ele><time>2026-03-22T08:02:08.65Z</time></trkpt><trkpt lat="43.6675767" lon="12.477145"><ele>513.25</ele><time>2026-03-22T08:02:09.651Z</time></trkpt><trkpt lat="43.6676117" lon="12.4772967"><ele>515.0</ele><time>2026-03-22T08:02:10.651Z</time></trkpt><trkpt lat="43.6676583" lon="12.47744"><ele>515.4</ele><time>2026-03-22T08:02:11.652Z</time></trkpt><trkpt lat="43.6677133" lon="12.477575"><ele>515.8</ele><time>2026-03-22T08:02:12.652Z</time></trkpt><trkpt lat="43.6677667" lon="12.4776983"><ele>516.2</ele><time>2026-03-22T08:02:13.652Z</time></trkpt><trkpt lat="43.667825" lon="12.4778067"><ele>516.6</ele><time>2026-03-22T08:02:14.65Z</time></trkpt><trkpt lat="43.6678933" lon="12.4778983"><ele>517.0</ele><time>2026-03-22T08:02:15.654Z</time></trkpt><trkpt lat="43.6679683" lon="12.477975"><ele>513.3333333333334</ele><time>2026-03-22T08:02:16.651Z</time></trkpt><trkpt lat="43.6680433" lon="12.4780283"><ele>509.6666666666667</ele><time>2026-03-22T08:02:17.653Z</time></trkpt><trkpt lat="43.66812" lon="12.4780683"><ele>506.0</ele><time>2026-03-22T08:02:18.655Z</time></trkpt><trkpt lat="43.6681967" lon="12.4781167"><ele>502.33333333333337</ele><time>2026-03-22T08:02:19.654Z</time></trkpt><trkpt lat="43.6682517" lon="12.4781767"><ele>498.6666666666667</ele><time>2026-03-22T08:02:20.654Z</time></trkpt><trkpt lat="43.6682983" lon="12.4783317"><ele>495.0</ele><time>2026-03-22T08:02:22.655Z</time></trkpt><trkpt lat="43.6682933" lon="12.4784283"><ele>495.0</ele><time>2026-03-22T08:02:23.654Z</time></trkpt><trkpt lat="43.6682667" lon="12.478525"><ele>495.0</ele><time>2026-03-22T08:02:24.655Z</time></trkpt><trkpt lat="43.668225" lon="12.4786367"><ele>495.0</ele><time>2026-03-22T08:02:25.654Z</time></trkpt><trkpt lat="43.6681983" lon="12.4787567"><ele>495.0</ele><time>2026-03-22T08:02:26.655Z</time></trkpt><trkpt lat="43.66819" lon="12.478875"><ele>495.0</ele><time>2026-03-22T08:02:27.65Z</time></trkpt><trkpt lat="43.6681967" lon="12.4789917"><ele>495.0</ele><time>2026-03-22T08:02:28.65Z</time></trkpt><trkpt lat="43.6682317" lon="12.4791183"><ele>494.4</ele><time>2026-03-22T08:02:29.65Z</time></trkpt><trkpt lat="43.6682733" lon="12.4792517"><ele>493.8</ele><time>2026-03-22T08:02:30.652Z</time></trkpt><trkpt lat="43.6683067" lon="12.4793733"><ele>493.20000000000005</ele><time>2026-03-22T08:02:31.651Z</time></trkpt><trkpt lat="43.6683317" lon="12.4794733"><ele>492.6</ele><time>2026-03-22T08:02:32.651Z</time></trkpt><trkpt lat="43.6684033" lon="12.4796033"><ele>492.0</ele><time>2026-03-22T08:02:34.651Z</time></trkpt><trkpt lat="43.6685183" lon="12.4796367"><ele>492.0</ele><time>2026-03-22T08:02:36.652Z</time></trkpt><trkpt lat="43.6685783" lon="12.4796033"><ele>492.0</ele><time>2026-03-22T08:02:37.651Z</time></trkpt><trkpt lat="43.668625" lon="12.4795433"><ele>492.0</ele><time>2026-03-22T08:02:38.65Z</time></trkpt><trkpt lat="43.66866" lon="12.4793783"><ele>492.0</ele><time>2026-03-22T08:02:40.651Z</time></trkpt><trkpt lat="43.668645" lon="12.479265"><ele>492.0</ele><time>2026-03-22T08:02:41.655Z</time></trkpt><trkpt lat="43.66861" lon="12.4791417"><ele>492.0</ele><time>2026-03-22T08:02:42.654Z</time></trkpt><trkpt lat="43.6685783" lon="12.4790133"><ele>492.0</ele><time>2026-03-22T08:02:43.655Z</time></trkpt><trkpt lat="43.6685667" lon="12.478875"><ele>492.0</ele><time>2026-03-22T08:02:44.654Z</time></trkpt><trkpt lat="43.6685767" lon="12.4787217"><ele>492.0</ele><time>2026-03-22T08:02:45.655Z</time></trkpt><trkpt lat="43.6686017" lon="12.478555"><ele>492.0</ele><time>2026-03-22T08:02:46.654Z</time></trkpt><trkpt lat="43.668635" lon="12.4783783"><ele>485.0</ele><time>2026-03-22T08:02:47.654Z</time></trkpt><trkpt lat="43.6686817" lon="12.4782117"><ele>478.00000000000006</ele><time>2026-03-22T08:02:48.654Z</time></trkpt><trkpt lat="43.66873" lon="12.4780633"><ele>471.00000000000006</ele><time>2026-03-22T08:02:49.655Z</time></trkpt><trkpt lat="43.6687767" lon="12.4779383"><ele>464.0</ele><time>2026-03-22T08:02:50.654Z</time></trkpt><trkpt lat="43.6688183" lon="12.4778317"><ele>457.0</ele><time>2026-03-22T08:02:51.655Z</time></trkpt><trkpt lat="43.6688467" lon="12.477745"><ele>457.0</ele><time>2026-03-22T08:02:52.655Z</time></trkpt><trkpt lat="43.6688433" lon="12.4775867"><ele>457.00000000000006</ele><time>2026-03-22T08:02:54.655Z</time></trkpt><trkpt lat="43.6687883" lon="12.4774967"><ele>457.00000000000006</ele><time>2026-03-22T08:02:55.651Z</time></trkpt><trkpt lat="43.668715" lon="12.4774"><ele>457.0</ele><time>2026-03-22T08:02:56.655Z</time></trkpt><trkpt lat="43.668645" lon="12.4773117"><ele>457.0</ele><time>2026-03-22T08:02:57.651Z</time></trkpt><trkpt lat="43.668595" lon="12.477235"><ele>457.00000000000006</ele><time>2026-03-22T08:02:58.653Z</time></trkpt><trkpt lat="43.668585" lon="12.4771083"><ele>457.0</ele><time>2026-03-22T08:03:00.652Z</time></trkpt><trkpt lat="43.66868" lon="12.477065"><ele>457.0</ele><time>2026-03-22T08:03:02.651Z</time></trkpt><trkpt lat="43.6687383" lon="12.4771033"><ele>457.0</ele><time>2026-03-22T08:03:03.652Z</time></trkpt><trkpt lat="43.6688017" lon="12.4771867"><ele>457.00000000000006</ele><time>2026-03-22T08:03:04.652Z</time></trkpt><trkpt lat="43.668865" lon="12.477275"><ele>457.0</ele><time>2026-03-22T08:03:05.652Z</time></trkpt><trkpt lat="43.668935" lon="12.4773583"><ele>457.00000000000006</ele><time>2026-03-22T08:03:06.652Z</time></trkpt><trkpt lat="43.6689983" lon="12.477435"><ele>457.0</ele><time>2026-03-22T08:03:07.651Z</time></trkpt><trkpt lat="43.6690417" lon="12.477515"><ele>457.0</ele><time>2026-03-22T08:03:08.651Z</time></trkpt><trkpt lat="43.669065" lon="12.4776"><ele>457.0</ele><time>2026-03-22T08:03:09.652Z</time></trkpt><trkpt lat="43.6690617" lon="12.4777083"><ele>457.00000000000006</ele><time>2026-03-22T08:03:10.655Z</time></trkpt><trkpt lat="43.6690517" lon="12.4778433"><ele>457.0</ele><time>2026-03-22T08:03:11.655Z</time></trkpt><trkpt lat="43.6690383" lon="12.47799"><ele>457.0</ele><time>2026-03-22T08:03:12.655Z</time></trkpt><trkpt lat="43.66905" lon="12.4781483"><ele>457.0</ele><time>2026-03-22T08:03:13.655Z</time></trkpt><trkpt lat="43.6690717" lon="12.4783117"><ele>457.0</ele><time>2026-03-22T08:03:14.655Z</time></trkpt><trkpt lat="43.6691117" lon="12.4785"><ele>457.0</ele><time>2026-03-22T08:03:15.654Z</time></trkpt><trkpt lat="43.669165" lon="12.4786933"><ele>459.25</ele><time>2026-03-22T08:03:16.655Z</time></trkpt><trkpt lat="43.669215" lon="12.4788717"><ele>461.5</ele><time>2026-03-22T08:03:17.65Z</time></trkpt><trkpt lat="43.6692733" lon="12.4790283"><ele>463.75</ele><time>2026-03-22T08:03:18.651Z</time></trkpt><trkpt lat="43.6693467" lon="12.47917"><ele>466.0</ele><time>2026-03-22T08:03:19.652Z</time></trkpt><trkpt lat="43.6694133" lon="12.4793"><ele>463.25</ele><time>2026-03-22T08:03:20.651Z</time></trkpt><trkpt lat="43.6694817" lon="12.4794183"><ele>460.5</ele><time>2026-03-22T08:03:21.65Z</time></trkpt><trkpt lat="43.6695667" lon="12.47952"><ele>457.75</ele><time>2026-03-22T08:03:22.651Z</time></trkpt><trkpt lat="43.6696733" lon="12.4796"><ele>455.0</ele><time>2026-03-22T08:03:23.65Z</time></trkpt><trkpt lat="43.6698" lon="12.4796517"><ele>455.0</ele><time>2026-03-22T08:03:24.651Z</time></trkpt><trkpt lat="43.6699333" lon="12.4796783"><ele>455.0</ele><time>2026-03-22T08:03:25.65Z</time></trkpt><trkpt lat="43.6700633" lon="12.479695"><ele>455.0</ele><time>2026-03-22T08:03:26.65Z</time></trkpt><trkpt lat="43.670175" lon="12.47972"><ele>455.0</ele><time>2026-03-22T08:03:27.651Z</time></trkpt><trkpt lat="43.670265" lon="12.4797533"><ele>450.0</ele><time>2026-03-22T08:03:28.652Z</time></trkpt><trkpt lat="43.670345" lon="12.47982"><ele>445.0</ele><time>2026-03-22T08:03:29.651Z</time></trkpt><trkpt lat="43.6704167" lon="12.4799267"><ele>440.0</ele><time>2026-03-22T08:03:30.652Z</time></trkpt><trkpt lat="43.6704883" lon="12.480065"><ele>435.0</ele><time>2026-03-22T08:03:31.652Z</time></trkpt><trkpt lat="43.6705617" lon="12.4802267"><ele>435.0</ele><time>2026-03-22T08:03:32.651Z</time></trkpt><trkpt lat="43.67063" lon="12.480385"><ele>435.0</ele><time>2026-03-22T08:03:33.651Z</time></trkpt><trkpt lat="43.6706917" lon="12.4805333"><ele>435.0</ele><time>2026-03-22T08:03:34.651Z</time></trkpt><trkpt lat="43.6707417" lon="12.4806633"><ele>435.0</ele><time>2026-03-22T08:03:35.65Z</time></trkpt><trkpt lat="43.6707733" lon="12.4807867"><ele>435.0</ele><time>2026-03-22T08:03:36.654Z</time></trkpt><trkpt lat="43.6707867" lon="12.480915"><ele>435.0</ele><time>2026-03-22T08:03:37.651Z</time></trkpt><trkpt lat="43.6707817" lon="12.4810567"><ele>435.0</ele><time>2026-03-22T08:03:38.651Z</time></trkpt><trkpt lat="43.67076" lon="12.481205"><ele>435.0</ele><time>2026-03-22T08:03:39.65Z</time></trkpt><trkpt lat="43.6707167" lon="12.4813667"><ele>435.0</ele><time>2026-03-22T08:03:40.655Z</time></trkpt><trkpt lat="43.67065" lon="12.48154"><ele>435.0</ele><time>2026-03-22T08:03:41.654Z</time></trkpt><trkpt lat="43.6705917" lon="12.48172"><ele>435.0</ele><time>2026-03-22T08:03:42.653Z</time></trkpt><trkpt lat="43.6705417" lon="12.4819067"><ele>435.0</ele><time>2026-03-22T08:03:43.654Z</time></trkpt><trkpt lat="43.6704967" lon="12.4820783"><ele>435.0</ele><time>2026-03-22T08:03:44.655Z</time></trkpt><trkpt lat="43.670455" lon="12.482215"><ele>433.8</ele><time>2026-03-22T08:03:45.655Z</time></trkpt><trkpt lat="43.67042" lon="12.4823167"><ele>432.6</ele><time>2026-03-22T08:03:46.655Z</time></trkpt><trkpt lat="43.6703783" lon="12.4823867"><ele>431.4</ele><time>2026-03-22T08:03:47.65Z</time></trkpt><trkpt lat="43.670245" lon="12.48242"><ele>430.2</ele><time>2026-03-22T08:03:49.65Z</time></trkpt><trkpt lat="43.67015" lon="12.48239"><ele>429.0</ele><time>2026-03-22T08:03:50.651Z</time></trkpt><trkpt lat="43.6700317" lon="12.4823383"><ele>429.0</ele><time>2026-03-22T08:03:51.653Z</time></trkpt><trkpt lat="43.6698883" lon="12.4822867"><ele>429.0</ele><time>2026-03-22T08:03:52.652Z</time></trkpt><trkpt lat="43.66974" lon="12.482245"><ele>429.0</ele><time>2026-03-22T08:03:53.65Z</time></trkpt><trkpt lat="43.6695833" lon="12.4821967"><ele>426.5</ele><time>2026-03-22T08:03:54.652Z</time></trkpt><trkpt lat="43.6694317" lon="12.4821483"><ele>424.0</ele><time>2026-03-22T08:03:55.652Z</time></trkpt><trkpt lat="43.6692967" lon="12.4821"><ele>421.5</ele><time>2026-03-22T08:03:56.651Z</time></trkpt><trkpt lat="43.6691767" lon="12.4820533"><ele>419.0</ele><time>2026-03-22T08:03:57.65Z</time></trkpt><trkpt lat="43.6690667" lon="12.482025"><ele>419.0</ele><time>2026-03-22T08:03:58.652Z</time></trkpt><trkpt lat="43.66896" lon="12.4820333"><ele>419.0</ele><time>2026-03-22T08:03:59.65Z</time></trkpt><trkpt lat="43.6688533" lon="12.4820783"><ele>419.0</ele><time>2026-03-22T08:04:00.651Z</time></trkpt><trkpt lat="43.6687433" lon="12.4821583"><ele>419.0</ele><time>2026-03-22T08:04:01.652Z</time></trkpt><trkpt lat="43.6686383" lon="12.4822567"><ele>419.79999999999995</ele><time>2026-03-22T08:04:02.651Z</time></trkpt><trkpt lat="43.6685417" lon="12.482355"><ele>420.59999999999997</ele><time>2026-03-22T08:04:03.652Z</time></trkpt><trkpt lat="43.6684517" lon="12.482425"><ele>421.4</ele><time>2026-03-22T08:04:04.651Z</time></trkpt><trkpt lat="43.6683667" lon="12.4824767"><ele>422.2</ele><time>2026-03-22T08:04:05.651Z</time></trkpt><trkpt lat="43.6682783" lon="12.4825167"><ele>423.0</ele><time>2026-03-22T08:04:06.652Z</time></trkpt><trkpt lat="43.6681833" lon="12.4825533"><ele>423.0</ele><time>2026-03-22T08:04:07.651Z</time></trkpt><trkpt lat="43.6680817" lon="12.4825917"><ele>423.0</ele><time>2026-03-22T08:04:08.651Z</time></trkpt><trkpt lat="43.6679817" lon="12.4826317"><ele>423.0</ele><time>2026-03-22T08:04:09.651Z</time></trkpt><trkpt lat="43.66789" lon="12.4826733"><ele>423.0</ele><time>2026-03-22T08:04:10.654Z</time></trkpt><trkpt lat="43.6678067" lon="12.4827167"><ele>423.0</ele><time>2026-03-22T08:04:11.65Z</time></trkpt><trkpt lat="43.66773" lon="12.4827583"><ele>422.1666666666667</ele><time>2026-03-22T08:04:12.655Z</time></trkpt><trkpt lat="43.6676617" lon="12.4828"><ele>421.33333333333337</ele><time>2026-03-22T08:04:13.655Z</time></trkpt><trkpt lat="43.6675967" lon="12.48285"><ele>420.5</ele><time>2026-03-22T08:04:14.655Z</time></trkpt><trkpt lat="43.6675433" lon="12.4829133"><ele>419.6666666666667</ele><time>2026-03-22T08:04:15.654Z</time></trkpt><trkpt lat="43.667495" lon="12.48299"><ele>418.83333333333337</ele><time>2026-03-22T08:04:16.667Z</time></trkpt><trkpt lat="43.6674533" lon="12.4830833"><ele>418.0</ele><time>2026-03-22T08:04:17.65Z</time></trkpt><trkpt lat="43.6674267" lon="12.4831917"><ele>418.0</ele><time>2026-03-22T08:04:18.651Z</time></trkpt><trkpt lat="43.667425" lon="12.4833117"><ele>418.0</ele><time>2026-03-22T08:04:19.65Z</time></trkpt><trkpt lat="43.6674433" lon="12.483465"><ele>418.0</ele><time>2026-03-22T08:04:20.65Z</time></trkpt><trkpt lat="43.6674733" lon="12.4836367"><ele>418.0</ele><time>2026-03-22T08:04:21.652Z</time></trkpt><trkpt lat="43.6675183" lon="12.4838283"><ele>419.0</ele><time>2026-03-22T08:04:22.65Z</time></trkpt><trkpt lat="43.667565" lon="12.4840133"><ele>420.0</ele><time>2026-03-22T08:04:23.652Z</time></trkpt><trkpt lat="43.66763" lon="12.4841917"><ele>421.0</ele><time>2026-03-22T08:04:24.652Z</time></trkpt><trkpt lat="43.66769" lon="12.48436"><ele>422.0</ele><time>2026-03-22T08:04:25.651Z</time></trkpt><trkpt lat="43.6677367" lon="12.4845383"><ele>423.75</ele><time>2026-03-22T08:04:26.65Z</time></trkpt><trkpt lat="43.66777" lon="12.4847267"><ele>425.5</ele><time>2026-03-22T08:04:27.65Z</time></trkpt><trkpt lat="43.6677967" lon="12.4849233"><ele>427.25</ele><time>2026-03-22T08:04:28.651Z</time></trkpt><trkpt lat="43.6678217" lon="12.4851183"><ele>429.0</ele><time>2026-03-22T08:04:29.651Z</time></trkpt><trkpt lat="43.66785" lon="12.485315"><ele>426.75</ele><time>2026-03-22T08:04:30.651Z</time></trkpt><trkpt lat="43.667885" lon="12.4855"><ele>424.5</ele><time>2026-03-22T08:04:31.65Z</time></trkpt><trkpt lat="43.6679233" lon="12.485665"><ele>422.25</ele><time>2026-03-22T08:04:32.651Z</time></trkpt><trkpt lat="43.6679733" lon="12.4858067"><ele>420.0</ele><time>2026-03-22T08:04:33.651Z</time></trkpt><trkpt lat="43.6680433" lon="12.48594"><ele>420.0</ele><time>2026-03-22T08:04:34.65Z</time></trkpt><trkpt lat="43.66814" lon="12.48607"><ele>420.0</ele><time>2026-03-22T08:04:35.651Z</time></trkpt><trkpt lat="43.66825" lon="12.486205"><ele>420.0</ele><time>2026-03-22T08:04:36.652Z</time></trkpt><trkpt lat="43.6683583" lon="12.48634"><ele>420.0</ele><time>2026-03-22T08:04:37.65Z</time></trkpt><trkpt lat="43.66847" lon="12.4864583"><ele>421.2</ele><time>2026-03-22T08:04:38.65Z</time></trkpt><trkpt lat="43.668565" lon="12.4865567"><ele>422.4</ele><time>2026-03-22T08:04:39.65Z</time></trkpt><trkpt lat="43.66864" lon="12.4866583"><ele>423.6</ele><time>2026-03-22T08:04:40.654Z</time></trkpt><trkpt lat="43.6687" lon="12.4867717"><ele>424.8</ele><time>2026-03-22T08:04:41.655Z</time></trkpt><trkpt lat="43.66875" lon="12.48692"><ele>426.0</ele><time>2026-03-22T08:04:42.655Z</time></trkpt><trkpt lat="43.6688067" lon="12.4870883"><ele>421.25</ele><time>2026-03-22T08:04:43.654Z</time></trkpt><trkpt lat="43.6688767" lon="12.4872583"><ele>416.5</ele><time>2026-03-22T08:04:44.654Z</time></trkpt><trkpt lat="43.6689467" lon="12.4874"><ele>411.75</ele><time>2026-03-22T08:04:45.654Z</time></trkpt><trkpt lat="43.66902" lon="12.487525"><ele>407.0</ele><time>2026-03-22T08:04:46.651Z</time></trkpt><trkpt lat="43.6690917" lon="12.487645"><ele>407.0</ele><time>2026-03-22T08:04:47.651Z</time></trkpt><trkpt lat="43.66916" lon="12.4877667"><ele>407.0</ele><time>2026-03-22T08:04:48.652Z</time></trkpt><trkpt lat="43.6692283" lon="12.487885"><ele>407.0</ele><time>2026-03-22T08:04:49.651Z</time></trkpt><trkpt lat="43.6692917" lon="12.487995"><ele>407.0</ele><time>2026-03-22T08:04:50.65Z</time></trkpt><trkpt lat="43.66934" lon="12.4880917"><ele>407.0</ele><time>2026-03-22T08:04:51.65Z</time></trkpt><trkpt lat="43.6693683" lon="12.4881733"><ele>407.20000000000005</ele><time>2026-03-22T08:04:52.65Z</time></trkpt><trkpt lat="43.6693583" lon="12.4883267"><ele>407.4</ele><time>2026-03-22T08:04:54.652Z</time></trkpt><trkpt lat="43.6693017" lon="12.4884017"><ele>407.6</ele><time>2026-03-22T08:04:55.652Z</time></trkpt><trkpt lat="43.6692267" lon="12.4884933"><ele>407.79999999999995</ele><time>2026-03-22T08:04:56.651Z</time></trkpt><trkpt lat="43.6691083" lon="12.4886083"><ele>408.0</ele><time>2026-03-22T08:04:57.652Z</time></trkpt><trkpt lat="43.6689933" lon="12.4887267"><ele>406.5</ele><time>2026-03-22T08:04:58.651Z</time></trkpt><trkpt lat="43.668885" lon="12.4888367"><ele>405.0</ele><time>2026-03-22T08:04:59.651Z</time></trkpt><trkpt lat="43.6687767" lon="12.4889517"><ele>403.5</ele><time>2026-03-22T08:05:00.652Z</time></trkpt><trkpt lat="43.6686533" lon="12.4890783"><ele>402.0</ele><time>2026-03-22T08:05:01.651Z</time></trkpt><trkpt lat="43.6685333" lon="12.4891983"><ele>405.0</ele><time>2026-03-22T08:05:02.651Z</time></trkpt><trkpt lat="43.668435" lon="12.4893083"><ele>408.0</ele><time>2026-03-22T08:05:03.651Z</time></trkpt><trkpt lat="43.668365" lon="12.4894333"><ele>411.0</ele><time>2026-03-22T08:05:04.654Z</time></trkpt><trkpt lat="43.668325" lon="12.4895783"><ele>414.0</ele><time>2026-03-22T08:05:05.65Z</time></trkpt><trkpt lat="43.6683067" lon="12.4897283"><ele>414.0</ele><time>2026-03-22T08:05:06.651Z</time></trkpt><trkpt lat="43.668285" lon="12.4898633"><ele>414.0</ele><time>2026-03-22T08:05:07.651Z</time></trkpt><trkpt lat="43.6682417" lon="12.489985"><ele>414.0</ele><time>2026-03-22T08:05:08.65Z</time></trkpt><trkpt lat="43.668175" lon="12.49011"><ele>414.0</ele><time>2026-03-22T08:05:09.651Z</time></trkpt><trkpt lat="43.6681033" lon="12.4902433"><ele>414.0</ele><time>2026-03-22T08:05:10.654Z</time></trkpt><trkpt lat="43.6680533" lon="12.4903833"><ele>413.0</ele><time>2026-03-22T08:05:11.654Z</time></trkpt><trkpt lat="43.66803" lon="12.4905483"><ele>412.0</ele><time>2026-03-22T08:05:12.654Z</time></trkpt><trkpt lat="43.6680267" lon="12.4907367"><ele>411.0</ele><time>2026-03-22T08:05:13.655Z</time></trkpt><trkpt lat="43.668045" lon="12.4909267"><ele>410.0</ele><time>2026-03-22T08:05:14.654Z</time></trkpt><trkpt lat="43.6680867" lon="12.491105"><ele>410.0</ele><time>2026-03-22T08:05:15.654Z</time></trkpt><trkpt lat="43.6681517" lon="12.4912733"><ele>410.0</ele><time>2026-03-22T08:05:16.651Z</time></trkpt><trkpt lat="43.66824" lon="12.49144"><ele>410.0</ele><time>2026-03-22T08:05:17.651Z</time></trkpt><trkpt lat="43.6683367" lon="12.4916"><ele>410.0</ele><time>2026-03-22T08:05:18.651Z</time></trkpt><trkpt lat="43.66843" lon="12.491755"><ele>410.0</ele><time>2026-03-22T08:05:19.654Z</time></trkpt><trkpt lat="43.6685133" lon="12.4919217"><ele>410.0</ele><time>2026-03-22T08:05:20.651Z</time></trkpt><trkpt lat="43.6685933" lon="12.4921217"><ele>410.0</ele><time>2026-03-22T08:05:21.651Z</time></trkpt><trkpt lat="43.66868" lon="12.49233"><ele>407.3333333333333</ele><time>2026-03-22T08:05:22.651Z</time></trkpt><trkpt lat="43.6687833" lon="12.4925383"><ele>404.66666666666663</ele><time>2026-03-22T08:05:23.653Z</time></trkpt><trkpt lat="43.6688883" lon="12.4927283"><ele>402.0</ele><time>2026-03-22T08:05:24.654Z</time></trkpt><trkpt lat="43.6689833" lon="12.49289"><ele>404.33333333333337</ele><time>2026-03-22T08:05:25.655Z</time></trkpt><trkpt lat="43.6690617" lon="12.4930567"><ele>406.6666666666667</ele><time>2026-03-22T08:05:26.654Z</time></trkpt><trkpt lat="43.6691433" lon="12.4932383"><ele>409.0</ele><time>2026-03-22T08:05:27.651Z</time></trkpt><trkpt lat="43.6692317" lon="12.4934183"><ele>409.0</ele><time>2026-03-22T08:05:28.65Z</time></trkpt><trkpt lat="43.6693183" lon="12.4935933"><ele>409.0</ele><time>2026-03-22T08:05:29.65Z</time></trkpt><trkpt lat="43.6694017" lon="12.4937583"><ele>409.0</ele><time>2026-03-22T08:05:30.651Z</time></trkpt><trkpt lat="43.6694817" lon="12.4939267"><ele>409.0</ele><time>2026-03-22T08:05:31.651Z</time></trkpt><trkpt lat="43.6695667" lon="12.4940967"><ele>404.33333333333337</ele><time>2026-03-22T08:05:32.65Z</time></trkpt><trkpt lat="43.6696633" lon="12.4942633"><ele>399.66666666666663</ele><time>2026-03-22T08:05:33.651Z</time></trkpt><trkpt lat="43.6697617" lon="12.4944233"><ele>395.0</ele><time>2026-03-22T08:05:34.651Z</time></trkpt><trkpt lat="43.6698517" lon="12.4945783"><ele>395.5</ele><time>2026-03-22T08:05:35.651Z</time></trkpt><trkpt lat="43.6699333" lon="12.4947333"><ele>396.0</ele><time>2026-03-22T08:05:36.653Z</time></trkpt><trkpt lat="43.6700117" lon="12.4948867"><ele>396.5</ele><time>2026-03-22T08:05:37.651Z</time></trkpt><trkpt lat="43.670085" lon="12.4950433"><ele>397.0</ele><time>2026-03-22T08:05:38.651Z</time></trkpt><trkpt lat="43.67015" lon="12.49521"><ele>397.0</ele><time>2026-03-22T08:05:39.65Z</time></trkpt><trkpt lat="43.6702183" lon="12.4953917"><ele>397.0</ele><time>2026-03-22T08:05:40.655Z</time></trkpt><trkpt lat="43.6702967" lon="12.4955783"><ele>397.0</ele><time>2026-03-22T08:05:41.655Z</time></trkpt><trkpt lat="43.6703767" lon="12.4957717"><ele>394.33333333333337</ele><time>2026-03-22T08:05:42.654Z</time></trkpt><trkpt lat="43.6704583" lon="12.495965"><ele>391.66666666666663</ele><time>2026-03-22T08:05:43.654Z</time></trkpt><trkpt lat="43.670545" lon="12.4961483"><ele>389.0</ele><time>2026-03-22T08:05:44.655Z</time></trkpt><trkpt lat="43.6706233" lon="12.496315"><ele>389.0</ele><time>2026-03-22T08:05:45.655Z</time></trkpt><trkpt lat="43.670685" lon="12.49647"><ele>389.0</ele><time>2026-03-22T08:05:46.65Z</time></trkpt><trkpt lat="43.67074" lon="12.4966333"><ele>389.0</ele><time>2026-03-22T08:05:47.65Z</time></trkpt><trkpt lat="43.670785" lon="12.49682"><ele>389.0</ele><time>2026-03-22T08:05:48.65Z</time></trkpt><trkpt lat="43.6708217" lon="12.497045"><ele>385.3333333333333</ele><time>2026-03-22T08:05:49.652Z</time></trkpt><trkpt lat="43.670855" lon="12.497285"><ele>381.66666666666663</ele><time>2026-03-22T08:05:50.651Z</time></trkpt><trkpt lat="43.6708867" lon="12.497525"><ele>378.0</ele><time>2026-03-22T08:05:51.652Z</time></trkpt><trkpt lat="43.6709183" lon="12.49775"><ele>376.25</ele><time>2026-03-22T08:05:52.65Z</time></trkpt><trkpt lat="43.6709517" lon="12.4979583"><ele>374.5</ele><time>2026-03-22T08:05:53.654Z</time></trkpt><trkpt lat="43.6709883" lon="12.4981433"><ele>372.75</ele><time>2026-03-22T08:05:54.656Z</time></trkpt><trkpt lat="43.671045" lon="12.4983083"><ele>371.0</ele><time>2026-03-22T08:05:55.657Z</time></trkpt><trkpt lat="43.671125" lon="12.498465"><ele>370.33333333333337</ele><time>2026-03-22T08:05:56.655Z</time></trkpt><trkpt lat="43.671235" lon="12.4986283"><ele>369.6666666666667</ele><time>2026-03-22T08:05:57.652Z</time></trkpt><trkpt lat="43.6713617" lon="12.4987967"><ele>369.0</ele><time>2026-03-22T08:05:58.651Z</time></trkpt><trkpt lat="43.6714933" lon="12.4989583"><ele>369.0</ele><time>2026-03-22T08:05:59.65Z</time></trkpt><trkpt lat="43.6716183" lon="12.499105"><ele>369.0</ele><time>2026-03-22T08:06:00.651Z</time></trkpt><trkpt lat="43.67174" lon="12.4992383"><ele>369.0</ele><time>2026-03-22T08:06:01.65Z</time></trkpt><trkpt lat="43.6718567" lon="12.499355"><ele>368.75</ele><time>2026-03-22T08:06:02.65Z</time></trkpt><trkpt lat="43.67197" lon="12.4994633"><ele>368.5</ele><time>2026-03-22T08:06:03.65Z</time></trkpt><trkpt lat="43.672085" lon="12.4995567"><ele>368.25</ele><time>2026-03-22T08:06:04.655Z</time></trkpt><trkpt lat="43.6722067" lon="12.4996433"><ele>368.0</ele><time>2026-03-22T08:06:05.655Z</time></trkpt><trkpt lat="43.6723183" lon="12.4997333"><ele>368.0</ele><time>2026-03-22T08:06:06.651Z</time></trkpt><trkpt lat="43.6724167" lon="12.4998217"><ele>368.0</ele><time>2026-03-22T08:06:07.655Z</time></trkpt><trkpt lat="43.6724967" lon="12.4999133"><ele>368.0</ele><time>2026-03-22T08:06:08.65Z</time></trkpt><trkpt lat="43.67256" lon="12.500015"><ele>368.0</ele><time>2026-03-22T08:06:09.651Z</time></trkpt><trkpt lat="43.6726067" lon="12.5001283"><ele>368.0</ele><time>2026-03-22T08:06:10.654Z</time></trkpt><trkpt lat="43.67263" lon="12.5002583"><ele>368.0</ele><time>2026-03-22T08:06:11.655Z</time></trkpt><trkpt lat="43.6726283" lon="12.5003867"><ele>368.0</ele><time>2026-03-22T08:06:12.654Z</time></trkpt><trkpt lat="43.6726033" lon="12.5005133"><ele>368.0</ele><time>2026-03-22T08:06:13.654Z</time></trkpt><trkpt lat="43.6725683" lon="12.500635"><ele>368.0</ele><time>2026-03-22T08:06:14.654Z</time></trkpt><trkpt lat="43.6725333" lon="12.50075"><ele>368.0</ele><time>2026-03-22T08:06:15.655Z</time></trkpt><trkpt lat="43.6725183" lon="12.500865"><ele>366.0</ele><time>2026-03-22T08:06:16.655Z</time></trkpt><trkpt lat="43.6725233" lon="12.5009717"><ele>364.0</ele><time>2026-03-22T08:06:17.655Z</time></trkpt><trkpt lat="43.6725617" lon="12.5010617"><ele>362.0</ele><time>2026-03-22T08:06:18.654Z</time></trkpt><trkpt lat="43.6726317" lon="12.501125"><ele>360.0</ele><time>2026-03-22T08:06:19.654Z</time></trkpt><trkpt lat="43.67272" lon="12.5011583"><ele>358.0</ele><time>2026-03-22T08:06:20.658Z</time></trkpt><trkpt lat="43.672835" lon="12.50116"><ele>356.0</ele><time>2026-03-22T08:06:21.654Z</time></trkpt><trkpt lat="43.6729567" lon="12.5011467"><ele>354.8</ele><time>2026-03-22T08:06:22.654Z</time></trkpt><trkpt lat="43.6730717" lon="12.5011233"><ele>353.6</ele><time>2026-03-22T08:06:23.655Z</time></trkpt><trkpt lat="43.67317" lon="12.5010883"><ele>352.4</ele><time>2026-03-22T08:06:24.655Z</time></trkpt><trkpt lat="43.6732533" lon="12.5010417"><ele>351.2</ele><time>2026-03-22T08:06:25.654Z</time></trkpt><trkpt lat="43.6733267" lon="12.500985"><ele>350.0</ele><time>2026-03-22T08:06:26.655Z</time></trkpt><trkpt lat="43.6733967" lon="12.5009033"><ele>350.0</ele><time>2026-03-22T08:06:27.651Z</time></trkpt><trkpt lat="43.6734683" lon="12.500795"><ele>350.0</ele><time>2026-03-22T08:06:28.654Z</time></trkpt><trkpt lat="43.6735317" lon="12.500675"><ele>350.0</ele><time>2026-03-22T08:06:29.65Z</time></trkpt><trkpt lat="43.673585" lon="12.5005733"><ele>350.0</ele><time>2026-03-22T08:06:30.651Z</time></trkpt><trkpt lat="43.67364" lon="12.500495"><ele>350.0</ele><time>2026-03-22T08:06:31.651Z</time></trkpt><trkpt lat="43.6737017" lon="12.50045"><ele>347.2</ele><time>2026-03-22T08:06:32.651Z</time></trkpt><trkpt lat="43.6737717" lon="12.5004483"><ele>344.4</ele><time>2026-03-22T08:06:33.651Z</time></trkpt><trkpt lat="43.6738533" lon="12.500505"><ele>341.6</ele><time>2026-03-22T08:06:34.651Z</time></trkpt><trkpt lat="43.673945" lon="12.5005983"><ele>338.8</ele><time>2026-03-22T08:06:35.65Z</time></trkpt><trkpt lat="43.6740533" lon="12.50073"><ele>336.0</ele><time>2026-03-22T08:06:36.651Z</time></trkpt><trkpt lat="43.6741733" lon="12.50089"><ele>336.0</ele><time>2026-03-22T08:06:37.652Z</time></trkpt><trkpt lat="43.67428" lon="12.501045"><ele>336.0</ele><time>2026-03-22T08:06:38.65Z</time></trkpt><trkpt lat="43.6743683" lon="12.5011867"><ele>336.0</ele><time>2026-03-22T08:06:39.651Z</time></trkpt><trkpt lat="43.674445" lon="12.5013333"><ele>336.0</ele><time>2026-03-22T08:06:40.654Z</time></trkpt><trkpt lat="43.6745017" lon="12.5014883"><ele>333.75</ele><time>2026-03-22T08:06:41.655Z</time></trkpt><trkpt lat="43.6745383" lon="12.5016617"><ele>331.5</ele><time>2026-03-22T08:06:42.655Z</time></trkpt><trkpt lat="43.6745617" lon="12.50186"><ele>329.25</ele><time>2026-03-22T08:06:43.653Z</time></trkpt><trkpt lat="43.674585" lon="12.50206"><ele>327.0</ele><time>2026-03-22T08:06:44.655Z</time></trkpt><trkpt lat="43.6746233" lon="12.5022383"><ele>327.0</ele><time>2026-03-22T08:06:45.655Z</time></trkpt><trkpt lat="43.6746883" lon="12.5024033"><ele>327.0</ele><time>2026-03-22T08:06:46.654Z</time></trkpt><trkpt lat="43.6747767" lon="12.50257"><ele>327.0</ele><time>2026-03-22T08:06:47.654Z</time></trkpt><trkpt lat="43.6748733" lon="12.5027217"><ele>327.0</ele><time>2026-03-22T08:06:48.654Z</time></trkpt><trkpt lat="43.6749733" lon="12.5028567"><ele>325.6</ele><time>2026-03-22T08:06:49.655Z</time></trkpt><trkpt lat="43.67508" lon="12.5029767"><ele>324.20000000000005</ele><time>2026-03-22T08:06:50.654Z</time></trkpt><trkpt lat="43.675175" lon="12.5030783"><ele>322.8</ele><time>2026-03-22T08:06:51.655Z</time></trkpt><trkpt lat="43.6752517" lon="12.5031617"><ele>321.4</ele><time>2026-03-22T08:06:52.653Z</time></trkpt><trkpt lat="43.6753133" lon="12.5032383"><ele>320.0</ele><time>2026-03-22T08:06:53.655Z</time></trkpt><trkpt lat="43.6753567" lon="12.503315"><ele>320.0</ele><time>2026-03-22T08:06:54.655Z</time></trkpt><trkpt lat="43.675375" lon="12.5034067"><ele>320.0</ele><time>2026-03-22T08:06:55.655Z</time></trkpt><trkpt lat="43.67537" lon="12.503505"><ele>320.0</ele><time>2026-03-22T08:06:56.654Z</time></trkpt><trkpt lat="43.6753283" lon="12.503615"><ele>320.0</ele><time>2026-03-22T08:06:57.65Z</time></trkpt><trkpt lat="43.6752167" lon="12.50373"><ele>320.0</ele><time>2026-03-22T08:06:58.651Z</time></trkpt><trkpt lat="43.6750783" lon="12.50386"><ele>317.75</ele><time>2026-03-22T08:06:59.65Z</time></trkpt><trkpt lat="43.6749433" lon="12.503985"><ele>315.5</ele><time>2026-03-22T08:07:00.65Z</time></trkpt><trkpt lat="43.6748167" lon="12.504095"><ele>313.25</ele><time>2026-03-22T08:07:01.651Z</time></trkpt><trkpt lat="43.6746967" lon="12.50418"><ele>311.0</ele><time>2026-03-22T08:07:02.65Z</time></trkpt><trkpt lat="43.6745883" lon="12.5042417"><ele>311.0</ele><time>2026-03-22T08:07:03.651Z</time></trkpt><trkpt lat="43.6745" lon="12.504315"><ele>311.0</ele><time>2026-03-22T08:07:04.651Z</time></trkpt><trkpt lat="43.674435" lon="12.5044133"><ele>311.0</ele><time>2026-03-22T08:07:05.651Z</time></trkpt><trkpt lat="43.674385" lon="12.5045417"><ele>311.0</ele><time>2026-03-22T08:07:06.651Z</time></trkpt><trkpt lat="43.674345" lon="12.5047083"><ele>311.0</ele><time>2026-03-22T08:07:07.651Z</time></trkpt><trkpt lat="43.6743133" lon="12.5049083"><ele>309.25</ele><time>2026-03-22T08:07:08.651Z</time></trkpt><trkpt lat="43.6742867" lon="12.505125"><ele>307.5</ele><time>2026-03-22T08:07:09.65Z</time></trkpt><trkpt lat="43.6742767" lon="12.5053267"><ele>305.75</ele><time>2026-03-22T08:07:10.65Z</time></trkpt><trkpt lat="43.674285" lon="12.5055017"><ele>304.0</ele><time>2026-03-22T08:07:11.65Z</time></trkpt><trkpt lat="43.6743183" lon="12.5056567"><ele>304.75</ele><time>2026-03-22T08:07:12.651Z</time></trkpt><trkpt lat="43.6743817" lon="12.505805"><ele>305.5</ele><time>2026-03-22T08:07:13.65Z</time></trkpt><trkpt lat="43.6744783" lon="12.5059417"><ele>306.25</ele><time>2026-03-22T08:07:14.655Z</time></trkpt><trkpt lat="43.6745933" lon="12.5060633"><ele>307.0</ele><time>2026-03-22T08:07:15.654Z</time></trkpt><trkpt lat="43.6747067" lon="12.5061733"><ele>305.75</ele><time>2026-03-22T08:07:16.654Z</time></trkpt><trkpt lat="43.67481" lon="12.5062783"><ele>304.5</ele><time>2026-03-22T08:07:17.654Z</time></trkpt><trkpt lat="43.6749067" lon="12.5063767"><ele>303.25</ele><time>2026-03-22T08:07:18.654Z</time></trkpt><trkpt lat="43.675" lon="12.5064667"><ele>302.0</ele><time>2026-03-22T08:07:19.654Z</time></trkpt><trkpt lat="43.675085" lon="12.5065583"><ele>302.0</ele><time>2026-03-22T08:07:20.655Z</time></trkpt><trkpt lat="43.675175" lon="12.50664"><ele>302.0</ele><time>2026-03-22T08:07:21.655Z</time></trkpt><trkpt lat="43.675265" lon="12.50672"><ele>302.0</ele><time>2026-03-22T08:07:22.654Z</time></trkpt><trkpt lat="43.6753583" lon="12.5068017"><ele>302.0</ele><time>2026-03-22T08:07:23.654Z</time></trkpt><trkpt lat="43.675455" lon="12.5068867"><ele>302.0</ele><time>2026-03-22T08:07:24.654Z</time></trkpt><trkpt lat="43.6755533" lon="12.506975"><ele>302.0</ele><time>2026-03-22T08:07:25.655Z</time></trkpt><trkpt lat="43.6756517" lon="12.507065"><ele>302.0</ele><time>2026-03-22T08:07:26.654Z</time></trkpt><trkpt lat="43.6757517" lon="12.507155"><ele>302.0</ele><time>2026-03-22T08:07:27.65Z</time></trkpt><trkpt lat="43.6758533" lon="12.5072467"><ele>302.0</ele><time>2026-03-22T08:07:28.65Z</time></trkpt><trkpt lat="43.67595" lon="12.50734"><ele>301.6</ele><time>2026-03-22T08:07:29.652Z</time></trkpt><trkpt lat="43.67604" lon="12.5074317"><ele>301.2</ele><time>2026-03-22T08:07:30.651Z</time></trkpt><trkpt lat="43.676125" lon="12.5075167"><ele>300.8</ele><time>2026-03-22T08:07:31.652Z</time></trkpt><trkpt lat="43.6762083" lon="12.5075933"><ele>300.4</ele><time>2026-03-22T08:07:32.65Z</time></trkpt><trkpt lat="43.6762833" lon="12.5076633"><ele>300.0</ele><time>2026-03-22T08:07:33.651Z</time></trkpt><trkpt lat="43.6763467" lon="12.5077267"><ele>299.6666666666667</ele><time>2026-03-22T08:07:34.65Z</time></trkpt><trkpt lat="43.67643" lon="12.5078"><ele>299.3333333333333</ele><time>2026-03-22T08:07:36.65Z</time></trkpt><trkpt lat="43.6765017" lon="12.50773"><ele>299.0</ele><time>2026-03-22T08:07:50.654Z</time></trkpt><trkpt lat="43.6765117" lon="12.5076433"><ele>298.66666666666663</ele><time>2026-03-22T08:07:51.655Z</time></trkpt><trkpt lat="43.676515" lon="12.5075283"><ele>298.3333333333333</ele><time>2026-03-22T08:07:52.655Z</time></trkpt><trkpt lat="43.676525" lon="12.507395"><ele>298.0</ele><time>2026-03-22T08:07:53.655Z</time></trkpt><trkpt lat="43.676535" lon="12.5072317"><ele>298.25</ele><time>2026-03-22T08:07:54.656Z</time></trkpt><trkpt lat="43.6765467" lon="12.5070467"><ele>298.5</ele><time>2026-03-22T08:07:55.655Z</time></trkpt><trkpt lat="43.6765583" lon="12.5068467"><ele>298.75</ele><time>2026-03-22T08:07:56.655Z</time></trkpt><trkpt lat="43.6765717" lon="12.50663"><ele>299.0</ele><time>2026-03-22T08:07:57.652Z</time></trkpt><trkpt lat="43.676585" lon="12.5063933"><ele>299.6666666666667</ele><time>2026-03-22T08:07:58.652Z</time></trkpt><trkpt lat="43.6765983" lon="12.5061483"><ele>300.3333333333333</ele><time>2026-03-22T08:07:59.651Z</time></trkpt><trkpt lat="43.67661" lon="12.50589"><ele>301.0</ele><time>2026-03-22T08:08:00.65Z</time></trkpt><trkpt lat="43.6766217" lon="12.5056267"><ele>302.3333333333333</ele><time>2026-03-22T08:08:01.651Z</time></trkpt><trkpt lat="43.67663" lon="12.5053583"><ele>303.6666666666667</ele><time>2026-03-22T08:08:02.65Z</time></trkpt><trkpt lat="43.67663" lon="12.5050867"><ele>305.0</ele><time>2026-03-22T08:08:03.651Z</time></trkpt><trkpt lat="43.6766183" lon="12.5048083"><ele>305.33333333333337</ele><time>2026-03-22T08:08:04.654Z</time></trkpt><trkpt lat="43.6765883" lon="12.5045317"><ele>305.6666666666667</ele><time>2026-03-22T08:08:05.651Z</time></trkpt><trkpt lat="43.67654" lon="12.5042567"><ele>306.0</ele><time>2026-03-22T08:08:06.654Z</time></trkpt><trkpt lat="43.6764833" lon="12.503985"><ele>303.6666666666667</ele><time>2026-03-22T08:08:07.652Z</time></trkpt><trkpt lat="43.67643" lon="12.50371"><ele>301.33333333333337</ele><time>2026-03-22T08:08:08.65Z</time></trkpt><trkpt lat="43.6763817" lon="12.503435"><ele>299.0</ele><time>2026-03-22T08:08:09.652Z</time></trkpt><trkpt lat="43.6763417" lon="12.5031567"><ele>297.6666666666667</ele><time>2026-03-22T08:08:10.655Z</time></trkpt><trkpt lat="43.6763083" lon="12.5028767"><ele>296.3333333333333</ele><time>2026-03-22T08:08:11.655Z</time></trkpt><trkpt lat="43.6762867" lon="12.5026"><ele>295.0</ele><time>2026-03-22T08:08:12.654Z</time></trkpt><trkpt lat="43.6762867" lon="12.5023283"><ele>295.66666666666663</ele><time>2026-03-22T08:08:13.655Z</time></trkpt><trkpt lat="43.6763017" lon="12.5020567"><ele>296.3333333333333</ele><time>2026-03-22T08:08:14.654Z</time></trkpt><trkpt lat="43.6763217" lon="12.501785"><ele>297.0</ele><time>2026-03-22T08:08:15.655Z</time></trkpt><trkpt lat="43.676345" lon="12.5015133"><ele>298.6666666666667</ele><time>2026-03-22T08:08:16.655Z</time></trkpt><trkpt lat="43.676365" lon="12.5012483"><ele>300.33333333333337</ele><time>2026-03-22T08:08:17.654Z</time></trkpt><trkpt lat="43.6763883" lon="12.5009867"><ele>302.0</ele><time>2026-03-22T08:08:18.654Z</time></trkpt><trkpt lat="43.6764367" lon="12.5007267"><ele>302.0</ele><time>2026-03-22T08:08:19.654Z</time></trkpt><trkpt lat="43.6765167" lon="12.5004783"><ele>302.0</ele><time>2026-03-22T08:08:20.655Z</time></trkpt><trkpt lat="43.6766217" lon="12.5002383"><ele>302.0</ele><time>2026-03-22T08:08:21.654Z</time></trkpt><trkpt lat="43.676755" lon="12.5000067"><ele>305.0</ele><time>2026-03-22T08:08:22.655Z</time></trkpt><trkpt lat="43.6768983" lon="12.4997717"><ele>308.0</ele><time>2026-03-22T08:08:23.654Z</time></trkpt><trkpt lat="43.6770467" lon="12.4995317"><ele>308.0</ele><time>2026-03-22T08:08:24.651Z</time></trkpt><trkpt lat="43.6771883" lon="12.4992917"><ele>308.0</ele><time>2026-03-22T08:08:25.654Z</time></trkpt><trkpt lat="43.67732" lon="12.499055"><ele>308.0</ele><time>2026-03-22T08:08:26.655Z</time></trkpt><trkpt lat="43.677435" lon="12.498805"><ele>308.33333333333337</ele><time>2026-03-22T08:08:27.65Z</time></trkpt><trkpt lat="43.6775283" lon="12.4985267"><ele>308.6666666666667</ele><time>2026-03-22T08:08:28.652Z</time></trkpt><trkpt lat="43.6776033" lon="12.4982383"><ele>309.0</ele><time>2026-03-22T08:08:29.654Z</time></trkpt><trkpt lat="43.677655" lon="12.4979383"><ele>309.3333333333333</ele><time>2026-03-22T08:08:30.652Z</time></trkpt><trkpt lat="43.6776967" lon="12.49764"><ele>309.66666666666663</ele><time>2026-03-22T08:08:31.651Z</time></trkpt><trkpt lat="43.677735" lon="12.4973433"><ele>310.0</ele><time>2026-03-22T08:08:32.655Z</time></trkpt><trkpt lat="43.6777683" lon="12.4970567"><ele>308.3333333333333</ele><time>2026-03-22T08:08:33.65Z</time></trkpt><trkpt lat="43.6778033" lon="12.4967783"><ele>306.6666666666667</ele><time>2026-03-22T08:08:34.651Z</time></trkpt><trkpt lat="43.6778383" lon="12.4965067"><ele>305.0</ele><time>2026-03-22T08:08:35.65Z</time></trkpt><trkpt lat="43.6778733" lon="12.49623"><ele>305.0</ele><time>2026-03-22T08:08:36.651Z</time></trkpt><trkpt lat="43.6779067" lon="12.4959517"><ele>305.0</ele><time>2026-03-22T08:08:37.654Z</time></trkpt><trkpt lat="43.6779383" lon="12.4956717"><ele>305.0</ele><time>2026-03-22T08:08:38.655Z</time></trkpt><trkpt lat="43.6779733" lon="12.4953933"><ele>305.0</ele><time>2026-03-22T08:08:39.654Z</time></trkpt><trkpt lat="43.6780083" lon="12.4951183"><ele>305.0</ele><time>2026-03-22T08:08:40.655Z</time></trkpt><trkpt lat="43.6780417" lon="12.494845"><ele>305.0</ele><time>2026-03-22T08:08:41.654Z</time></trkpt><trkpt lat="43.6780767" lon="12.4945733"><ele>305.0</ele><time>2026-03-22T08:08:42.655Z</time></trkpt><trkpt lat="43.6781117" lon="12.4943"><ele>305.0</ele><time>2026-03-22T08:08:43.655Z</time></trkpt><trkpt lat="43.6781433" lon="12.494035"><ele>305.0</ele><time>2026-03-22T08:08:44.654Z</time></trkpt><trkpt lat="43.6781683" lon="12.4937867"><ele>304.5</ele><time>2026-03-22T08:08:45.654Z</time></trkpt><trkpt lat="43.6781933" lon="12.4935617"><ele>304.0</ele><time>2026-03-22T08:08:46.654Z</time></trkpt><trkpt lat="43.6782117" lon="12.4933633"><ele>303.5</ele><time>2026-03-22T08:08:47.655Z</time></trkpt><trkpt lat="43.6782283" lon="12.4931833"><ele>303.0</ele><time>2026-03-22T08:08:48.655Z</time></trkpt><trkpt lat="43.6782467" lon="12.4930117"><ele>303.25</ele><time>2026-03-22T08:08:49.654Z</time></trkpt><trkpt lat="43.6782667" lon="12.492835"><ele>303.5</ele><time>2026-03-22T08:08:50.655Z</time></trkpt><trkpt lat="43.6782933" lon="12.492655"><ele>303.75</ele><time>2026-03-22T08:08:51.655Z</time></trkpt><trkpt lat="43.6783233" lon="12.4924633"><ele>304.0</ele><time>2026-03-22T08:08:52.654Z</time></trkpt><trkpt lat="43.67835" lon="12.4922483"><ele>304.3333333333333</ele><time>2026-03-22T08:08:53.654Z</time></trkpt><trkpt lat="43.6783783" lon="12.4920083"><ele>304.6666666666667</ele><time>2026-03-22T08:08:54.654Z</time></trkpt><trkpt lat="43.67841" lon="12.4917433"><ele>305.0</ele><time>2026-03-22T08:08:55.653Z</time></trkpt><trkpt lat="43.67844" lon="12.4914633"><ele>303.6666666666667</ele><time>2026-03-22T08:08:56.655Z</time></trkpt><trkpt lat="43.67847" lon="12.4911767"><ele>302.3333333333333</ele><time>2026-03-22T08:08:57.654Z</time></trkpt><trkpt lat="43.6785017" lon="12.4908767"><ele>301.0</ele><time>2026-03-22T08:08:58.654Z</time></trkpt><trkpt lat="43.678535" lon="12.4905683"><ele>300.0</ele><time>2026-03-22T08:08:59.654Z</time></trkpt><trkpt lat="43.6785683" lon="12.4902567"><ele>299.0</ele><time>2026-03-22T08:09:00.653Z</time></trkpt><trkpt lat="43.6786" lon="12.4899417"><ele>298.5</ele><time>2026-03-22T08:09:01.653Z</time></trkpt><trkpt lat="43.678635" lon="12.4896267"><ele>298.0</ele><time>2026-03-22T08:09:02.655Z</time></trkpt><trkpt lat="43.6786717" lon="12.4893117"><ele>299.5</ele><time>2026-03-22T08:09:03.653Z</time></trkpt><trkpt lat="43.67871" lon="12.4890033"><ele>301.0</ele><time>2026-03-22T08:09:04.655Z</time></trkpt><trkpt lat="43.6787483" lon="12.488695"><ele>303.0</ele><time>2026-03-22T08:09:05.655Z</time></trkpt><trkpt lat="43.6787817" lon="12.4883833"><ele>305.0</ele><time>2026-03-22T08:09:06.654Z</time></trkpt><trkpt lat="43.6788183" lon="12.4880767"><ele>305.33333333333337</ele><time>2026-03-22T08:09:07.654Z</time></trkpt><trkpt lat="43.6788533" lon="12.4877767"><ele>305.6666666666667</ele><time>2026-03-22T08:09:08.655Z</time></trkpt><trkpt lat="43.6788883" lon="12.4874783"><ele>306.0</ele><time>2026-03-22T08:09:09.654Z</time></trkpt><trkpt lat="43.67892" lon="12.48718"><ele>305.6666666666667</ele><time>2026-03-22T08:09:10.654Z</time></trkpt><trkpt lat="43.6789517" lon="12.4868817"><ele>305.33333333333337</ele><time>2026-03-22T08:09:11.654Z</time></trkpt><trkpt lat="43.678985" lon="12.486595"><ele>305.0</ele><time>2026-03-22T08:09:12.65Z</time></trkpt><trkpt lat="43.6790167" lon="12.4863067"><ele>304.6666666666667</ele><time>2026-03-22T08:09:13.655Z</time></trkpt><trkpt lat="43.679035" lon="12.4860183"><ele>304.3333333333333</ele><time>2026-03-22T08:09:14.656Z</time></trkpt><trkpt lat="43.6790367" lon="12.4857317"><ele>304.0</ele><time>2026-03-22T08:09:15.654Z</time></trkpt><trkpt lat="43.6790167" lon="12.4854333"><ele>304.66666666666663</ele><time>2026-03-22T08:09:16.654Z</time></trkpt><trkpt lat="43.67898" lon="12.4851333"><ele>305.3333333333333</ele><time>2026-03-22T08:09:17.657Z</time></trkpt><trkpt lat="43.678925" lon="12.484835"><ele>306.0</ele><time>2026-03-22T08:09:18.655Z</time></trkpt><trkpt lat="43.678855" lon="12.4845367"><ele>306.0</ele><time>2026-03-22T08:09:19.655Z</time></trkpt><trkpt lat="43.67877" lon="12.484245"><ele>306.0</ele><time>2026-03-22T08:09:20.654Z</time></trkpt><trkpt lat="43.67868" lon="12.48395"><ele>306.0</ele><time>2026-03-22T08:09:21.655Z</time></trkpt><trkpt lat="43.67859" lon="12.4836517"><ele>306.0</ele><time>2026-03-22T08:09:22.653Z</time></trkpt><trkpt lat="43.6785017" lon="12.4833533"><ele>306.0</ele><time>2026-03-22T08:09:23.655Z</time></trkpt><trkpt lat="43.6784133" lon="12.4830583"><ele>306.0</ele><time>2026-03-22T08:09:24.655Z</time></trkpt><trkpt lat="43.6783267" lon="12.4827633"><ele>307.0</ele><time>2026-03-22T08:09:25.653Z</time></trkpt><trkpt lat="43.6782383" lon="12.48247"><ele>308.0</ele><time>2026-03-22T08:09:26.654Z</time></trkpt><trkpt lat="43.67815" lon="12.4821767"><ele>308.5</ele><time>2026-03-22T08:09:27.654Z</time></trkpt><trkpt lat="43.6780633" lon="12.4818817"><ele>309.0</ele><time>2026-03-22T08:09:28.654Z</time></trkpt><trkpt lat="43.6779817" lon="12.4815833"><ele>309.0</ele><time>2026-03-22T08:09:29.655Z</time></trkpt><trkpt lat="43.677915" lon="12.4812783"><ele>309.0</ele><time>2026-03-22T08:09:30.653Z</time></trkpt><trkpt lat="43.6778717" lon="12.4809667"><ele>308.5</ele><time>2026-03-22T08:09:31.654Z</time></trkpt><trkpt lat="43.6778533" lon="12.480645"><ele>308.0</ele><time>2026-03-22T08:09:32.655Z</time></trkpt><trkpt lat="43.677845" lon="12.4803183"><ele>307.5</ele><time>2026-03-22T08:09:33.654Z</time></trkpt><trkpt lat="43.6778383" lon="12.4799933"><ele>307.0</ele><time>2026-03-22T08:09:34.654Z</time></trkpt><trkpt lat="43.6778317" lon="12.4796717"><ele>306.5</ele><time>2026-03-22T08:09:35.654Z</time></trkpt><trkpt lat="43.6778233" lon="12.4793467"><ele>306.0</ele><time>2026-03-22T08:09:36.654Z</time></trkpt><trkpt lat="43.6778133" lon="12.47902"><ele>304.5</ele><time>2026-03-22T08:09:37.654Z</time></trkpt><trkpt lat="43.677805" lon="12.4786967"><ele>303.0</ele><time>2026-03-22T08:09:38.653Z</time></trkpt><trkpt lat="43.677795" lon="12.4783683"><ele>303.0</ele><time>2026-03-22T08:09:39.655Z</time></trkpt><trkpt lat="43.6777833" lon="12.47804"><ele>303.0</ele><time>2026-03-22T08:09:40.654Z</time></trkpt><trkpt lat="43.677775" lon="12.4777117"><ele>305.5</ele><time>2026-03-22T08:09:41.654Z</time></trkpt><trkpt lat="43.6777667" lon="12.4773867"><ele>308.0</ele><time>2026-03-22T08:09:42.655Z</time></trkpt><trkpt lat="43.67776" lon="12.47706"><ele>309.0</ele><time>2026-03-22T08:09:43.654Z</time></trkpt><trkpt lat="43.6777517" lon="12.4767367"><ele>310.0</ele><time>2026-03-22T08:09:44.654Z</time></trkpt><trkpt lat="43.6777483" lon="12.4764167"><ele>310.0</ele><time>2026-03-22T08:09:45.654Z</time></trkpt><trkpt lat="43.6777417" lon="12.4760983"><ele>310.0</ele><time>2026-03-22T08:09:46.651Z</time></trkpt><trkpt lat="43.6777333" lon="12.47578"><ele>310.0</ele><time>2026-03-22T08:09:47.652Z</time></trkpt><trkpt lat="43.6777267" lon="12.4754667"><ele>310.0</ele><time>2026-03-22T08:09:48.651Z</time></trkpt><trkpt lat="43.6777183" lon="12.4751517"><ele>310.5</ele><time>2026-03-22T08:09:49.652Z</time></trkpt><trkpt lat="43.6777117" lon="12.4748367"><ele>311.0</ele><time>2026-03-22T08:09:50.651Z</time></trkpt><trkpt lat="43.6777033" lon="12.4745233"><ele>311.0</ele><time>2026-03-22T08:09:51.651Z</time></trkpt><trkpt lat="43.6776933" lon="12.4742117"><ele>311.0</ele><time>2026-03-22T08:09:52.65Z</time></trkpt><trkpt lat="43.6776833" lon="12.4738983"><ele>312.0</ele><time>2026-03-22T08:09:53.654Z</time></trkpt><trkpt lat="43.6776783" lon="12.4735867"><ele>313.0</ele><time>2026-03-22T08:09:54.653Z</time></trkpt><trkpt lat="43.6776717" lon="12.4732717"><ele>313.0</ele><time>2026-03-22T08:09:55.654Z</time></trkpt><trkpt lat="43.677665" lon="12.4729567"><ele>313.0</ele><time>2026-03-22T08:09:56.654Z</time></trkpt><trkpt lat="43.67766" lon="12.4726417"><ele>312.0</ele><time>2026-03-22T08:09:57.655Z</time></trkpt><trkpt lat="43.6776517" lon="12.472325"><ele>311.0</ele><time>2026-03-22T08:09:58.653Z</time></trkpt><trkpt lat="43.6776433" lon="12.4720083"><ele>310.5</ele><time>2026-03-22T08:09:59.654Z</time></trkpt><trkpt lat="43.6776367" lon="12.4716933"><ele>310.0</ele><time>2026-03-22T08:10:00.654Z</time></trkpt><trkpt lat="43.6776317" lon="12.4713833"><ele>309.3333333333333</ele><time>2026-03-22T08:10:01.654Z</time></trkpt><trkpt lat="43.67763" lon="12.471085"><ele>308.6666666666667</ele><time>2026-03-22T08:10:02.654Z</time></trkpt><trkpt lat="43.6776267" lon="12.4707917"><ele>308.0</ele><time>2026-03-22T08:10:03.654Z</time></trkpt><trkpt lat="43.6776383" lon="12.4705"><ele>306.0</ele><time>2026-03-22T08:10:04.651Z</time></trkpt><trkpt lat="43.6776767" lon="12.4702117"><ele>304.0</ele><time>2026-03-22T08:10:05.653Z</time></trkpt><trkpt lat="43.67774" lon="12.469925"><ele>302.0</ele><time>2026-03-22T08:10:06.65Z</time></trkpt><trkpt lat="43.6778183" lon="12.46964"><ele>302.0</ele><time>2026-03-22T08:10:07.653Z</time></trkpt><trkpt lat="43.6779" lon="12.469355"><ele>302.0</ele><time>2026-03-22T08:10:08.65Z</time></trkpt><trkpt lat="43.6779783" lon="12.4690783"><ele>302.0</ele><time>2026-03-22T08:10:09.65Z</time></trkpt><trkpt lat="43.6780467" lon="12.468805"><ele>304.6666666666667</ele><time>2026-03-22T08:10:10.655Z</time></trkpt><trkpt lat="43.6780967" lon="12.46853"><ele>307.3333333333333</ele><time>2026-03-22T08:10:11.654Z</time></trkpt><trkpt lat="43.6781333" lon="12.4682533"><ele>310.0</ele><time>2026-03-22T08:10:12.654Z</time></trkpt><trkpt lat="43.67815" lon="12.4679717"><ele>311.0</ele><time>2026-03-22T08:10:13.652Z</time></trkpt><trkpt lat="43.678145" lon="12.4676967"><ele>312.0</ele><time>2026-03-22T08:10:14.65Z</time></trkpt><trkpt lat="43.6781233" lon="12.46743"><ele>313.0</ele><time>2026-03-22T08:10:15.655Z</time></trkpt><trkpt lat="43.6780783" lon="12.4671617"><ele>313.66666666666663</ele><time>2026-03-22T08:10:16.651Z</time></trkpt><trkpt lat="43.6780133" lon="12.4668933"><ele>314.3333333333333</ele><time>2026-03-22T08:10:17.651Z</time></trkpt><trkpt lat="43.6779317" lon="12.466625"><ele>315.0</ele><time>2026-03-22T08:10:18.65Z</time></trkpt><trkpt lat="43.67784" lon="12.4663483"><ele>316.0</ele><time>2026-03-22T08:10:19.65Z</time></trkpt><trkpt lat="43.6777483" lon="12.46607"><ele>317.0</ele><time>2026-03-22T08:10:20.651Z</time></trkpt><trkpt lat="43.677655" lon="12.4657967"><ele>318.0</ele><time>2026-03-22T08:10:21.65Z</time></trkpt><trkpt lat="43.6775567" lon="12.465525"><ele>318.6666666666667</ele><time>2026-03-22T08:10:22.65Z</time></trkpt><trkpt lat="43.67746" lon="12.465255"><ele>319.33333333333337</ele><time>2026-03-22T08:10:23.653Z</time></trkpt><trkpt lat="43.677365" lon="12.4649833"><ele>320.0</ele><time>2026-03-22T08:10:24.655Z</time></trkpt><trkpt lat="43.67727" lon="12.4647117"><ele>319.6666666666667</ele><time>2026-03-22T08:10:25.653Z</time></trkpt><trkpt lat="43.677175" lon="12.464435"><ele>319.3333333333333</ele><time>2026-03-22T08:10:26.653Z</time></trkpt><trkpt lat="43.6770783" lon="12.4641617"><ele>319.0</ele><time>2026-03-22T08:10:27.654Z</time></trkpt><trkpt lat="43.6769817" lon="12.463885"><ele>319.3333333333333</ele><time>2026-03-22T08:10:28.654Z</time></trkpt><trkpt lat="43.6768833" lon="12.463615"><ele>319.6666666666667</ele><time>2026-03-22T08:10:29.655Z</time></trkpt><trkpt lat="43.6767883" lon="12.4633483"><ele>320.0</ele><time>2026-03-22T08:10:30.654Z</time></trkpt><trkpt lat="43.6766933" lon="12.4630833"><ele>320.33333333333337</ele><time>2026-03-22T08:10:31.655Z</time></trkpt><trkpt lat="43.6766" lon="12.4628183"><ele>320.6666666666667</ele><time>2026-03-22T08:10:32.655Z</time></trkpt><trkpt lat="43.6765083" lon="12.4625533"><ele>321.0</ele><time>2026-03-22T08:10:33.654Z</time></trkpt><trkpt lat="43.676425" lon="12.4622867"><ele>321.3333333333333</ele><time>2026-03-22T08:10:34.654Z</time></trkpt><trkpt lat="43.67635" lon="12.4620167"><ele>321.66666666666663</ele><time>2026-03-22T08:10:35.653Z</time></trkpt><trkpt lat="43.6762883" lon="12.4617333"><ele>322.0</ele><time>2026-03-22T08:10:36.655Z</time></trkpt><trkpt lat="43.6762367" lon="12.461445"><ele>323.0</ele><time>2026-03-22T08:10:37.655Z</time></trkpt><trkpt lat="43.6761933" lon="12.461155"><ele>324.0</ele><time>2026-03-22T08:10:38.655Z</time></trkpt><trkpt lat="43.6761517" lon="12.460865"><ele>325.0</ele><time>2026-03-22T08:10:39.653Z</time></trkpt><trkpt lat="43.676105" lon="12.4605783"><ele>324.0</ele><time>2026-03-22T08:10:40.656Z</time></trkpt><trkpt lat="43.6760517" lon="12.4602917"><ele>323.0</ele><time>2026-03-22T08:10:41.655Z</time></trkpt><trkpt lat="43.6759833" lon="12.46001"><ele>322.0</ele><time>2026-03-22T08:10:42.655Z</time></trkpt><trkpt lat="43.6759033" lon="12.4597283"><ele>322.3333333333333</ele><time>2026-03-22T08:10:43.654Z</time></trkpt><trkpt lat="43.6758167" lon="12.45945"><ele>322.6666666666667</ele><time>2026-03-22T08:10:44.651Z</time></trkpt><trkpt lat="43.6757317" lon="12.45918"><ele>323.0</ele><time>2026-03-22T08:10:45.654Z</time></trkpt><trkpt lat="43.6756483" lon="12.458915"><ele>323.0</ele><time>2026-03-22T08:10:46.651Z</time></trkpt><trkpt lat="43.6755633" lon="12.4586517"><ele>323.0</ele><time>2026-03-22T08:10:47.651Z</time></trkpt><trkpt lat="43.6754783" lon="12.4583917"><ele>323.0</ele><time>2026-03-22T08:10:48.651Z</time></trkpt><trkpt lat="43.6753917" lon="12.4581317"><ele>323.33333333333337</ele><time>2026-03-22T08:10:49.651Z</time></trkpt><trkpt lat="43.675305" lon="12.4578733"><ele>323.6666666666667</ele><time>2026-03-22T08:10:50.652Z</time></trkpt><trkpt lat="43.6752217" lon="12.4576133"><ele>324.0</ele><time>2026-03-22T08:10:51.652Z</time></trkpt><trkpt lat="43.6751417" lon="12.4573567"><ele>324.0</ele><time>2026-03-22T08:10:52.652Z</time></trkpt><trkpt lat="43.67506" lon="12.4571033"><ele>324.0</ele><time>2026-03-22T08:10:53.653Z</time></trkpt><trkpt lat="43.6749783" lon="12.45685"><ele>324.0</ele><time>2026-03-22T08:10:54.654Z</time></trkpt><trkpt lat="43.6748967" lon="12.456595"><ele>324.0</ele><time>2026-03-22T08:10:55.656Z</time></trkpt><trkpt lat="43.674815" lon="12.45634"><ele>324.0</ele><time>2026-03-22T08:10:56.654Z</time></trkpt><trkpt lat="43.6747333" lon="12.4560867"><ele>324.0</ele><time>2026-03-22T08:10:57.653Z</time></trkpt><trkpt lat="43.6746517" lon="12.4558317"><ele>324.6666666666667</ele><time>2026-03-22T08:10:58.654Z</time></trkpt><trkpt lat="43.6745717" lon="12.4555767"><ele>325.33333333333337</ele><time>2026-03-22T08:10:59.654Z</time></trkpt><trkpt lat="43.67449" lon="12.4553183"><ele>326.0</ele><time>2026-03-22T08:11:00.654Z</time></trkpt><trkpt lat="43.6744067" lon="12.4550583"><ele>326.0</ele><time>2026-03-22T08:11:01.654Z</time></trkpt><trkpt lat="43.6743217" lon="12.4547983"><ele>326.0</ele><time>2026-03-22T08:11:02.655Z</time></trkpt><trkpt lat="43.6742383" lon="12.454535"><ele>326.0</ele><time>2026-03-22T08:11:03.654Z</time></trkpt><trkpt lat="43.6741533" lon="12.4542733"><ele>326.6666666666667</ele><time>2026-03-22T08:11:04.655Z</time></trkpt><trkpt lat="43.6740683" lon="12.4540117"><ele>327.3333333333333</ele><time>2026-03-22T08:11:05.654Z</time></trkpt><trkpt lat="43.6739833" lon="12.4537517"><ele>328.0</ele><time>2026-03-22T08:11:06.654Z</time></trkpt><trkpt lat="43.6739" lon="12.4534967"><ele>329.3333333333333</ele><time>2026-03-22T08:11:07.654Z</time></trkpt><trkpt lat="43.6738217" lon="12.4532433"><ele>330.6666666666667</ele><time>2026-03-22T08:11:08.654Z</time></trkpt><trkpt lat="43.67375" lon="12.4529833"><ele>332.0</ele><time>2026-03-22T08:11:09.651Z</time></trkpt><trkpt lat="43.6736983" lon="12.4527133"><ele>333.0</ele><time>2026-03-22T08:11:10.652Z</time></trkpt><trkpt lat="43.6736567" lon="12.4524367"><ele>334.0</ele><time>2026-03-22T08:11:11.654Z</time></trkpt><trkpt lat="43.6736217" lon="12.4521533"><ele>335.0</ele><time>2026-03-22T08:11:12.654Z</time></trkpt><trkpt lat="43.6735883" lon="12.4518767"><ele>335.0</ele><time>2026-03-22T08:11:13.654Z</time></trkpt><trkpt lat="43.67356" lon="12.451605"><ele>335.0</ele><time>2026-03-22T08:11:14.654Z</time></trkpt><trkpt lat="43.6735467" lon="12.4513317"><ele>335.0</ele><time>2026-03-22T08:11:15.655Z</time></trkpt><trkpt lat="43.67356" lon="12.4510567"><ele>335.33333333333337</ele><time>2026-03-22T08:11:16.65Z</time></trkpt><trkpt lat="43.6735917" lon="12.4507817"><ele>335.6666666666667</ele><time>2026-03-22T08:11:17.651Z</time></trkpt><trkpt lat="43.673625" lon="12.4504983"><ele>336.0</ele><time>2026-03-22T08:11:18.651Z</time></trkpt><trkpt lat="43.6736633" lon="12.4502117"><ele>340.6666666666667</ele><time>2026-03-22T08:11:19.652Z</time></trkpt><trkpt lat="43.6737017" lon="12.4499267"><ele>345.33333333333337</ele><time>2026-03-22T08:11:20.651Z</time></trkpt><trkpt lat="43.67373" lon="12.44965"><ele>350.0</ele><time>2026-03-22T08:11:21.651Z</time></trkpt><trkpt lat="43.6737383" lon="12.44937"><ele>350.6666666666667</ele><time>2026-03-22T08:11:22.652Z</time></trkpt><trkpt lat="43.673725" lon="12.4490867"><ele>351.3333333333333</ele><time>2026-03-22T08:11:23.651Z</time></trkpt><trkpt lat="43.673705" lon="12.4488083"><ele>352.0</ele><time>2026-03-22T08:11:24.652Z</time></trkpt><trkpt lat="43.6736833" lon="12.448535"><ele>355.0</ele><time>2026-03-22T08:11:25.654Z</time></trkpt><trkpt lat="43.6736583" lon="12.4482667"><ele>358.0</ele><time>2026-03-22T08:11:26.654Z</time></trkpt><trkpt lat="43.67363" lon="12.4479933"><ele>361.0</ele><time>2026-03-22T08:11:27.653Z</time></trkpt><trkpt lat="43.6736083" lon="12.4477267"><ele>354.3333333333333</ele><time>2026-03-22T08:11:28.654Z</time></trkpt><trkpt lat="43.67358" lon="12.4474583"><ele>347.6666666666667</ele><time>2026-03-22T08:11:29.654Z</time></trkpt><trkpt lat="43.6735517" lon="12.4471917"><ele>341.0</ele><time>2026-03-22T08:11:30.651Z</time></trkpt><trkpt lat="43.673525" lon="12.4469217"><ele>341.0</ele><time>2026-03-22T08:11:31.655Z</time></trkpt><trkpt lat="43.6734967" lon="12.4466567"><ele>341.0</ele><time>2026-03-22T08:11:32.653Z</time></trkpt><trkpt lat="43.67347" lon="12.446395"><ele>341.0</ele><time>2026-03-22T08:11:33.654Z</time></trkpt><trkpt lat="43.6734433" lon="12.4461433"><ele>341.0</ele><time>2026-03-22T08:11:34.654Z</time></trkpt><trkpt lat="43.6734217" lon="12.445885"><ele>341.0</ele><time>2026-03-22T08:11:35.65Z</time></trkpt><trkpt lat="43.6734067" lon="12.4456217"><ele>341.0</ele><time>2026-03-22T08:11:36.654Z</time></trkpt><trkpt lat="43.673395" lon="12.445355"><ele>341.6666666666667</ele><time>2026-03-22T08:11:37.651Z</time></trkpt><trkpt lat="43.673385" lon="12.4450867"><ele>342.3333333333333</ele><time>2026-03-22T08:11:38.652Z</time></trkpt><trkpt lat="43.6733733" lon="12.4448267"><ele>343.0</ele><time>2026-03-22T08:11:39.655Z</time></trkpt><trkpt lat="43.6733583" lon="12.4445667"><ele>343.0</ele><time>2026-03-22T08:11:40.651Z</time></trkpt><trkpt lat="43.673345" lon="12.4443083"><ele>343.0</ele><time>2026-03-22T08:11:41.652Z</time></trkpt><trkpt lat="43.6733317" lon="12.44405"><ele>343.0</ele><time>2026-03-22T08:11:42.652Z</time></trkpt><trkpt lat="43.6733233" lon="12.4437917"><ele>342.0</ele><time>2026-03-22T08:11:43.652Z</time></trkpt><trkpt lat="43.673315" lon="12.443535"><ele>341.0</ele><time>2026-03-22T08:11:44.654Z</time></trkpt><trkpt lat="43.6733117" lon="12.4432783"><ele>340.0</ele><time>2026-03-22T08:11:45.651Z</time></trkpt><trkpt lat="43.6733133" lon="12.4430117"><ele>339.3333333333333</ele><time>2026-03-22T08:11:46.652Z</time></trkpt><trkpt lat="43.6733217" lon="12.44274"><ele>338.6666666666667</ele><time>2026-03-22T08:11:47.655Z</time></trkpt><trkpt lat="43.6733267" lon="12.44248"><ele>338.0</ele><time>2026-03-22T08:11:48.652Z</time></trkpt><trkpt lat="43.6733283" lon="12.44222"><ele>339.0</ele><time>2026-03-22T08:11:49.655Z</time></trkpt><trkpt lat="43.6733233" lon="12.4419583"><ele>340.0</ele><time>2026-03-22T08:11:50.654Z</time></trkpt><trkpt lat="43.6733133" lon="12.4416967"><ele>341.0</ele><time>2026-03-22T08:11:51.653Z</time></trkpt><trkpt lat="43.6732967" lon="12.441435"><ele>343.33333333333337</ele><time>2026-03-22T08:11:52.654Z</time></trkpt><trkpt lat="43.6732733" lon="12.4411717"><ele>345.6666666666667</ele><time>2026-03-22T08:11:53.654Z</time></trkpt><trkpt lat="43.6732483" lon="12.44091"><ele>348.0</ele><time>2026-03-22T08:11:54.655Z</time></trkpt><trkpt lat="43.67322" lon="12.44065"><ele>349.6666666666667</ele><time>2026-03-22T08:11:55.654Z</time></trkpt><trkpt lat="43.6731967" lon="12.440395"><ele>351.33333333333337</ele><time>2026-03-22T08:11:56.654Z</time></trkpt><trkpt lat="43.6731767" lon="12.4401433"><ele>353.0</ele><time>2026-03-22T08:11:57.653Z</time></trkpt><trkpt lat="43.6731567" lon="12.43989"><ele>353.0</ele><time>2026-03-22T08:11:58.654Z</time></trkpt><trkpt lat="43.67313" lon="12.4396383"><ele>353.0</ele><time>2026-03-22T08:11:59.651Z</time></trkpt><trkpt lat="43.673095" lon="12.4393883"><ele>353.0</ele><time>2026-03-22T08:12:00.651Z</time></trkpt><trkpt lat="43.67305" lon="12.43914"><ele>351.33333333333337</ele><time>2026-03-22T08:12:01.651Z</time></trkpt><trkpt lat="43.6729967" lon="12.4388983"><ele>349.6666666666667</ele><time>2026-03-22T08:12:02.651Z</time></trkpt><trkpt lat="43.6729267" lon="12.438665"><ele>348.0</ele><time>2026-03-22T08:12:03.651Z</time></trkpt><trkpt lat="43.67284" lon="12.438435"><ele>345.6666666666667</ele><time>2026-03-22T08:12:04.652Z</time></trkpt><trkpt lat="43.6727433" lon="12.43821"><ele>343.33333333333337</ele><time>2026-03-22T08:12:05.651Z</time></trkpt><trkpt lat="43.6726383" lon="12.4379883"><ele>341.0</ele><time>2026-03-22T08:12:06.65Z</time></trkpt><trkpt lat="43.6725233" lon="12.4377733"><ele>341.0</ele><time>2026-03-22T08:12:07.651Z</time></trkpt><trkpt lat="43.672405" lon="12.4375617"><ele>341.0</ele><time>2026-03-22T08:12:08.655Z</time></trkpt><trkpt lat="43.67228" lon="12.437355"><ele>341.0</ele><time>2026-03-22T08:12:09.651Z</time></trkpt><trkpt lat="43.672155" lon="12.43715"><ele>340.33333333333337</ele><time>2026-03-22T08:12:10.653Z</time></trkpt><trkpt lat="43.6720267" lon="12.4369467"><ele>339.6666666666667</ele><time>2026-03-22T08:12:11.653Z</time></trkpt><trkpt lat="43.6718983" lon="12.4367383"><ele>339.0</ele><time>2026-03-22T08:12:12.654Z</time></trkpt><trkpt lat="43.671775" lon="12.4365283"><ele>339.0</ele><time>2026-03-22T08:12:13.652Z</time></trkpt><trkpt lat="43.6716567" lon="12.4363217"><ele>339.0</ele><time>2026-03-22T08:12:14.653Z</time></trkpt><trkpt lat="43.671545" lon="12.436115"><ele>339.0</ele><time>2026-03-22T08:12:15.651Z</time></trkpt><trkpt lat="43.6714433" lon="12.435895"><ele>339.0</ele><time>2026-03-22T08:12:16.65Z</time></trkpt><trkpt lat="43.671355" lon="12.4356617"><ele>339.0</ele><time>2026-03-22T08:12:17.655Z</time></trkpt><trkpt lat="43.67128" lon="12.4354183"><ele>339.0</ele><time>2026-03-22T08:12:18.657Z</time></trkpt><trkpt lat="43.6712133" lon="12.435165"><ele>339.3333333333333</ele><time>2026-03-22T08:12:19.654Z</time></trkpt><trkpt lat="43.6711583" lon="12.434905"><ele>339.66666666666663</ele><time>2026-03-22T08:12:20.654Z</time></trkpt><trkpt lat="43.6711117" lon="12.4346417"><ele>340.0</ele><time>2026-03-22T08:12:21.655Z</time></trkpt><trkpt lat="43.6710683" lon="12.434375"><ele>340.3333333333333</ele><time>2026-03-22T08:12:22.653Z</time></trkpt><trkpt lat="43.671025" lon="12.4341117"><ele>340.6666666666667</ele><time>2026-03-22T08:12:23.656Z</time></trkpt><trkpt lat="43.6709783" lon="12.43385"><ele>341.0</ele><time>2026-03-22T08:12:24.658Z</time></trkpt><trkpt lat="43.670935" lon="12.43359"><ele>341.0</ele><time>2026-03-22T08:12:25.65Z</time></trkpt><trkpt lat="43.670895" lon="12.433335"><ele>341.0</ele><time>2026-03-22T08:12:26.654Z</time></trkpt><trkpt lat="43.6708583" lon="12.4330833"><ele>341.0</ele><time>2026-03-22T08:12:27.653Z</time></trkpt><trkpt lat="43.67082" lon="12.4328383"><ele>341.33333333333337</ele><time>2026-03-22T08:12:28.653Z</time></trkpt><trkpt lat="43.6707833" lon="12.4325983"><ele>341.6666666666667</ele><time>2026-03-22T08:12:29.653Z</time></trkpt><trkpt lat="43.6707467" lon="12.4323583"><ele>342.0</ele><time>2026-03-22T08:12:30.651Z</time></trkpt><trkpt lat="43.6707117" lon="12.4321183"><ele>342.3333333333333</ele><time>2026-03-22T08:12:31.653Z</time></trkpt><trkpt lat="43.6706783" lon="12.4318767"><ele>342.66666666666663</ele><time>2026-03-22T08:12:32.651Z</time></trkpt><trkpt lat="43.67064" lon="12.4316383"><ele>343.0</ele><time>2026-03-22T08:12:33.65Z</time></trkpt><trkpt lat="43.6706017" lon="12.4313983"><ele>343.0</ele><time>2026-03-22T08:12:34.651Z</time></trkpt><trkpt lat="43.6705633" lon="12.4311583"><ele>343.0</ele><time>2026-03-22T08:12:35.651Z</time></trkpt><trkpt lat="43.6705267" lon="12.4309233"><ele>343.0</ele><time>2026-03-22T08:12:36.651Z</time></trkpt><trkpt lat="43.670485" lon="12.4306883"><ele>343.66666666666663</ele><time>2026-03-22T08:12:37.652Z</time></trkpt><trkpt lat="43.6704467" lon="12.4304517"><ele>344.3333333333333</ele><time>2026-03-22T08:12:38.654Z</time></trkpt><trkpt lat="43.67041" lon="12.4302217"><ele>345.0</ele><time>2026-03-22T08:12:39.65Z</time></trkpt><trkpt lat="43.6703717" lon="12.4299917"><ele>345.0</ele><time>2026-03-22T08:12:40.654Z</time></trkpt><trkpt lat="43.670335" lon="12.4297633"><ele>345.0</ele><time>2026-03-22T08:12:41.653Z</time></trkpt><trkpt lat="43.670295" lon="12.429535"><ele>345.0</ele><time>2026-03-22T08:12:42.654Z</time></trkpt><trkpt lat="43.6702567" lon="12.4293033"><ele>345.6666666666667</ele><time>2026-03-22T08:12:43.653Z</time></trkpt><trkpt lat="43.6702167" lon="12.42907"><ele>346.33333333333337</ele><time>2026-03-22T08:12:44.654Z</time></trkpt><trkpt lat="43.6701783" lon="12.428835"><ele>347.0</ele><time>2026-03-22T08:12:45.653Z</time></trkpt><trkpt lat="43.67014" lon="12.428595"><ele>347.33333333333337</ele><time>2026-03-22T08:12:46.655Z</time></trkpt><trkpt lat="43.6701017" lon="12.42835"><ele>347.6666666666667</ele><time>2026-03-22T08:12:47.654Z</time></trkpt><trkpt lat="43.67006" lon="12.4281"><ele>348.0</ele><time>2026-03-22T08:12:48.655Z</time></trkpt><trkpt lat="43.6700117" lon="12.427845"><ele>348.0</ele><time>2026-03-22T08:12:49.653Z</time></trkpt><trkpt lat="43.6699583" lon="12.4275817"><ele>348.0</ele><time>2026-03-22T08:12:50.653Z</time></trkpt><trkpt lat="43.6699017" lon="12.4273133"><ele>348.0</ele><time>2026-03-22T08:12:51.655Z</time></trkpt><trkpt lat="43.6698467" lon="12.4270367"><ele>348.6666666666667</ele><time>2026-03-22T08:12:52.655Z</time></trkpt><trkpt lat="43.6697933" lon="12.426755"><ele>349.33333333333337</ele><time>2026-03-22T08:12:53.654Z</time></trkpt><trkpt lat="43.6697367" lon="12.4264717"><ele>350.0</ele><time>2026-03-22T08:12:54.655Z</time></trkpt><trkpt lat="43.6696817" lon="12.4261883"><ele>350.0</ele><time>2026-03-22T08:12:55.653Z</time></trkpt><trkpt lat="43.6696283" lon="12.425915"><ele>350.0</ele><time>2026-03-22T08:12:56.654Z</time></trkpt><trkpt lat="43.6695767" lon="12.425655"><ele>350.0</ele><time>2026-03-22T08:12:57.655Z</time></trkpt><trkpt lat="43.6695333" lon="12.4254017"><ele>350.0</ele><time>2026-03-22T08:12:58.655Z</time></trkpt><trkpt lat="43.6694967" lon="12.4251433"><ele>350.0</ele><time>2026-03-22T08:12:59.653Z</time></trkpt><trkpt lat="43.6694733" lon="12.4248783"><ele>350.0</ele><time>2026-03-22T08:13:00.654Z</time></trkpt><trkpt lat="43.6694683" lon="12.424605"><ele>350.0</ele><time>2026-03-22T08:13:01.655Z</time></trkpt><trkpt lat="43.6694767" lon="12.4243233"><ele>350.0</ele><time>2026-03-22T08:13:02.654Z</time></trkpt><trkpt lat="43.669485" lon="12.4240383"><ele>350.0</ele><time>2026-03-22T08:13:03.654Z</time></trkpt><trkpt lat="43.6694933" lon="12.4237533"><ele>351.0</ele><time>2026-03-22T08:13:04.653Z</time></trkpt><trkpt lat="43.6695" lon="12.42347"><ele>352.0</ele><time>2026-03-22T08:13:05.655Z</time></trkpt><trkpt lat="43.66951" lon="12.4231867"><ele>353.0</ele><time>2026-03-22T08:13:06.654Z</time></trkpt><trkpt lat="43.6695167" lon="12.4229033"><ele>354.0</ele><time>2026-03-22T08:13:07.654Z</time></trkpt><trkpt lat="43.6695133" lon="12.4226267"><ele>355.0</ele><time>2026-03-22T08:13:08.653Z</time></trkpt><trkpt lat="43.6694983" lon="12.42235"><ele>356.0</ele><time>2026-03-22T08:13:09.651Z</time></trkpt><trkpt lat="43.6694717" lon="12.4220783"><ele>355.0</ele><time>2026-03-22T08:13:10.653Z</time></trkpt><trkpt lat="43.6694417" lon="12.42181"><ele>354.0</ele><time>2026-03-22T08:13:11.653Z</time></trkpt><trkpt lat="43.669415" lon="12.4215517"><ele>353.0</ele><time>2026-03-22T08:13:12.655Z</time></trkpt><trkpt lat="43.6693883" lon="12.421305"><ele>353.0</ele><time>2026-03-22T08:13:13.653Z</time></trkpt><trkpt lat="43.669365" lon="12.4210667"><ele>353.0</ele><time>2026-03-22T08:13:14.655Z</time></trkpt><trkpt lat="43.66934" lon="12.4208383"><ele>353.0</ele><time>2026-03-22T08:13:15.653Z</time></trkpt><trkpt lat="43.6693167" lon="12.4206083"><ele>353.0</ele><time>2026-03-22T08:13:16.651Z</time></trkpt><trkpt lat="43.6692933" lon="12.4203767"><ele>353.0</ele><time>2026-03-22T08:13:17.651Z</time></trkpt><trkpt lat="43.6692683" lon="12.4201467"><ele>353.0</ele><time>2026-03-22T08:13:18.65Z</time></trkpt><trkpt lat="43.669245" lon="12.419925"><ele>353.0</ele><time>2026-03-22T08:13:19.651Z</time></trkpt><trkpt lat="43.66922" lon="12.4197133"><ele>353.0</ele><time>2026-03-22T08:13:20.65Z</time></trkpt><trkpt lat="43.669175" lon="12.419515"><ele>353.0</ele><time>2026-03-22T08:13:21.651Z</time></trkpt><trkpt lat="43.6691083" lon="12.4193267"><ele>353.0</ele><time>2026-03-22T08:13:22.651Z</time></trkpt><trkpt lat="43.669015" lon="12.4191483"><ele>353.0</ele><time>2026-03-22T08:13:23.655Z</time></trkpt><trkpt lat="43.668915" lon="12.418975"><ele>353.0</ele><time>2026-03-22T08:13:24.654Z</time></trkpt><trkpt lat="43.668815" lon="12.4188067"><ele>353.0</ele><time>2026-03-22T08:13:25.655Z</time></trkpt><trkpt lat="43.6687233" lon="12.418645"><ele>353.0</ele><time>2026-03-22T08:13:26.654Z</time></trkpt><trkpt lat="43.668635" lon="12.4184933"><ele>353.0</ele><time>2026-03-22T08:13:27.654Z</time></trkpt><trkpt lat="43.66855" lon="12.4183483"><ele>353.0</ele><time>2026-03-22T08:13:28.654Z</time></trkpt><trkpt lat="43.6684633" lon="12.4181983"><ele>353.0</ele><time>2026-03-22T08:13:29.653Z</time></trkpt><trkpt lat="43.6683817" lon="12.4180383"><ele>353.0</ele><time>2026-03-22T08:13:30.653Z</time></trkpt><trkpt lat="43.6683033" lon="12.4178717"><ele>353.0</ele><time>2026-03-22T08:13:31.654Z</time></trkpt><trkpt lat="43.6682267" lon="12.4176967"><ele>353.0</ele><time>2026-03-22T08:13:32.651Z</time></trkpt><trkpt lat="43.6681533" lon="12.4175133"><ele>355.0</ele><time>2026-03-22T08:13:33.654Z</time></trkpt><trkpt lat="43.6680783" lon="12.417315"><ele>357.0</ele><time>2026-03-22T08:13:34.65Z</time></trkpt><trkpt lat="43.6680017" lon="12.4171033"><ele>359.0</ele><time>2026-03-22T08:13:35.655Z</time></trkpt><trkpt lat="43.6679133" lon="12.4168783"><ele>358.6666666666667</ele><time>2026-03-22T08:13:36.655Z</time></trkpt><trkpt lat="43.6678267" lon="12.4166483"><ele>358.3333333333333</ele><time>2026-03-22T08:13:37.655Z</time></trkpt><trkpt lat="43.66774" lon="12.41643"><ele>358.0</ele><time>2026-03-22T08:13:38.655Z</time></trkpt><trkpt lat="43.6676567" lon="12.4162183"><ele>358.0</ele><time>2026-03-22T08:13:39.653Z</time></trkpt><trkpt lat="43.6675783" lon="12.4160117"><ele>358.0</ele><time>2026-03-22T08:13:40.652Z</time></trkpt><trkpt lat="43.66751" lon="12.4158133"><ele>358.0</ele><time>2026-03-22T08:13:41.651Z</time></trkpt><trkpt lat="43.6674533" lon="12.4156183"><ele>357.66666666666663</ele><time>2026-03-22T08:13:42.654Z</time></trkpt><trkpt lat="43.667405" lon="12.415425"><ele>357.3333333333333</ele><time>2026-03-22T08:13:43.654Z</time></trkpt><trkpt lat="43.6673617" lon="12.415225"><ele>357.0</ele><time>2026-03-22T08:13:44.653Z</time></trkpt><trkpt lat="43.6673183" lon="12.41502"><ele>357.0</ele><time>2026-03-22T08:13:45.653Z</time></trkpt><trkpt lat="43.6672733" lon="12.4148117"><ele>357.0</ele><time>2026-03-22T08:13:46.654Z</time></trkpt><trkpt lat="43.6672333" lon="12.4146033"><ele>357.0</ele><time>2026-03-22T08:13:47.654Z</time></trkpt><trkpt lat="43.667195" lon="12.4143967"><ele>356.6666666666667</ele><time>2026-03-22T08:13:48.65Z</time></trkpt><trkpt lat="43.66717" lon="12.4141833"><ele>356.33333333333337</ele><time>2026-03-22T08:13:49.654Z</time></trkpt><trkpt lat="43.6671483" lon="12.4139683"><ele>356.0</ele><time>2026-03-22T08:13:50.651Z</time></trkpt><trkpt lat="43.6671283" lon="12.41375"><ele>356.6666666666667</ele><time>2026-03-22T08:13:51.654Z</time></trkpt><trkpt lat="43.6671083" lon="12.4135283"><ele>357.3333333333333</ele><time>2026-03-22T08:13:52.654Z</time></trkpt><trkpt lat="43.6670883" lon="12.4133117"><ele>358.0</ele><time>2026-03-22T08:13:53.655Z</time></trkpt><trkpt lat="43.6670667" lon="12.4131033"><ele>358.5</ele><time>2026-03-22T08:13:54.653Z</time></trkpt><trkpt lat="43.66705" lon="12.4129083"><ele>359.0</ele><time>2026-03-22T08:13:55.653Z</time></trkpt><trkpt lat="43.667035" lon="12.4127283"><ele>359.5</ele><time>2026-03-22T08:13:56.654Z</time></trkpt><trkpt lat="43.667025" lon="12.4125567"><ele>360.0</ele><time>2026-03-22T08:13:57.654Z</time></trkpt><trkpt lat="43.6670133" lon="12.4123867"><ele>360.0</ele><time>2026-03-22T08:13:58.654Z</time></trkpt><trkpt lat="43.6669983" lon="12.4122167"><ele>360.0</ele><time>2026-03-22T08:13:59.655Z</time></trkpt><trkpt lat="43.666985" lon="12.4120667"><ele>360.0</ele><time>2026-03-22T08:14:00.653Z</time></trkpt><trkpt lat="43.6669617" lon="12.4119283"><ele>360.0</ele><time>2026-03-22T08:14:01.651Z</time></trkpt><trkpt lat="43.6669333" lon="12.4118033"><ele>360.0</ele><time>2026-03-22T08:14:02.651Z</time></trkpt><trkpt lat="43.666905" lon="12.4116817"><ele>359.3333333333333</ele><time>2026-03-22T08:14:03.651Z</time></trkpt><trkpt lat="43.66689" lon="12.4115567"><ele>358.6666666666667</ele><time>2026-03-22T08:14:04.654Z</time></trkpt><trkpt lat="43.6668883" lon="12.4114267"><ele>358.0</ele><time>2026-03-22T08:14:05.654Z</time></trkpt><trkpt lat="43.6668967" lon="12.41131"><ele>357.33333333333337</ele><time>2026-03-22T08:14:06.654Z</time></trkpt><trkpt lat="43.6668983" lon="12.411195"><ele>356.6666666666667</ele><time>2026-03-22T08:14:07.654Z</time></trkpt><trkpt lat="43.666895" lon="12.4110733"><ele>356.0</ele><time>2026-03-22T08:14:08.651Z</time></trkpt><trkpt lat="43.6668883" lon="12.4109467"><ele>356.0</ele><time>2026-03-22T08:14:09.652Z</time></trkpt><trkpt lat="43.6668767" lon="12.410815"><ele>356.0</ele><time>2026-03-22T08:14:10.653Z</time></trkpt><trkpt lat="43.6668583" lon="12.41068"><ele>356.0</ele><time>2026-03-22T08:14:11.655Z</time></trkpt><trkpt lat="43.6668433" lon="12.4105367"><ele>356.0</ele><time>2026-03-22T08:14:12.653Z</time></trkpt><trkpt lat="43.6668283" lon="12.4103883"><ele>356.0</ele><time>2026-03-22T08:14:13.654Z</time></trkpt><trkpt lat="43.6668167" lon="12.410235"><ele>355.5</ele><time>2026-03-22T08:14:14.654Z</time></trkpt><trkpt lat="43.6668" lon="12.41007"><ele>355.0</ele><time>2026-03-22T08:14:15.654Z</time></trkpt><trkpt lat="43.6667817" lon="12.4098967"><ele>354.5</ele><time>2026-03-22T08:14:16.655Z</time></trkpt><trkpt lat="43.6667667" lon="12.4097233"><ele>354.0</ele><time>2026-03-22T08:14:17.654Z</time></trkpt><trkpt lat="43.6667533" lon="12.4095517"><ele>354.0</ele><time>2026-03-22T08:14:18.651Z</time></trkpt><trkpt lat="43.6667383" lon="12.4093767"><ele>354.0</ele><time>2026-03-22T08:14:19.654Z</time></trkpt><trkpt lat="43.66672" lon="12.4092017"><ele>354.0</ele><time>2026-03-22T08:14:20.651Z</time></trkpt><trkpt lat="43.6666967" lon="12.4090333"><ele>354.0</ele><time>2026-03-22T08:14:21.659Z</time></trkpt><trkpt lat="43.6666633" lon="12.408875"><ele>354.0</ele><time>2026-03-22T08:14:22.654Z</time></trkpt><trkpt lat="43.6666133" lon="12.4087283"><ele>354.0</ele><time>2026-03-22T08:14:23.654Z</time></trkpt><trkpt lat="43.6665467" lon="12.4085983"><ele>354.0</ele><time>2026-03-22T08:14:24.65Z</time></trkpt><trkpt lat="43.6664617" lon="12.4084933"><ele>354.0</ele><time>2026-03-22T08:14:25.655Z</time></trkpt><trkpt lat="43.6663583" lon="12.40841"><ele>354.0</ele><time>2026-03-22T08:14:26.654Z</time></trkpt><trkpt lat="43.6662517" lon="12.4083367"><ele>354.0</ele><time>2026-03-22T08:14:27.653Z</time></trkpt><trkpt lat="43.6661433" lon="12.4082667"><ele>354.0</ele><time>2026-03-22T08:14:28.655Z</time></trkpt><trkpt lat="43.66603" lon="12.4081917"><ele>354.0</ele><time>2026-03-22T08:14:29.653Z</time></trkpt><trkpt lat="43.6659133" lon="12.4081133"><ele>355.0</ele><time>2026-03-22T08:14:30.653Z</time></trkpt><trkpt lat="43.6657967" lon="12.408035"><ele>356.0</ele><time>2026-03-22T08:14:31.653Z</time></trkpt><trkpt lat="43.6656867" lon="12.4079617"><ele>357.0</ele><time>2026-03-22T08:14:32.655Z</time></trkpt><trkpt lat="43.6655817" lon="12.4078883"><ele>358.0</ele><time>2026-03-22T08:14:33.653Z</time></trkpt><trkpt lat="43.6654783" lon="12.407825"><ele>358.59999999999997</ele><time>2026-03-22T08:14:34.65Z</time></trkpt><trkpt lat="43.6653833" lon="12.40776"><ele>359.2</ele><time>2026-03-22T08:14:35.652Z</time></trkpt><trkpt lat="43.66529" lon="12.4077"><ele>359.8</ele><time>2026-03-22T08:14:36.651Z</time></trkpt><trkpt lat="43.6652067" lon="12.4076467"><ele>360.4</ele><time>2026-03-22T08:14:37.652Z</time></trkpt><trkpt lat="43.66513" lon="12.4075983"><ele>361.0</ele><time>2026-03-22T08:14:38.654Z</time></trkpt><trkpt lat="43.6650583" lon="12.4075483"><ele>361.0</ele><time>2026-03-22T08:14:39.654Z</time></trkpt><trkpt lat="43.665005" lon="12.4074967"><ele>361.0</ele><time>2026-03-22T08:14:40.654Z</time></trkpt><trkpt lat="43.6649817" lon="12.4073867"><ele>361.0</ele><time>2026-03-22T08:14:42.654Z</time></trkpt><trkpt lat="43.665055" lon="12.40731"><ele>361.0</ele><time>2026-03-22T08:14:44.653Z</time></trkpt><trkpt lat="43.665185" lon="12.4072583"><ele>361.0</ele><time>2026-03-22T08:14:46.653Z</time></trkpt><trkpt lat="43.6652633" lon="12.4072217"><ele>361.0</ele><time>2026-03-22T08:14:47.655Z</time></trkpt><trkpt lat="43.6653483" lon="12.40718"><ele>361.0</ele><time>2026-03-22T08:14:48.655Z</time></trkpt><trkpt lat="43.6654217" lon="12.4071433"><ele>361.0</ele><time>2026-03-22T08:14:49.654Z</time></trkpt><trkpt lat="43.665485" lon="12.4071083"><ele>361.0</ele><time>2026-03-22T08:14:50.653Z</time></trkpt><trkpt lat="43.6655917" lon="12.40706"><ele>361.0</ele><time>2026-03-22T08:14:52.653Z</time></trkpt><trkpt lat="43.66567" lon="12.4070167"><ele>361.0</ele><time>2026-03-22T08:14:54.65Z</time></trkpt><trkpt lat="43.6656867" lon="12.4069067"><ele>360.8333333333333</ele><time>2026-03-22T08:14:57.65Z</time></trkpt><trkpt lat="43.66561" lon="12.406935"><ele>360.66666666666663</ele><time>2026-03-22T08:15:00.654Z</time></trkpt><trkpt lat="43.665535" lon="12.40699"><ele>360.5</ele><time>2026-03-22T08:15:02.655Z</time></trkpt><trkpt lat="43.6654483" lon="12.406985"><ele>360.3333333333333</ele><time>2026-03-22T08:15:04.654Z</time></trkpt><trkpt lat="43.665385" lon="12.4069483"><ele>360.1666666666667</ele><time>2026-03-22T08:15:05.654Z</time></trkpt><trkpt lat="43.665315" lon="12.4068917"><ele>360.0</ele><time>2026-03-22T08:15:06.654Z</time></trkpt><trkpt lat="43.665235" lon="12.4068317"><ele>360.0</ele><time>2026-03-22T08:15:07.653Z</time></trkpt><trkpt lat="43.6651483" lon="12.406775"><ele>360.0</ele><time>2026-03-22T08:15:08.655Z</time></trkpt><trkpt lat="43.66506" lon="12.406715"><ele>360.0</ele><time>2026-03-22T08:15:09.653Z</time></trkpt><trkpt lat="43.6649667" lon="12.4066533"><ele>360.0</ele><time>2026-03-22T08:15:10.654Z</time></trkpt><trkpt lat="43.6648717" lon="12.4065867"><ele>360.0</ele><time>2026-03-22T08:15:11.651Z</time></trkpt><trkpt lat="43.6647917" lon="12.4065183"><ele>360.0</ele><time>2026-03-22T08:15:12.651Z</time></trkpt><trkpt lat="43.6647117" lon="12.40645"><ele>360.0</ele><time>2026-03-22T08:15:13.651Z</time></trkpt><trkpt lat="43.6646333" lon="12.4063817"><ele>360.0</ele><time>2026-03-22T08:15:14.652Z</time></trkpt><trkpt lat="43.6645633" lon="12.4063183"><ele>360.0</ele><time>2026-03-22T08:15:15.652Z</time></trkpt><trkpt lat="43.6645033" lon="12.4062617"><ele>360.0</ele><time>2026-03-22T08:15:16.654Z</time></trkpt><trkpt lat="43.664445" lon="12.4062083"><ele>360.0</ele><time>2026-03-22T08:15:17.65Z</time></trkpt><trkpt lat="43.6643883" lon="12.40615"><ele>360.3333333333333</ele><time>2026-03-22T08:15:18.652Z</time></trkpt><trkpt lat="43.6643267" lon="12.4060933"><ele>360.6666666666667</ele><time>2026-03-22T08:15:19.652Z</time></trkpt><trkpt lat="43.6642617" lon="12.406035"><ele>361.0</ele><time>2026-03-22T08:15:20.652Z</time></trkpt><trkpt lat="43.6641967" lon="12.4059683"><ele>361.33333333333337</ele><time>2026-03-22T08:15:21.652Z</time></trkpt><trkpt lat="43.6641283" lon="12.4058983"><ele>361.6666666666667</ele><time>2026-03-22T08:15:22.652Z</time></trkpt><trkpt lat="43.6640617" lon="12.40584"><ele>362.0</ele><time>2026-03-22T08:15:23.652Z</time></trkpt><trkpt lat="43.6639933" lon="12.4058217"><ele>362.0</ele><time>2026-03-22T08:15:24.652Z</time></trkpt><trkpt lat="43.663925" lon="12.4058367"><ele>362.0</ele><time>2026-03-22T08:15:25.652Z</time></trkpt><trkpt lat="43.6638233" lon="12.4058833"><ele>362.0</ele><time>2026-03-22T08:15:27.652Z</time></trkpt><trkpt lat="43.6637517" lon="12.4058783"><ele>362.0</ele><time>2026-03-22T08:15:30.654Z</time></trkpt><trkpt lat="43.663705" lon="12.4057967"><ele>362.0</ele><time>2026-03-22T08:15:32.651Z</time></trkpt><trkpt lat="43.66365" lon="12.405675"><ele>362.0</ele><time>2026-03-22T08:15:34.654Z</time></trkpt><trkpt lat="43.66362" lon="12.4055767"><ele>361.83333333333337</ele><time>2026-03-22T08:15:36.653Z</time></trkpt><trkpt lat="43.663615" lon="12.4054883"><ele>361.6666666666667</ele><time>2026-03-22T08:15:38.654Z</time></trkpt><trkpt lat="43.6636117" lon="12.4053783"><ele>361.5</ele><time>2026-03-22T08:15:40.654Z</time></trkpt><trkpt lat="43.6635683" lon="12.4052833"><ele>361.3333333333333</ele><time>2026-03-22T08:15:42.653Z</time></trkpt><trkpt lat="43.6634917" lon="12.4053"><ele>361.16666666666663</ele><time>2026-03-22T08:15:44.65Z</time></trkpt><trkpt lat="43.6634317" lon="12.405405"><ele>361.0</ele><time>2026-03-22T08:15:46.654Z</time></trkpt><trkpt lat="43.66338" lon="12.4055917"><ele>361.6</ele><time>2026-03-22T08:17:22.65Z</time></trkpt><trkpt lat="43.6632983" lon="12.4055967"><ele>362.20000000000005</ele><time>2026-03-22T08:17:24.653Z</time></trkpt><trkpt lat="43.6632183" lon="12.40548"><ele>362.79999999999995</ele><time>2026-03-22T08:17:26.654Z</time></trkpt><trkpt lat="43.6631533" lon="12.4053367"><ele>363.4</ele><time>2026-03-22T08:17:28.655Z</time></trkpt><trkpt lat="43.6631" lon="12.4052383"><ele>364.0</ele><time>2026-03-22T08:17:30.653Z</time></trkpt><trkpt lat="43.663035" lon="12.405175"><ele>364.0</ele><time>2026-03-22T08:17:33.654Z</time></trkpt><trkpt lat="43.66296" lon="12.405135"><ele>364.0</ele><time>2026-03-22T08:17:36.653Z</time></trkpt><trkpt lat="43.6628917" lon="12.4050217"><ele>364.0</ele><time>2026-03-22T08:17:39.653Z</time></trkpt><trkpt lat="43.662865" lon="12.40494"><ele>364.0</ele><time>2026-03-22T08:17:40.653Z</time></trkpt><trkpt lat="43.6628217" lon="12.40483"><ele>364.0</ele><time>2026-03-22T08:17:41.652Z</time></trkpt><trkpt lat="43.662765" lon="12.404685"><ele>364.5</ele><time>2026-03-22T08:17:42.654Z</time></trkpt><trkpt lat="43.662705" lon="12.404535"><ele>365.0</ele><time>2026-03-22T08:17:43.652Z</time></trkpt><trkpt lat="43.6626433" lon="12.4043733"><ele>365.5</ele><time>2026-03-22T08:17:44.653Z</time></trkpt><trkpt lat="43.6625767" lon="12.404205"><ele>366.0</ele><time>2026-03-22T08:17:45.654Z</time></trkpt><trkpt lat="43.6625083" lon="12.4040267"><ele>366.0</ele><time>2026-03-22T08:17:46.651Z</time></trkpt><trkpt lat="43.6624333" lon="12.4038417"><ele>366.0</ele><time>2026-03-22T08:17:47.652Z</time></trkpt><trkpt lat="43.6623533" lon="12.4036517"><ele>366.0</ele><time>2026-03-22T08:17:48.653Z</time></trkpt><trkpt lat="43.662275" lon="12.4034517"><ele>366.0</ele><time>2026-03-22T08:17:49.651Z</time></trkpt><trkpt lat="43.662195" lon="12.403245"><ele>366.0</ele><time>2026-03-22T08:17:50.652Z</time></trkpt><trkpt lat="43.6621167" lon="12.40304"><ele>366.0</ele><time>2026-03-22T08:17:51.651Z</time></trkpt><trkpt lat="43.66204" lon="12.4028383"><ele>366.0</ele><time>2026-03-22T08:17:52.652Z</time></trkpt><trkpt lat="43.661965" lon="12.4026383"><ele>366.0</ele><time>2026-03-22T08:17:53.655Z</time></trkpt><trkpt lat="43.66189" lon="12.402435"><ele>366.0</ele><time>2026-03-22T08:17:54.654Z</time></trkpt><trkpt lat="43.6618167" lon="12.40223"><ele>366.3333333333333</ele><time>2026-03-22T08:17:55.654Z</time></trkpt><trkpt lat="43.66175" lon="12.4020283"><ele>366.66666666666663</ele><time>2026-03-22T08:17:56.654Z</time></trkpt><trkpt lat="43.6616867" lon="12.40184"><ele>367.0</ele><time>2026-03-22T08:17:57.651Z</time></trkpt><trkpt lat="43.6616267" lon="12.401655"><ele>367.0</ele><time>2026-03-22T08:17:58.654Z</time></trkpt><trkpt lat="43.6615633" lon="12.401465"><ele>367.0</ele><time>2026-03-22T08:17:59.654Z</time></trkpt><trkpt lat="43.6615" lon="12.40127"><ele>367.0</ele><time>2026-03-22T08:18:00.651Z</time></trkpt><trkpt lat="43.6614333" lon="12.4010717"><ele>366.66666666666663</ele><time>2026-03-22T08:18:01.651Z</time></trkpt><trkpt lat="43.661365" lon="12.400865"><ele>366.3333333333333</ele><time>2026-03-22T08:18:02.654Z</time></trkpt><trkpt lat="43.661295" lon="12.4006567"><ele>366.0</ele><time>2026-03-22T08:18:03.652Z</time></trkpt><trkpt lat="43.66122" lon="12.4004367"><ele>365.3333333333333</ele><time>2026-03-22T08:18:04.655Z</time></trkpt><trkpt lat="43.6611417" lon="12.4002033"><ele>364.66666666666663</ele><time>2026-03-22T08:18:05.652Z</time></trkpt><trkpt lat="43.6610583" lon="12.3999483"><ele>364.0</ele><time>2026-03-22T08:18:06.652Z</time></trkpt><trkpt lat="43.6609767" lon="12.3996733"><ele>367.5</ele><time>2026-03-22T08:18:07.652Z</time></trkpt><trkpt lat="43.660895" lon="12.399385"><ele>371.0</ele><time>2026-03-22T08:18:08.652Z</time></trkpt><trkpt lat="43.6608083" lon="12.3990917"><ele>370.5</ele><time>2026-03-22T08:18:09.651Z</time></trkpt><trkpt lat="43.660715" lon="12.3988017"><ele>370.0</ele><time>2026-03-22T08:18:10.653Z</time></trkpt><trkpt lat="43.6606217" lon="12.3985083"><ele>370.0</ele><time>2026-03-22T08:18:11.651Z</time></trkpt><trkpt lat="43.66053" lon="12.3982133"><ele>370.0</ele><time>2026-03-22T08:18:12.651Z</time></trkpt><trkpt lat="43.66044" lon="12.397915"><ele>369.5</ele><time>2026-03-22T08:18:13.651Z</time></trkpt><trkpt lat="43.66035" lon="12.3976167"><ele>369.0</ele><time>2026-03-22T08:18:14.652Z</time></trkpt><trkpt lat="43.6602583" lon="12.397315"><ele>370.0</ele><time>2026-03-22T08:18:15.651Z</time></trkpt><trkpt lat="43.6601667" lon="12.3970167"><ele>371.0</ele><time>2026-03-22T08:18:16.654Z</time></trkpt><trkpt lat="43.6600767" lon="12.396715"><ele>371.0</ele><time>2026-03-22T08:18:17.654Z</time></trkpt><trkpt lat="43.659985" lon="12.3964083"><ele>371.0</ele><time>2026-03-22T08:18:18.653Z</time></trkpt><trkpt lat="43.6598933" lon="12.3961067"><ele>371.5</ele><time>2026-03-22T08:18:19.655Z</time></trkpt><trkpt lat="43.659805" lon="12.3958083"><ele>372.0</ele><time>2026-03-22T08:18:20.654Z</time></trkpt><trkpt lat="43.6597117" lon="12.39552"><ele>372.5</ele><time>2026-03-22T08:18:21.651Z</time></trkpt><trkpt lat="43.6596233" lon="12.39523"><ele>373.0</ele><time>2026-03-22T08:18:22.654Z</time></trkpt><trkpt lat="43.65953" lon="12.3949383"><ele>375.0</ele><time>2026-03-22T08:18:23.653Z</time></trkpt><trkpt lat="43.6594433" lon="12.3946517"><ele>377.0</ele><time>2026-03-22T08:18:24.653Z</time></trkpt><trkpt lat="43.6593533" lon="12.3943667"><ele>377.0</ele><time>2026-03-22T08:18:25.654Z</time></trkpt><trkpt lat="43.6592683" lon="12.3940867"><ele>377.0</ele><time>2026-03-22T08:18:26.654Z</time></trkpt><trkpt lat="43.6591833" lon="12.3938117"><ele>377.0</ele><time>2026-03-22T08:18:27.655Z</time></trkpt><trkpt lat="43.6590983" lon="12.393535"><ele>376.6666666666667</ele><time>2026-03-22T08:18:28.654Z</time></trkpt><trkpt lat="43.6590117" lon="12.3932567"><ele>376.3333333333333</ele><time>2026-03-22T08:18:29.653Z</time></trkpt><trkpt lat="43.65893" lon="12.3929783"><ele>376.0</ele><time>2026-03-22T08:18:30.65Z</time></trkpt><trkpt lat="43.658845" lon="12.3926983"><ele>375.66666666666663</ele><time>2026-03-22T08:18:31.654Z</time></trkpt><trkpt lat="43.65876" lon="12.3924167"><ele>375.3333333333333</ele><time>2026-03-22T08:18:32.651Z</time></trkpt><trkpt lat="43.658675" lon="12.3921333"><ele>375.0</ele><time>2026-03-22T08:18:33.653Z</time></trkpt><trkpt lat="43.6585883" lon="12.3918483"><ele>375.3333333333333</ele><time>2026-03-22T08:18:34.651Z</time></trkpt><trkpt lat="43.6585" lon="12.3915617"><ele>375.66666666666663</ele><time>2026-03-22T08:18:35.651Z</time></trkpt><trkpt lat="43.6584133" lon="12.39128"><ele>376.0</ele><time>2026-03-22T08:18:36.652Z</time></trkpt><trkpt lat="43.6583317" lon="12.3910167"><ele>376.0</ele><time>2026-03-22T08:18:37.652Z</time></trkpt><trkpt lat="43.6582467" lon="12.3907717"><ele>376.0</ele><time>2026-03-22T08:18:38.653Z</time></trkpt><trkpt lat="43.6581483" lon="12.3905567"><ele>376.0</ele><time>2026-03-22T08:18:39.653Z</time></trkpt><trkpt lat="43.6580233" lon="12.3903783"><ele>376.3333333333333</ele><time>2026-03-22T08:18:40.653Z</time></trkpt><trkpt lat="43.6578617" lon="12.390245"><ele>376.6666666666667</ele><time>2026-03-22T08:18:41.653Z</time></trkpt><trkpt lat="43.657675" lon="12.3901367"><ele>377.0</ele><time>2026-03-22T08:18:42.653Z</time></trkpt><trkpt lat="43.6574883" lon="12.3900283"><ele>379.0</ele><time>2026-03-22T08:18:43.654Z</time></trkpt><trkpt lat="43.6573217" lon="12.3899083"><ele>381.0</ele><time>2026-03-22T08:18:44.654Z</time></trkpt><trkpt lat="43.6571767" lon="12.3897633"><ele>383.0</ele><time>2026-03-22T08:18:45.653Z</time></trkpt><trkpt lat="43.6570583" lon="12.3895767"><ele>383.33333333333337</ele><time>2026-03-22T08:18:46.654Z</time></trkpt><trkpt lat="43.6569633" lon="12.389345"><ele>383.6666666666667</ele><time>2026-03-22T08:18:47.654Z</time></trkpt><trkpt lat="43.6568817" lon="12.38908"><ele>384.0</ele><time>2026-03-22T08:18:48.654Z</time></trkpt><trkpt lat="43.6567967" lon="12.3888067"><ele>385.33333333333337</ele><time>2026-03-22T08:18:49.655Z</time></trkpt><trkpt lat="43.6567033" lon="12.3885317"><ele>386.6666666666667</ele><time>2026-03-22T08:18:50.654Z</time></trkpt><trkpt lat="43.6566117" lon="12.3882533"><ele>388.0</ele><time>2026-03-22T08:18:51.653Z</time></trkpt><trkpt lat="43.65652" lon="12.387975"><ele>388.0</ele><time>2026-03-22T08:18:52.654Z</time></trkpt><trkpt lat="43.6564267" lon="12.3876983"><ele>388.0</ele><time>2026-03-22T08:18:53.654Z</time></trkpt><trkpt lat="43.6563333" lon="12.3874183"><ele>388.0</ele><time>2026-03-22T08:18:54.654Z</time></trkpt><trkpt lat="43.6562433" lon="12.38714"><ele>388.33333333333337</ele><time>2026-03-22T08:18:55.654Z</time></trkpt><trkpt lat="43.6561517" lon="12.38686"><ele>388.66666666666663</ele><time>2026-03-22T08:18:56.654Z</time></trkpt><trkpt lat="43.6560617" lon="12.3865783"><ele>389.0</ele><time>2026-03-22T08:18:57.654Z</time></trkpt><trkpt lat="43.65597" lon="12.386295"><ele>389.0</ele><time>2026-03-22T08:18:58.653Z</time></trkpt><trkpt lat="43.65588" lon="12.3860167"><ele>389.0</ele><time>2026-03-22T08:18:59.655Z</time></trkpt><trkpt lat="43.65579" lon="12.3857367"><ele>389.0</ele><time>2026-03-22T08:19:00.651Z</time></trkpt><trkpt lat="43.6557" lon="12.3854567"><ele>388.3333333333333</ele><time>2026-03-22T08:19:01.652Z</time></trkpt><trkpt lat="43.6556083" lon="12.385175"><ele>387.66666666666663</ele><time>2026-03-22T08:19:02.654Z</time></trkpt><trkpt lat="43.6555183" lon="12.3848917"><ele>387.0</ele><time>2026-03-22T08:19:03.65Z</time></trkpt><trkpt lat="43.6554283" lon="12.3846083"><ele>387.0</ele><time>2026-03-22T08:19:04.654Z</time></trkpt><trkpt lat="43.6553367" lon="12.3843217"><ele>387.0</ele><time>2026-03-22T08:19:05.65Z</time></trkpt><trkpt lat="43.6552433" lon="12.3840333"><ele>386.5</ele><time>2026-03-22T08:19:06.652Z</time></trkpt><trkpt lat="43.65515" lon="12.38374"><ele>386.0</ele><time>2026-03-22T08:19:07.652Z</time></trkpt><trkpt lat="43.655055" lon="12.383445"><ele>386.0</ele><time>2026-03-22T08:19:08.652Z</time></trkpt><trkpt lat="43.65496" lon="12.383145"><ele>386.0</ele><time>2026-03-22T08:19:09.652Z</time></trkpt><trkpt lat="43.6548633" lon="12.3828483"><ele>386.0</ele><time>2026-03-22T08:19:10.653Z</time></trkpt><trkpt lat="43.6547667" lon="12.3825517"><ele>386.0</ele><time>2026-03-22T08:19:11.652Z</time></trkpt><trkpt lat="43.65467" lon="12.3822567"><ele>385.0</ele><time>2026-03-22T08:19:12.652Z</time></trkpt><trkpt lat="43.6545717" lon="12.3819633"><ele>384.0</ele><time>2026-03-22T08:19:13.652Z</time></trkpt><trkpt lat="43.6544767" lon="12.38167"><ele>385.0</ele><time>2026-03-22T08:19:14.652Z</time></trkpt><trkpt lat="43.654385" lon="12.3813767"><ele>386.0</ele><time>2026-03-22T08:19:15.655Z</time></trkpt><trkpt lat="43.6542933" lon="12.3810833"><ele>386.0</ele><time>2026-03-22T08:19:16.651Z</time></trkpt><trkpt lat="43.6541983" lon="12.38079"><ele>386.0</ele><time>2026-03-22T08:19:17.655Z</time></trkpt><trkpt lat="43.6541033" lon="12.380495"><ele>386.0</ele><time>2026-03-22T08:19:18.654Z</time></trkpt><trkpt lat="43.6540083" lon="12.3802017"><ele>386.0</ele><time>2026-03-22T08:19:19.654Z</time></trkpt><trkpt lat="43.6539133" lon="12.37991"><ele>384.0</ele><time>2026-03-22T08:19:20.653Z</time></trkpt><trkpt lat="43.6538183" lon="12.3796167"><ele>382.0</ele><time>2026-03-22T08:19:21.658Z</time></trkpt><trkpt lat="43.653725" lon="12.3793267"><ele>382.0</ele><time>2026-03-22T08:19:22.654Z</time></trkpt><trkpt lat="43.6536317" lon="12.3790367"><ele>382.0</ele><time>2026-03-22T08:19:23.653Z</time></trkpt><trkpt lat="43.6535433" lon="12.3787467"><ele>386.5</ele><time>2026-03-22T08:19:24.654Z</time></trkpt><trkpt lat="43.653465" lon="12.378455"><ele>391.0</ele><time>2026-03-22T08:19:25.655Z</time></trkpt><trkpt lat="43.653395" lon="12.3781583"><ele>390.5</ele><time>2026-03-22T08:19:26.654Z</time></trkpt><trkpt lat="43.6533317" lon="12.37786"><ele>390.0</ele><time>2026-03-22T08:19:27.65Z</time></trkpt><trkpt lat="43.6532567" lon="12.377565"><ele>390.0</ele><time>2026-03-22T08:19:28.651Z</time></trkpt><trkpt lat="43.6531617" lon="12.3772733"><ele>390.0</ele><time>2026-03-22T08:19:29.652Z</time></trkpt><trkpt lat="43.6530583" lon="12.3769833"><ele>385.5</ele><time>2026-03-22T08:19:30.652Z</time></trkpt><trkpt lat="43.6529517" lon="12.3766967"><ele>381.0</ele><time>2026-03-22T08:19:31.651Z</time></trkpt><trkpt lat="43.65285" lon="12.3764183"><ele>382.33333333333337</ele><time>2026-03-22T08:19:32.652Z</time></trkpt><trkpt lat="43.65275" lon="12.3761517"><ele>383.6666666666667</ele><time>2026-03-22T08:19:33.653Z</time></trkpt><trkpt lat="43.65265" lon="12.37589"><ele>385.0</ele><time>2026-03-22T08:19:34.652Z</time></trkpt><trkpt lat="43.6525583" lon="12.375635"><ele>385.0</ele><time>2026-03-22T08:19:35.651Z</time></trkpt><trkpt lat="43.6524867" lon="12.3753683"><ele>385.0</ele><time>2026-03-22T08:19:36.652Z</time></trkpt><trkpt lat="43.6524417" lon="12.3750783"><ele>385.0</ele><time>2026-03-22T08:19:37.651Z</time></trkpt><trkpt lat="43.6524183" lon="12.37477"><ele>385.0</ele><time>2026-03-22T08:19:38.651Z</time></trkpt><trkpt lat="43.652405" lon="12.3744533"><ele>385.0</ele><time>2026-03-22T08:19:39.652Z</time></trkpt><trkpt lat="43.6523917" lon="12.3741433"><ele>385.6666666666667</ele><time>2026-03-22T08:19:40.651Z</time></trkpt><trkpt lat="43.6523733" lon="12.37384"><ele>386.33333333333337</ele><time>2026-03-22T08:19:41.653Z</time></trkpt><trkpt lat="43.6523533" lon="12.373535"><ele>387.0</ele><time>2026-03-22T08:19:42.652Z</time></trkpt><trkpt lat="43.6523267" lon="12.37323"><ele>387.66666666666663</ele><time>2026-03-22T08:19:43.651Z</time></trkpt><trkpt lat="43.65229" lon="12.3729333"><ele>388.3333333333333</ele><time>2026-03-22T08:19:44.653Z</time></trkpt><trkpt lat="43.6522367" lon="12.3726483"><ele>389.0</ele><time>2026-03-22T08:19:45.654Z</time></trkpt><trkpt lat="43.6521683" lon="12.3723683"><ele>389.0</ele><time>2026-03-22T08:19:46.653Z</time></trkpt><trkpt lat="43.65209" lon="12.3720917"><ele>389.0</ele><time>2026-03-22T08:19:47.654Z</time></trkpt><trkpt lat="43.6520133" lon="12.3718133"><ele>389.0</ele><time>2026-03-22T08:19:48.654Z</time></trkpt><trkpt lat="43.6519367" lon="12.37154"><ele>390.66666666666663</ele><time>2026-03-22T08:19:49.655Z</time></trkpt><trkpt lat="43.6518617" lon="12.3712717"><ele>392.33333333333337</ele><time>2026-03-22T08:19:50.653Z</time></trkpt><trkpt lat="43.6517867" lon="12.3710117"><ele>394.0</ele><time>2026-03-22T08:19:51.654Z</time></trkpt><trkpt lat="43.6517183" lon="12.3707633"><ele>393.0</ele><time>2026-03-22T08:19:52.655Z</time></trkpt><trkpt lat="43.6516533" lon="12.3705217"><ele>392.0</ele><time>2026-03-22T08:19:53.654Z</time></trkpt><trkpt lat="43.6515867" lon="12.3702833"><ele>391.0</ele><time>2026-03-22T08:19:54.655Z</time></trkpt><trkpt lat="43.6515233" lon="12.3700417"><ele>391.0</ele><time>2026-03-22T08:19:55.653Z</time></trkpt><trkpt lat="43.651455" lon="12.3698017"><ele>391.0</ele><time>2026-03-22T08:19:56.653Z</time></trkpt><trkpt lat="43.6513833" lon="12.369565"><ele>391.0</ele><time>2026-03-22T08:19:57.655Z</time></trkpt><trkpt lat="43.6513033" lon="12.369325"><ele>391.33333333333337</ele><time>2026-03-22T08:19:58.653Z</time></trkpt><trkpt lat="43.6512083" lon="12.369085"><ele>391.66666666666663</ele><time>2026-03-22T08:19:59.653Z</time></trkpt><trkpt lat="43.6511" lon="12.3688333"><ele>392.0</ele><time>2026-03-22T08:20:00.653Z</time></trkpt><trkpt lat="43.650985" lon="12.3685617"><ele>392.5</ele><time>2026-03-22T08:20:01.651Z</time></trkpt><trkpt lat="43.650875" lon="12.368275"><ele>393.0</ele><time>2026-03-22T08:20:02.651Z</time></trkpt><trkpt lat="43.6507717" lon="12.3679983"><ele>393.0</ele><time>2026-03-22T08:20:03.652Z</time></trkpt><trkpt lat="43.65067" lon="12.3677433"><ele>393.0</ele><time>2026-03-22T08:20:04.652Z</time></trkpt><trkpt lat="43.650575" lon="12.3675017"><ele>393.0</ele><time>2026-03-22T08:20:05.651Z</time></trkpt><trkpt lat="43.6504817" lon="12.367275"><ele>392.33333333333337</ele><time>2026-03-22T08:20:06.653Z</time></trkpt><trkpt lat="43.65038" lon="12.3670483"><ele>391.6666666666667</ele><time>2026-03-22T08:20:07.655Z</time></trkpt><trkpt lat="43.650275" lon="12.3668033"><ele>391.0</ele><time>2026-03-22T08:20:08.651Z</time></trkpt><trkpt lat="43.6501733" lon="12.3665367"><ele>392.0</ele><time>2026-03-22T08:20:09.652Z</time></trkpt><trkpt lat="43.6500833" lon="12.3662567"><ele>393.0</ele><time>2026-03-22T08:20:10.652Z</time></trkpt><trkpt lat="43.6500033" lon="12.3659633"><ele>394.0</ele><time>2026-03-22T08:20:11.652Z</time></trkpt><trkpt lat="43.6499267" lon="12.3656633"><ele>392.33333333333337</ele><time>2026-03-22T08:20:12.653Z</time></trkpt><trkpt lat="43.6498533" lon="12.3653683"><ele>390.66666666666663</ele><time>2026-03-22T08:20:13.65Z</time></trkpt><trkpt lat="43.64978" lon="12.3650767"><ele>389.0</ele><time>2026-03-22T08:20:14.653Z</time></trkpt><trkpt lat="43.6497117" lon="12.3647867"><ele>389.3333333333333</ele><time>2026-03-22T08:20:15.651Z</time></trkpt><trkpt lat="43.6496433" lon="12.3644967"><ele>389.66666666666663</ele><time>2026-03-22T08:20:16.654Z</time></trkpt><trkpt lat="43.6495733" lon="12.3642083"><ele>390.0</ele><time>2026-03-22T08:20:17.654Z</time></trkpt><trkpt lat="43.6495033" lon="12.3639217"><ele>392.33333333333337</ele><time>2026-03-22T08:20:18.654Z</time></trkpt><trkpt lat="43.6494283" lon="12.363635"><ele>394.6666666666667</ele><time>2026-03-22T08:20:19.655Z</time></trkpt><trkpt lat="43.6493533" lon="12.3633483"><ele>397.0</ele><time>2026-03-22T08:20:20.654Z</time></trkpt><trkpt lat="43.6492817" lon="12.3630617"><ele>396.6666666666667</ele><time>2026-03-22T08:20:21.654Z</time></trkpt><trkpt lat="43.6492067" lon="12.3627683"><ele>396.33333333333337</ele><time>2026-03-22T08:20:22.654Z</time></trkpt><trkpt lat="43.649135" lon="12.3624833"><ele>396.0</ele><time>2026-03-22T08:20:23.659Z</time></trkpt><trkpt lat="43.6490567" lon="12.3622033"><ele>395.66666666666663</ele><time>2026-03-22T08:20:24.653Z</time></trkpt><trkpt lat="43.6489667" lon="12.36193"><ele>395.3333333333333</ele><time>2026-03-22T08:20:25.655Z</time></trkpt><trkpt lat="43.6488667" lon="12.361675"><ele>395.0</ele><time>2026-03-22T08:20:26.653Z</time></trkpt><trkpt lat="43.648765" lon="12.3614317"><ele>394.3333333333333</ele><time>2026-03-22T08:20:27.654Z</time></trkpt><trkpt lat="43.6486767" lon="12.361175"><ele>393.66666666666663</ele><time>2026-03-22T08:20:28.654Z</time></trkpt><trkpt lat="43.6486167" lon="12.3608917"><ele>393.0</ele><time>2026-03-22T08:20:29.654Z</time></trkpt><trkpt lat="43.6485817" lon="12.3605833"><ele>394.5</ele><time>2026-03-22T08:20:30.654Z</time></trkpt><trkpt lat="43.648555" lon="12.3602683"><ele>396.0</ele><time>2026-03-22T08:20:31.654Z</time></trkpt><trkpt lat="43.648525" lon="12.3599533"><ele>396.0</ele><time>2026-03-22T08:20:32.653Z</time></trkpt><trkpt lat="43.64848" lon="12.3596417"><ele>396.0</ele><time>2026-03-22T08:20:33.65Z</time></trkpt><trkpt lat="43.64843" lon="12.3593317"><ele>396.0</ele><time>2026-03-22T08:20:34.653Z</time></trkpt><trkpt lat="43.6483783" lon="12.35902"><ele>396.0</ele><time>2026-03-22T08:20:35.653Z</time></trkpt><trkpt lat="43.648325" lon="12.358705"><ele>396.5</ele><time>2026-03-22T08:20:36.654Z</time></trkpt><trkpt lat="43.648275" lon="12.3583933"><ele>397.0</ele><time>2026-03-22T08:20:37.656Z</time></trkpt><trkpt lat="43.648225" lon="12.358085"><ele>398.0</ele><time>2026-03-22T08:20:38.653Z</time></trkpt><trkpt lat="43.6481767" lon="12.3577767"><ele>399.0</ele><time>2026-03-22T08:20:39.654Z</time></trkpt><trkpt lat="43.6481283" lon="12.357465"><ele>399.0</ele><time>2026-03-22T08:20:40.654Z</time></trkpt><trkpt lat="43.6480817" lon="12.3571517"><ele>399.0</ele><time>2026-03-22T08:20:41.653Z</time></trkpt><trkpt lat="43.6480367" lon="12.35684"><ele>399.0</ele><time>2026-03-22T08:20:42.654Z</time></trkpt><trkpt lat="43.6479917" lon="12.3565283"><ele>399.0</ele><time>2026-03-22T08:20:43.65Z</time></trkpt><trkpt lat="43.64794" lon="12.3562183"><ele>399.5</ele><time>2026-03-22T08:20:44.653Z</time></trkpt><trkpt lat="43.6478883" lon="12.3559067"><ele>400.0</ele><time>2026-03-22T08:20:45.651Z</time></trkpt><trkpt lat="43.6478367" lon="12.3555917"><ele>401.0</ele><time>2026-03-22T08:20:46.653Z</time></trkpt><trkpt lat="43.6477867" lon="12.3552783"><ele>402.0</ele><time>2026-03-22T08:20:47.653Z</time></trkpt><trkpt lat="43.6477367" lon="12.3549633"><ele>403.0</ele><time>2026-03-22T08:20:48.654Z</time></trkpt><trkpt lat="43.6476983" lon="12.3546483"><ele>404.0</ele><time>2026-03-22T08:20:49.655Z</time></trkpt><trkpt lat="43.6476683" lon="12.3543283"><ele>404.0</ele><time>2026-03-22T08:20:50.653Z</time></trkpt><trkpt lat="43.6476467" lon="12.3540033"><ele>404.0</ele><time>2026-03-22T08:20:51.653Z</time></trkpt><trkpt lat="43.6476267" lon="12.353675"><ele>404.0</ele><time>2026-03-22T08:20:52.653Z</time></trkpt><trkpt lat="43.6476017" lon="12.3533483"><ele>404.0</ele><time>2026-03-22T08:20:53.654Z</time></trkpt><trkpt lat="43.6475767" lon="12.3530233"><ele>404.0</ele><time>2026-03-22T08:20:54.654Z</time></trkpt><trkpt lat="43.6475517" lon="12.3527"><ele>404.0</ele><time>2026-03-22T08:20:55.655Z</time></trkpt><trkpt lat="43.6475283" lon="12.352375"><ele>403.0</ele><time>2026-03-22T08:20:56.653Z</time></trkpt><trkpt lat="43.6475033" lon="12.3520483"><ele>402.0</ele><time>2026-03-22T08:20:57.654Z</time></trkpt><trkpt lat="43.64748" lon="12.351725"><ele>402.0</ele><time>2026-03-22T08:20:58.653Z</time></trkpt><trkpt lat="43.64746" lon="12.351415"><ele>402.0</ele><time>2026-03-22T08:20:59.654Z</time></trkpt><trkpt lat="43.64744" lon="12.3511217"><ele>402.0</ele><time>2026-03-22T08:21:00.654Z</time></trkpt><trkpt lat="43.6474183" lon="12.35085"><ele>402.0</ele><time>2026-03-22T08:21:01.655Z</time></trkpt><trkpt lat="43.6473833" lon="12.3505917"><ele>402.0</ele><time>2026-03-22T08:21:02.654Z</time></trkpt><trkpt lat="43.6473267" lon="12.35034"><ele>402.0</ele><time>2026-03-22T08:21:03.654Z</time></trkpt><trkpt lat="43.6472533" lon="12.350085"><ele>402.0</ele><time>2026-03-22T08:21:04.654Z</time></trkpt><trkpt lat="43.6471683" lon="12.3498233"><ele>402.0</ele><time>2026-03-22T08:21:05.651Z</time></trkpt><trkpt lat="43.6470733" lon="12.349555"><ele>402.0</ele><time>2026-03-22T08:21:06.654Z</time></trkpt><trkpt lat="43.64698" lon="12.349285"><ele>403.66666666666663</ele><time>2026-03-22T08:21:07.654Z</time></trkpt><trkpt lat="43.6468933" lon="12.3490217"><ele>405.3333333333333</ele><time>2026-03-22T08:21:08.651Z</time></trkpt><trkpt lat="43.64682" lon="12.34876"><ele>407.0</ele><time>2026-03-22T08:21:09.654Z</time></trkpt><trkpt lat="43.6467733" lon="12.34849"><ele>407.0</ele><time>2026-03-22T08:21:10.654Z</time></trkpt><trkpt lat="43.646745" lon="12.3482033"><ele>407.0</ele><time>2026-03-22T08:21:11.655Z</time></trkpt><trkpt lat="43.646725" lon="12.347905"><ele>407.0</ele><time>2026-03-22T08:21:12.654Z</time></trkpt><trkpt lat="43.646715" lon="12.3476117"><ele>407.0</ele><time>2026-03-22T08:21:13.651Z</time></trkpt><trkpt lat="43.6467083" lon="12.347325"><ele>407.0</ele><time>2026-03-22T08:21:14.653Z</time></trkpt><trkpt lat="43.6466967" lon="12.3470417"><ele>407.0</ele><time>2026-03-22T08:21:15.654Z</time></trkpt><trkpt lat="43.6466933" lon="12.3467733"><ele>406.3333333333333</ele><time>2026-03-22T08:21:16.651Z</time></trkpt><trkpt lat="43.6466867" lon="12.3465183"><ele>405.66666666666663</ele><time>2026-03-22T08:21:17.655Z</time></trkpt><trkpt lat="43.6466883" lon="12.346285"><ele>405.0</ele><time>2026-03-22T08:21:18.653Z</time></trkpt><trkpt lat="43.6466983" lon="12.3460617"><ele>404.66666666666663</ele><time>2026-03-22T08:21:19.655Z</time></trkpt><trkpt lat="43.646735" lon="12.3458433"><ele>404.3333333333333</ele><time>2026-03-22T08:21:20.652Z</time></trkpt><trkpt lat="43.6467967" lon="12.3456367"><ele>404.0</ele><time>2026-03-22T08:21:21.653Z</time></trkpt><trkpt lat="43.6468817" lon="12.3454517"><ele>405.0</ele><time>2026-03-22T08:21:22.654Z</time></trkpt><trkpt lat="43.646975" lon="12.3452717"><ele>406.0</ele><time>2026-03-22T08:21:23.653Z</time></trkpt><trkpt lat="43.647065" lon="12.3450933"><ele>407.0</ele><time>2026-03-22T08:21:24.656Z</time></trkpt><trkpt lat="43.6471467" lon="12.3449183"><ele>407.0</ele><time>2026-03-22T08:21:25.653Z</time></trkpt><trkpt lat="43.6472267" lon="12.3447533"><ele>407.0</ele><time>2026-03-22T08:21:26.653Z</time></trkpt><trkpt lat="43.6473" lon="12.3446"><ele>407.0</ele><time>2026-03-22T08:21:27.654Z</time></trkpt><trkpt lat="43.647365" lon="12.3444667"><ele>407.0</ele><time>2026-03-22T08:21:28.654Z</time></trkpt><trkpt lat="43.6474233" lon="12.3443617"><ele>406.49999999999994</ele><time>2026-03-22T08:21:29.654Z</time></trkpt><trkpt lat="43.6474883" lon="12.34429"><ele>406.0</ele><time>2026-03-22T08:21:30.652Z</time></trkpt><trkpt lat="43.6475617" lon="12.3442517"><ele>405.5</ele><time>2026-03-22T08:21:31.651Z</time></trkpt><trkpt lat="43.64764" lon="12.3442533"><ele>405.0</ele><time>2026-03-22T08:21:32.653Z</time></trkpt><trkpt lat="43.6477283" lon="12.3442817"><ele>404.49999999999994</ele><time>2026-03-22T08:21:33.655Z</time></trkpt><trkpt lat="43.647835" lon="12.3443367"><ele>404.0</ele><time>2026-03-22T08:21:34.653Z</time></trkpt><trkpt lat="43.647955" lon="12.3444017"><ele>404.0</ele><time>2026-03-22T08:21:35.653Z</time></trkpt><trkpt lat="43.6480817" lon="12.3444767"><ele>404.0</ele><time>2026-03-22T08:21:36.654Z</time></trkpt><trkpt lat="43.64821" lon="12.3445483"><ele>404.0</ele><time>2026-03-22T08:21:37.654Z</time></trkpt><trkpt lat="43.648335" lon="12.34462"><ele>404.0</ele><time>2026-03-22T08:21:38.654Z</time></trkpt><trkpt lat="43.6484483" lon="12.344695"><ele>404.2</ele><time>2026-03-22T08:21:39.654Z</time></trkpt><trkpt lat="43.64855" lon="12.3447733"><ele>404.4</ele><time>2026-03-22T08:21:40.654Z</time></trkpt><trkpt lat="43.6486217" lon="12.3448683"><ele>404.6</ele><time>2026-03-22T08:21:41.651Z</time></trkpt><trkpt lat="43.6486617" lon="12.344985"><ele>404.8</ele><time>2026-03-22T08:21:42.654Z</time></trkpt><trkpt lat="43.648665" lon="12.3451183"><ele>405.0</ele><time>2026-03-22T08:21:43.653Z</time></trkpt><trkpt lat="43.64864" lon="12.3452617"><ele>405.0</ele><time>2026-03-22T08:21:44.653Z</time></trkpt><trkpt lat="43.6486117" lon="12.345415"><ele>405.0</ele><time>2026-03-22T08:21:45.653Z</time></trkpt><trkpt lat="43.6485917" lon="12.3455683"><ele>405.0</ele><time>2026-03-22T08:21:46.652Z</time></trkpt><trkpt lat="43.648585" lon="12.345725"><ele>405.0</ele><time>2026-03-22T08:21:47.652Z</time></trkpt><trkpt lat="43.6485983" lon="12.3458783"><ele>409.0</ele><time>2026-03-22T08:21:48.652Z</time></trkpt><trkpt lat="43.6486267" lon="12.346035"><ele>413.0</ele><time>2026-03-22T08:21:49.651Z</time></trkpt><trkpt lat="43.64867" lon="12.3462"><ele>417.0</ele><time>2026-03-22T08:21:50.651Z</time></trkpt><trkpt lat="43.648715" lon="12.3463767"><ele>421.0</ele><time>2026-03-22T08:21:51.653Z</time></trkpt><trkpt lat="43.6487567" lon="12.3465517"><ele>421.50000000000006</ele><time>2026-03-22T08:21:52.652Z</time></trkpt><trkpt lat="43.6488" lon="12.346705"><ele>422.0</ele><time>2026-03-22T08:21:53.651Z</time></trkpt><trkpt lat="43.6488417" lon="12.3468167"><ele>422.5</ele><time>2026-03-22T08:21:54.653Z</time></trkpt><trkpt lat="43.6488883" lon="12.3469"><ele>423.0</ele><time>2026-03-22T08:21:55.653Z</time></trkpt><trkpt lat="43.6489433" lon="12.3469483"><ele>423.50000000000006</ele><time>2026-03-22T08:21:56.654Z</time></trkpt><trkpt lat="43.6490067" lon="12.3469567"><ele>424.0</ele><time>2026-03-22T08:21:57.655Z</time></trkpt><trkpt lat="43.6491183" lon="12.3468617"><ele>424.0</ele><time>2026-03-22T08:21:59.654Z</time></trkpt><trkpt lat="43.6491583" lon="12.346735"><ele>424.0</ele><time>2026-03-22T08:22:00.653Z</time></trkpt><trkpt lat="43.649175" lon="12.3465767"><ele>424.0</ele><time>2026-03-22T08:22:01.654Z</time></trkpt><trkpt lat="43.649205" lon="12.346435"><ele>424.0</ele><time>2026-03-22T08:22:02.654Z</time></trkpt><trkpt lat="43.6492533" lon="12.3463"><ele>424.0</ele><time>2026-03-22T08:22:03.653Z</time></trkpt><trkpt lat="43.6493233" lon="12.34618"><ele>423.4</ele><time>2026-03-22T08:22:04.654Z</time></trkpt><trkpt lat="43.6494017" lon="12.34607"><ele>422.79999999999995</ele><time>2026-03-22T08:22:05.65Z</time></trkpt><trkpt lat="43.649475" lon="12.3459783"><ele>422.20000000000005</ele><time>2026-03-22T08:22:06.65Z</time></trkpt><trkpt lat="43.6495367" lon="12.3459083"><ele>421.6</ele><time>2026-03-22T08:22:07.652Z</time></trkpt><trkpt lat="43.6495867" lon="12.3458517"><ele>421.0</ele><time>2026-03-22T08:22:08.654Z</time></trkpt><trkpt lat="43.6496667" lon="12.345735"><ele>424.00000000000006</ele><time>2026-03-22T08:22:10.654Z</time></trkpt><trkpt lat="43.6497117" lon="12.3456517"><ele>427.0</ele><time>2026-03-22T08:22:11.654Z</time></trkpt><trkpt lat="43.6497517" lon="12.3455567"><ele>430.0</ele><time>2026-03-22T08:22:12.655Z</time></trkpt><trkpt lat="43.649795" lon="12.345455"><ele>433.0</ele><time>2026-03-22T08:22:13.654Z</time></trkpt><trkpt lat="43.6498267" lon="12.3453567"><ele>436.00000000000006</ele><time>2026-03-22T08:22:14.652Z</time></trkpt><trkpt lat="43.6498467" lon="12.3452667"><ele>439.0</ele><time>2026-03-22T08:22:15.654Z</time></trkpt><trkpt lat="43.6498133" lon="12.3450867"><ele>439.0</ele><time>2026-03-22T08:22:17.652Z</time></trkpt><trkpt lat="43.6497417" lon="12.3450067"><ele>439.0</ele><time>2026-03-22T08:22:18.652Z</time></trkpt><trkpt lat="43.6496483" lon="12.3449217"><ele>439.0</ele><time>2026-03-22T08:22:19.653Z</time></trkpt><trkpt lat="43.649575" lon="12.3448217"><ele>439.0</ele><time>2026-03-22T08:22:20.651Z</time></trkpt><trkpt lat="43.6495333" lon="12.344685"><ele>439.0</ele><time>2026-03-22T08:22:21.651Z</time></trkpt><trkpt lat="43.6495067" lon="12.344525"><ele>440.25</ele><time>2026-03-22T08:22:22.651Z</time></trkpt><trkpt lat="43.649485" lon="12.344355"><ele>441.5</ele><time>2026-03-22T08:22:23.655Z</time></trkpt><trkpt lat="43.6494583" lon="12.3441767"><ele>442.75</ele><time>2026-03-22T08:22:24.654Z</time></trkpt><trkpt lat="43.6494317" lon="12.3439933"><ele>444.0</ele><time>2026-03-22T08:22:25.654Z</time></trkpt><trkpt lat="43.6494067" lon="12.3438167"><ele>439.2</ele><time>2026-03-22T08:22:26.651Z</time></trkpt><trkpt lat="43.6493867" lon="12.34365"><ele>434.4</ele><time>2026-03-22T08:22:27.651Z</time></trkpt><trkpt lat="43.649375" lon="12.3434933"><ele>429.6</ele><time>2026-03-22T08:22:28.651Z</time></trkpt><trkpt lat="43.649375" lon="12.3433533"><ele>424.8</ele><time>2026-03-22T08:22:29.65Z</time></trkpt><trkpt lat="43.6493833" lon="12.343235"><ele>420.0</ele><time>2026-03-22T08:22:30.652Z</time></trkpt><trkpt lat="43.6494133" lon="12.3431333"><ele>422.0</ele><time>2026-03-22T08:22:31.651Z</time></trkpt><trkpt lat="43.6494633" lon="12.34303"><ele>424.0</ele><time>2026-03-22T08:22:32.651Z</time></trkpt><trkpt lat="43.6495283" lon="12.3429367"><ele>426.0</ele><time>2026-03-22T08:22:33.65Z</time></trkpt><trkpt lat="43.6495783" lon="12.3428383"><ele>428.0</ele><time>2026-03-22T08:22:34.654Z</time></trkpt><trkpt lat="43.6496083" lon="12.3427433"><ele>430.0</ele><time>2026-03-22T08:22:35.654Z</time></trkpt><trkpt lat="43.6496183" lon="12.3426383"><ele>432.0</ele><time>2026-03-22T08:22:36.653Z</time></trkpt><trkpt lat="43.649595" lon="12.3425317"><ele>432.0</ele><time>2026-03-22T08:22:37.653Z</time></trkpt><trkpt lat="43.6495317" lon="12.34242"><ele>432.0</ele><time>2026-03-22T08:22:38.654Z</time></trkpt><trkpt lat="43.6494533" lon="12.3423133"><ele>432.0</ele><time>2026-03-22T08:22:39.653Z</time></trkpt><trkpt lat="43.64942" lon="12.3422067"><ele>432.0</ele><time>2026-03-22T08:22:40.654Z</time></trkpt><trkpt lat="43.6494067" lon="12.3421033"><ele>432.0</ele><time>2026-03-22T08:22:41.654Z</time></trkpt><trkpt lat="43.649405" lon="12.34201"><ele>432.0</ele><time>2026-03-22T08:22:42.652Z</time></trkpt><trkpt lat="43.64941" lon="12.3419033"><ele>433.5</ele><time>2026-03-22T08:22:43.654Z</time></trkpt><trkpt lat="43.6494267" lon="12.3417683"><ele>435.0</ele><time>2026-03-22T08:22:44.654Z</time></trkpt><trkpt lat="43.64946" lon="12.3416167"><ele>436.5</ele><time>2026-03-22T08:22:45.654Z</time></trkpt><trkpt lat="43.6495017" lon="12.3414467"><ele>438.0</ele><time>2026-03-22T08:22:46.651Z</time></trkpt><trkpt lat="43.6495467" lon="12.3412617"><ele>442.25</ele><time>2026-03-22T08:22:47.653Z</time></trkpt><trkpt lat="43.64958" lon="12.3410667"><ele>446.5</ele><time>2026-03-22T08:22:48.651Z</time></trkpt><trkpt lat="43.6496033" lon="12.340865"><ele>450.75</ele><time>2026-03-22T08:22:49.651Z</time></trkpt><trkpt lat="43.6496117" lon="12.3406667"><ele>455.0</ele><time>2026-03-22T08:22:50.651Z</time></trkpt><trkpt lat="43.6496133" lon="12.3404883"><ele>455.0</ele><time>2026-03-22T08:22:51.651Z</time></trkpt><trkpt lat="43.6496267" lon="12.3403333"><ele>455.0</ele><time>2026-03-22T08:22:52.651Z</time></trkpt><trkpt lat="43.64966" lon="12.3401933"><ele>455.0</ele><time>2026-03-22T08:22:53.655Z</time></trkpt><trkpt lat="43.64972" lon="12.34006"><ele>455.0</ele><time>2026-03-22T08:22:54.653Z</time></trkpt><trkpt lat="43.6497867" lon="12.33993"><ele>455.0</ele><time>2026-03-22T08:22:55.65Z</time></trkpt><trkpt lat="43.6498617" lon="12.339795"><ele>453.6</ele><time>2026-03-22T08:22:56.651Z</time></trkpt><trkpt lat="43.64994" lon="12.3396683"><ele>452.2</ele><time>2026-03-22T08:22:57.655Z</time></trkpt><trkpt lat="43.650015" lon="12.3395467"><ele>450.79999999999995</ele><time>2026-03-22T08:22:58.654Z</time></trkpt><trkpt lat="43.65007" lon="12.3394233"><ele>449.4</ele><time>2026-03-22T08:22:59.656Z</time></trkpt><trkpt lat="43.6501117" lon="12.339315"><ele>448.0</ele><time>2026-03-22T08:23:00.654Z</time></trkpt><trkpt lat="43.6501583" lon="12.3392267"><ele>448.00000000000006</ele><time>2026-03-22T08:23:01.654Z</time></trkpt><trkpt lat="43.6502083" lon="12.339165"><ele>448.0</ele><time>2026-03-22T08:23:02.651Z</time></trkpt><trkpt lat="43.6502733" lon="12.3391983"><ele>448.0</ele><time>2026-03-22T08:23:03.651Z</time></trkpt><trkpt lat="43.6503717" lon="12.339255"><ele>448.0</ele><time>2026-03-22T08:23:05.654Z</time></trkpt><trkpt lat="43.6503133" lon="12.3392917"><ele>448.00000000000006</ele><time>2026-03-22T08:23:32.654Z</time></trkpt><trkpt lat="43.65025" lon="12.339395"><ele>448.0</ele><time>2026-03-22T08:23:34.654Z</time></trkpt><trkpt lat="43.6502183" lon="12.339485"><ele>448.0</ele><time>2026-03-22T08:23:35.653Z</time></trkpt><trkpt lat="43.6502033" lon="12.3395933"><ele>447.99999999999994</ele><time>2026-03-22T08:23:36.658Z</time></trkpt><trkpt lat="43.6502017" lon="12.3397217"><ele>447.99999999999994</ele><time>2026-03-22T08:23:37.653Z</time></trkpt><trkpt lat="43.6501867" lon="12.3398783"><ele>448.0</ele><time>2026-03-22T08:23:38.655Z</time></trkpt><trkpt lat="43.6501733" lon="12.340025"><ele>448.0</ele><time>2026-03-22T08:23:39.655Z</time></trkpt><trkpt lat="43.6501633" lon="12.34014"><ele>449.4</ele><time>2026-03-22T08:23:40.654Z</time></trkpt><trkpt lat="43.6501917" lon="12.3402783"><ele>450.79999999999995</ele><time>2026-03-22T08:23:42.65Z</time></trkpt><trkpt lat="43.6502617" lon="12.3402967"><ele>452.2</ele><time>2026-03-22T08:23:44.654Z</time></trkpt><trkpt lat="43.6504" lon="12.3401717"><ele>453.6</ele><time>2026-03-22T08:23:46.651Z</time></trkpt><trkpt lat="43.6504883" lon="12.3401"><ele>455.0</ele><time>2026-03-22T08:23:47.651Z</time></trkpt><trkpt lat="43.6505933" lon="12.3400383"><ele>459.25</ele><time>2026-03-22T08:23:48.653Z</time></trkpt><trkpt lat="43.6507133" lon="12.33998"><ele>463.5</ele><time>2026-03-22T08:23:49.654Z</time></trkpt><trkpt lat="43.6508267" lon="12.33991"><ele>467.75</ele><time>2026-03-22T08:23:50.654Z</time></trkpt><trkpt lat="43.6509333" lon="12.339855"><ele>472.0</ele><time>2026-03-22T08:23:51.654Z</time></trkpt><trkpt lat="43.6510283" lon="12.3398"><ele>472.0</ele><time>2026-03-22T08:23:52.654Z</time></trkpt><trkpt lat="43.6511183" lon="12.3397383"><ele>472.00000000000006</ele><time>2026-03-22T08:23:53.655Z</time></trkpt><trkpt lat="43.651205" lon="12.3396567"><ele>472.00000000000006</ele><time>2026-03-22T08:23:54.654Z</time></trkpt><trkpt lat="43.6512967" lon="12.3395617"><ele>472.0</ele><time>2026-03-22T08:23:55.656Z</time></trkpt><trkpt lat="43.6513883" lon="12.3394683"><ele>472.0</ele><time>2026-03-22T08:23:56.655Z</time></trkpt><trkpt lat="43.6514733" lon="12.3393633"><ele>472.40000000000003</ele><time>2026-03-22T08:23:57.65Z</time></trkpt><trkpt lat="43.6515533" lon="12.339265"><ele>472.80000000000007</ele><time>2026-03-22T08:23:58.653Z</time></trkpt><trkpt lat="43.6516317" lon="12.3391833"><ele>473.2</ele><time>2026-03-22T08:23:59.655Z</time></trkpt><trkpt lat="43.6517233" lon="12.339135"><ele>473.6</ele><time>2026-03-22T08:24:00.651Z</time></trkpt><trkpt lat="43.6518217" lon="12.3391083"><ele>474.0</ele><time>2026-03-22T08:24:01.65Z</time></trkpt><trkpt lat="43.6519183" lon="12.3390783"><ele>477.2</ele><time>2026-03-22T08:24:02.651Z</time></trkpt><trkpt lat="43.6519983" lon="12.339015"><ele>480.4</ele><time>2026-03-22T08:24:03.653Z</time></trkpt><trkpt lat="43.6520683" lon="12.3389267"><ele>483.6</ele><time>2026-03-22T08:24:04.654Z</time></trkpt><trkpt lat="43.6521317" lon="12.3388167"><ele>486.8</ele><time>2026-03-22T08:24:05.654Z</time></trkpt><trkpt lat="43.6521983" lon="12.3387117"><ele>490.0</ele><time>2026-03-22T08:24:06.654Z</time></trkpt><trkpt lat="43.6522617" lon="12.3386283"><ele>490.00000000000006</ele><time>2026-03-22T08:24:07.655Z</time></trkpt><trkpt lat="43.6523267" lon="12.33858"><ele>490.0</ele><time>2026-03-22T08:24:08.651Z</time></trkpt><trkpt lat="43.6524283" lon="12.3385933"><ele>490.0</ele><time>2026-03-22T08:24:10.655Z</time></trkpt><trkpt lat="43.6524667" lon="12.3386783"><ele>490.0</ele><time>2026-03-22T08:24:11.651Z</time></trkpt><trkpt lat="43.6525067" lon="12.3387933"><ele>490.00000000000006</ele><time>2026-03-22T08:24:12.654Z</time></trkpt><trkpt lat="43.652545" lon="12.3389167"><ele>490.0</ele><time>2026-03-22T08:24:13.652Z</time></trkpt><trkpt lat="43.6525883" lon="12.339075"><ele>491.5</ele><time>2026-03-22T08:24:14.65Z</time></trkpt><trkpt lat="43.6526217" lon="12.3392417"><ele>493.0</ele><time>2026-03-22T08:24:15.651Z</time></trkpt><trkpt lat="43.652645" lon="12.3394233"><ele>494.5</ele><time>2026-03-22T08:24:16.651Z</time></trkpt><trkpt lat="43.6526617" lon="12.339615"><ele>496.0</ele><time>2026-03-22T08:24:17.654Z</time></trkpt><trkpt lat="43.6526683" lon="12.339785"><ele>496.6</ele><time>2026-03-22T08:24:18.654Z</time></trkpt><trkpt lat="43.6526617" lon="12.3399417"><ele>497.20000000000005</ele><time>2026-03-22T08:24:19.654Z</time></trkpt><trkpt lat="43.6526267" lon="12.3400933"><ele>497.79999999999995</ele><time>2026-03-22T08:24:20.654Z</time></trkpt><trkpt lat="43.6525767" lon="12.3402283"><ele>498.4</ele><time>2026-03-22T08:24:21.655Z</time></trkpt><trkpt lat="43.65253" lon="12.3403333"><ele>499.0</ele><time>2026-03-22T08:24:22.655Z</time></trkpt><trkpt lat="43.6524983" lon="12.3404217"><ele>499.00000000000006</ele><time>2026-03-22T08:24:23.654Z</time></trkpt><trkpt lat="43.6525383" lon="12.3405483"><ele>499.0</ele><time>2026-03-22T08:24:25.654Z</time></trkpt><trkpt lat="43.6525967" lon="12.3405867"><ele>499.0</ele><time>2026-03-22T08:24:26.654Z</time></trkpt><trkpt lat="43.6526733" lon="12.3406133"><ele>499.0</ele><time>2026-03-22T08:24:27.654Z</time></trkpt><trkpt lat="43.652775" lon="12.340635"><ele>499.00000000000006</ele><time>2026-03-22T08:24:28.655Z</time></trkpt><trkpt lat="43.6528733" lon="12.3406417"><ele>499.0</ele><time>2026-03-22T08:24:29.654Z</time></trkpt><trkpt lat="43.65297" lon="12.3406183"><ele>496.5</ele><time>2026-03-22T08:24:30.654Z</time></trkpt><trkpt lat="43.65306" lon="12.3405667"><ele>494.0</ele><time>2026-03-22T08:24:31.651Z</time></trkpt><trkpt lat="43.65315" lon="12.3404917"><ele>491.5</ele><time>2026-03-22T08:24:32.651Z</time></trkpt><trkpt lat="43.6532467" lon="12.3403933"><ele>489.0</ele><time>2026-03-22T08:24:33.653Z</time></trkpt><trkpt lat="43.6533483" lon="12.3402833"><ele>493.5</ele><time>2026-03-22T08:24:34.655Z</time></trkpt><trkpt lat="43.6534367" lon="12.34018"><ele>498.0</ele><time>2026-03-22T08:24:35.655Z</time></trkpt><trkpt lat="43.653505" lon="12.3400933"><ele>502.5</ele><time>2026-03-22T08:24:36.654Z</time></trkpt><trkpt lat="43.6535517" lon="12.3400017"><ele>507.0</ele><time>2026-03-22T08:24:37.653Z</time></trkpt><trkpt lat="43.65357" lon="12.3399017"><ele>511.5</ele><time>2026-03-22T08:24:38.654Z</time></trkpt><trkpt lat="43.6535683" lon="12.3397883"><ele>516.0</ele><time>2026-03-22T08:24:39.655Z</time></trkpt><trkpt lat="43.6535483" lon="12.3396633"><ele>518.0</ele><time>2026-03-22T08:24:40.655Z</time></trkpt><trkpt lat="43.6535117" lon="12.3395133"><ele>520.0</ele><time>2026-03-22T08:24:41.655Z</time></trkpt><trkpt lat="43.6534617" lon="12.3393567"><ele>522.0</ele><time>2026-03-22T08:24:42.655Z</time></trkpt><trkpt lat="43.6533967" lon="12.339205"><ele>524.0</ele><time>2026-03-22T08:24:43.653Z</time></trkpt><trkpt lat="43.6533383" lon="12.3390767"><ele>524.0</ele><time>2026-03-22T08:24:44.654Z</time></trkpt><trkpt lat="43.6532933" lon="12.338985"><ele>524.0</ele><time>2026-03-22T08:24:45.654Z</time></trkpt><trkpt lat="43.6532683" lon="12.3388433"><ele>524.0</ele><time>2026-03-22T08:24:47.653Z</time></trkpt><trkpt lat="43.6533217" lon="12.3387383"><ele>524.0</ele><time>2026-03-22T08:24:49.654Z</time></trkpt><trkpt lat="43.6534317" lon="12.3387267"><ele>524.0</ele><time>2026-03-22T08:24:51.654Z</time></trkpt><trkpt lat="43.65352" lon="12.3387433"><ele>525.8</ele><time>2026-03-22T08:24:52.655Z</time></trkpt><trkpt lat="43.6536233" lon="12.33876"><ele>527.5999999999999</ele><time>2026-03-22T08:24:53.655Z</time></trkpt><trkpt lat="43.653725" lon="12.3387567"><ele>529.4</ele><time>2026-03-22T08:24:54.653Z</time></trkpt><trkpt lat="43.6538317" lon="12.3387183"><ele>531.1999999999999</ele><time>2026-03-22T08:24:55.653Z</time></trkpt><trkpt lat="43.6539317" lon="12.33864"><ele>533.0</ele><time>2026-03-22T08:24:56.65Z</time></trkpt><trkpt lat="43.65404" lon="12.3385433"><ele>533.0</ele><time>2026-03-22T08:24:57.655Z</time></trkpt><trkpt lat="43.6541583" lon="12.3384483"><ele>533.0</ele><time>2026-03-22T08:24:58.655Z</time></trkpt><trkpt lat="43.6542767" lon="12.338365"><ele>533.0</ele><time>2026-03-22T08:24:59.651Z</time></trkpt><trkpt lat="43.654385" lon="12.3383017"><ele>533.0</ele><time>2026-03-22T08:25:00.651Z</time></trkpt><trkpt lat="43.6544917" lon="12.3382617"><ele>535.0</ele><time>2026-03-22T08:25:01.652Z</time></trkpt><trkpt lat="43.6545983" lon="12.3382417"><ele>537.0</ele><time>2026-03-22T08:25:02.651Z</time></trkpt><trkpt lat="43.6547033" lon="12.3382417"><ele>539.0</ele><time>2026-03-22T08:25:03.653Z</time></trkpt><trkpt lat="43.6548" lon="12.33826"><ele>541.0</ele><time>2026-03-22T08:25:04.652Z</time></trkpt><trkpt lat="43.6549033" lon="12.3383083"><ele>543.0</ele><time>2026-03-22T08:25:05.656Z</time></trkpt><trkpt lat="43.65502" lon="12.3383883"><ele>543.0</ele><time>2026-03-22T08:25:06.653Z</time></trkpt><trkpt lat="43.655145" lon="12.3384767"><ele>543.0</ele><time>2026-03-22T08:25:07.655Z</time></trkpt><trkpt lat="43.6552783" lon="12.338565"><ele>543.0</ele><time>2026-03-22T08:25:08.654Z</time></trkpt><trkpt lat="43.6554" lon="12.3386417"><ele>543.0</ele><time>2026-03-22T08:25:09.655Z</time></trkpt><trkpt lat="43.6555217" lon="12.3387233"><ele>543.75</ele><time>2026-03-22T08:25:10.655Z</time></trkpt><trkpt lat="43.6556583" lon="12.3387933"><ele>544.5</ele><time>2026-03-22T08:25:11.655Z</time></trkpt><trkpt lat="43.65579" lon="12.3388517"><ele>545.25</ele><time>2026-03-22T08:25:12.65Z</time></trkpt><trkpt lat="43.6559017" lon="12.33889"><ele>546.0</ele><time>2026-03-22T08:25:13.654Z</time></trkpt><trkpt lat="43.6560017" lon="12.33891"><ele>546.0</ele><time>2026-03-22T08:25:14.655Z</time></trkpt><trkpt lat="43.6560967" lon="12.33891"><ele>546.0</ele><time>2026-03-22T08:25:15.65Z</time></trkpt><trkpt lat="43.6561967" lon="12.3388833"><ele>546.0</ele><time>2026-03-22T08:25:16.651Z</time></trkpt><trkpt lat="43.6563133" lon="12.3388383"><ele>546.0</ele><time>2026-03-22T08:25:17.65Z</time></trkpt><trkpt lat="43.6564467" lon="12.33879"><ele>553.75</ele><time>2026-03-22T08:25:18.65Z</time></trkpt><trkpt lat="43.65658" lon="12.3387517"><ele>561.5</ele><time>2026-03-22T08:25:19.65Z</time></trkpt><trkpt lat="43.6567133" lon="12.3387"><ele>569.25</ele><time>2026-03-22T08:25:20.65Z</time></trkpt><trkpt lat="43.656835" lon="12.33864"><ele>577.0</ele><time>2026-03-22T08:25:21.651Z</time></trkpt><trkpt lat="43.656935" lon="12.3385933"><ele>577.0</ele><time>2026-03-22T08:25:22.65Z</time></trkpt><trkpt lat="43.6570117" lon="12.3385583"><ele>577.0</ele><time>2026-03-22T08:25:23.65Z</time></trkpt><trkpt lat="43.65707" lon="12.338525"><ele>577.0</ele><time>2026-03-22T08:25:24.65Z</time></trkpt><trkpt lat="43.65708" lon="12.3384183"><ele>577.0</ele><time>2026-03-22T08:25:27.653Z</time></trkpt><trkpt lat="43.6569983" lon="12.3384233"><ele>577.0</ele><time>2026-03-22T08:25:29.651Z</time></trkpt><trkpt lat="43.6568967" lon="12.338455"><ele>577.0</ele><time>2026-03-22T08:25:30.653Z</time></trkpt><trkpt lat="43.6568117" lon="12.3384717"><ele>577.0</ele><time>2026-03-22T08:25:31.654Z</time></trkpt><trkpt lat="43.6567017" lon="12.3384733"><ele>577.0</ele><time>2026-03-22T08:25:32.653Z</time></trkpt><trkpt lat="43.6565833" lon="12.338445"><ele>577.0</ele><time>2026-03-22T08:25:33.65Z</time></trkpt><trkpt lat="43.65648" lon="12.338405"><ele>577.0</ele><time>2026-03-22T08:25:34.653Z</time></trkpt><trkpt lat="43.656395" lon="12.3383367"><ele>577.0</ele><time>2026-03-22T08:25:35.654Z</time></trkpt><trkpt lat="43.6563217" lon="12.3382333"><ele>577.0</ele><time>2026-03-22T08:25:36.654Z</time></trkpt><trkpt lat="43.6562617" lon="12.3380967"><ele>577.0</ele><time>2026-03-22T08:25:37.654Z</time></trkpt><trkpt lat="43.65621" lon="12.3379333"><ele>577.0</ele><time>2026-03-22T08:25:38.654Z</time></trkpt><trkpt lat="43.6561733" lon="12.3377567"><ele>577.0</ele><time>2026-03-22T08:25:39.655Z</time></trkpt><trkpt lat="43.6561567" lon="12.3376067"><ele>578.2</ele><time>2026-03-22T08:25:40.654Z</time></trkpt><trkpt lat="43.6561517" lon="12.3375"><ele>579.4000000000001</ele><time>2026-03-22T08:25:41.654Z</time></trkpt><trkpt lat="43.6562033" lon="12.3373617"><ele>580.5999999999999</ele><time>2026-03-22T08:25:43.653Z</time></trkpt><trkpt lat="43.6563317" lon="12.3373383"><ele>581.8</ele><time>2026-03-22T08:25:45.654Z</time></trkpt><trkpt lat="43.6564283" lon="12.337355"><ele>583.0</ele><time>2026-03-22T08:25:46.654Z</time></trkpt><trkpt lat="43.656535" lon="12.3373933"><ele>583.0</ele><time>2026-03-22T08:25:47.655Z</time></trkpt><trkpt lat="43.6566633" lon="12.3374667"><ele>583.0</ele><time>2026-03-22T08:25:48.654Z</time></trkpt><trkpt lat="43.6568067" lon="12.3375633"><ele>583.0</ele><time>2026-03-22T08:25:49.654Z</time></trkpt><trkpt lat="43.6569517" lon="12.3376633"><ele>584.0</ele><time>2026-03-22T08:25:50.653Z</time></trkpt><trkpt lat="43.6570933" lon="12.337755"><ele>585.0</ele><time>2026-03-22T08:25:51.65Z</time></trkpt><trkpt lat="43.6572367" lon="12.337825"><ele>586.0</ele><time>2026-03-22T08:25:52.652Z</time></trkpt><trkpt lat="43.65739" lon="12.3378683"><ele>586.0</ele><time>2026-03-22T08:25:53.651Z</time></trkpt><trkpt lat="43.65755" lon="12.33789"><ele>586.0</ele><time>2026-03-22T08:25:54.652Z</time></trkpt><trkpt lat="43.6577033" lon="12.337905"><ele>586.0</ele><time>2026-03-22T08:25:55.656Z</time></trkpt><trkpt lat="43.6578417" lon="12.337915"><ele>591.0</ele><time>2026-03-22T08:25:56.655Z</time></trkpt><trkpt lat="43.6579633" lon="12.3379217"><ele>596.0</ele><time>2026-03-22T08:25:57.655Z</time></trkpt><trkpt lat="43.658065" lon="12.3379167"><ele>601.0</ele><time>2026-03-22T08:25:58.654Z</time></trkpt><trkpt lat="43.6581433" lon="12.3378933"><ele>606.0</ele><time>2026-03-22T08:25:59.656Z</time></trkpt><trkpt lat="43.6582383" lon="12.337815"><ele>611.0</ele><time>2026-03-22T08:26:01.655Z</time></trkpt><trkpt lat="43.6582933" lon="12.337645"><ele>611.0</ele><time>2026-03-22T08:26:03.655Z</time></trkpt><trkpt lat="43.6582967" lon="12.3375217"><ele>611.0</ele><time>2026-03-22T08:26:04.654Z</time></trkpt><trkpt lat="43.6582633" lon="12.3373917"><ele>611.0</ele><time>2026-03-22T08:26:05.655Z</time></trkpt><trkpt lat="43.6582233" lon="12.33727"><ele>611.0</ele><time>2026-03-22T08:26:06.654Z</time></trkpt><trkpt lat="43.65818" lon="12.3371567"><ele>611.0</ele><time>2026-03-22T08:26:07.653Z</time></trkpt><trkpt lat="43.6581617" lon="12.337055"><ele>610.8</ele><time>2026-03-22T08:26:08.653Z</time></trkpt><trkpt lat="43.6581667" lon="12.336955"><ele>610.6</ele><time>2026-03-22T08:26:09.655Z</time></trkpt><trkpt lat="43.6582017" lon="12.3368567"><ele>610.4</ele><time>2026-03-22T08:26:10.653Z</time></trkpt><trkpt lat="43.658255" lon="12.3367717"><ele>610.2</ele><time>2026-03-22T08:26:11.654Z</time></trkpt><trkpt lat="43.6583317" lon="12.3366767"><ele>610.0</ele><time>2026-03-22T08:26:12.654Z</time></trkpt><trkpt lat="43.6584233" lon="12.3365567"><ele>610.0</ele><time>2026-03-22T08:26:13.654Z</time></trkpt><trkpt lat="43.6585033" lon="12.3364283"><ele>610.0</ele><time>2026-03-22T08:26:14.655Z</time></trkpt><trkpt lat="43.6585683" lon="12.336305"><ele>610.0</ele><time>2026-03-22T08:26:15.655Z</time></trkpt><trkpt lat="43.6586317" lon="12.3362133"><ele>610.0</ele><time>2026-03-22T08:26:16.655Z</time></trkpt><trkpt lat="43.6587133" lon="12.3361383"><ele>610.0</ele><time>2026-03-22T08:26:17.651Z</time></trkpt><trkpt lat="43.6588167" lon="12.3360667"><ele>611.25</ele><time>2026-03-22T08:26:18.652Z</time></trkpt><trkpt lat="43.6589367" lon="12.3359983"><ele>612.5</ele><time>2026-03-22T08:26:19.654Z</time></trkpt><trkpt lat="43.6590617" lon="12.335935"><ele>613.75</ele><time>2026-03-22T08:26:20.653Z</time></trkpt><trkpt lat="43.6591717" lon="12.3358783"><ele>615.0</ele><time>2026-03-22T08:26:21.654Z</time></trkpt><trkpt lat="43.659255" lon="12.3358333"><ele>615.0</ele><time>2026-03-22T08:26:22.655Z</time></trkpt><trkpt lat="43.6593267" lon="12.3358033"><ele>615.0</ele><time>2026-03-22T08:26:23.654Z</time></trkpt><trkpt lat="43.6593967" lon="12.335795"><ele>615.0</ele><time>2026-03-22T08:26:24.65Z</time></trkpt><trkpt lat="43.6594717" lon="12.3357967"><ele>615.0</ele><time>2026-03-22T08:26:25.654Z</time></trkpt><trkpt lat="43.6595583" lon="12.335825"><ele>615.0</ele><time>2026-03-22T08:26:26.655Z</time></trkpt><trkpt lat="43.6596733" lon="12.3359017"><ele>615.0</ele><time>2026-03-22T08:26:27.651Z</time></trkpt><trkpt lat="43.6598217" lon="12.3360267"><ele>616.6666666666666</ele><time>2026-03-22T08:26:28.651Z</time></trkpt><trkpt lat="43.6599783" lon="12.33614"><ele>618.3333333333333</ele><time>2026-03-22T08:26:29.65Z</time></trkpt><trkpt lat="43.660135" lon="12.3362117"><ele>620.0</ele><time>2026-03-22T08:26:30.655Z</time></trkpt><trkpt lat="43.660305" lon="12.33627"><ele>620.0</ele><time>2026-03-22T08:26:31.655Z</time></trkpt><trkpt lat="43.66044" lon="12.33631"><ele>620.0</ele><time>2026-03-22T08:26:32.655Z</time></trkpt><trkpt lat="43.660555" lon="12.33633"><ele>620.0</ele><time>2026-03-22T08:26:33.654Z</time></trkpt><trkpt lat="43.6606667" lon="12.3363283"><ele>620.0</ele><time>2026-03-22T08:26:34.651Z</time></trkpt><trkpt lat="43.66076" lon="12.33628"><ele>620.0</ele><time>2026-03-22T08:26:35.654Z</time></trkpt><trkpt lat="43.66084" lon="12.3361883"><ele>620.0</ele><time>2026-03-22T08:26:36.651Z</time></trkpt><trkpt lat="43.6609" lon="12.336035"><ele>620.0</ele><time>2026-03-22T08:26:37.652Z</time></trkpt><trkpt lat="43.6609517" lon="12.3358767"><ele>620.0</ele><time>2026-03-22T08:26:38.651Z</time></trkpt><trkpt lat="43.6609933" lon="12.3357433"><ele>620.0</ele><time>2026-03-22T08:26:39.653Z</time></trkpt><trkpt lat="43.6610233" lon="12.3356433"><ele>620.0</ele><time>2026-03-22T08:26:40.652Z</time></trkpt><trkpt lat="43.66107" lon="12.3355283"><ele>620.0</ele><time>2026-03-22T08:26:41.652Z</time></trkpt><trkpt lat="43.6611233" lon="12.3354033"><ele>620.0</ele><time>2026-03-22T08:26:42.652Z</time></trkpt><trkpt lat="43.6611733" lon="12.33526"><ele>620.0</ele><time>2026-03-22T08:26:43.652Z</time></trkpt><trkpt lat="43.6612067" lon="12.335105"><ele>621.2</ele><time>2026-03-22T08:26:44.651Z</time></trkpt><trkpt lat="43.6612217" lon="12.3349483"><ele>622.4</ele><time>2026-03-22T08:26:45.651Z</time></trkpt><trkpt lat="43.661225" lon="12.3347917"><ele>623.6</ele><time>2026-03-22T08:26:46.654Z</time></trkpt><trkpt lat="43.6612267" lon="12.3346567"><ele>624.8</ele><time>2026-03-22T08:26:47.657Z</time></trkpt><trkpt lat="43.6612367" lon="12.334555"><ele>626.0</ele><time>2026-03-22T08:26:48.655Z</time></trkpt><trkpt lat="43.6612967" lon="12.3344483"><ele>626.0</ele><time>2026-03-22T08:26:50.656Z</time></trkpt><trkpt lat="43.661425" lon="12.3344433"><ele>626.0</ele><time>2026-03-22T08:26:52.655Z</time></trkpt><trkpt lat="43.66152" lon="12.33445"><ele>626.0</ele><time>2026-03-22T08:26:53.655Z</time></trkpt><trkpt lat="43.6616133" lon="12.3344617"><ele>626.0</ele><time>2026-03-22T08:26:54.655Z</time></trkpt><trkpt lat="43.661705" lon="12.3344683"><ele>626.0</ele><time>2026-03-22T08:26:55.653Z</time></trkpt><trkpt lat="43.6618117" lon="12.3344633"><ele>626.0</ele><time>2026-03-22T08:26:56.651Z</time></trkpt><trkpt lat="43.66192" lon="12.3344517"><ele>626.0</ele><time>2026-03-22T08:26:57.655Z</time></trkpt><trkpt lat="43.66202" lon="12.334455"><ele>626.0</ele><time>2026-03-22T08:26:58.651Z</time></trkpt><trkpt lat="43.6621033" lon="12.3344783"><ele>626.0</ele><time>2026-03-22T08:26:59.653Z</time></trkpt><trkpt lat="43.6621867" lon="12.3345233"><ele>626.0</ele><time>2026-03-22T08:27:00.65Z</time></trkpt><trkpt lat="43.6622667" lon="12.3345733"><ele>628.4</ele><time>2026-03-22T08:27:01.651Z</time></trkpt><trkpt lat="43.66234" lon="12.3346167"><ele>630.8</ele><time>2026-03-22T08:27:02.65Z</time></trkpt><trkpt lat="43.6624517" lon="12.33466"><ele>633.1999999999999</ele><time>2026-03-22T08:27:04.65Z</time></trkpt><trkpt lat="43.6625283" lon="12.3347717"><ele>635.6</ele><time>2026-03-22T08:27:06.652Z</time></trkpt><trkpt lat="43.6625467" lon="12.33486"><ele>638.0</ele><time>2026-03-22T08:27:07.652Z</time></trkpt><trkpt lat="43.662555" lon="12.3349667"><ele>639.0</ele><time>2026-03-22T08:27:08.65Z</time></trkpt><trkpt lat="43.662575" lon="12.3350817"><ele>640.0</ele><time>2026-03-22T08:27:09.651Z</time></trkpt><trkpt lat="43.6626017" lon="12.3351917"><ele>641.0</ele><time>2026-03-22T08:27:10.651Z</time></trkpt><trkpt lat="43.6626417" lon="12.3352933"><ele>642.0</ele><time>2026-03-22T08:27:11.651Z</time></trkpt><trkpt lat="43.6627133" lon="12.3353733"><ele>643.0</ele><time>2026-03-22T08:27:12.654Z</time></trkpt><trkpt lat="43.6628317" lon="12.3354383"><ele>643.0</ele><time>2026-03-22T08:27:13.651Z</time></trkpt><trkpt lat="43.6629533" lon="12.3355083"><ele>643.0</ele><time>2026-03-22T08:27:14.65Z</time></trkpt><trkpt lat="43.6630867" lon="12.3355683"><ele>643.0</ele><time>2026-03-22T08:27:15.651Z</time></trkpt><trkpt lat="43.66321" lon="12.3356167"><ele>643.0</ele><time>2026-03-22T08:27:16.651Z</time></trkpt><trkpt lat="43.6633217" lon="12.33567"><ele>645.75</ele><time>2026-03-22T08:27:17.651Z</time></trkpt><trkpt lat="43.6634333" lon="12.335745"><ele>648.5</ele><time>2026-03-22T08:27:18.652Z</time></trkpt><trkpt lat="43.6635483" lon="12.3358517"><ele>651.25</ele><time>2026-03-22T08:27:19.652Z</time></trkpt><trkpt lat="43.663665" lon="12.3359783"><ele>654.0</ele><time>2026-03-22T08:27:20.65Z</time></trkpt><trkpt lat="43.6637817" lon="12.3361017"><ele>655.0</ele><time>2026-03-22T08:27:21.651Z</time></trkpt><trkpt lat="43.6639" lon="12.336205"><ele>656.0</ele><time>2026-03-22T08:27:22.651Z</time></trkpt><trkpt lat="43.6640183" lon="12.336275"><ele>657.0</ele><time>2026-03-22T08:27:23.65Z</time></trkpt><trkpt lat="43.66414" lon="12.3363083"><ele>658.0</ele><time>2026-03-22T08:27:24.651Z</time></trkpt><trkpt lat="43.6642533" lon="12.3363083"><ele>658.0</ele><time>2026-03-22T08:27:25.65Z</time></trkpt><trkpt lat="43.6643567" lon="12.3362933"><ele>658.0</ele><time>2026-03-22T08:27:26.65Z</time></trkpt><trkpt lat="43.6644617" lon="12.3362667"><ele>658.0</ele><time>2026-03-22T08:27:27.652Z</time></trkpt><trkpt lat="43.66457" lon="12.336215"><ele>658.0</ele><time>2026-03-22T08:27:28.655Z</time></trkpt><trkpt lat="43.664675" lon="12.33615"><ele>658.0</ele><time>2026-03-22T08:27:29.655Z</time></trkpt><trkpt lat="43.6647783" lon="12.3360967"><ele>660.75</ele><time>2026-03-22T08:27:30.652Z</time></trkpt><trkpt lat="43.6648933" lon="12.3360583"><ele>663.5</ele><time>2026-03-22T08:27:31.652Z</time></trkpt><trkpt lat="43.6650217" lon="12.336035"><ele>666.25</ele><time>2026-03-22T08:27:32.652Z</time></trkpt><trkpt lat="43.66517" lon="12.3360017"><ele>669.0</ele><time>2026-03-22T08:27:33.652Z</time></trkpt><trkpt lat="43.66533" lon="12.3359533"><ele>670.25</ele><time>2026-03-22T08:27:34.651Z</time></trkpt><trkpt lat="43.6654817" lon="12.33589"><ele>671.5</ele><time>2026-03-22T08:27:35.652Z</time></trkpt><trkpt lat="43.6656167" lon="12.3358367"><ele>672.75</ele><time>2026-03-22T08:27:36.651Z</time></trkpt><trkpt lat="43.665745" lon="12.3358067"><ele>674.0</ele><time>2026-03-22T08:27:37.653Z</time></trkpt><trkpt lat="43.6658767" lon="12.3358083"><ele>674.0</ele><time>2026-03-22T08:27:38.651Z</time></trkpt><trkpt lat="43.66602" lon="12.335845"><ele>674.0</ele><time>2026-03-22T08:27:39.652Z</time></trkpt><trkpt lat="43.6661767" lon="12.3358967"><ele>674.0</ele><time>2026-03-22T08:27:40.651Z</time></trkpt><trkpt lat="43.6663317" lon="12.3359433"><ele>675.25</ele><time>2026-03-22T08:27:41.653Z</time></trkpt><trkpt lat="43.6664733" lon="12.3359583"><ele>676.5</ele><time>2026-03-22T08:27:42.652Z</time></trkpt><trkpt lat="43.6666167" lon="12.3359433"><ele>677.75</ele><time>2026-03-22T08:27:43.652Z</time></trkpt><trkpt lat="43.6667767" lon="12.3359"><ele>679.0</ele><time>2026-03-22T08:27:44.651Z</time></trkpt><trkpt lat="43.66695" lon="12.335845"><ele>682.6666666666667</ele><time>2026-03-22T08:27:45.651Z</time></trkpt><trkpt lat="43.66713" lon="12.3357833"><ele>686.3333333333334</ele><time>2026-03-22T08:27:46.652Z</time></trkpt><trkpt lat="43.667315" lon="12.3357217"><ele>690.0</ele><time>2026-03-22T08:27:47.652Z</time></trkpt><trkpt lat="43.667495" lon="12.3356617"><ele>690.0</ele><time>2026-03-22T08:27:48.651Z</time></trkpt><trkpt lat="43.667665" lon="12.3356033"><ele>690.0</ele><time>2026-03-22T08:27:49.652Z</time></trkpt><trkpt lat="43.6678167" lon="12.3355383"><ele>690.0</ele><time>2026-03-22T08:27:50.651Z</time></trkpt><trkpt lat="43.6679583" lon="12.3354683"><ele>689.4</ele><time>2026-03-22T08:27:51.651Z</time></trkpt><trkpt lat="43.66809" lon="12.3354017"><ele>688.8</ele><time>2026-03-22T08:27:52.652Z</time></trkpt><trkpt lat="43.6682017" lon="12.3353467"><ele>688.2</ele><time>2026-03-22T08:27:53.651Z</time></trkpt><trkpt lat="43.6682883" lon="12.3353067"><ele>687.6</ele><time>2026-03-22T08:27:54.652Z</time></trkpt><trkpt lat="43.6683583" lon="12.3352733"><ele>687.0</ele><time>2026-03-22T08:27:55.651Z</time></trkpt><trkpt lat="43.6684183" lon="12.3352417"><ele>687.0</ele><time>2026-03-22T08:27:56.652Z</time></trkpt><trkpt lat="43.6685333" lon="12.3351417"><ele>687.0</ele><time>2026-03-22T08:27:58.654Z</time></trkpt><trkpt lat="43.66861" lon="12.33506"><ele>687.0</ele><time>2026-03-22T08:27:59.654Z</time></trkpt><trkpt lat="43.6687167" lon="12.3349633"><ele>687.0</ele><time>2026-03-22T08:28:00.651Z</time></trkpt><trkpt lat="43.66884" lon="12.3348633"><ele>687.0</ele><time>2026-03-22T08:28:01.651Z</time></trkpt><trkpt lat="43.668965" lon="12.3347717"><ele>687.0</ele><time>2026-03-22T08:28:02.652Z</time></trkpt><trkpt lat="43.6690867" lon="12.3347017"><ele>687.0</ele><time>2026-03-22T08:28:03.651Z</time></trkpt><trkpt lat="43.6692083" lon="12.33465"><ele>687.0</ele><time>2026-03-22T08:28:04.652Z</time></trkpt><trkpt lat="43.669335" lon="12.33461"><ele>691.6666666666666</ele><time>2026-03-22T08:28:05.653Z</time></trkpt><trkpt lat="43.669475" lon="12.3345783"><ele>696.3333333333333</ele><time>2026-03-22T08:28:06.651Z</time></trkpt><trkpt lat="43.6696267" lon="12.3345483"><ele>701.0</ele><time>2026-03-22T08:28:07.653Z</time></trkpt><trkpt lat="43.6697967" lon="12.3345133"><ele>701.0</ele><time>2026-03-22T08:28:08.651Z</time></trkpt><trkpt lat="43.6699633" lon="12.3344633"><ele>701.0</ele><time>2026-03-22T08:28:09.651Z</time></trkpt><trkpt lat="43.6701233" lon="12.334395"><ele>701.0</ele><time>2026-03-22T08:28:10.652Z</time></trkpt><trkpt lat="43.6702717" lon="12.334315"><ele>704.6666666666666</ele><time>2026-03-22T08:28:11.652Z</time></trkpt><trkpt lat="43.6704183" lon="12.3342233"><ele>708.3333333333334</ele><time>2026-03-22T08:28:12.651Z</time></trkpt><trkpt lat="43.6705583" lon="12.3341433"><ele>712.0</ele><time>2026-03-22T08:28:13.651Z</time></trkpt><trkpt lat="43.6706933" lon="12.3340867"><ele>712.0</ele><time>2026-03-22T08:28:14.652Z</time></trkpt><trkpt lat="43.6708217" lon="12.3340433"><ele>712.0</ele><time>2026-03-22T08:28:15.651Z</time></trkpt><trkpt lat="43.6709433" lon="12.3340133"><ele>712.0</ele><time>2026-03-22T08:28:16.652Z</time></trkpt><trkpt lat="43.6710633" lon="12.3339917"><ele>712.0</ele><time>2026-03-22T08:28:17.651Z</time></trkpt><trkpt lat="43.6711817" lon="12.3339783"><ele>713.2</ele><time>2026-03-22T08:28:18.652Z</time></trkpt><trkpt lat="43.67129" lon="12.3339817"><ele>714.4000000000001</ele><time>2026-03-22T08:28:19.651Z</time></trkpt><trkpt lat="43.6713717" lon="12.3339833"><ele>715.5999999999999</ele><time>2026-03-22T08:28:20.652Z</time></trkpt><trkpt lat="43.671495" lon="12.3340067"><ele>716.8</ele><time>2026-03-22T08:28:22.651Z</time></trkpt><trkpt lat="43.67157" lon="12.3340283"><ele>718.0</ele><time>2026-03-22T08:28:23.651Z</time></trkpt><trkpt lat="43.6716517" lon="12.334035"><ele>718.0</ele><time>2026-03-22T08:28:24.653Z</time></trkpt><trkpt lat="43.67174" lon="12.3340183"><ele>718.0</ele><time>2026-03-22T08:28:25.651Z</time></trkpt><trkpt lat="43.67183" lon="12.333995"><ele>718.0</ele><time>2026-03-22T08:28:26.651Z</time></trkpt><trkpt lat="43.6719233" lon="12.333985"><ele>718.0</ele><time>2026-03-22T08:28:27.651Z</time></trkpt><trkpt lat="43.672025" lon="12.3339983"><ele>718.0</ele><time>2026-03-22T08:28:28.654Z</time></trkpt><trkpt lat="43.6721333" lon="12.334035"><ele>722.0</ele><time>2026-03-22T08:28:29.654Z</time></trkpt><trkpt lat="43.6722433" lon="12.3340617"><ele>726.0</ele><time>2026-03-22T08:28:30.65Z</time></trkpt><trkpt lat="43.6723533" lon="12.334075"><ele>730.0</ele><time>2026-03-22T08:28:31.654Z</time></trkpt><trkpt lat="43.6724583" lon="12.3340883"><ele>734.0</ele><time>2026-03-22T08:28:32.651Z</time></trkpt><trkpt lat="43.6725583" lon="12.3341267"><ele>738.0</ele><time>2026-03-22T08:28:33.654Z</time></trkpt><trkpt lat="43.6726467" lon="12.33419"><ele>738.0</ele><time>2026-03-22T08:28:34.654Z</time></trkpt><trkpt lat="43.6727233" lon="12.3342767"><ele>738.0</ele><time>2026-03-22T08:28:35.654Z</time></trkpt><trkpt lat="43.6727883" lon="12.33438"><ele>738.0</ele><time>2026-03-22T08:28:36.651Z</time></trkpt><trkpt lat="43.6728467" lon="12.3344667"><ele>738.0</ele><time>2026-03-22T08:28:37.651Z</time></trkpt><trkpt lat="43.6729083" lon="12.3345333"><ele>738.0</ele><time>2026-03-22T08:28:38.654Z</time></trkpt><trkpt lat="43.67297" lon="12.3345833"><ele>738.0</ele><time>2026-03-22T08:28:39.655Z</time></trkpt><trkpt lat="43.67303" lon="12.3346317"><ele>740.1666666666666</ele><time>2026-03-22T08:28:40.655Z</time></trkpt><trkpt lat="43.673095" lon="12.3346833"><ele>742.3333333333334</ele><time>2026-03-22T08:28:41.654Z</time></trkpt><trkpt lat="43.6731517" lon="12.33473"><ele>744.5</ele><time>2026-03-22T08:28:42.653Z</time></trkpt><trkpt lat="43.6732417" lon="12.3348317"><ele>746.6666666666667</ele><time>2026-03-22T08:28:44.651Z</time></trkpt><trkpt lat="43.6733417" lon="12.3349067"><ele>748.8333333333334</ele><time>2026-03-22T08:28:46.651Z</time></trkpt><trkpt lat="43.673415" lon="12.3349167"><ele>751.0</ele><time>2026-03-22T08:28:48.65Z</time></trkpt><trkpt lat="43.67334" lon="12.3348983"><ele>751.0</ele><time>2026-03-22T08:30:02.651Z</time></trkpt><trkpt lat="43.6732683" lon="12.3348633"><ele>751.0</ele><time>2026-03-22T08:30:05.651Z</time></trkpt><trkpt lat="43.6732033" lon="12.3347767"><ele>751.0</ele><time>2026-03-22T08:30:08.651Z</time></trkpt><trkpt lat="43.6731517" lon="12.33471"><ele>751.0</ele><time>2026-03-22T08:30:10.654Z</time></trkpt><trkpt lat="43.6730817" lon="12.3346383"><ele>751.0</ele><time>2026-03-22T08:30:12.654Z</time></trkpt><trkpt lat="43.6730017" lon="12.3345633"><ele>751.0</ele><time>2026-03-22T08:30:14.651Z</time></trkpt><trkpt lat="43.6729033" lon="12.3344917"><ele>752.8333333333334</ele><time>2026-03-22T08:30:16.65Z</time></trkpt><trkpt lat="43.6728083" lon="12.3343817"><ele>754.6666666666667</ele><time>2026-03-22T08:30:18.652Z</time></trkpt><trkpt lat="43.672765" lon="12.3343083"><ele>756.5</ele><time>2026-03-22T08:30:19.651Z</time></trkpt><trkpt lat="43.6727233" lon="12.3342317"><ele>758.3333333333334</ele><time>2026-03-22T08:30:20.653Z</time></trkpt><trkpt lat="43.6726683" lon="12.3341667"><ele>760.1666666666666</ele><time>2026-03-22T08:30:21.654Z</time></trkpt><trkpt lat="43.672605" lon="12.334115"><ele>762.0</ele><time>2026-03-22T08:30:22.651Z</time></trkpt><trkpt lat="43.6725417" lon="12.3340767"><ele>758.0</ele><time>2026-03-22T08:30:23.651Z</time></trkpt><trkpt lat="43.672475" lon="12.3340533"><ele>754.0</ele><time>2026-03-22T08:30:24.654Z</time></trkpt><trkpt lat="43.6724017" lon="12.33405"><ele>750.0</ele><time>2026-03-22T08:30:25.654Z</time></trkpt><trkpt lat="43.6723283" lon="12.3340517"><ele>746.0</ele><time>2026-03-22T08:30:26.654Z</time></trkpt><trkpt lat="43.67221" lon="12.3340433"><ele>742.0</ele><time>2026-03-22T08:30:28.651Z</time></trkpt><trkpt lat="43.6721467" lon="12.3340267"><ele>738.0</ele><time>2026-03-22T08:30:29.652Z</time></trkpt><trkpt lat="43.6720767" lon="12.334"><ele>738.0</ele><time>2026-03-22T08:30:30.651Z</time></trkpt><trkpt lat="43.6720017" lon="12.3339783"><ele>738.0</ele><time>2026-03-22T08:30:31.652Z</time></trkpt><trkpt lat="43.671915" lon="12.3339783"><ele>738.0</ele><time>2026-03-22T08:30:32.652Z</time></trkpt><trkpt lat="43.671825" lon="12.3339917"><ele>738.0</ele><time>2026-03-22T08:30:33.651Z</time></trkpt><trkpt lat="43.6717467" lon="12.33401"><ele>738.0</ele><time>2026-03-22T08:30:34.651Z</time></trkpt><trkpt lat="43.67168" lon="12.3340267"><ele>738.0</ele><time>2026-03-22T08:30:35.652Z</time></trkpt><trkpt lat="43.6715717" lon="12.3340383"><ele>734.6666666666666</ele><time>2026-03-22T08:30:37.651Z</time></trkpt><trkpt lat="43.671505" lon="12.3339967"><ele>731.3333333333334</ele><time>2026-03-22T08:30:39.653Z</time></trkpt><trkpt lat="43.6715067" lon="12.333875"><ele>728.0</ele><time>2026-03-22T08:30:42.654Z</time></trkpt><trkpt lat="43.6715533" lon="12.3338117"><ele>724.6666666666667</ele><time>2026-03-22T08:30:44.65Z</time></trkpt><trkpt lat="43.6716567" lon="12.333715"><ele>721.3333333333334</ele><time>2026-03-22T08:30:46.655Z</time></trkpt><trkpt lat="43.671735" lon="12.3336483"><ele>718.0</ele><time>2026-03-22T08:30:47.653Z</time></trkpt><trkpt lat="43.6718217" lon="12.3335833"><ele>718.0</ele><time>2026-03-22T08:30:48.654Z</time></trkpt><trkpt lat="43.67192" lon="12.33352"><ele>718.0</ele><time>2026-03-22T08:30:49.653Z</time></trkpt><trkpt lat="43.6720167" lon="12.3334617"><ele>718.0</ele><time>2026-03-22T08:30:50.653Z</time></trkpt><trkpt lat="43.6721033" lon="12.3334117"><ele>718.0</ele><time>2026-03-22T08:30:51.655Z</time></trkpt><trkpt lat="43.6721867" lon="12.3333567"><ele>718.0</ele><time>2026-03-22T08:30:52.652Z</time></trkpt><trkpt lat="43.6722633" lon="12.3332983"><ele>723.2</ele><time>2026-03-22T08:30:53.654Z</time></trkpt><trkpt lat="43.6723333" lon="12.3332433"><ele>728.4</ele><time>2026-03-22T08:30:54.653Z</time></trkpt><trkpt lat="43.672395" lon="12.33319"><ele>733.6</ele><time>2026-03-22T08:30:55.654Z</time></trkpt><trkpt lat="43.6724417" lon="12.33313"><ele>738.8000000000001</ele><time>2026-03-22T08:30:56.651Z</time></trkpt><trkpt lat="43.6724933" lon="12.332995"><ele>744.0</ele><time>2026-03-22T08:30:58.65Z</time></trkpt><trkpt lat="43.6724833" lon="12.3328233"><ele>744.8571428571429</ele><time>2026-03-22T08:31:00.652Z</time></trkpt><trkpt lat="43.67246" lon="12.3327383"><ele>745.7142857142858</ele><time>2026-03-22T08:31:01.652Z</time></trkpt><trkpt lat="43.6724333" lon="12.33265"><ele>746.5714285714287</ele><time>2026-03-22T08:31:02.651Z</time></trkpt><trkpt lat="43.6723983" lon="12.3325633"><ele>747.4285714285714</ele><time>2026-03-22T08:31:03.651Z</time></trkpt><trkpt lat="43.6723633" lon="12.332475"><ele>748.2857142857142</ele><time>2026-03-22T08:31:04.651Z</time></trkpt><trkpt lat="43.67233" lon="12.3323833"><ele>749.1428571428572</ele><time>2026-03-22T08:31:05.651Z</time></trkpt><trkpt lat="43.672295" lon="12.33229"><ele>750.0</ele><time>2026-03-22T08:31:06.653Z</time></trkpt><trkpt lat="43.6722633" lon="12.33219"><ele>752.5714285714286</ele><time>2026-03-22T08:31:07.652Z</time></trkpt><trkpt lat="43.6722317" lon="12.332095"><ele>755.1428571428571</ele><time>2026-03-22T08:31:08.65Z</time></trkpt><trkpt lat="43.6721933" lon="12.332005"><ele>757.7142857142857</ele><time>2026-03-22T08:31:09.65Z</time></trkpt><trkpt lat="43.6721533" lon="12.3319217"><ele>760.2857142857142</ele><time>2026-03-22T08:31:10.653Z</time></trkpt><trkpt lat="43.6721217" lon="12.331835"><ele>762.8571428571429</ele><time>2026-03-22T08:31:11.654Z</time></trkpt><trkpt lat="43.6720967" lon="12.3317417"><ele>765.4285714285713</ele><time>2026-03-22T08:31:12.654Z</time></trkpt><trkpt lat="43.672085" lon="12.331645"><ele>768.0</ele><time>2026-03-22T08:31:13.655Z</time></trkpt><trkpt lat="43.6720883" lon="12.331545"><ele>768.0</ele><time>2026-03-22T08:31:14.654Z</time></trkpt><trkpt lat="43.6720967" lon="12.3314367"><ele>768.0</ele><time>2026-03-22T08:31:15.655Z</time></trkpt><trkpt lat="43.672105" lon="12.3313317"><ele>768.0</ele><time>2026-03-22T08:31:16.654Z</time></trkpt><trkpt lat="43.6721133" lon="12.331225"><ele>768.0</ele><time>2026-03-22T08:31:17.653Z</time></trkpt><trkpt lat="43.672125" lon="12.33111"><ele>768.0</ele><time>2026-03-22T08:31:18.656Z</time></trkpt><trkpt lat="43.6721317" lon="12.330995"><ele>768.0</ele><time>2026-03-22T08:31:19.653Z</time></trkpt><trkpt lat="43.6721217" lon="12.3308817"><ele>770.1666666666666</ele><time>2026-03-22T08:31:20.65Z</time></trkpt><trkpt lat="43.6721017" lon="12.3307767"><ele>772.3333333333333</ele><time>2026-03-22T08:31:21.654Z</time></trkpt><trkpt lat="43.6720767" lon="12.330675"><ele>774.5</ele><time>2026-03-22T08:31:22.654Z</time></trkpt><trkpt lat="43.6720483" lon="12.3305683"><ele>776.6666666666666</ele><time>2026-03-22T08:31:23.654Z</time></trkpt><trkpt lat="43.67202" lon="12.3304633"><ele>778.8333333333333</ele><time>2026-03-22T08:31:24.654Z</time></trkpt><trkpt lat="43.6719883" lon="12.33036"><ele>781.0</ele><time>2026-03-22T08:31:25.651Z</time></trkpt><trkpt lat="43.6719617" lon="12.3302483"><ele>774.3333333333333</ele><time>2026-03-22T08:31:26.651Z</time></trkpt><trkpt lat="43.6719317" lon="12.3301383"><ele>767.6666666666666</ele><time>2026-03-22T08:31:27.651Z</time></trkpt><trkpt lat="43.671905" lon="12.3300333"><ele>761.0</ele><time>2026-03-22T08:31:28.652Z</time></trkpt><trkpt lat="43.671885" lon="12.3299383"><ele>754.3333333333333</ele><time>2026-03-22T08:31:29.65Z</time></trkpt><trkpt lat="43.6718783" lon="12.3298483"><ele>747.6666666666666</ele><time>2026-03-22T08:31:30.651Z</time></trkpt><trkpt lat="43.6719033" lon="12.3296767"><ele>741.0</ele><time>2026-03-22T08:31:32.65Z</time></trkpt><trkpt lat="43.6719333" lon="12.3295933"><ele>747.5</ele><time>2026-03-22T08:31:33.65Z</time></trkpt><trkpt lat="43.671965" lon="12.3295033"><ele>754.0</ele><time>2026-03-22T08:31:34.652Z</time></trkpt><trkpt lat="43.6719917" lon="12.3294067"><ele>760.5</ele><time>2026-03-22T08:31:35.651Z</time></trkpt><trkpt lat="43.6720067" lon="12.3293033"><ele>767.0</ele><time>2026-03-22T08:31:36.653Z</time></trkpt><trkpt lat="43.67201" lon="12.3292033"><ele>773.5</ele><time>2026-03-22T08:31:37.652Z</time></trkpt><trkpt lat="43.67201" lon="12.32911"><ele>780.0</ele><time>2026-03-22T08:31:38.651Z</time></trkpt><trkpt lat="43.67199" lon="12.32896"><ele>777.8333333333334</ele><time>2026-03-22T08:31:40.651Z</time></trkpt><trkpt lat="43.671965" lon="12.328855"><ele>775.6666666666666</ele><time>2026-03-22T08:31:42.65Z</time></trkpt><trkpt lat="43.67193" lon="12.3287333"><ele>773.5</ele><time>2026-03-22T08:31:45.65Z</time></trkpt><trkpt lat="43.6719067" lon="12.3286383"><ele>771.3333333333333</ele><time>2026-03-22T08:31:47.655Z</time></trkpt><trkpt lat="43.6718817" lon="12.32855"><ele>769.1666666666666</ele><time>2026-03-22T08:31:49.651Z</time></trkpt><trkpt lat="43.6718667" lon="12.328405"><ele>767.0</ele><time>2026-03-22T08:31:55.651Z</time></trkpt><trkpt lat="43.67191" lon="12.32824"><ele>767.0</ele><time>2026-03-22T08:31:57.651Z</time></trkpt><trkpt lat="43.671975" lon="12.3281783"><ele>767.0</ele><time>2026-03-22T08:31:58.652Z</time></trkpt><trkpt lat="43.672055" lon="12.328135"><ele>767.0</ele><time>2026-03-22T08:31:59.651Z</time></trkpt><trkpt lat="43.6721483" lon="12.3281033"><ele>767.0</ele><time>2026-03-22T08:32:00.651Z</time></trkpt><trkpt lat="43.6722417" lon="12.3280833"><ele>767.0</ele><time>2026-03-22T08:32:01.651Z</time></trkpt><trkpt lat="43.672335" lon="12.3280467"><ele>764.4000000000001</ele><time>2026-03-22T08:32:02.65Z</time></trkpt><trkpt lat="43.6724217" lon="12.3279933"><ele>761.8000000000001</ele><time>2026-03-22T08:32:03.651Z</time></trkpt><trkpt lat="43.6725067" lon="12.3279167"><ele>759.2</ele><time>2026-03-22T08:32:04.651Z</time></trkpt><trkpt lat="43.6725867" lon="12.327795"><ele>756.6</ele><time>2026-03-22T08:32:05.65Z</time></trkpt><trkpt lat="43.67267" lon="12.3276667"><ele>754.0</ele><time>2026-03-22T08:32:06.65Z</time></trkpt><trkpt lat="43.672755" lon="12.3275567"><ele>754.8000000000001</ele><time>2026-03-22T08:32:07.651Z</time></trkpt><trkpt lat="43.6728383" lon="12.327455"><ele>755.6</ele><time>2026-03-22T08:32:08.65Z</time></trkpt><trkpt lat="43.672925" lon="12.327355"><ele>756.4</ele><time>2026-03-22T08:32:09.651Z</time></trkpt><trkpt lat="43.6730117" lon="12.3272633"><ele>757.2</ele><time>2026-03-22T08:32:10.651Z</time></trkpt><trkpt lat="43.6730933" lon="12.3271833"><ele>758.0</ele><time>2026-03-22T08:32:11.651Z</time></trkpt><trkpt lat="43.6731617" lon="12.327115"><ele>756.3333333333333</ele><time>2026-03-22T08:32:12.651Z</time></trkpt><trkpt lat="43.6732133" lon="12.3270633"><ele>754.6666666666666</ele><time>2026-03-22T08:32:13.652Z</time></trkpt><trkpt lat="43.6732467" lon="12.326955"><ele>753.0</ele><time>2026-03-22T08:32:15.65Z</time></trkpt><trkpt lat="43.673165" lon="12.3268633"><ele>751.3333333333334</ele><time>2026-03-22T08:32:17.653Z</time></trkpt><trkpt lat="43.6730883" lon="12.32684"><ele>749.6666666666667</ele><time>2026-03-22T08:32:18.654Z</time></trkpt><trkpt lat="43.6730067" lon="12.3268"><ele>748.0</ele><time>2026-03-22T08:32:19.655Z</time></trkpt><trkpt lat="43.6729167" lon="12.3267483"><ele>748.0</ele><time>2026-03-22T08:32:20.653Z</time></trkpt><trkpt lat="43.6728117" lon="12.3266983"><ele>748.0</ele><time>2026-03-22T08:32:21.654Z</time></trkpt><trkpt lat="43.6727117" lon="12.326645"><ele>748.0</ele><time>2026-03-22T08:32:22.654Z</time></trkpt><trkpt lat="43.6726117" lon="12.3265817"><ele>748.0</ele><time>2026-03-22T08:32:23.651Z</time></trkpt><trkpt lat="43.67252" lon="12.3264983"><ele>748.0</ele><time>2026-03-22T08:32:24.651Z</time></trkpt><trkpt lat="43.6724333" lon="12.32639"><ele>744.25</ele><time>2026-03-22T08:32:25.654Z</time></trkpt><trkpt lat="43.6723467" lon="12.3262717"><ele>740.5</ele><time>2026-03-22T08:32:26.654Z</time></trkpt><trkpt lat="43.67227" lon="12.326145"><ele>736.75</ele><time>2026-03-22T08:32:27.654Z</time></trkpt><trkpt lat="43.6722017" lon="12.3260283"><ele>733.0</ele><time>2026-03-22T08:32:28.653Z</time></trkpt><trkpt lat="43.6721317" lon="12.3259267"><ele>733.0</ele><time>2026-03-22T08:32:29.65Z</time></trkpt><trkpt lat="43.6720583" lon="12.325835"><ele>733.0</ele><time>2026-03-22T08:32:30.651Z</time></trkpt><trkpt lat="43.67198" lon="12.3257517"><ele>733.0</ele><time>2026-03-22T08:32:31.654Z</time></trkpt><trkpt lat="43.6718967" lon="12.325675"><ele>733.0</ele><time>2026-03-22T08:32:32.654Z</time></trkpt><trkpt lat="43.67181" lon="12.3255983"><ele>733.0</ele><time>2026-03-22T08:32:33.652Z</time></trkpt><trkpt lat="43.6717267" lon="12.3255333"><ele>731.5999999999999</ele><time>2026-03-22T08:32:34.651Z</time></trkpt><trkpt lat="43.6716317" lon="12.3254783"><ele>730.1999999999999</ele><time>2026-03-22T08:32:35.654Z</time></trkpt><trkpt lat="43.6715433" lon="12.32544"><ele>728.8</ele><time>2026-03-22T08:32:36.65Z</time></trkpt><trkpt lat="43.6714483" lon="12.3254017"><ele>727.4</ele><time>2026-03-22T08:32:37.655Z</time></trkpt><trkpt lat="43.6713567" lon="12.325365"><ele>726.0</ele><time>2026-03-22T08:32:38.654Z</time></trkpt><trkpt lat="43.6712617" lon="12.325325"><ele>726.0</ele><time>2026-03-22T08:32:39.65Z</time></trkpt><trkpt lat="43.67117" lon="12.3252783"><ele>726.0</ele><time>2026-03-22T08:32:40.653Z</time></trkpt><trkpt lat="43.67108" lon="12.32523"><ele>726.0</ele><time>2026-03-22T08:32:41.654Z</time></trkpt><trkpt lat="43.67099" lon="12.3251783"><ele>726.0</ele><time>2026-03-22T08:32:42.654Z</time></trkpt><trkpt lat="43.670905" lon="12.3251283"><ele>726.0</ele><time>2026-03-22T08:32:43.652Z</time></trkpt><trkpt lat="43.670825" lon="12.3250667"><ele>726.3333333333334</ele><time>2026-03-22T08:32:44.653Z</time></trkpt><trkpt lat="43.6707567" lon="12.3249917"><ele>726.6666666666666</ele><time>2026-03-22T08:32:45.653Z</time></trkpt><trkpt lat="43.6706917" lon="12.3249083"><ele>727.0</ele><time>2026-03-22T08:32:46.655Z</time></trkpt><trkpt lat="43.6706367" lon="12.3248133"><ele>727.3333333333333</ele><time>2026-03-22T08:32:47.651Z</time></trkpt><trkpt lat="43.6705833" lon="12.3247067"><ele>727.6666666666666</ele><time>2026-03-22T08:32:48.652Z</time></trkpt><trkpt lat="43.67054" lon="12.324595"><ele>728.0</ele><time>2026-03-22T08:32:49.652Z</time></trkpt><trkpt lat="43.670495" lon="12.3244817"><ele>729.1666666666666</ele><time>2026-03-22T08:32:50.652Z</time></trkpt><trkpt lat="43.67044" lon="12.3243783"><ele>730.3333333333333</ele><time>2026-03-22T08:32:51.652Z</time></trkpt><trkpt lat="43.670385" lon="12.3242833"><ele>731.5</ele><time>2026-03-22T08:32:52.651Z</time></trkpt><trkpt lat="43.6703317" lon="12.3241933"><ele>732.6666666666666</ele><time>2026-03-22T08:32:53.653Z</time></trkpt><trkpt lat="43.6702817" lon="12.3241067"><ele>733.8333333333334</ele><time>2026-03-22T08:32:54.651Z</time></trkpt><trkpt lat="43.6702267" lon="12.3240117"><ele>735.0</ele><time>2026-03-22T08:32:55.652Z</time></trkpt><trkpt lat="43.6701717" lon="12.323925"><ele>734.8</ele><time>2026-03-22T08:32:56.653Z</time></trkpt><trkpt lat="43.6701133" lon="12.32384"><ele>734.6</ele><time>2026-03-22T08:32:57.651Z</time></trkpt><trkpt lat="43.670045" lon="12.3237467"><ele>734.4000000000001</ele><time>2026-03-22T08:32:58.651Z</time></trkpt><trkpt lat="43.6699767" lon="12.323655"><ele>734.2</ele><time>2026-03-22T08:32:59.65Z</time></trkpt><trkpt lat="43.6699167" lon="12.32355"><ele>734.0</ele><time>2026-03-22T08:33:00.651Z</time></trkpt><trkpt lat="43.6698617" lon="12.3234433"><ele>734.0</ele><time>2026-03-22T08:33:01.651Z</time></trkpt><trkpt lat="43.6698267" lon="12.32334"><ele>734.0</ele><time>2026-03-22T08:33:02.65Z</time></trkpt><trkpt lat="43.6698183" lon="12.3232317"><ele>734.0</ele><time>2026-03-22T08:33:03.652Z</time></trkpt><trkpt lat="43.6698333" lon="12.3231117"><ele>734.0</ele><time>2026-03-22T08:33:04.651Z</time></trkpt><trkpt lat="43.6698683" lon="12.3229783"><ele>734.0</ele><time>2026-03-22T08:33:05.65Z</time></trkpt><trkpt lat="43.6699217" lon="12.3228333"><ele>730.25</ele><time>2026-03-22T08:33:06.651Z</time></trkpt><trkpt lat="43.6699883" lon="12.3226833"><ele>726.5</ele><time>2026-03-22T08:33:07.651Z</time></trkpt><trkpt lat="43.6700567" lon="12.3225467"><ele>722.75</ele><time>2026-03-22T08:33:08.653Z</time></trkpt><trkpt lat="43.6701333" lon="12.3224167"><ele>719.0</ele><time>2026-03-22T08:33:09.652Z</time></trkpt><trkpt lat="43.67022" lon="12.32229"><ele>720.0</ele><time>2026-03-22T08:33:10.652Z</time></trkpt><trkpt lat="43.6703033" lon="12.3221717"><ele>721.0</ele><time>2026-03-22T08:33:11.652Z</time></trkpt><trkpt lat="43.670375" lon="12.322065"><ele>722.0</ele><time>2026-03-22T08:33:12.652Z</time></trkpt><trkpt lat="43.670445" lon="12.3219733"><ele>723.0</ele><time>2026-03-22T08:33:13.655Z</time></trkpt><trkpt lat="43.6705117" lon="12.3218933"><ele>724.0</ele><time>2026-03-22T08:33:14.655Z</time></trkpt><trkpt lat="43.6705967" lon="12.3218267"><ele>724.0</ele><time>2026-03-22T08:33:15.654Z</time></trkpt><trkpt lat="43.6706917" lon="12.321775"><ele>724.0</ele><time>2026-03-22T08:33:16.653Z</time></trkpt><trkpt lat="43.6707883" lon="12.3217333"><ele>724.0</ele><time>2026-03-22T08:33:17.655Z</time></trkpt><trkpt lat="43.6708783" lon="12.3216833"><ele>724.0</ele><time>2026-03-22T08:33:18.654Z</time></trkpt><trkpt lat="43.67096" lon="12.32162"><ele>724.0</ele><time>2026-03-22T08:33:19.654Z</time></trkpt><trkpt lat="43.6710333" lon="12.3215333"><ele>724.0</ele><time>2026-03-22T08:33:20.653Z</time></trkpt><trkpt lat="43.6710983" lon="12.3214067"><ele>724.0</ele><time>2026-03-22T08:33:21.653Z</time></trkpt><trkpt lat="43.671165" lon="12.32125"><ele>724.0</ele><time>2026-03-22T08:33:22.653Z</time></trkpt><trkpt lat="43.6712383" lon="12.3210933"><ele>724.0</ele><time>2026-03-22T08:33:23.651Z</time></trkpt><trkpt lat="43.671315" lon="12.3209567"><ele>724.6</ele><time>2026-03-22T08:33:24.65Z</time></trkpt><trkpt lat="43.67139" lon="12.3208333"><ele>725.2</ele><time>2026-03-22T08:33:25.655Z</time></trkpt><trkpt lat="43.671445" lon="12.3207083"><ele>725.8000000000001</ele><time>2026-03-22T08:33:26.654Z</time></trkpt><trkpt lat="43.6714767" lon="12.3205717"><ele>726.4000000000001</ele><time>2026-03-22T08:33:27.653Z</time></trkpt><trkpt lat="43.6714983" lon="12.3204233"><ele>727.0</ele><time>2026-03-22T08:33:28.655Z</time></trkpt><trkpt lat="43.671515" lon="12.3202833"><ele>724.5</ele><time>2026-03-22T08:33:29.651Z</time></trkpt><trkpt lat="43.6715317" lon="12.3201617"><ele>722.0</ele><time>2026-03-22T08:33:30.652Z</time></trkpt><trkpt lat="43.6715433" lon="12.3200617"><ele>719.5</ele><time>2026-03-22T08:33:31.654Z</time></trkpt><trkpt lat="43.6715183" lon="12.319935"><ele>717.0</ele><time>2026-03-22T08:33:33.652Z</time></trkpt><trkpt lat="43.6714483" lon="12.3199167"><ele>714.5</ele><time>2026-03-22T08:33:35.651Z</time></trkpt><trkpt lat="43.6714067" lon="12.31999"><ele>712.0</ele><time>2026-03-22T08:33:36.651Z</time></trkpt><trkpt lat="43.67137" lon="12.3200767"><ele>712.0</ele><time>2026-03-22T08:33:37.651Z</time></trkpt><trkpt lat="43.67133" lon="12.32018"><ele>712.0</ele><time>2026-03-22T08:33:38.651Z</time></trkpt><trkpt lat="43.6712817" lon="12.3202783"><ele>712.0</ele><time>2026-03-22T08:33:39.651Z</time></trkpt><trkpt lat="43.6712067" lon="12.32038"><ele>712.0</ele><time>2026-03-22T08:33:40.655Z</time></trkpt><trkpt lat="43.6710967" lon="12.3204633"><ele>712.0</ele><time>2026-03-22T08:33:41.653Z</time></trkpt><trkpt lat="43.6709683" lon="12.3205567"><ele>708.75</ele><time>2026-03-22T08:33:42.654Z</time></trkpt><trkpt lat="43.670845" lon="12.320665"><ele>705.5</ele><time>2026-03-22T08:33:43.655Z</time></trkpt><trkpt lat="43.6707233" lon="12.3207617"><ele>702.25</ele><time>2026-03-22T08:33:44.653Z</time></trkpt><trkpt lat="43.6706" lon="12.3208317"><ele>699.0</ele><time>2026-03-22T08:33:45.655Z</time></trkpt><trkpt lat="43.6704917" lon="12.3208867"><ele>699.0</ele><time>2026-03-22T08:33:46.651Z</time></trkpt><trkpt lat="43.67039" lon="12.3209483"><ele>699.0</ele><time>2026-03-22T08:33:47.65Z</time></trkpt><trkpt lat="43.6702967" lon="12.321015"><ele>699.0</ele><time>2026-03-22T08:33:48.65Z</time></trkpt><trkpt lat="43.670205" lon="12.32109"><ele>699.0</ele><time>2026-03-22T08:33:49.65Z</time></trkpt><trkpt lat="43.6701133" lon="12.321185"><ele>699.0</ele><time>2026-03-22T08:33:50.651Z</time></trkpt><trkpt lat="43.670035" lon="12.3212833"><ele>698.0</ele><time>2026-03-22T08:33:51.652Z</time></trkpt><trkpt lat="43.669955" lon="12.3213817"><ele>697.0</ele><time>2026-03-22T08:33:52.653Z</time></trkpt><trkpt lat="43.669865" lon="12.3214717"><ele>696.0</ele><time>2026-03-22T08:33:53.653Z</time></trkpt><trkpt lat="43.66977" lon="12.321555"><ele>695.0</ele><time>2026-03-22T08:33:54.654Z</time></trkpt><trkpt lat="43.6696733" lon="12.3216167"><ele>694.0</ele><time>2026-03-22T08:33:55.655Z</time></trkpt><trkpt lat="43.6695767" lon="12.3216767"><ele>694.0</ele><time>2026-03-22T08:33:56.653Z</time></trkpt><trkpt lat="43.6694783" lon="12.3217183"><ele>694.0</ele><time>2026-03-22T08:33:57.651Z</time></trkpt><trkpt lat="43.6693817" lon="12.3217383"><ele>694.0</ele><time>2026-03-22T08:33:58.65Z</time></trkpt><trkpt lat="43.6692883" lon="12.3217217"><ele>694.0</ele><time>2026-03-22T08:33:59.65Z</time></trkpt><trkpt lat="43.6691917" lon="12.3216867"><ele>694.0</ele><time>2026-03-22T08:34:00.654Z</time></trkpt><trkpt lat="43.6690917" lon="12.3216267"><ele>691.0</ele><time>2026-03-22T08:34:01.654Z</time></trkpt><trkpt lat="43.66899" lon="12.321555"><ele>688.0</ele><time>2026-03-22T08:34:02.65Z</time></trkpt><trkpt lat="43.6688883" lon="12.3214917"><ele>685.0</ele><time>2026-03-22T08:34:03.653Z</time></trkpt><trkpt lat="43.6687917" lon="12.3214533"><ele>682.0</ele><time>2026-03-22T08:34:04.654Z</time></trkpt><trkpt lat="43.6687033" lon="12.3214433"><ele>679.0</ele><time>2026-03-22T08:34:05.653Z</time></trkpt><trkpt lat="43.6686017" lon="12.32145"><ele>676.0</ele><time>2026-03-22T08:34:06.654Z</time></trkpt><trkpt lat="43.6684917" lon="12.3214667"><ele>673.0</ele><time>2026-03-22T08:34:07.653Z</time></trkpt><trkpt lat="43.66838" lon="12.3215"><ele>670.0</ele><time>2026-03-22T08:34:08.654Z</time></trkpt><trkpt lat="43.66827" lon="12.3215517"><ele>667.0</ele><time>2026-03-22T08:34:09.653Z</time></trkpt><trkpt lat="43.6681683" lon="12.32162"><ele>667.0</ele><time>2026-03-22T08:34:10.653Z</time></trkpt><trkpt lat="43.6680683" lon="12.32171"><ele>667.0</ele><time>2026-03-22T08:34:11.654Z</time></trkpt><trkpt lat="43.6679667" lon="12.3217933"><ele>667.0</ele><time>2026-03-22T08:34:12.655Z</time></trkpt><trkpt lat="43.6678683" lon="12.3218433"><ele>667.0</ele><time>2026-03-22T08:34:13.654Z</time></trkpt><trkpt lat="43.667775" lon="12.3218633"><ele>667.0</ele><time>2026-03-22T08:34:14.653Z</time></trkpt><trkpt lat="43.6676933" lon="12.3218867"><ele>667.8</ele><time>2026-03-22T08:34:15.654Z</time></trkpt><trkpt lat="43.66762" lon="12.321925"><ele>668.6</ele><time>2026-03-22T08:34:16.652Z</time></trkpt><trkpt lat="43.66755" lon="12.321985"><ele>669.4</ele><time>2026-03-22T08:34:17.651Z</time></trkpt><trkpt lat="43.667475" lon="12.322085"><ele>670.1999999999999</ele><time>2026-03-22T08:34:18.651Z</time></trkpt><trkpt lat="43.6673983" lon="12.322175"><ele>671.0</ele><time>2026-03-22T08:34:19.653Z</time></trkpt><trkpt lat="43.6673067" lon="12.3222383"><ele>671.0</ele><time>2026-03-22T08:34:20.65Z</time></trkpt><trkpt lat="43.6671917" lon="12.322275"><ele>671.0</ele><time>2026-03-22T08:34:21.65Z</time></trkpt><trkpt lat="43.6670667" lon="12.3223"><ele>671.0</ele><time>2026-03-22T08:34:22.652Z</time></trkpt><trkpt lat="43.6669467" lon="12.32232"><ele>671.0</ele><time>2026-03-22T08:34:23.655Z</time></trkpt><trkpt lat="43.6668433" lon="12.32236"><ele>667.8333333333333</ele><time>2026-03-22T08:34:24.652Z</time></trkpt><trkpt lat="43.666755" lon="12.3224233"><ele>664.6666666666666</ele><time>2026-03-22T08:34:25.655Z</time></trkpt><trkpt lat="43.6666833" lon="12.322505"><ele>661.5</ele><time>2026-03-22T08:34:26.655Z</time></trkpt><trkpt lat="43.6666333" lon="12.3225983"><ele>658.3333333333334</ele><time>2026-03-22T08:34:27.654Z</time></trkpt><trkpt lat="43.6666067" lon="12.322705"><ele>655.1666666666667</ele><time>2026-03-22T08:34:28.652Z</time></trkpt><trkpt lat="43.6665967" lon="12.3228133"><ele>652.0</ele><time>2026-03-22T08:34:29.651Z</time></trkpt><trkpt lat="43.666615" lon="12.3229183"><ele>652.0</ele><time>2026-03-22T08:34:30.652Z</time></trkpt><trkpt lat="43.66665" lon="12.3230183"><ele>652.0</ele><time>2026-03-22T08:34:31.651Z</time></trkpt><trkpt lat="43.66672" lon="12.3231067"><ele>652.0</ele><time>2026-03-22T08:34:32.651Z</time></trkpt><trkpt lat="43.6668067" lon="12.3231767"><ele>652.0</ele><time>2026-03-22T08:34:33.651Z</time></trkpt><trkpt lat="43.6669233" lon="12.3232217"><ele>652.0</ele><time>2026-03-22T08:34:34.651Z</time></trkpt><trkpt lat="43.667025" lon="12.3232717"><ele>655.5</ele><time>2026-03-22T08:34:35.653Z</time></trkpt><trkpt lat="43.6671233" lon="12.323325"><ele>659.0</ele><time>2026-03-22T08:34:36.65Z</time></trkpt><trkpt lat="43.6672183" lon="12.3233933"><ele>662.5</ele><time>2026-03-22T08:34:37.652Z</time></trkpt><trkpt lat="43.667315" lon="12.3234817"><ele>666.0</ele><time>2026-03-22T08:34:38.651Z</time></trkpt><trkpt lat="43.6674117" lon="12.3235883"><ele>666.0</ele><time>2026-03-22T08:34:39.654Z</time></trkpt><trkpt lat="43.6675033" lon="12.3237183"><ele>666.0</ele><time>2026-03-22T08:34:40.654Z</time></trkpt><trkpt lat="43.667585" lon="12.3238383"><ele>666.0</ele><time>2026-03-22T08:34:41.654Z</time></trkpt><trkpt lat="43.66765" lon="12.3239367"><ele>666.0</ele><time>2026-03-22T08:34:42.653Z</time></trkpt><trkpt lat="43.6676967" lon="12.324015"><ele>666.0</ele><time>2026-03-22T08:34:43.655Z</time></trkpt><trkpt lat="43.6677267" lon="12.324095"><ele>663.0</ele><time>2026-03-22T08:34:44.655Z</time></trkpt><trkpt lat="43.6676933" lon="12.3242467"><ele>660.0</ele><time>2026-03-22T08:34:46.652Z</time></trkpt><trkpt lat="43.667655" lon="12.3243183"><ele>657.0</ele><time>2026-03-22T08:34:47.651Z</time></trkpt><trkpt lat="43.667565" lon="12.3243517"><ele>654.0</ele><time>2026-03-22T08:34:48.651Z</time></trkpt><trkpt lat="43.6674617" lon="12.3243683"><ele>651.0</ele><time>2026-03-22T08:34:49.653Z</time></trkpt><trkpt lat="43.6673433" lon="12.32438"><ele>651.0</ele><time>2026-03-22T08:34:50.651Z</time></trkpt><trkpt lat="43.6672017" lon="12.32439"><ele>651.0</ele><time>2026-03-22T08:34:51.65Z</time></trkpt><trkpt lat="43.667055" lon="12.3244317"><ele>651.0</ele><time>2026-03-22T08:34:52.65Z</time></trkpt><trkpt lat="43.666915" lon="12.3244817"><ele>651.0</ele><time>2026-03-22T08:34:53.654Z</time></trkpt><trkpt lat="43.6667867" lon="12.3245383"><ele>646.0</ele><time>2026-03-22T08:34:54.656Z</time></trkpt><trkpt lat="43.6666733" lon="12.3245967"><ele>641.0</ele><time>2026-03-22T08:34:55.655Z</time></trkpt><trkpt lat="43.6665583" lon="12.3246533"><ele>636.0</ele><time>2026-03-22T08:34:56.654Z</time></trkpt><trkpt lat="43.6664417" lon="12.32469"><ele>631.0</ele><time>2026-03-22T08:34:57.654Z</time></trkpt><trkpt lat="43.6663167" lon="12.324695"><ele>631.0</ele><time>2026-03-22T08:34:58.653Z</time></trkpt><trkpt lat="43.6661917" lon="12.3246767"><ele>631.0</ele><time>2026-03-22T08:34:59.65Z</time></trkpt><trkpt lat="43.6660633" lon="12.3246367"><ele>631.0</ele><time>2026-03-22T08:35:00.651Z</time></trkpt><trkpt lat="43.665935" lon="12.32458"><ele>631.0</ele><time>2026-03-22T08:35:01.653Z</time></trkpt><trkpt lat="43.6658233" lon="12.3245117"><ele>627.8</ele><time>2026-03-22T08:35:02.65Z</time></trkpt><trkpt lat="43.6657267" lon="12.3244517"><ele>624.6</ele><time>2026-03-22T08:35:03.654Z</time></trkpt><trkpt lat="43.6656367" lon="12.3244133"><ele>621.4</ele><time>2026-03-22T08:35:04.65Z</time></trkpt><trkpt lat="43.66556" lon="12.3243917"><ele>618.2</ele><time>2026-03-22T08:35:05.653Z</time></trkpt><trkpt lat="43.6654967" lon="12.3243967"><ele>615.0</ele><time>2026-03-22T08:35:06.655Z</time></trkpt><trkpt lat="43.6654233" lon="12.32452"><ele>615.0</ele><time>2026-03-22T08:35:08.65Z</time></trkpt><trkpt lat="43.665405" lon="12.324615"><ele>615.0</ele><time>2026-03-22T08:35:09.651Z</time></trkpt><trkpt lat="43.665385" lon="12.3247167"><ele>615.0</ele><time>2026-03-22T08:35:10.655Z</time></trkpt><trkpt lat="43.6654033" lon="12.324845"><ele>615.0</ele><time>2026-03-22T08:35:11.654Z</time></trkpt><trkpt lat="43.6654467" lon="12.3249933"><ele>615.0</ele><time>2026-03-22T08:35:12.654Z</time></trkpt><trkpt lat="43.665515" lon="12.3251533"><ele>613.2</ele><time>2026-03-22T08:35:13.655Z</time></trkpt><trkpt lat="43.6655567" lon="12.3252983"><ele>611.4</ele><time>2026-03-22T08:35:14.653Z</time></trkpt><trkpt lat="43.665595" lon="12.3254117"><ele>609.6</ele><time>2026-03-22T08:35:15.655Z</time></trkpt><trkpt lat="43.6656217" lon="12.3255083"><ele>607.8</ele><time>2026-03-22T08:35:16.65Z</time></trkpt><trkpt lat="43.6656133" lon="12.3256667"><ele>606.0</ele><time>2026-03-22T08:35:18.65Z</time></trkpt><trkpt lat="43.6655733" lon="12.3257467"><ele>606.0</ele><time>2026-03-22T08:35:19.652Z</time></trkpt><trkpt lat="43.665515" lon="12.3258083"><ele>606.0</ele><time>2026-03-22T08:35:20.651Z</time></trkpt><trkpt lat="43.6654433" lon="12.3258483"><ele>606.0</ele><time>2026-03-22T08:35:21.65Z</time></trkpt><trkpt lat="43.6653767" lon="12.3258533"><ele>606.0</ele><time>2026-03-22T08:35:22.651Z</time></trkpt><trkpt lat="43.66531" lon="12.3257367"><ele>606.0</ele><time>2026-03-22T08:35:24.654Z</time></trkpt><trkpt lat="43.6653167" lon="12.3256333"><ele>606.0</ele><time>2026-03-22T08:35:25.654Z</time></trkpt><trkpt lat="43.6653367" lon="12.3255267"><ele>606.6</ele><time>2026-03-22T08:35:26.654Z</time></trkpt><trkpt lat="43.6653533" lon="12.3254217"><ele>607.2</ele><time>2026-03-22T08:35:27.654Z</time></trkpt><trkpt lat="43.66534" lon="12.3253117"><ele>607.8</ele><time>2026-03-22T08:35:28.653Z</time></trkpt><trkpt lat="43.66528" lon="12.3251933"><ele>608.4</ele><time>2026-03-22T08:35:29.653Z</time></trkpt><trkpt lat="43.6652033" lon="12.325075"><ele>609.0</ele><time>2026-03-22T08:35:30.651Z</time></trkpt><trkpt lat="43.665135" lon="12.32496"><ele>609.0</ele><time>2026-03-22T08:35:31.654Z</time></trkpt><trkpt lat="43.6650667" lon="12.3248717"><ele>609.0</ele><time>2026-03-22T08:35:32.65Z</time></trkpt><trkpt lat="43.6649883" lon="12.324815"><ele>609.0</ele><time>2026-03-22T08:35:33.655Z</time></trkpt><trkpt lat="43.6649067" lon="12.324785"><ele>609.0</ele><time>2026-03-22T08:35:34.653Z</time></trkpt><trkpt lat="43.6648033" lon="12.3248033"><ele>609.0</ele><time>2026-03-22T08:35:35.654Z</time></trkpt><trkpt lat="43.6646917" lon="12.3248233"><ele>609.0</ele><time>2026-03-22T08:35:36.652Z</time></trkpt><trkpt lat="43.6645683" lon="12.3248317"><ele>609.0</ele><time>2026-03-22T08:35:37.655Z</time></trkpt><trkpt lat="43.6644417" lon="12.3248233"><ele>609.0</ele><time>2026-03-22T08:35:38.651Z</time></trkpt><trkpt lat="43.6643283" lon="12.3248117"><ele>609.0</ele><time>2026-03-22T08:35:39.654Z</time></trkpt><trkpt lat="43.6642333" lon="12.3247967"><ele>608.0</ele><time>2026-03-22T08:35:40.654Z</time></trkpt><trkpt lat="43.6641483" lon="12.3247617"><ele>607.0</ele><time>2026-03-22T08:35:41.654Z</time></trkpt><trkpt lat="43.6640717" lon="12.3246867"><ele>606.0</ele><time>2026-03-22T08:35:42.654Z</time></trkpt><trkpt lat="43.664" lon="12.32459"><ele>605.0</ele><time>2026-03-22T08:35:43.653Z</time></trkpt><trkpt lat="43.66393" lon="12.3245"><ele>604.0</ele><time>2026-03-22T08:35:44.653Z</time></trkpt><trkpt lat="43.6638433" lon="12.3244333"><ele>604.0</ele><time>2026-03-22T08:35:45.653Z</time></trkpt><trkpt lat="43.66373" lon="12.324405"><ele>604.0</ele><time>2026-03-22T08:35:46.653Z</time></trkpt><trkpt lat="43.6636117" lon="12.3243783"><ele>604.0</ele><time>2026-03-22T08:35:47.654Z</time></trkpt><trkpt lat="43.663495" lon="12.324335"><ele>604.0</ele><time>2026-03-22T08:35:48.654Z</time></trkpt><trkpt lat="43.6633783" lon="12.3242833"><ele>601.8</ele><time>2026-03-22T08:35:49.654Z</time></trkpt><trkpt lat="43.6632667" lon="12.32422"><ele>599.5999999999999</ele><time>2026-03-22T08:35:50.654Z</time></trkpt><trkpt lat="43.663165" lon="12.3241633"><ele>597.4</ele><time>2026-03-22T08:35:51.65Z</time></trkpt><trkpt lat="43.6630633" lon="12.3241217"><ele>595.1999999999999</ele><time>2026-03-22T08:35:52.655Z</time></trkpt><trkpt lat="43.6629533" lon="12.3241083"><ele>593.0</ele><time>2026-03-22T08:35:53.654Z</time></trkpt><trkpt lat="43.6628433" lon="12.32412"><ele>590.0</ele><time>2026-03-22T08:35:54.656Z</time></trkpt><trkpt lat="43.6627483" lon="12.3241383"><ele>587.0</ele><time>2026-03-22T08:35:55.654Z</time></trkpt><trkpt lat="43.6626617" lon="12.32413"><ele>584.0</ele><time>2026-03-22T08:35:56.653Z</time></trkpt><trkpt lat="43.662585" lon="12.324085"><ele>581.0</ele><time>2026-03-22T08:35:57.653Z</time></trkpt><trkpt lat="43.6625017" lon="12.324025"><ele>578.0</ele><time>2026-03-22T08:35:58.654Z</time></trkpt><trkpt lat="43.66242" lon="12.3239683"><ele>578.0</ele><time>2026-03-22T08:35:59.653Z</time></trkpt><trkpt lat="43.6623317" lon="12.3239517"><ele>578.0</ele><time>2026-03-22T08:36:00.654Z</time></trkpt><trkpt lat="43.66223" lon="12.3239583"><ele>578.0</ele><time>2026-03-22T08:36:01.652Z</time></trkpt><trkpt lat="43.6621233" lon="12.3240017"><ele>578.0</ele><time>2026-03-22T08:36:02.654Z</time></trkpt><trkpt lat="43.662025" lon="12.3240617"><ele>578.0</ele><time>2026-03-22T08:36:03.651Z</time></trkpt><trkpt lat="43.6619383" lon="12.3241217"><ele>578.1666666666666</ele><time>2026-03-22T08:36:04.651Z</time></trkpt><trkpt lat="43.66185" lon="12.3241483"><ele>578.3333333333333</ele><time>2026-03-22T08:36:05.652Z</time></trkpt><trkpt lat="43.66177" lon="12.3241617"><ele>578.5</ele><time>2026-03-22T08:36:06.652Z</time></trkpt><trkpt lat="43.6616967" lon="12.3241167"><ele>578.6666666666666</ele><time>2026-03-22T08:36:07.653Z</time></trkpt><trkpt lat="43.6616467" lon="12.32402"><ele>578.8333333333334</ele><time>2026-03-22T08:36:08.651Z</time></trkpt><trkpt lat="43.6616067" lon="12.3238767"><ele>579.0</ele><time>2026-03-22T08:36:09.654Z</time></trkpt><trkpt lat="43.6615833" lon="12.3237117"><ele>579.0</ele><time>2026-03-22T08:36:10.654Z</time></trkpt><trkpt lat="43.6615717" lon="12.3235633"><ele>579.0</ele><time>2026-03-22T08:36:11.654Z</time></trkpt><trkpt lat="43.661555" lon="12.3234417"><ele>579.0</ele><time>2026-03-22T08:36:12.654Z</time></trkpt><trkpt lat="43.6615217" lon="12.32334"><ele>579.0</ele><time>2026-03-22T08:36:13.655Z</time></trkpt><trkpt lat="43.6614583" lon="12.3232733"><ele>579.0</ele><time>2026-03-22T08:36:14.653Z</time></trkpt><trkpt lat="43.6613767" lon="12.3232533"><ele>579.0</ele><time>2026-03-22T08:36:15.653Z</time></trkpt><trkpt lat="43.6612833" lon="12.3232767"><ele>579.0</ele><time>2026-03-22T08:36:16.654Z</time></trkpt><trkpt lat="43.6611667" lon="12.3233433"><ele>579.0</ele><time>2026-03-22T08:36:17.653Z</time></trkpt><trkpt lat="43.66104" lon="12.3234317"><ele>579.0</ele><time>2026-03-22T08:36:18.654Z</time></trkpt><trkpt lat="43.660925" lon="12.3235217"><ele>579.0</ele><time>2026-03-22T08:36:19.655Z</time></trkpt><trkpt lat="43.6608267" lon="12.3236233"><ele>577.0</ele><time>2026-03-22T08:36:20.654Z</time></trkpt><trkpt lat="43.66073" lon="12.323755"><ele>575.0</ele><time>2026-03-22T08:36:21.65Z</time></trkpt><trkpt lat="43.6606333" lon="12.3239167"><ele>573.0</ele><time>2026-03-22T08:36:22.652Z</time></trkpt><trkpt lat="43.6605267" lon="12.3240833"><ele>571.0</ele><time>2026-03-22T08:36:23.65Z</time></trkpt><trkpt lat="43.6604167" lon="12.324245"><ele>565.75</ele><time>2026-03-22T08:36:24.655Z</time></trkpt><trkpt lat="43.660315" lon="12.3243867"><ele>560.5</ele><time>2026-03-22T08:36:25.651Z</time></trkpt><trkpt lat="43.6602283" lon="12.3245083"><ele>555.25</ele><time>2026-03-22T08:36:26.655Z</time></trkpt><trkpt lat="43.6601533" lon="12.32461"><ele>550.0</ele><time>2026-03-22T08:36:27.65Z</time></trkpt><trkpt lat="43.660075" lon="12.32469"><ele>550.0</ele><time>2026-03-22T08:36:28.651Z</time></trkpt><trkpt lat="43.6599833" lon="12.32474"><ele>550.0</ele><time>2026-03-22T08:36:29.651Z</time></trkpt><trkpt lat="43.6598933" lon="12.324765"><ele>550.0</ele><time>2026-03-22T08:36:30.652Z</time></trkpt><trkpt lat="43.65981" lon="12.324775"><ele>550.0</ele><time>2026-03-22T08:36:31.653Z</time></trkpt><trkpt lat="43.6597267" lon="12.3247567"><ele>550.0</ele><time>2026-03-22T08:36:32.654Z</time></trkpt><trkpt lat="43.6596533" lon="12.3247183"><ele>550.0</ele><time>2026-03-22T08:36:33.65Z</time></trkpt><trkpt lat="43.6595883" lon="12.3246467"><ele>550.0</ele><time>2026-03-22T08:36:34.653Z</time></trkpt><trkpt lat="43.65952" lon="12.3245533"><ele>550.0</ele><time>2026-03-22T08:36:35.651Z</time></trkpt><trkpt lat="43.6594433" lon="12.3244633"><ele>550.0</ele><time>2026-03-22T08:36:36.652Z</time></trkpt><trkpt lat="43.65935" lon="12.324395"><ele>550.0</ele><time>2026-03-22T08:36:37.651Z</time></trkpt><trkpt lat="43.65923" lon="12.3243433"><ele>550.0</ele><time>2026-03-22T08:36:38.655Z</time></trkpt><trkpt lat="43.659095" lon="12.3243"><ele>547.25</ele><time>2026-03-22T08:36:39.654Z</time></trkpt><trkpt lat="43.65895" lon="12.324255"><ele>544.5</ele><time>2026-03-22T08:36:40.654Z</time></trkpt><trkpt lat="43.6588083" lon="12.3242033"><ele>541.75</ele><time>2026-03-22T08:36:41.654Z</time></trkpt><trkpt lat="43.65866" lon="12.3241533"><ele>539.0</ele><time>2026-03-22T08:36:42.654Z</time></trkpt><trkpt lat="43.658515" lon="12.3240967"><ele>541.0</ele><time>2026-03-22T08:36:43.655Z</time></trkpt><trkpt lat="43.6583783" lon="12.3240433"><ele>543.0</ele><time>2026-03-22T08:36:44.653Z</time></trkpt><trkpt lat="43.6582583" lon="12.3240017"><ele>545.0</ele><time>2026-03-22T08:36:45.654Z</time></trkpt><trkpt lat="43.6581533" lon="12.32395"><ele>547.0</ele><time>2026-03-22T08:36:46.654Z</time></trkpt><trkpt lat="43.6580633" lon="12.3238733"><ele>547.0</ele><time>2026-03-22T08:36:47.653Z</time></trkpt><trkpt lat="43.657975" lon="12.3237783"><ele>547.0</ele><time>2026-03-22T08:36:48.654Z</time></trkpt><trkpt lat="43.6578783" lon="12.323655"><ele>547.0</ele><time>2026-03-22T08:36:49.654Z</time></trkpt><trkpt lat="43.6577783" lon="12.32353"><ele>547.0</ele><time>2026-03-22T08:36:50.655Z</time></trkpt><trkpt lat="43.6576917" lon="12.3234167"><ele>539.6</ele><time>2026-03-22T08:36:51.654Z</time></trkpt><trkpt lat="43.6576383" lon="12.32331"><ele>532.2</ele><time>2026-03-22T08:36:52.654Z</time></trkpt><trkpt lat="43.6576083" lon="12.3231917"><ele>524.8</ele><time>2026-03-22T08:36:53.653Z</time></trkpt><trkpt lat="43.657595" lon="12.3230683"><ele>517.4</ele><time>2026-03-22T08:36:54.654Z</time></trkpt><trkpt lat="43.6576017" lon="12.3229267"><ele>510.0</ele><time>2026-03-22T08:36:55.654Z</time></trkpt><trkpt lat="43.6576233" lon="12.3227683"><ele>510.0</ele><time>2026-03-22T08:36:56.653Z</time></trkpt><trkpt lat="43.6576433" lon="12.3226233"><ele>510.0</ele><time>2026-03-22T08:36:57.652Z</time></trkpt><trkpt lat="43.6576583" lon="12.3225083"><ele>510.0</ele><time>2026-03-22T08:36:58.655Z</time></trkpt><trkpt lat="43.6576617" lon="12.3224167"><ele>510.0</ele><time>2026-03-22T08:36:59.653Z</time></trkpt><trkpt lat="43.657625" lon="12.3223133"><ele>510.0</ele><time>2026-03-22T08:37:01.654Z</time></trkpt><trkpt lat="43.6575517" lon="12.322335"><ele>510.0</ele><time>2026-03-22T08:37:03.651Z</time></trkpt><trkpt lat="43.6575117" lon="12.322415"><ele>510.0</ele><time>2026-03-22T08:37:04.651Z</time></trkpt><trkpt lat="43.6574533" lon="12.3225217"><ele>510.0</ele><time>2026-03-22T08:37:05.654Z</time></trkpt><trkpt lat="43.65739" lon="12.3226333"><ele>510.0</ele><time>2026-03-22T08:37:06.652Z</time></trkpt><trkpt lat="43.6573283" lon="12.32279"><ele>510.0</ele><time>2026-03-22T08:37:07.653Z</time></trkpt><trkpt lat="43.657295" lon="12.3229417"><ele>510.0</ele><time>2026-03-22T08:37:08.651Z</time></trkpt><trkpt lat="43.6572917" lon="12.323105"><ele>509.75</ele><time>2026-03-22T08:37:09.654Z</time></trkpt><trkpt lat="43.6573233" lon="12.3232733"><ele>509.5</ele><time>2026-03-22T08:37:10.654Z</time></trkpt><trkpt lat="43.6573867" lon="12.3234367"><ele>509.25</ele><time>2026-03-22T08:37:11.654Z</time></trkpt><trkpt lat="43.6574583" lon="12.3236033"><ele>509.0</ele><time>2026-03-22T08:37:12.653Z</time></trkpt><trkpt lat="43.6575233" lon="12.323765"><ele>503.75</ele><time>2026-03-22T08:37:13.655Z</time></trkpt><trkpt lat="43.65758" lon="12.323935"><ele>498.5</ele><time>2026-03-22T08:37:14.65Z</time></trkpt><trkpt lat="43.65762" lon="12.3241083"><ele>493.25</ele><time>2026-03-22T08:37:15.653Z</time></trkpt><trkpt lat="43.6576533" lon="12.3242667"><ele>488.0</ele><time>2026-03-22T08:37:16.65Z</time></trkpt><trkpt lat="43.65769" lon="12.32441"><ele>487.99999999999994</ele><time>2026-03-22T08:37:17.651Z</time></trkpt><trkpt lat="43.6577383" lon="12.3245267"><ele>488.0</ele><time>2026-03-22T08:37:18.651Z</time></trkpt><trkpt lat="43.657805" lon="12.3246267"><ele>488.0</ele><time>2026-03-22T08:37:19.65Z</time></trkpt><trkpt lat="43.6578717" lon="12.32471"><ele>488.0</ele><time>2026-03-22T08:37:20.651Z</time></trkpt><trkpt lat="43.657925" lon="12.32479"><ele>487.99999999999994</ele><time>2026-03-22T08:37:21.65Z</time></trkpt><trkpt lat="43.657965" lon="12.324875"><ele>488.0</ele><time>2026-03-22T08:37:22.651Z</time></trkpt><trkpt lat="43.6579617" lon="12.3249767"><ele>490.16666666666663</ele><time>2026-03-22T08:37:23.653Z</time></trkpt><trkpt lat="43.65792" lon="12.3250717"><ele>492.3333333333333</ele><time>2026-03-22T08:37:24.655Z</time></trkpt><trkpt lat="43.6578383" lon="12.3251867"><ele>494.5</ele><time>2026-03-22T08:37:26.651Z</time></trkpt><trkpt lat="43.657765" lon="12.3251517"><ele>496.66666666666663</ele><time>2026-03-22T08:37:27.652Z</time></trkpt><trkpt lat="43.6577133" lon="12.325075"><ele>498.8333333333333</ele><time>2026-03-22T08:37:28.653Z</time></trkpt><trkpt lat="43.657675" lon="12.324965"><ele>501.0</ele><time>2026-03-22T08:37:29.654Z</time></trkpt><trkpt lat="43.6576317" lon="12.32484"><ele>497.75</ele><time>2026-03-22T08:37:30.654Z</time></trkpt><trkpt lat="43.6575767" lon="12.3246967"><ele>494.5</ele><time>2026-03-22T08:37:31.653Z</time></trkpt><trkpt lat="43.65751" lon="12.3245433"><ele>491.25</ele><time>2026-03-22T08:37:32.654Z</time></trkpt><trkpt lat="43.6574383" lon="12.3243833"><ele>488.0</ele><time>2026-03-22T08:37:33.653Z</time></trkpt><trkpt lat="43.65736" lon="12.3242367"><ele>488.0</ele><time>2026-03-22T08:37:34.653Z</time></trkpt><trkpt lat="43.6572733" lon="12.3241033"><ele>488.0</ele><time>2026-03-22T08:37:35.654Z</time></trkpt><trkpt lat="43.6571683" lon="12.3239833"><ele>488.0</ele><time>2026-03-22T08:37:36.654Z</time></trkpt><trkpt lat="43.6570467" lon="12.3238733"><ele>488.0</ele><time>2026-03-22T08:37:37.655Z</time></trkpt><trkpt lat="43.656915" lon="12.3237783"><ele>484.59999999999997</ele><time>2026-03-22T08:37:38.654Z</time></trkpt><trkpt lat="43.656795" lon="12.3237"><ele>481.19999999999993</ele><time>2026-03-22T08:37:39.655Z</time></trkpt><trkpt lat="43.65669" lon="12.3236367"><ele>477.8</ele><time>2026-03-22T08:37:40.654Z</time></trkpt><trkpt lat="43.6566033" lon="12.3235733"><ele>474.4</ele><time>2026-03-22T08:37:41.651Z</time></trkpt><trkpt lat="43.6565383" lon="12.323515"><ele>471.0</ele><time>2026-03-22T08:37:42.654Z</time></trkpt><trkpt lat="43.6564967" lon="12.32344"><ele>471.0</ele><time>2026-03-22T08:37:43.654Z</time></trkpt><trkpt lat="43.656485" lon="12.3233517"><ele>471.0</ele><time>2026-03-22T08:37:44.653Z</time></trkpt><trkpt lat="43.6565017" lon="12.3232367"><ele>471.0</ele><time>2026-03-22T08:37:45.653Z</time></trkpt><trkpt lat="43.6565283" lon="12.3231083"><ele>471.0</ele><time>2026-03-22T08:37:46.655Z</time></trkpt><trkpt lat="43.6565683" lon="12.3229683"><ele>471.0</ele><time>2026-03-22T08:37:47.653Z</time></trkpt><trkpt lat="43.656615" lon="12.3228217"><ele>470.5</ele><time>2026-03-22T08:37:48.654Z</time></trkpt><trkpt lat="43.6566583" lon="12.3226667"><ele>470.0</ele><time>2026-03-22T08:37:49.655Z</time></trkpt><trkpt lat="43.6566983" lon="12.32252"><ele>469.5</ele><time>2026-03-22T08:37:50.654Z</time></trkpt><trkpt lat="43.6567367" lon="12.3223767"><ele>469.0</ele><time>2026-03-22T08:37:51.654Z</time></trkpt><trkpt lat="43.656765" lon="12.3222317"><ele>465.75</ele><time>2026-03-22T08:37:52.653Z</time></trkpt><trkpt lat="43.6567883" lon="12.32209"><ele>462.5</ele><time>2026-03-22T08:37:53.654Z</time></trkpt><trkpt lat="43.6568083" lon="12.32194"><ele>459.25</ele><time>2026-03-22T08:37:54.65Z</time></trkpt><trkpt lat="43.6568367" lon="12.3217817"><ele>456.0</ele><time>2026-03-22T08:37:55.655Z</time></trkpt><trkpt lat="43.6568767" lon="12.3216233"><ele>456.0</ele><time>2026-03-22T08:37:56.653Z</time></trkpt><trkpt lat="43.6569233" lon="12.321475"><ele>456.0</ele><time>2026-03-22T08:37:57.653Z</time></trkpt><trkpt lat="43.656975" lon="12.3213317"><ele>456.0</ele><time>2026-03-22T08:37:58.653Z</time></trkpt><trkpt lat="43.6570283" lon="12.3212"><ele>456.0</ele><time>2026-03-22T08:37:59.653Z</time></trkpt><trkpt lat="43.65708" lon="12.3210683"><ele>456.0</ele><time>2026-03-22T08:38:00.653Z</time></trkpt><trkpt lat="43.65713" lon="12.3209483"><ele>456.0</ele><time>2026-03-22T08:38:01.655Z</time></trkpt><trkpt lat="43.6571833" lon="12.3208367"><ele>456.0</ele><time>2026-03-22T08:38:02.654Z</time></trkpt><trkpt lat="43.6572367" lon="12.320725"><ele>456.0</ele><time>2026-03-22T08:38:03.653Z</time></trkpt><trkpt lat="43.6572983" lon="12.3206067"><ele>456.0</ele><time>2026-03-22T08:38:04.654Z</time></trkpt><trkpt lat="43.65736" lon="12.3204867"><ele>456.0</ele><time>2026-03-22T08:38:05.654Z</time></trkpt><trkpt lat="43.6574183" lon="12.3203617"><ele>456.0</ele><time>2026-03-22T08:38:06.654Z</time></trkpt><trkpt lat="43.6574783" lon="12.3202367"><ele>456.0</ele><time>2026-03-22T08:38:07.65Z</time></trkpt><trkpt lat="43.6575333" lon="12.3201133"><ele>456.0</ele><time>2026-03-22T08:38:08.654Z</time></trkpt><trkpt lat="43.6575883" lon="12.31999"><ele>456.0</ele><time>2026-03-22T08:38:09.654Z</time></trkpt><trkpt lat="43.6576433" lon="12.3198567"><ele>454.0</ele><time>2026-03-22T08:38:10.655Z</time></trkpt><trkpt lat="43.6576933" lon="12.3197167"><ele>452.0</ele><time>2026-03-22T08:38:11.654Z</time></trkpt><trkpt lat="43.65774" lon="12.319565"><ele>450.0</ele><time>2026-03-22T08:38:12.651Z</time></trkpt><trkpt lat="43.657785" lon="12.3193867"><ele>448.0</ele><time>2026-03-22T08:38:13.65Z</time></trkpt><trkpt lat="43.65783" lon="12.3191783"><ele>458.33333333333337</ele><time>2026-03-22T08:38:14.653Z</time></trkpt><trkpt lat="43.6578817" lon="12.3189683"><ele>468.66666666666663</ele><time>2026-03-22T08:38:15.653Z</time></trkpt><trkpt lat="43.6579533" lon="12.3187633"><ele>479.0</ele><time>2026-03-22T08:38:16.654Z</time></trkpt><trkpt lat="43.658035" lon="12.318555"><ele>479.0</ele><time>2026-03-22T08:38:17.65Z</time></trkpt><trkpt lat="43.6581167" lon="12.3183533"><ele>479.0</ele><time>2026-03-22T08:38:18.655Z</time></trkpt><trkpt lat="43.65819" lon="12.31817"><ele>479.0</ele><time>2026-03-22T08:38:19.651Z</time></trkpt><trkpt lat="43.6582433" lon="12.3180033"><ele>476.0</ele><time>2026-03-22T08:38:20.651Z</time></trkpt><trkpt lat="43.6582833" lon="12.3178417"><ele>473.0</ele><time>2026-03-22T08:38:21.651Z</time></trkpt><trkpt lat="43.6583133" lon="12.3176667"><ele>470.0</ele><time>2026-03-22T08:38:22.651Z</time></trkpt><trkpt lat="43.6583383" lon="12.3174917"><ele>467.0</ele><time>2026-03-22T08:38:23.651Z</time></trkpt><trkpt lat="43.6583617" lon="12.3173183"><ele>464.20000000000005</ele><time>2026-03-22T08:38:24.655Z</time></trkpt><trkpt lat="43.6583917" lon="12.317155"><ele>461.40000000000003</ele><time>2026-03-22T08:38:25.655Z</time></trkpt><trkpt lat="43.6584167" lon="12.317005"><ele>458.59999999999997</ele><time>2026-03-22T08:38:26.65Z</time></trkpt><trkpt lat="43.658445" lon="12.3168617"><ele>455.79999999999995</ele><time>2026-03-22T08:38:27.654Z</time></trkpt><trkpt lat="43.6584733" lon="12.3167367"><ele>453.0</ele><time>2026-03-22T08:38:28.653Z</time></trkpt><trkpt lat="43.6585017" lon="12.316625"><ele>453.0</ele><time>2026-03-22T08:38:29.653Z</time></trkpt><trkpt lat="43.6585333" lon="12.31652"><ele>452.99999999999994</ele><time>2026-03-22T08:38:30.65Z</time></trkpt><trkpt lat="43.65856" lon="12.3164217"><ele>452.99999999999994</ele><time>2026-03-22T08:38:31.65Z</time></trkpt><trkpt lat="43.6585733" lon="12.3163333"><ele>453.0</ele><time>2026-03-22T08:38:32.651Z</time></trkpt><trkpt lat="43.6585583" lon="12.3161617"><ele>453.0</ele><time>2026-03-22T08:38:34.655Z</time></trkpt><trkpt lat="43.6585083" lon="12.3160233"><ele>451.4</ele><time>2026-03-22T08:38:36.654Z</time></trkpt><trkpt lat="43.6584317" lon="12.315905"><ele>449.79999999999995</ele><time>2026-03-22T08:38:38.653Z</time></trkpt><trkpt lat="43.658375" lon="12.3158067"><ele>448.2</ele><time>2026-03-22T08:38:40.653Z</time></trkpt><trkpt lat="43.6583067" lon="12.3157817"><ele>446.6</ele><time>2026-03-22T08:38:43.655Z</time></trkpt><trkpt lat="43.6582" lon="12.3157633"><ele>445.0</ele><time>2026-03-22T08:38:46.654Z</time></trkpt><trkpt lat="43.6580717" lon="12.3157483"><ele>445.0</ele><time>2026-03-22T08:38:48.654Z</time></trkpt><trkpt lat="43.6579983" lon="12.3157583"><ele>445.0</ele><time>2026-03-22T08:38:49.65Z</time></trkpt><trkpt lat="43.6579333" lon="12.315785"><ele>445.0</ele><time>2026-03-22T08:38:50.65Z</time></trkpt><trkpt lat="43.65787" lon="12.3158333"><ele>445.0</ele><time>2026-03-22T08:38:51.653Z</time></trkpt><trkpt lat="43.657815" lon="12.3158783"><ele>445.0</ele><time>2026-03-22T08:38:52.654Z</time></trkpt><trkpt lat="43.65776" lon="12.3159333"><ele>445.0</ele><time>2026-03-22T08:38:53.652Z</time></trkpt><trkpt lat="43.6576983" lon="12.3159767"><ele>445.0</ele><time>2026-03-22T08:38:54.654Z</time></trkpt><trkpt lat="43.65763" lon="12.3159917"><ele>444.33333333333337</ele><time>2026-03-22T08:38:55.655Z</time></trkpt><trkpt lat="43.657555" lon="12.3159733"><ele>443.6666666666667</ele><time>2026-03-22T08:38:56.654Z</time></trkpt><trkpt lat="43.657475" lon="12.315935"><ele>443.0</ele><time>2026-03-22T08:38:57.651Z</time></trkpt><trkpt lat="43.6573933" lon="12.3158967"><ele>442.33333333333337</ele><time>2026-03-22T08:38:58.655Z</time></trkpt><trkpt lat="43.6573183" lon="12.3158617"><ele>441.6666666666667</ele><time>2026-03-22T08:38:59.654Z</time></trkpt><trkpt lat="43.65725" lon="12.315835"><ele>441.0</ele><time>2026-03-22T08:39:00.655Z</time></trkpt><trkpt lat="43.6571833" lon="12.3157983"><ele>441.0</ele><time>2026-03-22T08:39:01.653Z</time></trkpt><trkpt lat="43.6571183" lon="12.3157617"><ele>441.0</ele><time>2026-03-22T08:39:02.654Z</time></trkpt><trkpt lat="43.6570483" lon="12.3157267"><ele>441.0</ele><time>2026-03-22T08:39:03.651Z</time></trkpt><trkpt lat="43.6569817" lon="12.3157033"><ele>441.0</ele><time>2026-03-22T08:39:04.655Z</time></trkpt><trkpt lat="43.6569133" lon="12.3156933"><ele>441.0</ele><time>2026-03-22T08:39:05.656Z</time></trkpt><trkpt lat="43.6568433" lon="12.3156983"><ele>441.0</ele><time>2026-03-22T08:39:06.652Z</time></trkpt><trkpt lat="43.6567717" lon="12.3157167"><ele>441.0</ele><time>2026-03-22T08:39:07.655Z</time></trkpt><trkpt lat="43.656705" lon="12.31576"><ele>442.8571428571429</ele><time>2026-03-22T08:39:08.651Z</time></trkpt><trkpt lat="43.6566383" lon="12.3158033"><ele>444.7142857142857</ele><time>2026-03-22T08:39:09.65Z</time></trkpt><trkpt lat="43.6565767" lon="12.3158433"><ele>446.57142857142856</ele><time>2026-03-22T08:39:10.65Z</time></trkpt><trkpt lat="43.6565117" lon="12.3158867"><ele>448.42857142857144</ele><time>2026-03-22T08:39:11.653Z</time></trkpt><trkpt lat="43.6564433" lon="12.3159233"><ele>450.28571428571433</ele><time>2026-03-22T08:39:12.651Z</time></trkpt><trkpt lat="43.6563767" lon="12.3159483"><ele>452.14285714285717</ele><time>2026-03-22T08:39:13.654Z</time></trkpt><trkpt lat="43.6563133" lon="12.31595"><ele>454.0</ele><time>2026-03-22T08:39:14.651Z</time></trkpt><trkpt lat="43.65622" lon="12.3159133"><ele>454.0</ele><time>2026-03-22T08:39:16.655Z</time></trkpt><trkpt lat="43.6561583" lon="12.31587"><ele>454.0</ele><time>2026-03-22T08:39:19.652Z</time></trkpt><trkpt lat="43.6561117" lon="12.3157517"><ele>454.0</ele><time>2026-03-22T08:39:22.651Z</time></trkpt><trkpt lat="43.65612" lon="12.315655"><ele>454.0</ele><time>2026-03-22T08:39:23.651Z</time></trkpt><trkpt lat="43.6561367" lon="12.31552"><ele>454.0</ele><time>2026-03-22T08:39:24.651Z</time></trkpt><trkpt lat="43.6561583" lon="12.315365"><ele>454.25</ele><time>2026-03-22T08:39:25.651Z</time></trkpt><trkpt lat="43.6561783" lon="12.31519"><ele>454.5</ele><time>2026-03-22T08:39:26.65Z</time></trkpt><trkpt lat="43.656195" lon="12.3150033"><ele>454.75</ele><time>2026-03-22T08:39:27.651Z</time></trkpt><trkpt lat="43.6562167" lon="12.3148067"><ele>455.0</ele><time>2026-03-22T08:39:28.652Z</time></trkpt><trkpt lat="43.656235" lon="12.3146"><ele>455.0</ele><time>2026-03-22T08:39:29.651Z</time></trkpt><trkpt lat="43.656255" lon="12.3143917"><ele>455.0</ele><time>2026-03-22T08:39:30.652Z</time></trkpt><trkpt lat="43.6562717" lon="12.3141783"><ele>455.0</ele><time>2026-03-22T08:39:31.65Z</time></trkpt><trkpt lat="43.6562883" lon="12.3139617"><ele>454.66666666666663</ele><time>2026-03-22T08:39:32.651Z</time></trkpt><trkpt lat="43.65631" lon="12.3137383"><ele>454.33333333333337</ele><time>2026-03-22T08:39:33.65Z</time></trkpt><trkpt lat="43.6563317" lon="12.31351"><ele>454.0</ele><time>2026-03-22T08:39:34.652Z</time></trkpt><trkpt lat="43.6563533" lon="12.3132783"><ele>453.6666666666667</ele><time>2026-03-22T08:39:35.651Z</time></trkpt><trkpt lat="43.6563733" lon="12.3130467"><ele>453.33333333333337</ele><time>2026-03-22T08:39:36.65Z</time></trkpt><trkpt lat="43.656395" lon="12.3128117"><ele>453.0</ele><time>2026-03-22T08:39:37.651Z</time></trkpt><trkpt lat="43.65642" lon="12.3125767"><ele>453.0</ele><time>2026-03-22T08:39:38.651Z</time></trkpt><trkpt lat="43.6564417" lon="12.3123433"><ele>453.0</ele><time>2026-03-22T08:39:39.65Z</time></trkpt><trkpt lat="43.656465" lon="12.3121033"><ele>453.0</ele><time>2026-03-22T08:39:40.654Z</time></trkpt><trkpt lat="43.656485" lon="12.31186"><ele>454.0</ele><time>2026-03-22T08:39:41.653Z</time></trkpt><trkpt lat="43.6565033" lon="12.3116167"><ele>455.0</ele><time>2026-03-22T08:39:42.654Z</time></trkpt><trkpt lat="43.65652" lon="12.3113717"><ele>456.0</ele><time>2026-03-22T08:39:43.655Z</time></trkpt><trkpt lat="43.6565433" lon="12.311135"><ele>459.0</ele><time>2026-03-22T08:39:44.653Z</time></trkpt><trkpt lat="43.6565667" lon="12.3109"><ele>462.0</ele><time>2026-03-22T08:39:45.653Z</time></trkpt><trkpt lat="43.6565967" lon="12.3106717"><ele>465.0</ele><time>2026-03-22T08:39:46.654Z</time></trkpt><trkpt lat="43.6566367" lon="12.3104517"><ele>467.33333333333337</ele><time>2026-03-22T08:39:47.651Z</time></trkpt><trkpt lat="43.6566883" lon="12.3102317"><ele>469.6666666666667</ele><time>2026-03-22T08:39:48.651Z</time></trkpt><trkpt lat="43.6567483" lon="12.3100183"><ele>472.0</ele><time>2026-03-22T08:39:49.652Z</time></trkpt><trkpt lat="43.6568133" lon="12.3098067"><ele>476.0</ele><time>2026-03-22T08:39:50.651Z</time></trkpt><trkpt lat="43.6568783" lon="12.30959"><ele>480.0</ele><time>2026-03-22T08:39:51.65Z</time></trkpt><trkpt lat="43.65694" lon="12.3093717"><ele>484.0</ele><time>2026-03-22T08:39:52.65Z</time></trkpt><trkpt lat="43.6570033" lon="12.309155"><ele>474.6666666666667</ele><time>2026-03-22T08:39:53.651Z</time></trkpt><trkpt lat="43.6570667" lon="12.3089333"><ele>465.33333333333337</ele><time>2026-03-22T08:39:54.652Z</time></trkpt><trkpt lat="43.6571333" lon="12.3087083"><ele>456.0</ele><time>2026-03-22T08:39:55.651Z</time></trkpt><trkpt lat="43.6572017" lon="12.3084833"><ele>456.0</ele><time>2026-03-22T08:39:56.651Z</time></trkpt><trkpt lat="43.6572617" lon="12.3082583"><ele>456.0</ele><time>2026-03-22T08:39:57.651Z</time></trkpt><trkpt lat="43.6573217" lon="12.3080317"><ele>456.0</ele><time>2026-03-22T08:39:58.651Z</time></trkpt><trkpt lat="43.6573883" lon="12.3078083"><ele>457.66666666666663</ele><time>2026-03-22T08:39:59.65Z</time></trkpt><trkpt lat="43.6574567" lon="12.3075833"><ele>459.3333333333333</ele><time>2026-03-22T08:40:00.652Z</time></trkpt><trkpt lat="43.6575267" lon="12.3073567"><ele>461.0</ele><time>2026-03-22T08:40:01.65Z</time></trkpt><trkpt lat="43.657595" lon="12.3071267"><ele>462.66666666666663</ele><time>2026-03-22T08:40:02.651Z</time></trkpt><trkpt lat="43.65766" lon="12.3068983"><ele>464.33333333333337</ele><time>2026-03-22T08:40:03.651Z</time></trkpt><trkpt lat="43.6577133" lon="12.30668"><ele>466.0</ele><time>2026-03-22T08:40:04.65Z</time></trkpt><trkpt lat="43.6577567" lon="12.3064733"><ele>467.0</ele><time>2026-03-22T08:40:05.651Z</time></trkpt><trkpt lat="43.6577767" lon="12.3062683"><ele>468.0</ele><time>2026-03-22T08:40:06.652Z</time></trkpt><trkpt lat="43.6577817" lon="12.306055"><ele>469.0</ele><time>2026-03-22T08:40:07.654Z</time></trkpt><trkpt lat="43.6577783" lon="12.305825"><ele>469.0</ele><time>2026-03-22T08:40:08.652Z</time></trkpt><trkpt lat="43.6577717" lon="12.30558"><ele>469.0</ele><time>2026-03-22T08:40:09.652Z</time></trkpt><trkpt lat="43.6577667" lon="12.305315"><ele>469.0</ele><time>2026-03-22T08:40:10.654Z</time></trkpt><trkpt lat="43.65776" lon="12.3050267"><ele>472.0</ele><time>2026-03-22T08:40:11.654Z</time></trkpt><trkpt lat="43.6577567" lon="12.3047117"><ele>475.0</ele><time>2026-03-22T08:40:12.653Z</time></trkpt><trkpt lat="43.657745" lon="12.3043717"><ele>475.0</ele><time>2026-03-22T08:40:13.654Z</time></trkpt><trkpt lat="43.6577317" lon="12.3040133"><ele>475.0</ele><time>2026-03-22T08:40:14.653Z</time></trkpt><trkpt lat="43.6577167" lon="12.30364"><ele>477.0</ele><time>2026-03-22T08:40:15.654Z</time></trkpt><trkpt lat="43.6577017" lon="12.3032483"><ele>479.0</ele><time>2026-03-22T08:40:16.654Z</time></trkpt><trkpt lat="43.6576933" lon="12.3028517"><ele>479.0</ele><time>2026-03-22T08:40:17.65Z</time></trkpt><trkpt lat="43.65769" lon="12.3024567"><ele>479.0</ele><time>2026-03-22T08:40:18.651Z</time></trkpt><trkpt lat="43.6576833" lon="12.302065"><ele>476.0</ele><time>2026-03-22T08:40:19.651Z</time></trkpt><trkpt lat="43.657675" lon="12.301685"><ele>473.0</ele><time>2026-03-22T08:40:20.651Z</time></trkpt><trkpt lat="43.6576683" lon="12.3013267"><ele>473.0</ele><time>2026-03-22T08:40:21.65Z</time></trkpt><trkpt lat="43.6576667" lon="12.300985"><ele>473.0</ele><time>2026-03-22T08:40:22.65Z</time></trkpt><trkpt lat="43.65767" lon="12.3006617"><ele>474.5</ele><time>2026-03-22T08:40:23.65Z</time></trkpt><trkpt lat="43.65768" lon="12.3003433"><ele>476.0</ele><time>2026-03-22T08:40:24.652Z</time></trkpt><trkpt lat="43.6576967" lon="12.3000317"><ele>475.66666666666663</ele><time>2026-03-22T08:40:25.652Z</time></trkpt><trkpt lat="43.6577167" lon="12.299725"><ele>475.33333333333337</ele><time>2026-03-22T08:40:26.651Z</time></trkpt><trkpt lat="43.6577417" lon="12.2994217"><ele>475.0</ele><time>2026-03-22T08:40:27.65Z</time></trkpt><trkpt lat="43.6577617" lon="12.2991267"><ele>475.6666666666667</ele><time>2026-03-22T08:40:28.652Z</time></trkpt><trkpt lat="43.65778" lon="12.2988333"><ele>476.33333333333337</ele><time>2026-03-22T08:40:29.652Z</time></trkpt><trkpt lat="43.657795" lon="12.2985467"><ele>477.0</ele><time>2026-03-22T08:40:30.651Z</time></trkpt><trkpt lat="43.6578033" lon="12.2982667"><ele>475.0</ele><time>2026-03-22T08:40:31.651Z</time></trkpt><trkpt lat="43.6577933" lon="12.297985"><ele>473.0</ele><time>2026-03-22T08:40:32.651Z</time></trkpt><trkpt lat="43.6577533" lon="12.2977"><ele>471.0</ele><time>2026-03-22T08:40:33.651Z</time></trkpt><trkpt lat="43.6576933" lon="12.2974183"><ele>471.0</ele><time>2026-03-22T08:40:34.652Z</time></trkpt><trkpt lat="43.657625" lon="12.297145"><ele>471.0</ele><time>2026-03-22T08:40:35.651Z</time></trkpt><trkpt lat="43.6575517" lon="12.2968717"><ele>471.0</ele><time>2026-03-22T08:40:36.655Z</time></trkpt><trkpt lat="43.6574933" lon="12.296615"><ele>470.33333333333337</ele><time>2026-03-22T08:40:37.655Z</time></trkpt><trkpt lat="43.6574367" lon="12.2963767"><ele>469.6666666666667</ele><time>2026-03-22T08:40:38.654Z</time></trkpt><trkpt lat="43.6573783" lon="12.2961517"><ele>469.0</ele><time>2026-03-22T08:40:39.657Z</time></trkpt><trkpt lat="43.65732" lon="12.2959433"><ele>469.0</ele><time>2026-03-22T08:40:40.651Z</time></trkpt><trkpt lat="43.6572533" lon="12.2957483"><ele>469.0</ele><time>2026-03-22T08:40:41.654Z</time></trkpt><trkpt lat="43.65718" lon="12.295575"><ele>469.0</ele><time>2026-03-22T08:40:42.651Z</time></trkpt><trkpt lat="43.657105" lon="12.2954217"><ele>469.0</ele><time>2026-03-22T08:40:43.655Z</time></trkpt><trkpt lat="43.6570383" lon="12.29529"><ele>469.1666666666667</ele><time>2026-03-22T08:40:44.654Z</time></trkpt><trkpt lat="43.65697" lon="12.2951583"><ele>469.33333333333337</ele><time>2026-03-22T08:40:45.654Z</time></trkpt><trkpt lat="43.65691" lon="12.2950483"><ele>469.5</ele><time>2026-03-22T08:40:46.65Z</time></trkpt><trkpt lat="43.65687" lon="12.294945"><ele>469.66666666666663</ele><time>2026-03-22T08:40:47.651Z</time></trkpt><trkpt lat="43.6568433" lon="12.2948467"><ele>469.8333333333333</ele><time>2026-03-22T08:40:48.651Z</time></trkpt><trkpt lat="43.6568383" lon="12.2947583"><ele>470.0</ele><time>2026-03-22T08:40:49.652Z</time></trkpt><trkpt lat="43.65689" lon="12.294625"><ele>470.4</ele><time>2026-03-22T08:40:51.65Z</time></trkpt><trkpt lat="43.6569517" lon="12.2945833"><ele>470.8</ele><time>2026-03-22T08:40:52.651Z</time></trkpt><trkpt lat="43.65703" lon="12.2945483"><ele>471.20000000000005</ele><time>2026-03-22T08:40:53.65Z</time></trkpt><trkpt lat="43.65713" lon="12.294515"><ele>471.6</ele><time>2026-03-22T08:40:54.651Z</time></trkpt><trkpt lat="43.6572533" lon="12.294475"><ele>472.0</ele><time>2026-03-22T08:40:55.651Z</time></trkpt><trkpt lat="43.65736" lon="12.2944267"><ele>472.0</ele><time>2026-03-22T08:40:56.65Z</time></trkpt><trkpt lat="43.65746" lon="12.2943817"><ele>472.00000000000006</ele><time>2026-03-22T08:40:57.651Z</time></trkpt><trkpt lat="43.6575467" lon="12.2943467"><ele>472.00000000000006</ele><time>2026-03-22T08:40:58.655Z</time></trkpt><trkpt lat="43.6576167" lon="12.294315"><ele>472.0</ele><time>2026-03-22T08:40:59.65Z</time></trkpt><trkpt lat="43.6577233" lon="12.29426"><ele>472.0</ele><time>2026-03-22T08:41:01.651Z</time></trkpt><trkpt lat="43.6578333" lon="12.2942117"><ele>471.83333333333337</ele><time>2026-03-22T08:41:03.65Z</time></trkpt><trkpt lat="43.6578983" lon="12.2941817"><ele>471.6666666666667</ele><time>2026-03-22T08:41:04.651Z</time></trkpt><trkpt lat="43.6579633" lon="12.2941467"><ele>471.5</ele><time>2026-03-22T08:41:05.655Z</time></trkpt><trkpt lat="43.6580267" lon="12.2940933"><ele>471.33333333333337</ele><time>2026-03-22T08:41:06.655Z</time></trkpt><trkpt lat="43.6580733" lon="12.294015"><ele>471.1666666666667</ele><time>2026-03-22T08:41:07.654Z</time></trkpt><trkpt lat="43.658105" lon="12.2939133"><ele>471.0</ele><time>2026-03-22T08:41:08.654Z</time></trkpt><trkpt lat="43.6581117" lon="12.29379"><ele>471.0</ele><time>2026-03-22T08:41:09.655Z</time></trkpt><trkpt lat="43.6581183" lon="12.2936583"><ele>471.0</ele><time>2026-03-22T08:41:10.655Z</time></trkpt><trkpt lat="43.6581267" lon="12.29351"><ele>471.0</ele><time>2026-03-22T08:41:11.654Z</time></trkpt><trkpt lat="43.6581367" lon="12.2933617"><ele>471.0</ele><time>2026-03-22T08:41:12.655Z</time></trkpt><trkpt lat="43.658145" lon="12.2932133"><ele>471.0</ele><time>2026-03-22T08:41:13.65Z</time></trkpt><trkpt lat="43.65816" lon="12.2930733"><ele>471.0</ele><time>2026-03-22T08:41:14.652Z</time></trkpt><trkpt lat="43.658185" lon="12.29294"><ele>471.0</ele><time>2026-03-22T08:41:15.654Z</time></trkpt><trkpt lat="43.6582267" lon="12.29281"><ele>471.0</ele><time>2026-03-22T08:41:16.653Z</time></trkpt><trkpt lat="43.6582933" lon="12.2926967"><ele>471.0</ele><time>2026-03-22T08:41:17.651Z</time></trkpt><trkpt lat="43.6583867" lon="12.2926117"><ele>471.0</ele><time>2026-03-22T08:41:18.651Z</time></trkpt><trkpt lat="43.658485" lon="12.2925633"><ele>471.0</ele><time>2026-03-22T08:41:19.651Z</time></trkpt><trkpt lat="43.6585983" lon="12.29257"><ele>471.0</ele><time>2026-03-22T08:41:20.651Z</time></trkpt><trkpt lat="43.658725" lon="12.29263"><ele>471.0</ele><time>2026-03-22T08:41:21.651Z</time></trkpt><trkpt lat="43.65884" lon="12.292705"><ele>471.0</ele><time>2026-03-22T08:41:22.655Z</time></trkpt><trkpt lat="43.65894" lon="12.2927767"><ele>469.4</ele><time>2026-03-22T08:41:23.654Z</time></trkpt><trkpt lat="43.6590317" lon="12.29282"><ele>467.8</ele><time>2026-03-22T08:41:24.654Z</time></trkpt><trkpt lat="43.6591167" lon="12.2928267"><ele>466.19999999999993</ele><time>2026-03-22T08:41:25.655Z</time></trkpt><trkpt lat="43.6592133" lon="12.2927817"><ele>464.59999999999997</ele><time>2026-03-22T08:41:26.655Z</time></trkpt><trkpt lat="43.65931" lon="12.2926667"><ele>463.0</ele><time>2026-03-22T08:41:27.654Z</time></trkpt><trkpt lat="43.6594117" lon="12.2924983"><ele>465.6666666666667</ele><time>2026-03-22T08:41:28.654Z</time></trkpt><trkpt lat="43.6595083" lon="12.29233"><ele>468.33333333333337</ele><time>2026-03-22T08:41:29.654Z</time></trkpt><trkpt lat="43.6596" lon="12.2921583"><ele>471.0</ele><time>2026-03-22T08:41:30.65Z</time></trkpt><trkpt lat="43.65969" lon="12.29199"><ele>471.0</ele><time>2026-03-22T08:41:31.654Z</time></trkpt><trkpt lat="43.6597833" lon="12.291825"><ele>471.0</ele><time>2026-03-22T08:41:32.654Z</time></trkpt><trkpt lat="43.6598867" lon="12.2916867"><ele>471.0</ele><time>2026-03-22T08:41:33.653Z</time></trkpt><trkpt lat="43.659995" lon="12.2915717"><ele>471.0</ele><time>2026-03-22T08:41:34.651Z</time></trkpt><trkpt lat="43.660105" lon="12.2914667"><ele>471.25</ele><time>2026-03-22T08:41:35.654Z</time></trkpt><trkpt lat="43.6601967" lon="12.29136"><ele>471.5</ele><time>2026-03-22T08:41:36.654Z</time></trkpt><trkpt lat="43.6602683" lon="12.2912317"><ele>471.75</ele><time>2026-03-22T08:41:37.65Z</time></trkpt><trkpt lat="43.6603233" lon="12.29108"><ele>472.0</ele><time>2026-03-22T08:41:38.651Z</time></trkpt><trkpt lat="43.6603667" lon="12.2909083"><ele>473.5</ele><time>2026-03-22T08:41:39.651Z</time></trkpt><trkpt lat="43.6604083" lon="12.2907283"><ele>475.0</ele><time>2026-03-22T08:41:40.651Z</time></trkpt><trkpt lat="43.6604617" lon="12.29056"><ele>476.5</ele><time>2026-03-22T08:41:41.654Z</time></trkpt><trkpt lat="43.6605283" lon="12.2904033"><ele>478.0</ele><time>2026-03-22T08:41:42.654Z</time></trkpt><trkpt lat="43.66061" lon="12.2902583"><ele>478.0</ele><time>2026-03-22T08:41:43.655Z</time></trkpt><trkpt lat="43.66071" lon="12.2901283"><ele>478.0</ele><time>2026-03-22T08:41:44.654Z</time></trkpt><trkpt lat="43.6608217" lon="12.29001"><ele>478.0</ele><time>2026-03-22T08:41:45.652Z</time></trkpt><trkpt lat="43.6609467" lon="12.2899117"><ele>478.0</ele><time>2026-03-22T08:41:46.65Z</time></trkpt><trkpt lat="43.6610867" lon="12.2898317"><ele>478.33333333333337</ele><time>2026-03-22T08:41:47.651Z</time></trkpt><trkpt lat="43.6612333" lon="12.2897567"><ele>478.66666666666663</ele><time>2026-03-22T08:41:48.651Z</time></trkpt><trkpt lat="43.6613867" lon="12.2896867"><ele>479.0</ele><time>2026-03-22T08:41:49.65Z</time></trkpt><trkpt lat="43.66154" lon="12.2896217"><ele>479.0</ele><time>2026-03-22T08:41:50.65Z</time></trkpt><trkpt lat="43.6616833" lon="12.2895333"><ele>479.0</ele><time>2026-03-22T08:41:51.651Z</time></trkpt><trkpt lat="43.6618217" lon="12.2894217"><ele>479.0</ele><time>2026-03-22T08:41:52.65Z</time></trkpt><trkpt lat="43.6619417" lon="12.28926"><ele>483.3333333333333</ele><time>2026-03-22T08:41:53.654Z</time></trkpt><trkpt lat="43.66204" lon="12.2890467"><ele>487.66666666666663</ele><time>2026-03-22T08:41:54.655Z</time></trkpt><trkpt lat="43.6621133" lon="12.2888433"><ele>492.0</ele><time>2026-03-22T08:41:55.654Z</time></trkpt><trkpt lat="43.66218" lon="12.2886933"><ele>492.0</ele><time>2026-03-22T08:41:56.654Z</time></trkpt><trkpt lat="43.6622367" lon="12.288585"><ele>492.00000000000006</ele><time>2026-03-22T08:41:57.655Z</time></trkpt><trkpt lat="43.6622783" lon="12.288475"><ele>492.00000000000006</ele><time>2026-03-22T08:41:58.651Z</time></trkpt><trkpt lat="43.662305" lon="12.2883517"><ele>492.0</ele><time>2026-03-22T08:41:59.654Z</time></trkpt><trkpt lat="43.6623" lon="12.288195"><ele>492.0</ele><time>2026-03-22T08:42:00.652Z</time></trkpt><trkpt lat="43.6623" lon="12.2880233"><ele>490.5</ele><time>2026-03-22T08:42:01.654Z</time></trkpt><trkpt lat="43.6623033" lon="12.2878317"><ele>489.0</ele><time>2026-03-22T08:42:02.655Z</time></trkpt><trkpt lat="43.6623167" lon="12.2876283"><ele>487.5</ele><time>2026-03-22T08:42:03.653Z</time></trkpt><trkpt lat="43.6623417" lon="12.287425"><ele>486.0</ele><time>2026-03-22T08:42:04.655Z</time></trkpt><trkpt lat="43.6623767" lon="12.28722"><ele>485.5</ele><time>2026-03-22T08:42:05.655Z</time></trkpt><trkpt lat="43.6624133" lon="12.2870217"><ele>485.0</ele><time>2026-03-22T08:42:06.655Z</time></trkpt><trkpt lat="43.662445" lon="12.28683"><ele>484.5</ele><time>2026-03-22T08:42:07.652Z</time></trkpt><trkpt lat="43.6624617" lon="12.2866517"><ele>484.0</ele><time>2026-03-22T08:42:08.652Z</time></trkpt><trkpt lat="43.6624633" lon="12.2864783"><ele>484.0</ele><time>2026-03-22T08:42:09.654Z</time></trkpt><trkpt lat="43.6624383" lon="12.2862967"><ele>484.0</ele><time>2026-03-22T08:42:10.653Z</time></trkpt><trkpt lat="43.6623833" lon="12.2861133"><ele>484.0</ele><time>2026-03-22T08:42:11.654Z</time></trkpt><trkpt lat="43.66231" lon="12.2859317"><ele>484.0</ele><time>2026-03-22T08:42:12.654Z</time></trkpt><trkpt lat="43.6622317" lon="12.2857333"><ele>484.33333333333337</ele><time>2026-03-22T08:42:13.654Z</time></trkpt><trkpt lat="43.662165" lon="12.2855217"><ele>484.66666666666663</ele><time>2026-03-22T08:42:14.654Z</time></trkpt><trkpt lat="43.6621067" lon="12.2852983"><ele>485.0</ele><time>2026-03-22T08:42:15.653Z</time></trkpt><trkpt lat="43.6620533" lon="12.2850817"><ele>485.0</ele><time>2026-03-22T08:42:16.655Z</time></trkpt><trkpt lat="43.662005" lon="12.2848767"><ele>485.0</ele><time>2026-03-22T08:42:17.655Z</time></trkpt><trkpt lat="43.6619717" lon="12.2846783"><ele>485.0</ele><time>2026-03-22T08:42:18.654Z</time></trkpt><trkpt lat="43.6619567" lon="12.2844933"><ele>485.0</ele><time>2026-03-22T08:42:19.653Z</time></trkpt><trkpt lat="43.6619583" lon="12.284325"><ele>484.75</ele><time>2026-03-22T08:42:20.654Z</time></trkpt><trkpt lat="43.6619483" lon="12.2841817"><ele>484.5</ele><time>2026-03-22T08:42:21.654Z</time></trkpt><trkpt lat="43.6619083" lon="12.2840367"><ele>484.25</ele><time>2026-03-22T08:42:22.654Z</time></trkpt><trkpt lat="43.6618467" lon="12.2838833"><ele>484.0</ele><time>2026-03-22T08:42:23.653Z</time></trkpt><trkpt lat="43.6617767" lon="12.283725"><ele>484.0</ele><time>2026-03-22T08:42:24.653Z</time></trkpt><trkpt lat="43.6616933" lon="12.2835617"><ele>484.0</ele><time>2026-03-22T08:42:25.654Z</time></trkpt><trkpt lat="43.6616033" lon="12.2834033"><ele>484.0</ele><time>2026-03-22T08:42:26.653Z</time></trkpt><trkpt lat="43.661535" lon="12.2832433"><ele>484.0</ele><time>2026-03-22T08:42:27.653Z</time></trkpt><trkpt lat="43.6614867" lon="12.2830767"><ele>484.5</ele><time>2026-03-22T08:42:28.651Z</time></trkpt><trkpt lat="43.6614617" lon="12.2829"><ele>485.0</ele><time>2026-03-22T08:42:29.65Z</time></trkpt><trkpt lat="43.66146" lon="12.2827083"><ele>485.5</ele><time>2026-03-22T08:42:30.654Z</time></trkpt><trkpt lat="43.6614833" lon="12.28251"><ele>486.0</ele><time>2026-03-22T08:42:31.652Z</time></trkpt><trkpt lat="43.661535" lon="12.28232"><ele>488.0</ele><time>2026-03-22T08:42:32.651Z</time></trkpt><trkpt lat="43.661595" lon="12.282135"><ele>490.0</ele><time>2026-03-22T08:42:33.652Z</time></trkpt><trkpt lat="43.6616717" lon="12.2819433"><ele>492.0</ele><time>2026-03-22T08:42:34.655Z</time></trkpt><trkpt lat="43.6617617" lon="12.2817467"><ele>492.0</ele><time>2026-03-22T08:42:35.655Z</time></trkpt><trkpt lat="43.6618533" lon="12.281535"><ele>492.0</ele><time>2026-03-22T08:42:36.654Z</time></trkpt><trkpt lat="43.66195" lon="12.2813183"><ele>492.0</ele><time>2026-03-22T08:42:37.655Z</time></trkpt><trkpt lat="43.6620433" lon="12.2811033"><ele>492.0</ele><time>2026-03-22T08:42:38.653Z</time></trkpt><trkpt lat="43.6621317" lon="12.2808883"><ele>492.0</ele><time>2026-03-22T08:42:39.654Z</time></trkpt><trkpt lat="43.6622167" lon="12.280685"><ele>492.0</ele><time>2026-03-22T08:42:40.654Z</time></trkpt><trkpt lat="43.6622883" lon="12.2804767"><ele>492.0</ele><time>2026-03-22T08:42:41.651Z</time></trkpt><trkpt lat="43.6623433" lon="12.2802733"><ele>492.0</ele><time>2026-03-22T08:42:42.654Z</time></trkpt><trkpt lat="43.6623783" lon="12.28006"><ele>492.0</ele><time>2026-03-22T08:42:43.654Z</time></trkpt><trkpt lat="43.6624017" lon="12.2798383"><ele>492.0</ele><time>2026-03-22T08:42:44.654Z</time></trkpt><trkpt lat="43.6624083" lon="12.279605"><ele>492.0</ele><time>2026-03-22T08:42:45.653Z</time></trkpt><trkpt lat="43.6624" lon="12.2793683"><ele>492.0</ele><time>2026-03-22T08:42:46.654Z</time></trkpt><trkpt lat="43.66238" lon="12.2791233"><ele>492.33333333333337</ele><time>2026-03-22T08:42:47.649Z</time></trkpt><trkpt lat="43.6623467" lon="12.2788667"><ele>492.6666666666667</ele><time>2026-03-22T08:42:48.655Z</time></trkpt><trkpt lat="43.662295" lon="12.27859"><ele>493.0</ele><time>2026-03-22T08:42:49.654Z</time></trkpt><trkpt lat="43.6622417" lon="12.27831"><ele>493.0</ele><time>2026-03-22T08:42:50.653Z</time></trkpt><trkpt lat="43.6622" lon="12.2780367"><ele>493.0</ele><time>2026-03-22T08:42:51.654Z</time></trkpt><trkpt lat="43.66216" lon="12.27778"><ele>493.0</ele><time>2026-03-22T08:42:52.654Z</time></trkpt><trkpt lat="43.66212" lon="12.2775417"><ele>493.0</ele><time>2026-03-22T08:42:53.654Z</time></trkpt><trkpt lat="43.6620767" lon="12.2773217"><ele>493.0</ele><time>2026-03-22T08:42:54.654Z</time></trkpt><trkpt lat="43.6620217" lon="12.2771167"><ele>493.0</ele><time>2026-03-22T08:42:55.654Z</time></trkpt><trkpt lat="43.6619567" lon="12.2769217"><ele>494.6666666666667</ele><time>2026-03-22T08:42:56.655Z</time></trkpt><trkpt lat="43.6618783" lon="12.2767283"><ele>496.33333333333337</ele><time>2026-03-22T08:42:57.654Z</time></trkpt><trkpt lat="43.6618017" lon="12.2765317"><ele>498.0</ele><time>2026-03-22T08:42:58.654Z</time></trkpt><trkpt lat="43.6617233" lon="12.2763333"><ele>498.33333333333337</ele><time>2026-03-22T08:42:59.654Z</time></trkpt><trkpt lat="43.6616483" lon="12.276135"><ele>498.6666666666667</ele><time>2026-03-22T08:43:00.654Z</time></trkpt><trkpt lat="43.6615783" lon="12.2759433"><ele>499.0</ele><time>2026-03-22T08:43:01.654Z</time></trkpt><trkpt lat="43.66151" lon="12.2757567"><ele>498.0</ele><time>2026-03-22T08:43:02.655Z</time></trkpt><trkpt lat="43.6614467" lon="12.2755683"><ele>497.0</ele><time>2026-03-22T08:43:03.655Z</time></trkpt><trkpt lat="43.661395" lon="12.2753767"><ele>496.0</ele><time>2026-03-22T08:43:04.651Z</time></trkpt><trkpt lat="43.66136" lon="12.275185"><ele>495.0</ele><time>2026-03-22T08:43:05.654Z</time></trkpt><trkpt lat="43.6613283" lon="12.2749917"><ele>495.0</ele><time>2026-03-22T08:43:06.654Z</time></trkpt><trkpt lat="43.6613" lon="12.2747967"><ele>495.0</ele><time>2026-03-22T08:43:07.654Z</time></trkpt><trkpt lat="43.6612683" lon="12.2746133"><ele>495.0</ele><time>2026-03-22T08:43:08.654Z</time></trkpt><trkpt lat="43.6612383" lon="12.2744417"><ele>495.0</ele><time>2026-03-22T08:43:09.655Z</time></trkpt><trkpt lat="43.661205" lon="12.2742783"><ele>496.0</ele><time>2026-03-22T08:43:10.655Z</time></trkpt><trkpt lat="43.6611633" lon="12.2741217"><ele>497.0</ele><time>2026-03-22T08:43:11.655Z</time></trkpt><trkpt lat="43.6610967" lon="12.273965"><ele>498.0</ele><time>2026-03-22T08:43:12.655Z</time></trkpt><trkpt lat="43.6610033" lon="12.2737983"><ele>499.0</ele><time>2026-03-22T08:43:13.654Z</time></trkpt><trkpt lat="43.6608967" lon="12.2736167"><ele>499.0</ele><time>2026-03-22T08:43:14.653Z</time></trkpt><trkpt lat="43.6607917" lon="12.273415"><ele>499.0</ele><time>2026-03-22T08:43:15.654Z</time></trkpt><trkpt lat="43.6606967" lon="12.2732033"><ele>499.0</ele><time>2026-03-22T08:43:16.65Z</time></trkpt><trkpt lat="43.6606033" lon="12.27298"><ele>499.0</ele><time>2026-03-22T08:43:17.651Z</time></trkpt><trkpt lat="43.66051" lon="12.2727583"><ele>499.0</ele><time>2026-03-22T08:43:18.651Z</time></trkpt><trkpt lat="43.660415" lon="12.2725417"><ele>499.0</ele><time>2026-03-22T08:43:19.655Z</time></trkpt><trkpt lat="43.6603283" lon="12.27232"><ele>503.33333333333337</ele><time>2026-03-22T08:43:20.654Z</time></trkpt><trkpt lat="43.66025" lon="12.2721083"><ele>507.66666666666663</ele><time>2026-03-22T08:43:21.654Z</time></trkpt><trkpt lat="43.6601933" lon="12.271885"><ele>512.0</ele><time>2026-03-22T08:43:22.65Z</time></trkpt><trkpt lat="43.6601667" lon="12.2716333"><ele>510.3333333333333</ele><time>2026-03-22T08:43:23.65Z</time></trkpt><trkpt lat="43.6601667" lon="12.2713633"><ele>508.66666666666663</ele><time>2026-03-22T08:43:24.651Z</time></trkpt><trkpt lat="43.6601817" lon="12.27109"><ele>507.0</ele><time>2026-03-22T08:43:25.65Z</time></trkpt><trkpt lat="43.6602083" lon="12.27082"><ele>507.0</ele><time>2026-03-22T08:43:26.655Z</time></trkpt><trkpt lat="43.66025" lon="12.270555"><ele>507.0</ele><time>2026-03-22T08:43:27.651Z</time></trkpt><trkpt lat="43.6602967" lon="12.2702867"><ele>507.0</ele><time>2026-03-22T08:43:28.652Z</time></trkpt><trkpt lat="43.6603417" lon="12.2700233"><ele>510.0</ele><time>2026-03-22T08:43:29.654Z</time></trkpt><trkpt lat="43.6603867" lon="12.26977"><ele>513.0</ele><time>2026-03-22T08:43:30.65Z</time></trkpt><trkpt lat="43.66042" lon="12.2695283"><ele>516.0</ele><time>2026-03-22T08:43:31.654Z</time></trkpt><trkpt lat="43.66043" lon="12.2693"><ele>516.0</ele><time>2026-03-22T08:43:32.651Z</time></trkpt><trkpt lat="43.6604067" lon="12.269085"><ele>516.0</ele><time>2026-03-22T08:43:33.652Z</time></trkpt><trkpt lat="43.6603483" lon="12.2688733"><ele>516.0</ele><time>2026-03-22T08:43:34.654Z</time></trkpt><trkpt lat="43.6602567" lon="12.2686667"><ele>516.0</ele><time>2026-03-22T08:43:35.654Z</time></trkpt><trkpt lat="43.6601483" lon="12.2684617"><ele>516.0</ele><time>2026-03-22T08:43:36.654Z</time></trkpt><trkpt lat="43.6600383" lon="12.2682533"><ele>516.0</ele><time>2026-03-22T08:43:37.652Z</time></trkpt><trkpt lat="43.6599417" lon="12.2680333"><ele>516.0</ele><time>2026-03-22T08:43:38.654Z</time></trkpt><trkpt lat="43.6598667" lon="12.2678183"><ele>516.0</ele><time>2026-03-22T08:43:39.651Z</time></trkpt><trkpt lat="43.65979" lon="12.2676217"><ele>516.0</ele><time>2026-03-22T08:43:40.652Z</time></trkpt><trkpt lat="43.6596917" lon="12.2674567"><ele>516.0</ele><time>2026-03-22T08:43:41.657Z</time></trkpt><trkpt lat="43.6595717" lon="12.267325"><ele>516.0</ele><time>2026-03-22T08:43:42.654Z</time></trkpt><trkpt lat="43.6594433" lon="12.267225"><ele>516.0</ele><time>2026-03-22T08:43:43.654Z</time></trkpt><trkpt lat="43.659335" lon="12.2671183"><ele>516.0</ele><time>2026-03-22T08:43:44.655Z</time></trkpt><trkpt lat="43.6592633" lon="12.26699"><ele>514.5</ele><time>2026-03-22T08:43:45.654Z</time></trkpt><trkpt lat="43.6592233" lon="12.2668267"><ele>513.0</ele><time>2026-03-22T08:43:46.654Z</time></trkpt><trkpt lat="43.6591967" lon="12.2666267"><ele>511.5</ele><time>2026-03-22T08:43:47.65Z</time></trkpt><trkpt lat="43.6591667" lon="12.2664117"><ele>510.0</ele><time>2026-03-22T08:43:48.655Z</time></trkpt><trkpt lat="43.6591333" lon="12.26619"><ele>509.66666666666663</ele><time>2026-03-22T08:43:49.652Z</time></trkpt><trkpt lat="43.6591017" lon="12.265965"><ele>509.3333333333333</ele><time>2026-03-22T08:43:50.652Z</time></trkpt><trkpt lat="43.6590683" lon="12.2657417"><ele>509.0</ele><time>2026-03-22T08:43:51.654Z</time></trkpt><trkpt lat="43.6590267" lon="12.2655317"><ele>510.0</ele><time>2026-03-22T08:43:52.655Z</time></trkpt><trkpt lat="43.6589617" lon="12.265335"><ele>511.0</ele><time>2026-03-22T08:43:53.654Z</time></trkpt><trkpt lat="43.6588733" lon="12.2651467"><ele>512.0</ele><time>2026-03-22T08:43:54.654Z</time></trkpt><trkpt lat="43.658775" lon="12.2649583"><ele>513.3333333333333</ele><time>2026-03-22T08:43:55.655Z</time></trkpt><trkpt lat="43.6586767" lon="12.264765"><ele>514.6666666666666</ele><time>2026-03-22T08:43:56.651Z</time></trkpt><trkpt lat="43.6585867" lon="12.2645683"><ele>516.0</ele><time>2026-03-22T08:43:57.655Z</time></trkpt><trkpt lat="43.6585133" lon="12.26437"><ele>516.0</ele><time>2026-03-22T08:43:58.654Z</time></trkpt><trkpt lat="43.6584767" lon="12.2641767"><ele>516.0</ele><time>2026-03-22T08:43:59.653Z</time></trkpt><trkpt lat="43.6584733" lon="12.2639783"><ele>516.0</ele><time>2026-03-22T08:44:00.654Z</time></trkpt><trkpt lat="43.6585017" lon="12.2637717"><ele>516.0</ele><time>2026-03-22T08:44:01.654Z</time></trkpt><trkpt lat="43.658555" lon="12.2635617"><ele>515.6666666666666</ele><time>2026-03-22T08:44:02.654Z</time></trkpt><trkpt lat="43.6586117" lon="12.26335"><ele>515.3333333333333</ele><time>2026-03-22T08:44:03.654Z</time></trkpt><trkpt lat="43.658665" lon="12.2631333"><ele>515.0</ele><time>2026-03-22T08:44:04.654Z</time></trkpt><trkpt lat="43.6586983" lon="12.2629117"><ele>518.3333333333333</ele><time>2026-03-22T08:44:05.653Z</time></trkpt><trkpt lat="43.6587167" lon="12.2626783"><ele>521.6666666666666</ele><time>2026-03-22T08:44:06.654Z</time></trkpt><trkpt lat="43.6587233" lon="12.2624417"><ele>525.0</ele><time>2026-03-22T08:44:07.65Z</time></trkpt><trkpt lat="43.6587133" lon="12.262195"><ele>525.6666666666666</ele><time>2026-03-22T08:44:08.654Z</time></trkpt><trkpt lat="43.6586983" lon="12.2619467"><ele>526.3333333333333</ele><time>2026-03-22T08:44:09.654Z</time></trkpt><trkpt lat="43.658685" lon="12.261705"><ele>527.0</ele><time>2026-03-22T08:44:10.655Z</time></trkpt><trkpt lat="43.6586683" lon="12.26147"><ele>530.0</ele><time>2026-03-22T08:44:11.654Z</time></trkpt><trkpt lat="43.65864" lon="12.2612333"><ele>533.0</ele><time>2026-03-22T08:44:12.654Z</time></trkpt><trkpt lat="43.658605" lon="12.260995"><ele>536.0</ele><time>2026-03-22T08:44:13.653Z</time></trkpt><trkpt lat="43.6585667" lon="12.26076"><ele>530.3333333333333</ele><time>2026-03-22T08:44:14.654Z</time></trkpt><trkpt lat="43.6585183" lon="12.260535"><ele>524.6666666666666</ele><time>2026-03-22T08:44:15.654Z</time></trkpt><trkpt lat="43.6584467" lon="12.2603233"><ele>519.0</ele><time>2026-03-22T08:44:16.653Z</time></trkpt><trkpt lat="43.6583483" lon="12.2601317"><ele>519.0</ele><time>2026-03-22T08:44:17.655Z</time></trkpt><trkpt lat="43.6582417" lon="12.2599467"><ele>519.0</ele><time>2026-03-22T08:44:18.656Z</time></trkpt><trkpt lat="43.65813" lon="12.25976"><ele>519.0</ele><time>2026-03-22T08:44:19.653Z</time></trkpt><trkpt lat="43.6580133" lon="12.259565"><ele>520.0</ele><time>2026-03-22T08:44:20.654Z</time></trkpt><trkpt lat="43.6578967" lon="12.2593683"><ele>521.0</ele><time>2026-03-22T08:44:21.654Z</time></trkpt><trkpt lat="43.657785" lon="12.2591833"><ele>522.0</ele><time>2026-03-22T08:44:22.653Z</time></trkpt><trkpt lat="43.65768" lon="12.2589983"><ele>522.6666666666666</ele><time>2026-03-22T08:44:23.653Z</time></trkpt><trkpt lat="43.6575783" lon="12.2588117"><ele>523.3333333333333</ele><time>2026-03-22T08:44:24.654Z</time></trkpt><trkpt lat="43.6574867" lon="12.2586183"><ele>524.0</ele><time>2026-03-22T08:44:25.652Z</time></trkpt><trkpt lat="43.6574067" lon="12.258415"><ele>524.0</ele><time>2026-03-22T08:44:26.654Z</time></trkpt><trkpt lat="43.6573317" lon="12.2582083"><ele>524.0</ele><time>2026-03-22T08:44:27.653Z</time></trkpt><trkpt lat="43.6572617" lon="12.2579967"><ele>524.0</ele><time>2026-03-22T08:44:28.652Z</time></trkpt><trkpt lat="43.6572" lon="12.2577767"><ele>523.6666666666666</ele><time>2026-03-22T08:44:29.651Z</time></trkpt><trkpt lat="43.6571533" lon="12.257545"><ele>523.3333333333334</ele><time>2026-03-22T08:44:30.653Z</time></trkpt><trkpt lat="43.6571017" lon="12.257305"><ele>523.0</ele><time>2026-03-22T08:44:31.654Z</time></trkpt><trkpt lat="43.6570583" lon="12.2570767"><ele>523.5</ele><time>2026-03-22T08:44:32.651Z</time></trkpt><trkpt lat="43.656995" lon="12.2568683"><ele>524.0</ele><time>2026-03-22T08:44:33.652Z</time></trkpt><trkpt lat="43.656925" lon="12.256695"><ele>524.5</ele><time>2026-03-22T08:44:34.655Z</time></trkpt><trkpt lat="43.6568317" lon="12.2565617"><ele>525.0</ele><time>2026-03-22T08:44:35.651Z</time></trkpt><trkpt lat="43.65671" lon="12.2564617"><ele>525.3333333333334</ele><time>2026-03-22T08:44:36.652Z</time></trkpt><trkpt lat="43.65657" lon="12.2563867"><ele>525.6666666666667</ele><time>2026-03-22T08:44:37.652Z</time></trkpt><trkpt lat="43.6563967" lon="12.2563417"><ele>526.0</ele><time>2026-03-22T08:44:38.651Z</time></trkpt><trkpt lat="43.6562067" lon="12.2562867"><ele>527.0</ele><time>2026-03-22T08:44:39.652Z</time></trkpt><trkpt lat="43.6560133" lon="12.25619"><ele>528.0</ele><time>2026-03-22T08:44:40.652Z</time></trkpt><trkpt lat="43.65582" lon="12.2560733"><ele>529.0</ele><time>2026-03-22T08:44:41.652Z</time></trkpt><trkpt lat="43.655635" lon="12.2559617"><ele>529.0</ele><time>2026-03-22T08:44:42.651Z</time></trkpt><trkpt lat="43.6554467" lon="12.2558533"><ele>529.0</ele><time>2026-03-22T08:44:43.654Z</time></trkpt><trkpt lat="43.65526" lon="12.2557417"><ele>529.0</ele><time>2026-03-22T08:44:44.655Z</time></trkpt><trkpt lat="43.6550767" lon="12.255635"><ele>531.3333333333334</ele><time>2026-03-22T08:44:45.651Z</time></trkpt><trkpt lat="43.6549" lon="12.2555317"><ele>533.6666666666666</ele><time>2026-03-22T08:44:46.654Z</time></trkpt><trkpt lat="43.6547217" lon="12.2554333"><ele>536.0</ele><time>2026-03-22T08:44:47.653Z</time></trkpt><trkpt lat="43.6545517" lon="12.2553417"><ele>538.0</ele><time>2026-03-22T08:44:48.655Z</time></trkpt><trkpt lat="43.654395" lon="12.255255"><ele>540.0</ele><time>2026-03-22T08:44:49.654Z</time></trkpt><trkpt lat="43.65425" lon="12.255175"><ele>542.0</ele><time>2026-03-22T08:44:50.654Z</time></trkpt><trkpt lat="43.654115" lon="12.2550767"><ele>542.0</ele><time>2026-03-22T08:44:51.653Z</time></trkpt><trkpt lat="43.6539983" lon="12.254955"><ele>542.0</ele><time>2026-03-22T08:44:52.654Z</time></trkpt><trkpt lat="43.653905" lon="12.254795"><ele>542.0</ele><time>2026-03-22T08:44:53.649Z</time></trkpt><trkpt lat="43.653835" lon="12.2546033"><ele>539.0</ele><time>2026-03-22T08:44:54.655Z</time></trkpt><trkpt lat="43.653775" lon="12.2543933"><ele>536.0</ele><time>2026-03-22T08:44:55.654Z</time></trkpt><trkpt lat="43.65372" lon="12.2541783"><ele>533.0</ele><time>2026-03-22T08:44:56.653Z</time></trkpt><trkpt lat="43.6536633" lon="12.25397"><ele>538.75</ele><time>2026-03-22T08:44:57.654Z</time></trkpt><trkpt lat="43.65361" lon="12.2537667"><ele>544.5</ele><time>2026-03-22T08:44:58.653Z</time></trkpt><trkpt lat="43.65357" lon="12.253575"><ele>550.25</ele><time>2026-03-22T08:44:59.655Z</time></trkpt><trkpt lat="43.6535383" lon="12.253385"><ele>556.0</ele><time>2026-03-22T08:45:00.654Z</time></trkpt><trkpt lat="43.6534983" lon="12.25319"><ele>552.5</ele><time>2026-03-22T08:45:01.654Z</time></trkpt><trkpt lat="43.6534467" lon="12.2529933"><ele>549.0</ele><time>2026-03-22T08:45:02.654Z</time></trkpt><trkpt lat="43.6533817" lon="12.252805"><ele>545.5</ele><time>2026-03-22T08:45:03.654Z</time></trkpt><trkpt lat="43.65331" lon="12.2526333"><ele>542.0</ele><time>2026-03-22T08:45:04.653Z</time></trkpt><trkpt lat="43.65324" lon="12.2524717"><ele>542.0</ele><time>2026-03-22T08:45:05.656Z</time></trkpt><trkpt lat="43.6531717" lon="12.25233"><ele>542.0</ele><time>2026-03-22T08:45:06.654Z</time></trkpt><trkpt lat="43.6530917" lon="12.25222"><ele>542.0</ele><time>2026-03-22T08:45:07.655Z</time></trkpt><trkpt lat="43.6530033" lon="12.2521383"><ele>542.0</ele><time>2026-03-22T08:45:08.651Z</time></trkpt><trkpt lat="43.6529033" lon="12.2520783"><ele>542.75</ele><time>2026-03-22T08:45:09.654Z</time></trkpt><trkpt lat="43.6527867" lon="12.2520283"><ele>543.5</ele><time>2026-03-22T08:45:10.653Z</time></trkpt><trkpt lat="43.6526667" lon="12.25199"><ele>544.25</ele><time>2026-03-22T08:45:11.651Z</time></trkpt><trkpt lat="43.6525517" lon="12.2519517"><ele>545.0</ele><time>2026-03-22T08:45:12.652Z</time></trkpt><trkpt lat="43.65245" lon="12.2519183"><ele>545.0</ele><time>2026-03-22T08:45:13.65Z</time></trkpt><trkpt lat="43.6523683" lon="12.251875"><ele>545.0</ele><time>2026-03-22T08:45:14.653Z</time></trkpt><trkpt lat="43.652305" lon="12.2518067"><ele>545.0</ele><time>2026-03-22T08:45:15.651Z</time></trkpt><trkpt lat="43.65226" lon="12.2517183"><ele>545.0</ele><time>2026-03-22T08:45:16.654Z</time></trkpt><trkpt lat="43.65224" lon="12.25162"><ele>545.0</ele><time>2026-03-22T08:45:17.654Z</time></trkpt><trkpt lat="43.6522583" lon="12.251485"><ele>545.0</ele><time>2026-03-22T08:45:18.654Z</time></trkpt><trkpt lat="43.652295" lon="12.2513383"><ele>545.2</ele><time>2026-03-22T08:45:19.656Z</time></trkpt><trkpt lat="43.652305" lon="12.2511917"><ele>545.4</ele><time>2026-03-22T08:45:20.654Z</time></trkpt><trkpt lat="43.65229" lon="12.2510517"><ele>545.6</ele><time>2026-03-22T08:45:21.653Z</time></trkpt><trkpt lat="43.652245" lon="12.25094"><ele>545.8</ele><time>2026-03-22T08:45:22.653Z</time></trkpt><trkpt lat="43.6521683" lon="12.2508467"><ele>546.0</ele><time>2026-03-22T08:45:23.654Z</time></trkpt><trkpt lat="43.6520683" lon="12.2507683"><ele>546.0</ele><time>2026-03-22T08:45:24.655Z</time></trkpt><trkpt lat="43.6519583" lon="12.2506883"><ele>546.0</ele><time>2026-03-22T08:45:25.654Z</time></trkpt><trkpt lat="43.6518483" lon="12.25058"><ele>546.0</ele><time>2026-03-22T08:45:26.654Z</time></trkpt><trkpt lat="43.6517467" lon="12.250455"><ele>546.0</ele><time>2026-03-22T08:45:27.654Z</time></trkpt><trkpt lat="43.6516517" lon="12.25033"><ele>546.5</ele><time>2026-03-22T08:45:28.654Z</time></trkpt><trkpt lat="43.6515683" lon="12.2502"><ele>547.0</ele><time>2026-03-22T08:45:29.653Z</time></trkpt><trkpt lat="43.6515033" lon="12.25005"><ele>547.5</ele><time>2026-03-22T08:45:30.654Z</time></trkpt><trkpt lat="43.65145" lon="12.2498833"><ele>548.0</ele><time>2026-03-22T08:45:31.654Z</time></trkpt><trkpt lat="43.6514083" lon="12.24971"><ele>548.0</ele><time>2026-03-22T08:45:32.653Z</time></trkpt><trkpt lat="43.6513733" lon="12.2495267"><ele>548.0</ele><time>2026-03-22T08:45:33.65Z</time></trkpt><trkpt lat="43.6513433" lon="12.2493417"><ele>548.0</ele><time>2026-03-22T08:45:34.652Z</time></trkpt><trkpt lat="43.6513333" lon="12.2491483"><ele>548.0</ele><time>2026-03-22T08:45:35.653Z</time></trkpt><trkpt lat="43.65133" lon="12.24895"><ele>548.0</ele><time>2026-03-22T08:45:36.65Z</time></trkpt><trkpt lat="43.65134" lon="12.2487483"><ele>548.0</ele><time>2026-03-22T08:45:37.654Z</time></trkpt><trkpt lat="43.6513633" lon="12.24855"><ele>548.0</ele><time>2026-03-22T08:45:38.654Z</time></trkpt><trkpt lat="43.6514" lon="12.2483483"><ele>548.0</ele><time>2026-03-22T08:45:39.653Z</time></trkpt><trkpt lat="43.651445" lon="12.24816"><ele>552.5</ele><time>2026-03-22T08:45:40.653Z</time></trkpt><trkpt lat="43.6515167" lon="12.2479933"><ele>557.0</ele><time>2026-03-22T08:45:41.654Z</time></trkpt><trkpt lat="43.6516167" lon="12.24785"><ele>561.5</ele><time>2026-03-22T08:45:42.653Z</time></trkpt><trkpt lat="43.6517317" lon="12.2477217"><ele>566.0</ele><time>2026-03-22T08:45:43.654Z</time></trkpt><trkpt lat="43.6518567" lon="12.2475967"><ele>564.6666666666666</ele><time>2026-03-22T08:45:44.653Z</time></trkpt><trkpt lat="43.6519833" lon="12.2474783"><ele>563.3333333333334</ele><time>2026-03-22T08:45:45.653Z</time></trkpt><trkpt lat="43.6521117" lon="12.24735"><ele>562.0</ele><time>2026-03-22T08:45:46.65Z</time></trkpt><trkpt lat="43.652235" lon="12.2472267"><ele>562.0</ele><time>2026-03-22T08:45:47.652Z</time></trkpt><trkpt lat="43.6523483" lon="12.24711"><ele>562.0</ele><time>2026-03-22T08:45:48.651Z</time></trkpt><trkpt lat="43.6524583" lon="12.24701"><ele>562.0</ele><time>2026-03-22T08:45:49.653Z</time></trkpt><trkpt lat="43.652565" lon="12.2469267"><ele>562.0</ele><time>2026-03-22T08:45:50.652Z</time></trkpt><trkpt lat="43.652665" lon="12.2468617"><ele>562.0</ele><time>2026-03-22T08:45:51.652Z</time></trkpt><trkpt lat="43.65275" lon="12.2467933"><ele>562.0</ele><time>2026-03-22T08:45:52.652Z</time></trkpt><trkpt lat="43.65281" lon="12.2467067"><ele>562.0</ele><time>2026-03-22T08:45:53.651Z</time></trkpt><trkpt lat="43.6528467" lon="12.2466"><ele>562.0</ele><time>2026-03-22T08:45:54.651Z</time></trkpt><trkpt lat="43.6528483" lon="12.2464733"><ele>562.0</ele><time>2026-03-22T08:45:55.655Z</time></trkpt><trkpt lat="43.6528367" lon="12.2463267"><ele>562.0</ele><time>2026-03-22T08:45:56.652Z</time></trkpt><trkpt lat="43.6528" lon="12.24615"><ele>562.0</ele><time>2026-03-22T08:45:57.651Z</time></trkpt><trkpt lat="43.6527633" lon="12.2459583"><ele>562.0</ele><time>2026-03-22T08:45:58.654Z</time></trkpt><trkpt lat="43.6527483" lon="12.2457733"><ele>562.0</ele><time>2026-03-22T08:45:59.654Z</time></trkpt><trkpt lat="43.65274" lon="12.2455867"><ele>562.0</ele><time>2026-03-22T08:46:00.651Z</time></trkpt><trkpt lat="43.6527267" lon="12.2453883"><ele>562.0</ele><time>2026-03-22T08:46:01.651Z</time></trkpt><trkpt lat="43.652715" lon="12.2451833"><ele>562.0</ele><time>2026-03-22T08:46:02.651Z</time></trkpt><trkpt lat="43.652705" lon="12.2449717"><ele>562.0</ele><time>2026-03-22T08:46:03.654Z</time></trkpt><trkpt lat="43.652695" lon="12.2447517"><ele>559.6666666666667</ele><time>2026-03-22T08:46:04.652Z</time></trkpt><trkpt lat="43.652685" lon="12.2445367"><ele>557.3333333333334</ele><time>2026-03-22T08:46:05.651Z</time></trkpt><trkpt lat="43.6526683" lon="12.244325"><ele>555.0</ele><time>2026-03-22T08:46:06.656Z</time></trkpt><trkpt lat="43.652635" lon="12.2441167"><ele>555.25</ele><time>2026-03-22T08:46:07.654Z</time></trkpt><trkpt lat="43.6525967" lon="12.2439183"><ele>555.5</ele><time>2026-03-22T08:46:08.653Z</time></trkpt><trkpt lat="43.6525667" lon="12.2437183"><ele>555.75</ele><time>2026-03-22T08:46:09.653Z</time></trkpt><trkpt lat="43.6525583" lon="12.243515"><ele>556.0</ele><time>2026-03-22T08:46:10.653Z</time></trkpt><trkpt lat="43.652565" lon="12.2433167"><ele>556.0</ele><time>2026-03-22T08:46:11.654Z</time></trkpt><trkpt lat="43.65258" lon="12.2431317"><ele>556.0</ele><time>2026-03-22T08:46:12.654Z</time></trkpt><trkpt lat="43.6525933" lon="12.2429617"><ele>556.0</ele><time>2026-03-22T08:46:13.651Z</time></trkpt><trkpt lat="43.6526033" lon="12.2428083"><ele>556.0</ele><time>2026-03-22T08:46:14.654Z</time></trkpt><trkpt lat="43.6526117" lon="12.2426567"><ele>555.75</ele><time>2026-03-22T08:46:15.654Z</time></trkpt><trkpt lat="43.6526167" lon="12.2425017"><ele>555.5</ele><time>2026-03-22T08:46:16.65Z</time></trkpt><trkpt lat="43.652615" lon="12.2423417"><ele>555.25</ele><time>2026-03-22T08:46:17.65Z</time></trkpt><trkpt lat="43.6526017" lon="12.2421767"><ele>555.0</ele><time>2026-03-22T08:46:18.65Z</time></trkpt><trkpt lat="43.6525767" lon="12.2420067"><ele>554.75</ele><time>2026-03-22T08:46:19.65Z</time></trkpt><trkpt lat="43.6525417" lon="12.2418333"><ele>554.5</ele><time>2026-03-22T08:46:20.651Z</time></trkpt><trkpt lat="43.6525083" lon="12.24166"><ele>554.25</ele><time>2026-03-22T08:46:21.65Z</time></trkpt><trkpt lat="43.6524733" lon="12.2414867"><ele>554.0</ele><time>2026-03-22T08:46:22.65Z</time></trkpt><trkpt lat="43.652435" lon="12.24132"><ele>556.75</ele><time>2026-03-22T08:46:23.655Z</time></trkpt><trkpt lat="43.6523933" lon="12.241165"><ele>559.5</ele><time>2026-03-22T08:46:24.651Z</time></trkpt><trkpt lat="43.6523433" lon="12.2410167"><ele>562.25</ele><time>2026-03-22T08:46:25.655Z</time></trkpt><trkpt lat="43.65229" lon="12.240875"><ele>565.0</ele><time>2026-03-22T08:46:26.651Z</time></trkpt><trkpt lat="43.65223" lon="12.24074"><ele>566.0</ele><time>2026-03-22T08:46:27.653Z</time></trkpt><trkpt lat="43.6521683" lon="12.2406067"><ele>567.0</ele><time>2026-03-22T08:46:28.651Z</time></trkpt><trkpt lat="43.6521067" lon="12.2404717"><ele>568.0</ele><time>2026-03-22T08:46:29.651Z</time></trkpt><trkpt lat="43.6520433" lon="12.2403367"><ele>569.0</ele><time>2026-03-22T08:46:30.65Z</time></trkpt><trkpt lat="43.6519783" lon="12.2402"><ele>566.25</ele><time>2026-03-22T08:46:31.652Z</time></trkpt><trkpt lat="43.651915" lon="12.24006"><ele>563.5</ele><time>2026-03-22T08:46:32.654Z</time></trkpt><trkpt lat="43.65185" lon="12.2399167"><ele>560.75</ele><time>2026-03-22T08:46:33.653Z</time></trkpt><trkpt lat="43.6517917" lon="12.23977"><ele>558.0</ele><time>2026-03-22T08:46:34.654Z</time></trkpt><trkpt lat="43.6517567" lon="12.2396133"><ele>558.0</ele><time>2026-03-22T08:46:35.654Z</time></trkpt><trkpt lat="43.6517567" lon="12.2394467"><ele>558.0</ele><time>2026-03-22T08:46:36.654Z</time></trkpt><trkpt lat="43.6517717" lon="12.2392817"><ele>558.0</ele><time>2026-03-22T08:46:37.656Z</time></trkpt><trkpt lat="43.6517933" lon="12.239125"><ele>558.0</ele><time>2026-03-22T08:46:38.653Z</time></trkpt><trkpt lat="43.65182" lon="12.2389667"><ele>558.5</ele><time>2026-03-22T08:46:39.655Z</time></trkpt><trkpt lat="43.6518467" lon="12.2388"><ele>559.0</ele><time>2026-03-22T08:46:40.651Z</time></trkpt><trkpt lat="43.6518683" lon="12.2386367"><ele>559.5</ele><time>2026-03-22T08:46:41.651Z</time></trkpt><trkpt lat="43.6518833" lon="12.2384817"><ele>560.0</ele><time>2026-03-22T08:46:42.655Z</time></trkpt><trkpt lat="43.6519017" lon="12.2383283"><ele>560.0</ele><time>2026-03-22T08:46:43.654Z</time></trkpt><trkpt lat="43.6519267" lon="12.2381667"><ele>560.0</ele><time>2026-03-22T08:46:44.65Z</time></trkpt><trkpt lat="43.6519533" lon="12.2380017"><ele>560.0</ele><time>2026-03-22T08:46:45.653Z</time></trkpt><trkpt lat="43.6519783" lon="12.2378283"><ele>560.0</ele><time>2026-03-22T08:46:46.651Z</time></trkpt><trkpt lat="43.6520067" lon="12.2376433"><ele>560.75</ele><time>2026-03-22T08:46:47.651Z</time></trkpt><trkpt lat="43.6520433" lon="12.237445"><ele>561.5</ele><time>2026-03-22T08:46:48.651Z</time></trkpt><trkpt lat="43.6520883" lon="12.23725"><ele>562.25</ele><time>2026-03-22T08:46:49.652Z</time></trkpt><trkpt lat="43.6521417" lon="12.2370733"><ele>563.0</ele><time>2026-03-22T08:46:50.651Z</time></trkpt><trkpt lat="43.6521983" lon="12.2369033"><ele>563.0</ele><time>2026-03-22T08:46:51.65Z</time></trkpt><trkpt lat="43.6522533" lon="12.2367383"><ele>563.0</ele><time>2026-03-22T08:46:52.653Z</time></trkpt><trkpt lat="43.6523083" lon="12.2365783"><ele>563.0</ele><time>2026-03-22T08:46:53.65Z</time></trkpt><trkpt lat="43.652365" lon="12.23643"><ele>563.0</ele><time>2026-03-22T08:46:54.651Z</time></trkpt><trkpt lat="43.6524283" lon="12.2362883"><ele>562.75</ele><time>2026-03-22T08:46:55.651Z</time></trkpt><trkpt lat="43.652505" lon="12.236155"><ele>562.5</ele><time>2026-03-22T08:46:56.651Z</time></trkpt><trkpt lat="43.652595" lon="12.23602"><ele>562.25</ele><time>2026-03-22T08:46:57.653Z</time></trkpt><trkpt lat="43.6526933" lon="12.2358933"><ele>562.0</ele><time>2026-03-22T08:46:58.654Z</time></trkpt><trkpt lat="43.65279" lon="12.2357783"><ele>567.2</ele><time>2026-03-22T08:46:59.653Z</time></trkpt><trkpt lat="43.652885" lon="12.2356717"><ele>572.4000000000001</ele><time>2026-03-22T08:47:00.655Z</time></trkpt><trkpt lat="43.65297" lon="12.23557"><ele>577.5999999999999</ele><time>2026-03-22T08:47:01.654Z</time></trkpt><trkpt lat="43.653035" lon="12.2354583"><ele>582.8</ele><time>2026-03-22T08:47:02.653Z</time></trkpt><trkpt lat="43.653085" lon="12.2353283"><ele>588.0</ele><time>2026-03-22T08:47:03.653Z</time></trkpt><trkpt lat="43.6531083" lon="12.2351833"><ele>588.0</ele><time>2026-03-22T08:47:04.655Z</time></trkpt><trkpt lat="43.6531067" lon="12.2350333"><ele>588.0</ele><time>2026-03-22T08:47:05.654Z</time></trkpt><trkpt lat="43.653085" lon="12.2348833"><ele>588.0</ele><time>2026-03-22T08:47:06.65Z</time></trkpt><trkpt lat="43.6530533" lon="12.23474"><ele>588.0</ele><time>2026-03-22T08:47:07.65Z</time></trkpt><trkpt lat="43.6530183" lon="12.2345983"><ele>588.0</ele><time>2026-03-22T08:47:08.65Z</time></trkpt><trkpt lat="43.6529983" lon="12.2344533"><ele>588.5</ele><time>2026-03-22T08:47:09.65Z</time></trkpt><trkpt lat="43.6529967" lon="12.234295"><ele>589.0</ele><time>2026-03-22T08:47:10.654Z</time></trkpt><trkpt lat="43.653" lon="12.2341183"><ele>589.5</ele><time>2026-03-22T08:47:11.653Z</time></trkpt><trkpt lat="43.653" lon="12.2339333"><ele>590.0</ele><time>2026-03-22T08:47:12.653Z</time></trkpt><trkpt lat="43.6529983" lon="12.2337383"><ele>591.25</ele><time>2026-03-22T08:47:13.655Z</time></trkpt><trkpt lat="43.6529983" lon="12.2335417"><ele>592.5</ele><time>2026-03-22T08:47:14.653Z</time></trkpt><trkpt lat="43.6529983" lon="12.2333517"><ele>593.75</ele><time>2026-03-22T08:47:15.654Z</time></trkpt><trkpt lat="43.6529983" lon="12.2331667"><ele>595.0</ele><time>2026-03-22T08:47:16.65Z</time></trkpt><trkpt lat="43.6529967" lon="12.2329783"><ele>595.0</ele><time>2026-03-22T08:47:17.65Z</time></trkpt><trkpt lat="43.6529917" lon="12.2327933"><ele>595.0</ele><time>2026-03-22T08:47:18.651Z</time></trkpt><trkpt lat="43.6529883" lon="12.2326183"><ele>595.0</ele><time>2026-03-22T08:47:19.651Z</time></trkpt><trkpt lat="43.6529833" lon="12.23246"><ele>595.0</ele><time>2026-03-22T08:47:20.651Z</time></trkpt><trkpt lat="43.6529833" lon="12.2323117"><ele>593.2</ele><time>2026-03-22T08:47:21.65Z</time></trkpt><trkpt lat="43.6529917" lon="12.23217"><ele>591.4</ele><time>2026-03-22T08:47:22.651Z</time></trkpt><trkpt lat="43.6530133" lon="12.2320317"><ele>589.6</ele><time>2026-03-22T08:47:23.654Z</time></trkpt><trkpt lat="43.65305" lon="12.2319017"><ele>587.8</ele><time>2026-03-22T08:47:24.653Z</time></trkpt><trkpt lat="43.6530967" lon="12.2317833"><ele>586.0</ele><time>2026-03-22T08:47:25.652Z</time></trkpt><trkpt lat="43.6531433" lon="12.23167"><ele>586.0</ele><time>2026-03-22T08:47:26.654Z</time></trkpt><trkpt lat="43.65319" lon="12.2315583"><ele>586.0</ele><time>2026-03-22T08:47:27.654Z</time></trkpt><trkpt lat="43.6532417" lon="12.2314583"><ele>586.0</ele><time>2026-03-22T08:47:28.653Z</time></trkpt><trkpt lat="43.6533" lon="12.2313667"><ele>586.0</ele><time>2026-03-22T08:47:29.654Z</time></trkpt><trkpt lat="43.65337" lon="12.2312883"><ele>586.0</ele><time>2026-03-22T08:47:30.653Z</time></trkpt><trkpt lat="43.6534417" lon="12.23122"><ele>586.0</ele><time>2026-03-22T08:47:31.651Z</time></trkpt><trkpt lat="43.6535117" lon="12.2311567"><ele>584.5</ele><time>2026-03-22T08:47:32.654Z</time></trkpt><trkpt lat="43.6535833" lon="12.2310983"><ele>583.0</ele><time>2026-03-22T08:47:33.653Z</time></trkpt><trkpt lat="43.6536583" lon="12.231045"><ele>581.5</ele><time>2026-03-22T08:47:34.654Z</time></trkpt><trkpt lat="43.653735" lon="12.23099"><ele>580.0</ele><time>2026-03-22T08:47:35.653Z</time></trkpt><trkpt lat="43.6538133" lon="12.2309333"><ele>578.5</ele><time>2026-03-22T08:47:36.654Z</time></trkpt><trkpt lat="43.6538967" lon="12.2308717"><ele>577.0</ele><time>2026-03-22T08:47:37.655Z</time></trkpt><trkpt lat="43.65398" lon="12.2308133"><ele>577.8000000000001</ele><time>2026-03-22T08:47:38.654Z</time></trkpt><trkpt lat="43.6540617" lon="12.2307533"><ele>578.6</ele><time>2026-03-22T08:47:39.654Z</time></trkpt><trkpt lat="43.6541467" lon="12.2306833"><ele>579.4000000000001</ele><time>2026-03-22T08:47:40.653Z</time></trkpt><trkpt lat="43.6542267" lon="12.230615"><ele>580.2</ele><time>2026-03-22T08:47:41.654Z</time></trkpt><trkpt lat="43.6542983" lon="12.2305467"><ele>581.0</ele><time>2026-03-22T08:47:42.653Z</time></trkpt><trkpt lat="43.654385" lon="12.230485"><ele>584.0</ele><time>2026-03-22T08:47:43.651Z</time></trkpt><trkpt lat="43.654485" lon="12.2304167"><ele>587.0</ele><time>2026-03-22T08:47:44.654Z</time></trkpt><trkpt lat="43.654595" lon="12.2303417"><ele>590.0</ele><time>2026-03-22T08:47:45.652Z</time></trkpt><trkpt lat="43.6547117" lon="12.2302567"><ele>593.0</ele><time>2026-03-22T08:47:46.652Z</time></trkpt><trkpt lat="43.65485" lon="12.2301567"><ele>593.0</ele><time>2026-03-22T08:47:47.651Z</time></trkpt><trkpt lat="43.6549917" lon="12.2300667"><ele>593.0</ele><time>2026-03-22T08:47:48.652Z</time></trkpt><trkpt lat="43.6551217" lon="12.23"><ele>593.0</ele><time>2026-03-22T08:47:49.655Z</time></trkpt><trkpt lat="43.6552317" lon="12.22997"><ele>593.0</ele><time>2026-03-22T08:47:50.654Z</time></trkpt><trkpt lat="43.65533" lon="12.2299717"><ele>593.0</ele><time>2026-03-22T08:47:51.652Z</time></trkpt><trkpt lat="43.655435" lon="12.2299767"><ele>593.0</ele><time>2026-03-22T08:47:52.652Z</time></trkpt><trkpt lat="43.655535" lon="12.22997"><ele>593.0</ele><time>2026-03-22T08:47:53.651Z</time></trkpt><trkpt lat="43.6556317" lon="12.2299267"><ele>593.0</ele><time>2026-03-22T08:47:54.652Z</time></trkpt><trkpt lat="43.655725" lon="12.2298433"><ele>593.0</ele><time>2026-03-22T08:47:55.654Z</time></trkpt><trkpt lat="43.6558167" lon="12.2297417"><ele>593.0</ele><time>2026-03-22T08:47:56.651Z</time></trkpt><trkpt lat="43.65591" lon="12.2296383"><ele>593.0</ele><time>2026-03-22T08:47:57.656Z</time></trkpt><trkpt lat="43.656" lon="12.2295433"><ele>593.0</ele><time>2026-03-22T08:47:58.652Z</time></trkpt><trkpt lat="43.6560933" lon="12.22946"><ele>593.0</ele><time>2026-03-22T08:47:59.652Z</time></trkpt><trkpt lat="43.656185" lon="12.22937"><ele>596.75</ele><time>2026-03-22T08:48:00.655Z</time></trkpt><trkpt lat="43.6562867" lon="12.2292883"><ele>600.5</ele><time>2026-03-22T08:48:01.65Z</time></trkpt><trkpt lat="43.6563917" lon="12.2292117"><ele>604.25</ele><time>2026-03-22T08:48:02.655Z</time></trkpt><trkpt lat="43.656505" lon="12.2291433"><ele>608.0</ele><time>2026-03-22T08:48:03.653Z</time></trkpt><trkpt lat="43.65662" lon="12.22908"><ele>608.0</ele><time>2026-03-22T08:48:04.651Z</time></trkpt><trkpt lat="43.65673" lon="12.2290233"><ele>608.0</ele><time>2026-03-22T08:48:05.651Z</time></trkpt><trkpt lat="43.6568383" lon="12.2289617"><ele>608.0</ele><time>2026-03-22T08:48:06.651Z</time></trkpt><trkpt lat="43.656945" lon="12.2288883"><ele>608.0</ele><time>2026-03-22T08:48:07.652Z</time></trkpt><trkpt lat="43.65705" lon="12.2288"><ele>606.75</ele><time>2026-03-22T08:48:08.65Z</time></trkpt><trkpt lat="43.657155" lon="12.2287"><ele>605.5</ele><time>2026-03-22T08:48:09.653Z</time></trkpt><trkpt lat="43.6572717" lon="12.228605"><ele>604.25</ele><time>2026-03-22T08:48:10.654Z</time></trkpt><trkpt lat="43.6573933" lon="12.2285183"><ele>603.0</ele><time>2026-03-22T08:48:11.654Z</time></trkpt><trkpt lat="43.6575117" lon="12.228425"><ele>603.0</ele><time>2026-03-22T08:48:12.654Z</time></trkpt><trkpt lat="43.657625" lon="12.2283317"><ele>603.0</ele><time>2026-03-22T08:48:13.652Z</time></trkpt><trkpt lat="43.6577367" lon="12.228235"><ele>603.0</ele><time>2026-03-22T08:48:14.653Z</time></trkpt><trkpt lat="43.65785" lon="12.2281533"><ele>603.0</ele><time>2026-03-22T08:48:15.653Z</time></trkpt><trkpt lat="43.6579733" lon="12.2280933"><ele>602.25</ele><time>2026-03-22T08:48:16.653Z</time></trkpt><trkpt lat="43.6580983" lon="12.2280517"><ele>601.5</ele><time>2026-03-22T08:48:17.654Z</time></trkpt><trkpt lat="43.6582267" lon="12.228015"><ele>600.75</ele><time>2026-03-22T08:48:18.654Z</time></trkpt><trkpt lat="43.6583467" lon="12.227965"><ele>600.0</ele><time>2026-03-22T08:48:19.653Z</time></trkpt><trkpt lat="43.6584517" lon="12.227895"><ele>600.0</ele><time>2026-03-22T08:48:20.65Z</time></trkpt><trkpt lat="43.6585433" lon="12.2278383"><ele>600.0</ele><time>2026-03-22T08:48:21.65Z</time></trkpt><trkpt lat="43.6586233" lon="12.2278117"><ele>600.0</ele><time>2026-03-22T08:48:22.651Z</time></trkpt><trkpt lat="43.6586917" lon="12.2278133"><ele>600.0</ele><time>2026-03-22T08:48:23.654Z</time></trkpt><trkpt lat="43.6587983" lon="12.227905"><ele>600.0</ele><time>2026-03-22T08:48:25.654Z</time></trkpt><trkpt lat="43.6588717" lon="12.2279967"><ele>599.2</ele><time>2026-03-22T08:48:26.654Z</time></trkpt><trkpt lat="43.658955" lon="12.2280633"><ele>598.4</ele><time>2026-03-22T08:48:27.653Z</time></trkpt><trkpt lat="43.6590533" lon="12.22811"><ele>597.6</ele><time>2026-03-22T08:48:28.65Z</time></trkpt><trkpt lat="43.659165" lon="12.2281317"><ele>596.8</ele><time>2026-03-22T08:48:29.651Z</time></trkpt><trkpt lat="43.659285" lon="12.2281433"><ele>596.0</ele><time>2026-03-22T08:48:30.651Z</time></trkpt><trkpt lat="43.6594033" lon="12.2281483"><ele>596.6</ele><time>2026-03-22T08:48:31.65Z</time></trkpt><trkpt lat="43.659515" lon="12.228135"><ele>597.2</ele><time>2026-03-22T08:48:32.65Z</time></trkpt><trkpt lat="43.65962" lon="12.2281083"><ele>597.8</ele><time>2026-03-22T08:48:33.65Z</time></trkpt><trkpt lat="43.6597183" lon="12.22806"><ele>598.4</ele><time>2026-03-22T08:48:34.653Z</time></trkpt><trkpt lat="43.6598133" lon="12.2279767"><ele>599.0</ele><time>2026-03-22T08:48:35.651Z</time></trkpt><trkpt lat="43.6599167" lon="12.227865"><ele>599.0</ele><time>2026-03-22T08:48:36.651Z</time></trkpt><trkpt lat="43.6600167" lon="12.2277517"><ele>599.0</ele><time>2026-03-22T08:48:37.653Z</time></trkpt><trkpt lat="43.6601117" lon="12.2276617"><ele>599.0</ele><time>2026-03-22T08:48:38.65Z</time></trkpt><trkpt lat="43.660205" lon="12.227595"><ele>599.0</ele><time>2026-03-22T08:48:39.651Z</time></trkpt><trkpt lat="43.6603217" lon="12.2275617"><ele>599.75</ele><time>2026-03-22T08:48:40.65Z</time></trkpt><trkpt lat="43.6604483" lon="12.227525"><ele>600.5</ele><time>2026-03-22T08:48:41.651Z</time></trkpt><trkpt lat="43.6605783" lon="12.2274833"><ele>601.25</ele><time>2026-03-22T08:48:42.65Z</time></trkpt><trkpt lat="43.66071" lon="12.2274233"><ele>602.0</ele><time>2026-03-22T08:48:43.654Z</time></trkpt><trkpt lat="43.66085" lon="12.2273483"><ele>601.3333333333333</ele><time>2026-03-22T08:48:44.651Z</time></trkpt><trkpt lat="43.6610017" lon="12.2272567"><ele>600.6666666666666</ele><time>2026-03-22T08:48:45.653Z</time></trkpt><trkpt lat="43.661155" lon="12.22716"><ele>600.0</ele><time>2026-03-22T08:48:46.653Z</time></trkpt><trkpt lat="43.6612817" lon="12.227065"><ele>603.75</ele><time>2026-03-22T08:48:47.653Z</time></trkpt><trkpt lat="43.6613867" lon="12.2269667"><ele>607.5</ele><time>2026-03-22T08:48:48.653Z</time></trkpt><trkpt lat="43.661485" lon="12.2268383"><ele>611.25</ele><time>2026-03-22T08:48:49.655Z</time></trkpt><trkpt lat="43.6615567" lon="12.226695"><ele>615.0</ele><time>2026-03-22T08:48:50.654Z</time></trkpt><trkpt lat="43.6616083" lon="12.2265517"><ele>614.5</ele><time>2026-03-22T08:48:51.654Z</time></trkpt><trkpt lat="43.66164" lon="12.2264133"><ele>614.0</ele><time>2026-03-22T08:48:52.655Z</time></trkpt><trkpt lat="43.6616667" lon="12.2262683"><ele>613.5</ele><time>2026-03-22T08:48:53.653Z</time></trkpt><trkpt lat="43.6616883" lon="12.2261"><ele>613.0</ele><time>2026-03-22T08:48:54.653Z</time></trkpt><trkpt lat="43.6617033" lon="12.225915"><ele>613.0</ele><time>2026-03-22T08:48:55.654Z</time></trkpt><trkpt lat="43.6617083" lon="12.225735"><ele>613.0</ele><time>2026-03-22T08:48:56.653Z</time></trkpt><trkpt lat="43.6617117" lon="12.2255917"><ele>613.0</ele><time>2026-03-22T08:48:57.653Z</time></trkpt><trkpt lat="43.6617333" lon="12.225485"><ele>613.0</ele><time>2026-03-22T08:48:58.651Z</time></trkpt><trkpt lat="43.6617683" lon="12.225405"><ele>613.0</ele><time>2026-03-22T08:48:59.653Z</time></trkpt><trkpt lat="43.6618717" lon="12.2253417"><ele>613.0</ele><time>2026-03-22T08:49:01.655Z</time></trkpt><trkpt lat="43.6619517" lon="12.2254467"><ele>613.0</ele><time>2026-03-22T08:49:03.654Z</time></trkpt><trkpt lat="43.6619583" lon="12.2255367"><ele>613.0</ele><time>2026-03-22T08:49:04.653Z</time></trkpt><trkpt lat="43.6619517" lon="12.2256317"><ele>613.0</ele><time>2026-03-22T08:49:05.654Z</time></trkpt><trkpt lat="43.661935" lon="12.2257583"><ele>613.0</ele><time>2026-03-22T08:49:06.654Z</time></trkpt><trkpt lat="43.66191" lon="12.225915"><ele>613.0</ele><time>2026-03-22T08:49:07.655Z</time></trkpt><trkpt lat="43.6618917" lon="12.2261083"><ele>613.0</ele><time>2026-03-22T08:49:08.653Z</time></trkpt><trkpt lat="43.6618767" lon="12.2263433"><ele>613.0</ele><time>2026-03-22T08:49:09.654Z</time></trkpt><trkpt lat="43.661865" lon="12.2265617"><ele>613.4</ele><time>2026-03-22T08:49:10.654Z</time></trkpt><trkpt lat="43.6618417" lon="12.2267433"><ele>613.8</ele><time>2026-03-22T08:49:11.653Z</time></trkpt><trkpt lat="43.6618283" lon="12.2268817"><ele>614.2</ele><time>2026-03-22T08:49:12.654Z</time></trkpt><trkpt lat="43.66182" lon="12.2269817"><ele>614.6</ele><time>2026-03-22T08:49:13.655Z</time></trkpt><trkpt lat="43.6618767" lon="12.22709"><ele>615.0</ele><time>2026-03-22T08:49:15.653Z</time></trkpt><trkpt lat="43.6619717" lon="12.2270767"><ele>620.6</ele><time>2026-03-22T08:49:17.651Z</time></trkpt><trkpt lat="43.662035" lon="12.226925"><ele>626.2</ele><time>2026-03-22T08:49:19.652Z</time></trkpt><trkpt lat="43.6620483" lon="12.2268117"><ele>631.8</ele><time>2026-03-22T08:49:20.652Z</time></trkpt><trkpt lat="43.662055" lon="12.2266717"><ele>637.4</ele><time>2026-03-22T08:49:21.652Z</time></trkpt><trkpt lat="43.662065" lon="12.226495"><ele>643.0</ele><time>2026-03-22T08:49:22.651Z</time></trkpt><trkpt lat="43.66208" lon="12.226295"><ele>643.0</ele><time>2026-03-22T08:49:23.657Z</time></trkpt><trkpt lat="43.6620933" lon="12.2260967"><ele>643.0</ele><time>2026-03-22T08:49:24.651Z</time></trkpt><trkpt lat="43.6621067" lon="12.2259333"><ele>643.0</ele><time>2026-03-22T08:49:25.651Z</time></trkpt><trkpt lat="43.662135" lon="12.2258017"><ele>643.0</ele><time>2026-03-22T08:49:26.654Z</time></trkpt><trkpt lat="43.6621833" lon="12.2256833"><ele>637.0</ele><time>2026-03-22T08:49:27.653Z</time></trkpt><trkpt lat="43.662265" lon="12.2255667"><ele>631.0</ele><time>2026-03-22T08:49:28.653Z</time></trkpt><trkpt lat="43.6623633" lon="12.2254617"><ele>625.0</ele><time>2026-03-22T08:49:29.654Z</time></trkpt><trkpt lat="43.6624783" lon="12.2253733"><ele>619.0</ele><time>2026-03-22T08:49:30.655Z</time></trkpt><trkpt lat="43.6625933" lon="12.2253033"><ele>619.0</ele><time>2026-03-22T08:49:31.653Z</time></trkpt><trkpt lat="43.6627" lon="12.2252317"><ele>619.0</ele><time>2026-03-22T08:49:32.655Z</time></trkpt><trkpt lat="43.6627967" lon="12.2251317"><ele>619.0</ele><time>2026-03-22T08:49:33.653Z</time></trkpt><trkpt lat="43.6628883" lon="12.22501"><ele>619.0</ele><time>2026-03-22T08:49:34.651Z</time></trkpt><trkpt lat="43.6629783" lon="12.2249"><ele>619.4</ele><time>2026-03-22T08:49:35.65Z</time></trkpt><trkpt lat="43.663075" lon="12.224805"><ele>619.8</ele><time>2026-03-22T08:49:36.651Z</time></trkpt><trkpt lat="43.6631733" lon="12.2247233"><ele>620.2</ele><time>2026-03-22T08:49:37.651Z</time></trkpt><trkpt lat="43.6632683" lon="12.2246633"><ele>620.6</ele><time>2026-03-22T08:49:38.651Z</time></trkpt><trkpt lat="43.6633617" lon="12.2246533"><ele>621.0</ele><time>2026-03-22T08:49:39.654Z</time></trkpt><trkpt lat="43.6634567" lon="12.2246833"><ele>621.0</ele><time>2026-03-22T08:49:40.653Z</time></trkpt><trkpt lat="43.663555" lon="12.2247317"><ele>621.0</ele><time>2026-03-22T08:49:41.654Z</time></trkpt><trkpt lat="43.6636583" lon="12.2247867"><ele>621.0</ele><time>2026-03-22T08:49:42.653Z</time></trkpt><trkpt lat="43.6637683" lon="12.2248517"><ele>621.0</ele><time>2026-03-22T08:49:43.654Z</time></trkpt><trkpt lat="43.6638733" lon="12.2249217"><ele>626.8</ele><time>2026-03-22T08:49:44.654Z</time></trkpt><trkpt lat="43.6639683" lon="12.22498"><ele>632.6</ele><time>2026-03-22T08:49:45.654Z</time></trkpt><trkpt lat="43.6640667" lon="12.22501"><ele>638.4</ele><time>2026-03-22T08:49:46.654Z</time></trkpt><trkpt lat="43.6641667" lon="12.2250133"><ele>644.2</ele><time>2026-03-22T08:49:47.654Z</time></trkpt><trkpt lat="43.6642567" lon="12.2249867"><ele>650.0</ele><time>2026-03-22T08:49:48.653Z</time></trkpt><trkpt lat="43.6643333" lon="12.224945"><ele>650.0</ele><time>2026-03-22T08:49:49.654Z</time></trkpt><trkpt lat="43.6644067" lon="12.2249083"><ele>650.0</ele><time>2026-03-22T08:49:50.655Z</time></trkpt><trkpt lat="43.6644817" lon="12.2248833"><ele>650.0</ele><time>2026-03-22T08:49:51.654Z</time></trkpt><trkpt lat="43.6645817" lon="12.2249"><ele>650.0</ele><time>2026-03-22T08:49:52.653Z</time></trkpt><trkpt lat="43.6646883" lon="12.224915"><ele>650.0</ele><time>2026-03-22T08:49:53.654Z</time></trkpt><trkpt lat="43.6648033" lon="12.2249333"><ele>652.25</ele><time>2026-03-22T08:49:54.654Z</time></trkpt><trkpt lat="43.6649217" lon="12.224945"><ele>654.5</ele><time>2026-03-22T08:49:55.654Z</time></trkpt><trkpt lat="43.6650433" lon="12.2249467"><ele>656.75</ele><time>2026-03-22T08:49:56.656Z</time></trkpt><trkpt lat="43.6651533" lon="12.224945"><ele>659.0</ele><time>2026-03-22T08:49:57.654Z</time></trkpt><trkpt lat="43.6652533" lon="12.224925"><ele>662.6666666666666</ele><time>2026-03-22T08:49:58.656Z</time></trkpt><trkpt lat="43.6653317" lon="12.2248817"><ele>666.3333333333333</ele><time>2026-03-22T08:49:59.654Z</time></trkpt><trkpt lat="43.6653817" lon="12.22482"><ele>670.0</ele><time>2026-03-22T08:50:00.654Z</time></trkpt><trkpt lat="43.6654117" lon="12.224735"><ele>673.6666666666666</ele><time>2026-03-22T08:50:01.654Z</time></trkpt><trkpt lat="43.6654367" lon="12.224645"><ele>677.3333333333334</ele><time>2026-03-22T08:50:02.654Z</time></trkpt><trkpt lat="43.665435" lon="12.224525"><ele>681.0</ele><time>2026-03-22T08:50:03.655Z</time></trkpt><trkpt lat="43.66543" lon="12.22439"><ele>681.0</ele><time>2026-03-22T08:50:04.65Z</time></trkpt><trkpt lat="43.6654367" lon="12.2242433"><ele>681.0</ele><time>2026-03-22T08:50:05.651Z</time></trkpt><trkpt lat="43.66546" lon="12.224085"><ele>681.0</ele><time>2026-03-22T08:50:06.654Z</time></trkpt><trkpt lat="43.6655067" lon="12.2239167"><ele>681.0</ele><time>2026-03-22T08:50:07.654Z</time></trkpt><trkpt lat="43.6655667" lon="12.2237483"><ele>677.75</ele><time>2026-03-22T08:50:08.655Z</time></trkpt><trkpt lat="43.6656317" lon="12.2235917"><ele>674.5</ele><time>2026-03-22T08:50:09.654Z</time></trkpt><trkpt lat="43.665705" lon="12.2234467"><ele>671.25</ele><time>2026-03-22T08:50:10.654Z</time></trkpt><trkpt lat="43.6657917" lon="12.223315"><ele>668.0</ele><time>2026-03-22T08:50:11.656Z</time></trkpt><trkpt lat="43.6658717" lon="12.223185"><ele>666.0</ele><time>2026-03-22T08:50:12.654Z</time></trkpt><trkpt lat="43.66594" lon="12.2230467"><ele>664.0</ele><time>2026-03-22T08:50:13.651Z</time></trkpt><trkpt lat="43.66599" lon="12.22288"><ele>662.0</ele><time>2026-03-22T08:50:14.653Z</time></trkpt><trkpt lat="43.6660283" lon="12.2227017"><ele>660.0</ele><time>2026-03-22T08:50:15.654Z</time></trkpt><trkpt lat="43.6660667" lon="12.22254"><ele>661.4</ele><time>2026-03-22T08:50:16.655Z</time></trkpt><trkpt lat="43.6661133" lon="12.2224067"><ele>662.8</ele><time>2026-03-22T08:50:17.654Z</time></trkpt><trkpt lat="43.6661783" lon="12.2222917"><ele>664.2</ele><time>2026-03-22T08:50:18.652Z</time></trkpt><trkpt lat="43.6662583" lon="12.22219"><ele>665.6</ele><time>2026-03-22T08:50:19.654Z</time></trkpt><trkpt lat="43.66636" lon="12.2221017"><ele>667.0</ele><time>2026-03-22T08:50:20.654Z</time></trkpt><trkpt lat="43.6664733" lon="12.2220317"><ele>667.0</ele><time>2026-03-22T08:50:21.651Z</time></trkpt><trkpt lat="43.6665917" lon="12.2219883"><ele>667.0</ele><time>2026-03-22T08:50:22.655Z</time></trkpt><trkpt lat="43.6667317" lon="12.221965"><ele>667.0</ele><time>2026-03-22T08:50:23.654Z</time></trkpt><trkpt lat="43.66689" lon="12.2219467"><ele>667.0</ele><time>2026-03-22T08:50:24.653Z</time></trkpt><trkpt lat="43.6670517" lon="12.2219217"><ele>670.5</ele><time>2026-03-22T08:50:25.653Z</time></trkpt><trkpt lat="43.667205" lon="12.2218917"><ele>674.0</ele><time>2026-03-22T08:50:26.653Z</time></trkpt><trkpt lat="43.667325" lon="12.2218633"><ele>677.5</ele><time>2026-03-22T08:50:27.654Z</time></trkpt><trkpt lat="43.667405" lon="12.2218383"><ele>681.0</ele><time>2026-03-22T08:50:28.654Z</time></trkpt><trkpt lat="43.66753" lon="12.22186"><ele>681.0</ele><time>2026-03-22T08:50:30.653Z</time></trkpt><trkpt lat="43.667585" lon="12.2219133"><ele>681.0</ele><time>2026-03-22T08:50:31.655Z</time></trkpt><trkpt lat="43.6676117" lon="12.2219933"><ele>681.0</ele><time>2026-03-22T08:50:32.65Z</time></trkpt><trkpt lat="43.6675883" lon="12.22211"><ele>681.0</ele><time>2026-03-22T08:50:33.652Z</time></trkpt><trkpt lat="43.66755" lon="12.2222617"><ele>681.0</ele><time>2026-03-22T08:50:34.651Z</time></trkpt><trkpt lat="43.66747" lon="12.22236"><ele>681.0</ele><time>2026-03-22T08:50:35.652Z</time></trkpt><trkpt lat="43.6673933" lon="12.2224267"><ele>682.75</ele><time>2026-03-22T08:50:36.654Z</time></trkpt><trkpt lat="43.66728" lon="12.2224733"><ele>684.5</ele><time>2026-03-22T08:50:37.654Z</time></trkpt><trkpt lat="43.6671133" lon="12.2224883"><ele>686.25</ele><time>2026-03-22T08:50:38.65Z</time></trkpt><trkpt lat="43.6669517" lon="12.2225017"><ele>688.0</ele><time>2026-03-22T08:50:39.653Z</time></trkpt><trkpt lat="43.666805" lon="12.2225233"><ele>688.0</ele><time>2026-03-22T08:50:40.655Z</time></trkpt><trkpt lat="43.6666733" lon="12.2225617"><ele>688.0</ele><time>2026-03-22T08:50:41.653Z</time></trkpt><trkpt lat="43.6665783" lon="12.2226133"><ele>688.0</ele><time>2026-03-22T08:50:42.654Z</time></trkpt><trkpt lat="43.666505" lon="12.2226683"><ele>688.0</ele><time>2026-03-22T08:50:43.652Z</time></trkpt><trkpt lat="43.6664867" lon="12.222825"><ele>688.0</ele><time>2026-03-22T08:50:45.653Z</time></trkpt><trkpt lat="43.6665467" lon="12.2228817"><ele>688.0</ele><time>2026-03-22T08:50:46.655Z</time></trkpt><trkpt lat="43.6666117" lon="12.2229167"><ele>688.0</ele><time>2026-03-22T08:50:47.654Z</time></trkpt><trkpt lat="43.666685" lon="12.2229217"><ele>688.0</ele><time>2026-03-22T08:50:48.653Z</time></trkpt><trkpt lat="43.6667767" lon="12.2228817"><ele>688.0</ele><time>2026-03-22T08:50:49.654Z</time></trkpt><trkpt lat="43.666875" lon="12.22284"><ele>688.0</ele><time>2026-03-22T08:50:50.654Z</time></trkpt><trkpt lat="43.6669883" lon="12.2227933"><ele>691.0</ele><time>2026-03-22T08:50:51.655Z</time></trkpt><trkpt lat="43.6671117" lon="12.2227783"><ele>694.0</ele><time>2026-03-22T08:50:52.654Z</time></trkpt><trkpt lat="43.6672467" lon="12.2227967"><ele>697.0</ele><time>2026-03-22T08:50:53.651Z</time></trkpt><trkpt lat="43.6673783" lon="12.22282"><ele>700.0</ele><time>2026-03-22T08:50:54.654Z</time></trkpt><trkpt lat="43.6675017" lon="12.22283"><ele>700.0</ele><time>2026-03-22T08:50:55.654Z</time></trkpt><trkpt lat="43.6676083" lon="12.2228167"><ele>700.0</ele><time>2026-03-22T08:50:56.654Z</time></trkpt><trkpt lat="43.6676983" lon="12.2227633"><ele>700.0</ele><time>2026-03-22T08:50:57.654Z</time></trkpt><trkpt lat="43.667775" lon="12.2226717"><ele>700.0</ele><time>2026-03-22T08:50:58.655Z</time></trkpt><trkpt lat="43.6678467" lon="12.22257"><ele>700.0</ele><time>2026-03-22T08:50:59.654Z</time></trkpt><trkpt lat="43.66794" lon="12.222495"><ele>703.0</ele><time>2026-03-22T08:51:00.653Z</time></trkpt><trkpt lat="43.6680483" lon="12.2224433"><ele>706.0</ele><time>2026-03-22T08:51:01.655Z</time></trkpt><trkpt lat="43.66816" lon="12.2224233"><ele>709.0</ele><time>2026-03-22T08:51:02.654Z</time></trkpt><trkpt lat="43.6682617" lon="12.222425"><ele>712.0</ele><time>2026-03-22T08:51:03.657Z</time></trkpt><trkpt lat="43.6683517" lon="12.2224517"><ele>715.0</ele><time>2026-03-22T08:51:04.653Z</time></trkpt><trkpt lat="43.6684317" lon="12.2225083"><ele>715.0</ele><time>2026-03-22T08:51:05.653Z</time></trkpt><trkpt lat="43.668515" lon="12.2225867"><ele>715.0</ele><time>2026-03-22T08:51:06.654Z</time></trkpt><trkpt lat="43.6686083" lon="12.222675"><ele>715.0</ele><time>2026-03-22T08:51:07.654Z</time></trkpt><trkpt lat="43.6687083" lon="12.22277"><ele>715.0</ele><time>2026-03-22T08:51:08.655Z</time></trkpt><trkpt lat="43.6688083" lon="12.2228483"><ele>717.1666666666667</ele><time>2026-03-22T08:51:09.653Z</time></trkpt><trkpt lat="43.6688983" lon="12.22289"><ele>719.3333333333334</ele><time>2026-03-22T08:51:10.653Z</time></trkpt><trkpt lat="43.6689833" lon="12.222905"><ele>721.5</ele><time>2026-03-22T08:51:11.654Z</time></trkpt><trkpt lat="43.6690617" lon="12.2228733"><ele>723.6666666666666</ele><time>2026-03-22T08:51:12.654Z</time></trkpt><trkpt lat="43.6691267" lon="12.222805"><ele>725.8333333333333</ele><time>2026-03-22T08:51:13.653Z</time></trkpt><trkpt lat="43.6691817" lon="12.222695"><ele>728.0</ele><time>2026-03-22T08:51:14.654Z</time></trkpt><trkpt lat="43.669225" lon="12.2225583"><ele>728.0</ele><time>2026-03-22T08:51:15.653Z</time></trkpt><trkpt lat="43.6692283" lon="12.2223967"><ele>728.0</ele><time>2026-03-22T08:51:16.654Z</time></trkpt><trkpt lat="43.6692017" lon="12.222195"><ele>728.0</ele><time>2026-03-22T08:51:17.651Z</time></trkpt><trkpt lat="43.6691917" lon="12.2219833"><ele>728.0</ele><time>2026-03-22T08:51:18.652Z</time></trkpt><trkpt lat="43.6691783" lon="12.22177"><ele>728.0</ele><time>2026-03-22T08:51:19.653Z</time></trkpt><trkpt lat="43.6691567" lon="12.2215433"><ele>728.0</ele><time>2026-03-22T08:51:20.653Z</time></trkpt><trkpt lat="43.6691283" lon="12.2213233"><ele>728.0</ele><time>2026-03-22T08:51:21.652Z</time></trkpt><trkpt lat="43.6691017" lon="12.2211033"><ele>730.0</ele><time>2026-03-22T08:51:22.654Z</time></trkpt><trkpt lat="43.6690817" lon="12.2208817"><ele>732.0</ele><time>2026-03-22T08:51:23.652Z</time></trkpt><trkpt lat="43.66906" lon="12.220655"><ele>734.0</ele><time>2026-03-22T08:51:24.654Z</time></trkpt><trkpt lat="43.6690367" lon="12.2204333"><ele>734.0</ele><time>2026-03-22T08:51:25.654Z</time></trkpt><trkpt lat="43.6690133" lon="12.2202283"><ele>734.0</ele><time>2026-03-22T08:51:26.653Z</time></trkpt><trkpt lat="43.6689967" lon="12.22004"><ele>734.0</ele><time>2026-03-22T08:51:27.653Z</time></trkpt><trkpt lat="43.668995" lon="12.2198717"><ele>734.0</ele><time>2026-03-22T08:51:28.653Z</time></trkpt><trkpt lat="43.669025" lon="12.21972"><ele>731.4000000000001</ele><time>2026-03-22T08:51:29.654Z</time></trkpt><trkpt lat="43.6690733" lon="12.2195933"><ele>728.8</ele><time>2026-03-22T08:51:30.653Z</time></trkpt><trkpt lat="43.6691433" lon="12.2195117"><ele>726.2</ele><time>2026-03-22T08:51:31.654Z</time></trkpt><trkpt lat="43.6692217" lon="12.2194617"><ele>723.5999999999999</ele><time>2026-03-22T08:51:32.651Z</time></trkpt><trkpt lat="43.66931" lon="12.2194383"><ele>721.0</ele><time>2026-03-22T08:51:33.653Z</time></trkpt><trkpt lat="43.6694083" lon="12.21944"><ele>723.5</ele><time>2026-03-22T08:51:34.655Z</time></trkpt><trkpt lat="43.6695133" lon="12.2194833"><ele>726.0</ele><time>2026-03-22T08:51:35.654Z</time></trkpt><trkpt lat="43.6696133" lon="12.2195583"><ele>728.5</ele><time>2026-03-22T08:51:36.653Z</time></trkpt><trkpt lat="43.6697167" lon="12.219655"><ele>731.0</ele><time>2026-03-22T08:51:37.653Z</time></trkpt><trkpt lat="43.66982" lon="12.21976"><ele>734.4</ele><time>2026-03-22T08:51:38.653Z</time></trkpt><trkpt lat="43.6699283" lon="12.2198617"><ele>737.8</ele><time>2026-03-22T08:51:39.653Z</time></trkpt><trkpt lat="43.6700283" lon="12.2199433"><ele>741.1999999999999</ele><time>2026-03-22T08:51:40.654Z</time></trkpt><trkpt lat="43.67012" lon="12.2200017"><ele>744.5999999999999</ele><time>2026-03-22T08:51:41.654Z</time></trkpt><trkpt lat="43.6702033" lon="12.2200333"><ele>748.0</ele><time>2026-03-22T08:51:42.654Z</time></trkpt><trkpt lat="43.6702833" lon="12.2200433"><ele>748.4</ele><time>2026-03-22T08:51:43.653Z</time></trkpt><trkpt lat="43.6703583" lon="12.2199983"><ele>748.8</ele><time>2026-03-22T08:51:44.655Z</time></trkpt><trkpt lat="43.6704283" lon="12.219945"><ele>749.2</ele><time>2026-03-22T08:51:45.653Z</time></trkpt><trkpt lat="43.6704983" lon="12.2198533"><ele>749.6</ele><time>2026-03-22T08:51:46.654Z</time></trkpt><trkpt lat="43.6705733" lon="12.2197067"><ele>750.0</ele><time>2026-03-22T08:51:47.65Z</time></trkpt><trkpt lat="43.6706567" lon="12.2195817"><ele>750.0</ele><time>2026-03-22T08:51:48.651Z</time></trkpt><trkpt lat="43.6707467" lon="12.2194617"><ele>750.0</ele><time>2026-03-22T08:51:49.652Z</time></trkpt><trkpt lat="43.670845" lon="12.21938"><ele>750.0</ele><time>2026-03-22T08:51:50.653Z</time></trkpt><trkpt lat="43.6709483" lon="12.2193217"><ele>750.0</ele><time>2026-03-22T08:51:51.651Z</time></trkpt><trkpt lat="43.6710517" lon="12.21926"><ele>752.0</ele><time>2026-03-22T08:51:52.653Z</time></trkpt><trkpt lat="43.6711417" lon="12.21918"><ele>754.0</ele><time>2026-03-22T08:51:53.651Z</time></trkpt><trkpt lat="43.6712183" lon="12.2191"><ele>756.0</ele><time>2026-03-22T08:51:54.654Z</time></trkpt><trkpt lat="43.6713033" lon="12.21904"><ele>758.0</ele><time>2026-03-22T08:51:55.652Z</time></trkpt><trkpt lat="43.67139" lon="12.2190167"><ele>760.0</ele><time>2026-03-22T08:51:56.651Z</time></trkpt><trkpt lat="43.6714783" lon="12.2190117"><ele>760.0</ele><time>2026-03-22T08:51:57.655Z</time></trkpt><trkpt lat="43.6715583" lon="12.2190267"><ele>760.0</ele><time>2026-03-22T08:51:58.654Z</time></trkpt><trkpt lat="43.67162" lon="12.2190783"><ele>760.0</ele><time>2026-03-22T08:51:59.653Z</time></trkpt><trkpt lat="43.67168" lon="12.2191267"><ele>760.0</ele><time>2026-03-22T08:52:00.654Z</time></trkpt><trkpt lat="43.671695" lon="12.2192217"><ele>760.0</ele><time>2026-03-22T08:52:01.653Z</time></trkpt><trkpt lat="43.671655" lon="12.2193383"><ele>760.0</ele><time>2026-03-22T08:52:02.65Z</time></trkpt><trkpt lat="43.6715483" lon="12.219435"><ele>760.0</ele><time>2026-03-22T08:52:03.652Z</time></trkpt><trkpt lat="43.671475" lon="12.2195367"><ele>760.0</ele><time>2026-03-22T08:52:04.651Z</time></trkpt><trkpt lat="43.6713333" lon="12.21962"><ele>760.0</ele><time>2026-03-22T08:52:05.651Z</time></trkpt><trkpt lat="43.6711933" lon="12.219725"><ele>760.0</ele><time>2026-03-22T08:52:06.652Z</time></trkpt><trkpt lat="43.6710883" lon="12.2198167"><ele>760.2</ele><time>2026-03-22T08:52:07.654Z</time></trkpt><trkpt lat="43.67101" lon="12.2199133"><ele>760.4</ele><time>2026-03-22T08:52:08.653Z</time></trkpt><trkpt lat="43.670955" lon="12.2200067"><ele>760.5999999999999</ele><time>2026-03-22T08:52:09.654Z</time></trkpt><trkpt lat="43.670915" lon="12.2201017"><ele>760.8</ele><time>2026-03-22T08:52:10.651Z</time></trkpt><trkpt lat="43.6709017" lon="12.2202"><ele>761.0</ele><time>2026-03-22T08:52:11.65Z</time></trkpt><trkpt lat="43.670955" lon="12.22034"><ele>761.0</ele><time>2026-03-22T08:52:13.654Z</time></trkpt><trkpt lat="43.67108" lon="12.22038"><ele>761.0</ele><time>2026-03-22T08:52:15.654Z</time></trkpt><trkpt lat="43.671145" lon="12.2203667"><ele>761.0</ele><time>2026-03-22T08:52:16.654Z</time></trkpt><trkpt lat="43.6712567" lon="12.2203067"><ele>761.0</ele><time>2026-03-22T08:52:18.651Z</time></trkpt><trkpt lat="43.6713183" lon="12.2202567"><ele>761.0</ele><time>2026-03-22T08:52:19.653Z</time></trkpt><trkpt lat="43.6713767" lon="12.2202017"><ele>763.5</ele><time>2026-03-22T08:52:20.652Z</time></trkpt><trkpt lat="43.6714383" lon="12.2201467"><ele>766.0</ele><time>2026-03-22T08:52:21.652Z</time></trkpt><trkpt lat="43.6715083" lon="12.2200933"><ele>768.5</ele><time>2026-03-22T08:52:22.652Z</time></trkpt><trkpt lat="43.6715833" lon="12.2200433"><ele>771.0</ele><time>2026-03-22T08:52:23.653Z</time></trkpt><trkpt lat="43.6716667" lon="12.219995"><ele>773.5000000000001</ele><time>2026-03-22T08:52:24.654Z</time></trkpt><trkpt lat="43.6717583" lon="12.219945"><ele>776.0</ele><time>2026-03-22T08:52:25.651Z</time></trkpt><trkpt lat="43.6718583" lon="12.2198983"><ele>779.0</ele><time>2026-03-22T08:52:26.651Z</time></trkpt><trkpt lat="43.67196" lon="12.2198467"><ele>782.0</ele><time>2026-03-22T08:52:27.652Z</time></trkpt><trkpt lat="43.6720667" lon="12.2197967"><ele>785.0</ele><time>2026-03-22T08:52:28.654Z</time></trkpt><trkpt lat="43.6721717" lon="12.2197317"><ele>788.0</ele><time>2026-03-22T08:52:29.655Z</time></trkpt><trkpt lat="43.6722767" lon="12.21966"><ele>784.0</ele><time>2026-03-22T08:52:30.654Z</time></trkpt><trkpt lat="43.6723933" lon="12.2196017"><ele>780.0</ele><time>2026-03-22T08:52:31.652Z</time></trkpt><trkpt lat="43.6725233" lon="12.2195583"><ele>776.0</ele><time>2026-03-22T08:52:32.651Z</time></trkpt><trkpt lat="43.67266" lon="12.219525"><ele>772.0</ele><time>2026-03-22T08:52:33.651Z</time></trkpt><trkpt lat="43.6727983" lon="12.219505"><ele>772.0</ele><time>2026-03-22T08:52:34.652Z</time></trkpt><trkpt lat="43.672945" lon="12.2194883"><ele>772.0</ele><time>2026-03-22T08:52:35.652Z</time></trkpt><trkpt lat="43.6730967" lon="12.2194717"><ele>772.0</ele><time>2026-03-22T08:52:36.652Z</time></trkpt><trkpt lat="43.67325" lon="12.2194483"><ele>772.0</ele><time>2026-03-22T08:52:37.653Z</time></trkpt><trkpt lat="43.6734017" lon="12.219415"><ele>772.0</ele><time>2026-03-22T08:52:38.652Z</time></trkpt><trkpt lat="43.6735533" lon="12.219375"><ele>772.0</ele><time>2026-03-22T08:52:39.651Z</time></trkpt><trkpt lat="43.6737083" lon="12.2193383"><ele>774.75</ele><time>2026-03-22T08:52:40.654Z</time></trkpt><trkpt lat="43.6738583" lon="12.219305"><ele>777.5</ele><time>2026-03-22T08:52:41.653Z</time></trkpt><trkpt lat="43.6740067" lon="12.21928"><ele>780.25</ele><time>2026-03-22T08:52:42.653Z</time></trkpt><trkpt lat="43.6741517" lon="12.2192533"><ele>783.0</ele><time>2026-03-22T08:52:43.653Z</time></trkpt><trkpt lat="43.6742883" lon="12.219225"><ele>783.0</ele><time>2026-03-22T08:52:44.653Z</time></trkpt><trkpt lat="43.6744067" lon="12.219205"><ele>783.0</ele><time>2026-03-22T08:52:45.655Z</time></trkpt><trkpt lat="43.67451" lon="12.2191983"><ele>783.0</ele><time>2026-03-22T08:52:46.65Z</time></trkpt><trkpt lat="43.6746083" lon="12.219225"><ele>783.0</ele><time>2026-03-22T08:52:47.65Z</time></trkpt><trkpt lat="43.6747017" lon="12.2192817"><ele>783.0</ele><time>2026-03-22T08:52:48.652Z</time></trkpt><trkpt lat="43.6747917" lon="12.219375"><ele>783.25</ele><time>2026-03-22T08:52:49.653Z</time></trkpt><trkpt lat="43.6748833" lon="12.21949"><ele>783.5</ele><time>2026-03-22T08:52:50.653Z</time></trkpt><trkpt lat="43.6749783" lon="12.2196233"><ele>783.75</ele><time>2026-03-22T08:52:51.652Z</time></trkpt><trkpt lat="43.6750833" lon="12.2197517"><ele>784.0</ele><time>2026-03-22T08:52:52.651Z</time></trkpt><trkpt lat="43.675205" lon="12.2198683"><ele>788.3333333333333</ele><time>2026-03-22T08:52:53.652Z</time></trkpt><trkpt lat="43.6753383" lon="12.21999"><ele>792.6666666666667</ele><time>2026-03-22T08:52:54.653Z</time></trkpt><trkpt lat="43.675465" lon="12.2201183"><ele>797.0</ele><time>2026-03-22T08:52:55.652Z</time></trkpt><trkpt lat="43.675575" lon="12.2202483"><ele>797.0</ele><time>2026-03-22T08:52:56.651Z</time></trkpt><trkpt lat="43.6756667" lon="12.2203517"><ele>797.0</ele><time>2026-03-22T08:52:57.653Z</time></trkpt><trkpt lat="43.675755" lon="12.2204283"><ele>797.0</ele><time>2026-03-22T08:52:58.654Z</time></trkpt><trkpt lat="43.6758583" lon="12.2204533"><ele>797.0</ele><time>2026-03-22T08:52:59.654Z</time></trkpt><trkpt lat="43.6759717" lon="12.22045"><ele>797.0</ele><time>2026-03-22T08:53:00.654Z</time></trkpt><trkpt lat="43.6761" lon="12.2204233"><ele>797.2</ele><time>2026-03-22T08:53:01.653Z</time></trkpt><trkpt lat="43.676225" lon="12.2204"><ele>797.4000000000001</ele><time>2026-03-22T08:53:02.653Z</time></trkpt><trkpt lat="43.6763317" lon="12.22039"><ele>797.5999999999999</ele><time>2026-03-22T08:53:03.654Z</time></trkpt><trkpt lat="43.676425" lon="12.2204033"><ele>797.8</ele><time>2026-03-22T08:53:04.654Z</time></trkpt><trkpt lat="43.6765167" lon="12.2204483"><ele>798.0</ele><time>2026-03-22T08:53:05.655Z</time></trkpt><trkpt lat="43.6766017" lon="12.2205283"><ele>798.0</ele><time>2026-03-22T08:53:06.655Z</time></trkpt><trkpt lat="43.67668" lon="12.2206333"><ele>798.0</ele><time>2026-03-22T08:53:07.654Z</time></trkpt><trkpt lat="43.676745" lon="12.220745"><ele>798.0</ele><time>2026-03-22T08:53:08.654Z</time></trkpt><trkpt lat="43.676815" lon="12.220845"><ele>798.0</ele><time>2026-03-22T08:53:09.654Z</time></trkpt><trkpt lat="43.6768917" lon="12.22094"><ele>798.0</ele><time>2026-03-22T08:53:10.653Z</time></trkpt><trkpt lat="43.6769583" lon="12.2210433"><ele>798.2</ele><time>2026-03-22T08:53:11.654Z</time></trkpt><trkpt lat="43.6770117" lon="12.22117"><ele>798.4</ele><time>2026-03-22T08:53:12.654Z</time></trkpt><trkpt lat="43.6770433" lon="12.2213167"><ele>798.6</ele><time>2026-03-22T08:53:13.654Z</time></trkpt><trkpt lat="43.6770517" lon="12.2214767"><ele>798.8000000000001</ele><time>2026-03-22T08:53:14.653Z</time></trkpt><trkpt lat="43.67704" lon="12.2216333"><ele>799.0</ele><time>2026-03-22T08:53:15.654Z</time></trkpt><trkpt lat="43.6770167" lon="12.22179"><ele>802.0</ele><time>2026-03-22T08:53:16.651Z</time></trkpt><trkpt lat="43.67699" lon="12.221945"><ele>805.0</ele><time>2026-03-22T08:53:17.651Z</time></trkpt><trkpt lat="43.6769683" lon="12.222095"><ele>808.0</ele><time>2026-03-22T08:53:18.651Z</time></trkpt><trkpt lat="43.6769567" lon="12.22224"><ele>811.0</ele><time>2026-03-22T08:53:19.652Z</time></trkpt><trkpt lat="43.6769583" lon="12.2223683"><ele>814.0</ele><time>2026-03-22T08:53:20.653Z</time></trkpt><trkpt lat="43.6769733" lon="12.2224867"><ele>814.4999999999999</ele><time>2026-03-22T08:53:21.651Z</time></trkpt><trkpt lat="43.676995" lon="12.2225983"><ele>815.0</ele><time>2026-03-22T08:53:22.652Z</time></trkpt><trkpt lat="43.6770233" lon="12.2227067"><ele>815.5</ele><time>2026-03-22T08:53:23.655Z</time></trkpt><trkpt lat="43.6770617" lon="12.22282"><ele>816.0</ele><time>2026-03-22T08:53:24.654Z</time></trkpt><trkpt lat="43.6771083" lon="12.2229217"><ele>816.4999999999999</ele><time>2026-03-22T08:53:25.653Z</time></trkpt><trkpt lat="43.67717" lon="12.2230183"><ele>817.0</ele><time>2026-03-22T08:53:26.653Z</time></trkpt><trkpt lat="43.6772333" lon="12.2231133"><ele>817.4999999999999</ele><time>2026-03-22T08:53:27.651Z</time></trkpt><trkpt lat="43.677295" lon="12.2232233"><ele>818.0</ele><time>2026-03-22T08:53:28.652Z</time></trkpt><trkpt lat="43.67735" lon="12.2233283"><ele>818.5</ele><time>2026-03-22T08:53:29.654Z</time></trkpt><trkpt lat="43.677405" lon="12.223425"><ele>819.0</ele><time>2026-03-22T08:53:30.651Z</time></trkpt><trkpt lat="43.677465" lon="12.2235033"><ele>819.4999999999999</ele><time>2026-03-22T08:53:31.653Z</time></trkpt><trkpt lat="43.6775367" lon="12.2235617"><ele>820.0</ele><time>2026-03-22T08:53:32.653Z</time></trkpt><trkpt lat="43.6776167" lon="12.22359"><ele>819.9999999999999</ele><time>2026-03-22T08:53:33.654Z</time></trkpt><trkpt lat="43.6776983" lon="12.2235983"><ele>820.0</ele><time>2026-03-22T08:53:34.653Z</time></trkpt><trkpt lat="43.6777783" lon="12.223605"><ele>820.0</ele><time>2026-03-22T08:53:35.653Z</time></trkpt><trkpt lat="43.6778533" lon="12.2236217"><ele>820.0</ele><time>2026-03-22T08:53:36.654Z</time></trkpt><trkpt lat="43.677915" lon="12.2236583"><ele>819.9999999999999</ele><time>2026-03-22T08:53:37.654Z</time></trkpt><trkpt lat="43.6780083" lon="12.2237667"><ele>820.0</ele><time>2026-03-22T08:53:39.654Z</time></trkpt><trkpt lat="43.67805" lon="12.22384"><ele>817.8333333333333</ele><time>2026-03-22T08:53:40.654Z</time></trkpt><trkpt lat="43.67809" lon="12.223925"><ele>815.6666666666666</ele><time>2026-03-22T08:53:41.653Z</time></trkpt><trkpt lat="43.6781333" lon="12.2240133"><ele>813.5</ele><time>2026-03-22T08:53:42.653Z</time></trkpt><trkpt lat="43.6781767" lon="12.2241"><ele>811.3333333333333</ele><time>2026-03-22T08:53:43.654Z</time></trkpt><trkpt lat="43.6782183" lon="12.2241867"><ele>809.1666666666666</ele><time>2026-03-22T08:53:44.654Z</time></trkpt><trkpt lat="43.67827" lon="12.2242817"><ele>807.0</ele><time>2026-03-22T08:53:45.651Z</time></trkpt><trkpt lat="43.6783233" lon="12.2243767"><ele>807.0</ele><time>2026-03-22T08:53:46.651Z</time></trkpt><trkpt lat="43.678375" lon="12.2244783"><ele>807.0</ele><time>2026-03-22T08:53:47.651Z</time></trkpt><trkpt lat="43.6784217" lon="12.22459"><ele>807.0</ele><time>2026-03-22T08:53:48.652Z</time></trkpt><trkpt lat="43.678475" lon="12.2246967"><ele>807.0</ele><time>2026-03-22T08:53:49.65Z</time></trkpt><trkpt lat="43.678525" lon="12.2248"><ele>807.0</ele><time>2026-03-22T08:53:50.65Z</time></trkpt><trkpt lat="43.6785733" lon="12.224895"><ele>806.5</ele><time>2026-03-22T08:53:51.652Z</time></trkpt><trkpt lat="43.67862" lon="12.2249833"><ele>806.0</ele><time>2026-03-22T08:53:52.65Z</time></trkpt><trkpt lat="43.67867" lon="12.2250633"><ele>805.5</ele><time>2026-03-22T08:53:53.651Z</time></trkpt><trkpt lat="43.6787183" lon="12.22515"><ele>805.0</ele><time>2026-03-22T08:53:54.652Z</time></trkpt><trkpt lat="43.6787683" lon="12.2252417"><ele>804.5</ele><time>2026-03-22T08:53:55.651Z</time></trkpt><trkpt lat="43.678825" lon="12.22533"><ele>804.0</ele><time>2026-03-22T08:53:56.651Z</time></trkpt><trkpt lat="43.6788867" lon="12.22542"><ele>804.0</ele><time>2026-03-22T08:53:57.652Z</time></trkpt><trkpt lat="43.678945" lon="12.2255083"><ele>804.0</ele><time>2026-03-22T08:53:58.651Z</time></trkpt><trkpt lat="43.679" lon="12.2255983"><ele>804.0</ele><time>2026-03-22T08:53:59.651Z</time></trkpt><trkpt lat="43.6790567" lon="12.2256933"><ele>804.0</ele><time>2026-03-22T08:54:00.653Z</time></trkpt><trkpt lat="43.67912" lon="12.2257817"><ele>804.0</ele><time>2026-03-22T08:54:01.653Z</time></trkpt><trkpt lat="43.6791867" lon="12.2258583"><ele>804.0</ele><time>2026-03-22T08:54:02.65Z</time></trkpt><trkpt lat="43.67925" lon="12.2259217"><ele>805.8333333333334</ele><time>2026-03-22T08:54:03.655Z</time></trkpt><trkpt lat="43.6793233" lon="12.22597"><ele>807.6666666666667</ele><time>2026-03-22T08:54:04.65Z</time></trkpt><trkpt lat="43.6794033" lon="12.226"><ele>809.5</ele><time>2026-03-22T08:54:05.654Z</time></trkpt><trkpt lat="43.67949" lon="12.22603"><ele>811.3333333333334</ele><time>2026-03-22T08:54:06.653Z</time></trkpt><trkpt lat="43.6795783" lon="12.2260633"><ele>813.1666666666667</ele><time>2026-03-22T08:54:07.651Z</time></trkpt><trkpt lat="43.6796667" lon="12.2261"><ele>815.0</ele><time>2026-03-22T08:54:08.654Z</time></trkpt><trkpt lat="43.67975" lon="12.22615"><ele>815.1428571428571</ele><time>2026-03-22T08:54:09.654Z</time></trkpt><trkpt lat="43.6798167" lon="12.2262283"><ele>815.2857142857142</ele><time>2026-03-22T08:54:10.653Z</time></trkpt><trkpt lat="43.679875" lon="12.2263083"><ele>815.4285714285714</ele><time>2026-03-22T08:54:11.65Z</time></trkpt><trkpt lat="43.6799283" lon="12.2263883"><ele>815.5714285714286</ele><time>2026-03-22T08:54:12.654Z</time></trkpt><trkpt lat="43.6799767" lon="12.2264533"><ele>815.7142857142858</ele><time>2026-03-22T08:54:13.654Z</time></trkpt><trkpt lat="43.6800317" lon="12.2264983"><ele>815.8571428571429</ele><time>2026-03-22T08:54:14.654Z</time></trkpt><trkpt lat="43.6800933" lon="12.226525"><ele>816.0</ele><time>2026-03-22T08:54:15.654Z</time></trkpt><trkpt lat="43.6801633" lon="12.2265167"><ele>816.0</ele><time>2026-03-22T08:54:16.653Z</time></trkpt><trkpt lat="43.6802267" lon="12.2264783"><ele>816.0</ele><time>2026-03-22T08:54:17.653Z</time></trkpt><trkpt lat="43.68028" lon="12.226395"><ele>816.0</ele><time>2026-03-22T08:54:18.653Z</time></trkpt><trkpt lat="43.6803133" lon="12.22629"><ele>816.0</ele><time>2026-03-22T08:54:19.654Z</time></trkpt><trkpt lat="43.6803033" lon="12.226175"><ele>816.0</ele><time>2026-03-22T08:54:20.654Z</time></trkpt><trkpt lat="43.6802717" lon="12.226075"><ele>816.0</ele><time>2026-03-22T08:54:21.653Z</time></trkpt><trkpt lat="43.6802317" lon="12.2259683"><ele>816.0</ele><time>2026-03-22T08:54:22.654Z</time></trkpt><trkpt lat="43.6801917" lon="12.2258683"><ele>816.0</ele><time>2026-03-22T08:54:23.652Z</time></trkpt><trkpt lat="43.6801467" lon="12.2257667"><ele>816.0</ele><time>2026-03-22T08:54:24.652Z</time></trkpt><trkpt lat="43.6801067" lon="12.22566"><ele>816.0</ele><time>2026-03-22T08:54:25.654Z</time></trkpt><trkpt lat="43.6800717" lon="12.22555"><ele>816.0</ele><time>2026-03-22T08:54:26.651Z</time></trkpt><trkpt lat="43.680045" lon="12.2254383"><ele>816.0</ele><time>2026-03-22T08:54:27.651Z</time></trkpt><trkpt lat="43.6800283" lon="12.2253283"><ele>816.5999999999999</ele><time>2026-03-22T08:54:28.654Z</time></trkpt><trkpt lat="43.6800283" lon="12.2252117"><ele>817.2</ele><time>2026-03-22T08:54:29.655Z</time></trkpt><trkpt lat="43.680045" lon="12.2250883"><ele>817.8</ele><time>2026-03-22T08:54:30.654Z</time></trkpt><trkpt lat="43.68007" lon="12.2249533"><ele>818.4000000000001</ele><time>2026-03-22T08:54:31.655Z</time></trkpt><trkpt lat="43.6800933" lon="12.22481"><ele>819.0</ele><time>2026-03-22T08:54:32.653Z</time></trkpt><trkpt lat="43.6801183" lon="12.224665"><ele>819.0</ele><time>2026-03-22T08:54:33.653Z</time></trkpt><trkpt lat="43.68014" lon="12.2245267"><ele>819.0</ele><time>2026-03-22T08:54:34.65Z</time></trkpt><trkpt lat="43.6801683" lon="12.224395"><ele>819.0</ele><time>2026-03-22T08:54:35.65Z</time></trkpt><trkpt lat="43.6801983" lon="12.22427"><ele>819.0</ele><time>2026-03-22T08:54:36.651Z</time></trkpt><trkpt lat="43.6802317" lon="12.2241517"><ele>819.0</ele><time>2026-03-22T08:54:37.653Z</time></trkpt><trkpt lat="43.6802717" lon="12.22404"><ele>823.2</ele><time>2026-03-22T08:54:38.654Z</time></trkpt><trkpt lat="43.6803067" lon="12.2239233"><ele>827.4000000000001</ele><time>2026-03-22T08:54:39.654Z</time></trkpt><trkpt lat="43.6803267" lon="12.223795"><ele>831.6</ele><time>2026-03-22T08:54:40.651Z</time></trkpt><trkpt lat="43.680335" lon="12.2236667"><ele>835.8</ele><time>2026-03-22T08:54:41.654Z</time></trkpt><trkpt lat="43.680335" lon="12.2235433"><ele>840.0</ele><time>2026-03-22T08:54:42.653Z</time></trkpt><trkpt lat="43.6803417" lon="12.2234217"><ele>840.0</ele><time>2026-03-22T08:54:43.653Z</time></trkpt><trkpt lat="43.6803567" lon="12.2233083"><ele>840.0</ele><time>2026-03-22T08:54:44.654Z</time></trkpt><trkpt lat="43.68039" lon="12.2232133"><ele>840.0</ele><time>2026-03-22T08:54:45.654Z</time></trkpt><trkpt lat="43.6804467" lon="12.2231367"><ele>840.0</ele><time>2026-03-22T08:54:46.657Z</time></trkpt><trkpt lat="43.68052" lon="12.2230783"><ele>840.0</ele><time>2026-03-22T08:54:47.655Z</time></trkpt><trkpt lat="43.680595" lon="12.2230283"><ele>840.0</ele><time>2026-03-22T08:54:48.653Z</time></trkpt><trkpt lat="43.6806633" lon="12.222985"><ele>839.3333333333334</ele><time>2026-03-22T08:54:49.654Z</time></trkpt><trkpt lat="43.6807283" lon="12.2229217"><ele>838.6666666666667</ele><time>2026-03-22T08:54:50.654Z</time></trkpt><trkpt lat="43.6807833" lon="12.22284"><ele>838.0</ele><time>2026-03-22T08:54:51.653Z</time></trkpt><trkpt lat="43.6808133" lon="12.222735"><ele>837.3333333333334</ele><time>2026-03-22T08:54:52.653Z</time></trkpt><trkpt lat="43.6808217" lon="12.222615"><ele>836.6666666666667</ele><time>2026-03-22T08:54:53.653Z</time></trkpt><trkpt lat="43.6808067" lon="12.2224817"><ele>836.0</ele><time>2026-03-22T08:54:54.653Z</time></trkpt><trkpt lat="43.680785" lon="12.2223383"><ele>835.8</ele><time>2026-03-22T08:54:55.653Z</time></trkpt><trkpt lat="43.6807667" lon="12.2222"><ele>835.5999999999999</ele><time>2026-03-22T08:54:56.654Z</time></trkpt><trkpt lat="43.68076" lon="12.2220733"><ele>835.4</ele><time>2026-03-22T08:54:57.651Z</time></trkpt><trkpt lat="43.6807683" lon="12.22195"><ele>835.2</ele><time>2026-03-22T08:54:58.651Z</time></trkpt><trkpt lat="43.6807883" lon="12.2218317"><ele>835.0</ele><time>2026-03-22T08:54:59.651Z</time></trkpt><trkpt lat="43.6808217" lon="12.22172"><ele>835.0</ele><time>2026-03-22T08:55:00.651Z</time></trkpt><trkpt lat="43.6808783" lon="12.2216217"><ele>835.0</ele><time>2026-03-22T08:55:01.654Z</time></trkpt><trkpt lat="43.6809417" lon="12.221535"><ele>835.0</ele><time>2026-03-22T08:55:02.654Z</time></trkpt><trkpt lat="43.6810183" lon="12.2214517"><ele>835.0</ele><time>2026-03-22T08:55:03.651Z</time></trkpt><trkpt lat="43.6811" lon="12.22135"><ele>835.0</ele><time>2026-03-22T08:55:04.65Z</time></trkpt><trkpt lat="43.6811833" lon="12.2212417"><ele>838.6</ele><time>2026-03-22T08:55:05.65Z</time></trkpt><trkpt lat="43.6812583" lon="12.2211367"><ele>842.2</ele><time>2026-03-22T08:55:06.65Z</time></trkpt><trkpt lat="43.681335" lon="12.2210433"><ele>845.8</ele><time>2026-03-22T08:55:07.651Z</time></trkpt><trkpt lat="43.681415" lon="12.2209867"><ele>849.4</ele><time>2026-03-22T08:55:08.65Z</time></trkpt><trkpt lat="43.681495" lon="12.220965"><ele>853.0</ele><time>2026-03-22T08:55:09.651Z</time></trkpt><trkpt lat="43.6815983" lon="12.2210433"><ele>853.0</ele><time>2026-03-22T08:55:11.654Z</time></trkpt><trkpt lat="43.6816333" lon="12.2212183"><ele>853.0</ele><time>2026-03-22T08:55:13.654Z</time></trkpt><trkpt lat="43.6816067" lon="12.2213433"><ele>853.0</ele><time>2026-03-22T08:55:14.654Z</time></trkpt><trkpt lat="43.68155" lon="12.2214767"><ele>853.0</ele><time>2026-03-22T08:55:15.65Z</time></trkpt><trkpt lat="43.6815" lon="12.221625"><ele>854.0</ele><time>2026-03-22T08:55:16.651Z</time></trkpt><trkpt lat="43.6814617" lon="12.2217733"><ele>855.0</ele><time>2026-03-22T08:55:17.651Z</time></trkpt><trkpt lat="43.68143" lon="12.221925"><ele>856.0</ele><time>2026-03-22T08:55:18.651Z</time></trkpt><trkpt lat="43.68141" lon="12.2220733"><ele>857.0</ele><time>2026-03-22T08:55:19.652Z</time></trkpt><trkpt lat="43.6814033" lon="12.2222167"><ele>858.0</ele><time>2026-03-22T08:55:20.651Z</time></trkpt><trkpt lat="43.6814167" lon="12.2223533"><ele>858.0</ele><time>2026-03-22T08:55:21.651Z</time></trkpt><trkpt lat="43.681445" lon="12.2224867"><ele>858.0</ele><time>2026-03-22T08:55:22.654Z</time></trkpt><trkpt lat="43.6814883" lon="12.2226133"><ele>858.0</ele><time>2026-03-22T08:55:23.653Z</time></trkpt><trkpt lat="43.6815383" lon="12.22273"><ele>858.0</ele><time>2026-03-22T08:55:24.654Z</time></trkpt><trkpt lat="43.681595" lon="12.2228283"><ele>858.0</ele><time>2026-03-22T08:55:25.653Z</time></trkpt><trkpt lat="43.6816617" lon="12.2229033"><ele>858.0</ele><time>2026-03-22T08:55:26.654Z</time></trkpt><trkpt lat="43.6817367" lon="12.2229667"><ele>858.0</ele><time>2026-03-22T08:55:27.655Z</time></trkpt><trkpt lat="43.6818267" lon="12.223005"><ele>858.0</ele><time>2026-03-22T08:55:28.655Z</time></trkpt><trkpt lat="43.6819117" lon="12.223045"><ele>858.0</ele><time>2026-03-22T08:55:29.653Z</time></trkpt><trkpt lat="43.6819833" lon="12.2231083"><ele>858.0</ele><time>2026-03-22T08:55:30.654Z</time></trkpt><trkpt lat="43.6820283" lon="12.2232"><ele>858.0</ele><time>2026-03-22T08:55:31.653Z</time></trkpt><trkpt lat="43.68205" lon="12.22332"><ele>858.5</ele><time>2026-03-22T08:55:32.654Z</time></trkpt><trkpt lat="43.6820367" lon="12.2234567"><ele>859.0</ele><time>2026-03-22T08:55:33.654Z</time></trkpt><trkpt lat="43.68199" lon="12.2236"><ele>859.5</ele><time>2026-03-22T08:55:34.653Z</time></trkpt><trkpt lat="43.681915" lon="12.2237283"><ele>860.0</ele><time>2026-03-22T08:55:35.653Z</time></trkpt><trkpt lat="43.6818067" lon="12.223835"><ele>860.0</ele><time>2026-03-22T08:55:36.654Z</time></trkpt><trkpt lat="43.6816933" lon="12.2239333"><ele>860.0</ele><time>2026-03-22T08:55:37.653Z</time></trkpt><trkpt lat="43.6815833" lon="12.2240283"><ele>860.0</ele><time>2026-03-22T08:55:38.654Z</time></trkpt><trkpt lat="43.681505" lon="12.2241283"><ele>860.0</ele><time>2026-03-22T08:55:39.654Z</time></trkpt><trkpt lat="43.6814417" lon="12.2242283"><ele>863.0</ele><time>2026-03-22T08:55:40.654Z</time></trkpt><trkpt lat="43.6814033" lon="12.2243483"><ele>866.0</ele><time>2026-03-22T08:55:41.651Z</time></trkpt><trkpt lat="43.6813833" lon="12.2244733"><ele>869.0</ele><time>2026-03-22T08:55:42.653Z</time></trkpt><trkpt lat="43.6813917" lon="12.224605"><ele>872.0</ele><time>2026-03-22T08:55:43.653Z</time></trkpt><trkpt lat="43.68142" lon="12.2247317"><ele>875.0</ele><time>2026-03-22T08:55:44.654Z</time></trkpt><trkpt lat="43.6814467" lon="12.224845"><ele>875.0000000000001</ele><time>2026-03-22T08:55:45.654Z</time></trkpt><trkpt lat="43.68148" lon="12.2249483"><ele>875.0</ele><time>2026-03-22T08:55:46.654Z</time></trkpt><trkpt lat="43.68153" lon="12.2250267"><ele>875.0</ele><time>2026-03-22T08:55:47.654Z</time></trkpt><trkpt lat="43.681595" lon="12.2250533"><ele>875.0</ele><time>2026-03-22T08:55:48.654Z</time></trkpt><trkpt lat="43.6816667" lon="12.2250383"><ele>875.0000000000001</ele><time>2026-03-22T08:55:49.653Z</time></trkpt><trkpt lat="43.6817033" lon="12.2249"><ele>875.0</ele><time>2026-03-22T08:55:50.654Z</time></trkpt><trkpt lat="43.6817317" lon="12.2247867"><ele>875.0</ele><time>2026-03-22T08:55:51.653Z</time></trkpt><trkpt lat="43.6817533" lon="12.224655"><ele>875.0</ele><time>2026-03-22T08:55:52.653Z</time></trkpt><trkpt lat="43.6817917" lon="12.2245317"><ele>875.0</ele><time>2026-03-22T08:55:53.653Z</time></trkpt><trkpt lat="43.68186" lon="12.224415"><ele>875.0</ele><time>2026-03-22T08:55:54.653Z</time></trkpt><trkpt lat="43.6819417" lon="12.2243183"><ele>875.0</ele><time>2026-03-22T08:55:55.653Z</time></trkpt><trkpt lat="43.6820333" lon="12.2242333"><ele>877.25</ele><time>2026-03-22T08:55:56.653Z</time></trkpt><trkpt lat="43.68214" lon="12.2241667"><ele>879.5</ele><time>2026-03-22T08:55:57.654Z</time></trkpt><trkpt lat="43.6822467" lon="12.2241017"><ele>881.75</ele><time>2026-03-22T08:55:58.653Z</time></trkpt><trkpt lat="43.68235" lon="12.2240283"><ele>884.0</ele><time>2026-03-22T08:55:59.654Z</time></trkpt><trkpt lat="43.6824617" lon="12.2239467"><ele>884.0</ele><time>2026-03-22T08:56:00.653Z</time></trkpt><trkpt lat="43.68259" lon="12.22386"><ele>884.0</ele><time>2026-03-22T08:56:01.65Z</time></trkpt><trkpt lat="43.68273" lon="12.223775"><ele>884.0</ele><time>2026-03-22T08:56:02.653Z</time></trkpt><trkpt lat="43.68286" lon="12.2237017"><ele>884.0</ele><time>2026-03-22T08:56:03.653Z</time></trkpt><trkpt lat="43.6829717" lon="12.2236217"><ele>890.0</ele><time>2026-03-22T08:56:04.654Z</time></trkpt><trkpt lat="43.683065" lon="12.2235183"><ele>896.0</ele><time>2026-03-22T08:56:05.654Z</time></trkpt><trkpt lat="43.6831333" lon="12.2233867"><ele>902.0</ele><time>2026-03-22T08:56:06.653Z</time></trkpt><trkpt lat="43.6831833" lon="12.2232317"><ele>908.0</ele><time>2026-03-22T08:56:07.651Z</time></trkpt><trkpt lat="43.6832167" lon="12.2230617"><ele>908.0</ele><time>2026-03-22T08:56:08.653Z</time></trkpt><trkpt lat="43.6832433" lon="12.22289"><ele>908.0</ele><time>2026-03-22T08:56:09.653Z</time></trkpt><trkpt lat="43.68327" lon="12.2227217"><ele>908.0</ele><time>2026-03-22T08:56:10.653Z</time></trkpt><trkpt lat="43.6833" lon="12.22255"><ele>908.0</ele><time>2026-03-22T08:56:11.653Z</time></trkpt><trkpt lat="43.6833333" lon="12.2223783"><ele>906.5</ele><time>2026-03-22T08:56:12.654Z</time></trkpt><trkpt lat="43.683375" lon="12.2222283"><ele>905.0</ele><time>2026-03-22T08:56:13.653Z</time></trkpt><trkpt lat="43.6834383" lon="12.2220883"><ele>903.5</ele><time>2026-03-22T08:56:14.654Z</time></trkpt><trkpt lat="43.6835217" lon="12.221955"><ele>902.0</ele><time>2026-03-22T08:56:15.653Z</time></trkpt><trkpt lat="43.68362" lon="12.2218383"><ele>909.0</ele><time>2026-03-22T08:56:16.653Z</time></trkpt><trkpt lat="43.68374" lon="12.2217267"><ele>916.0</ele><time>2026-03-22T08:56:17.653Z</time></trkpt><trkpt lat="43.68387" lon="12.2216133"><ele>923.0</ele><time>2026-03-22T08:56:18.654Z</time></trkpt><trkpt lat="43.6839967" lon="12.2214983"><ele>922.5</ele><time>2026-03-22T08:56:19.654Z</time></trkpt><trkpt lat="43.68411" lon="12.22138"><ele>922.0</ele><time>2026-03-22T08:56:20.651Z</time></trkpt><trkpt lat="43.684205" lon="12.2212717"><ele>921.5</ele><time>2026-03-22T08:56:21.65Z</time></trkpt><trkpt lat="43.6842933" lon="12.2211633"><ele>921.0</ele><time>2026-03-22T08:56:22.654Z</time></trkpt><trkpt lat="43.6843783" lon="12.22107"><ele>921.0</ele><time>2026-03-22T08:56:23.651Z</time></trkpt><trkpt lat="43.68447" lon="12.2209867"><ele>921.0</ele><time>2026-03-22T08:56:24.65Z</time></trkpt><trkpt lat="43.684575" lon="12.2209117"><ele>921.0</ele><time>2026-03-22T08:56:25.65Z</time></trkpt><trkpt lat="43.6846917" lon="12.22084"><ele>921.0</ele><time>2026-03-22T08:56:26.654Z</time></trkpt><trkpt lat="43.6848117" lon="12.2207717"><ele>921.0</ele><time>2026-03-22T08:56:27.654Z</time></trkpt><trkpt lat="43.6849283" lon="12.220715"><ele>921.0</ele><time>2026-03-22T08:56:28.653Z</time></trkpt><trkpt lat="43.6850417" lon="12.22067"><ele>921.0</ele><time>2026-03-22T08:56:29.655Z</time></trkpt><trkpt lat="43.6851533" lon="12.2206433"><ele>921.0</ele><time>2026-03-22T08:56:30.655Z</time></trkpt><trkpt lat="43.6852617" lon="12.2206383"><ele>917.0</ele><time>2026-03-22T08:56:31.654Z</time></trkpt><trkpt lat="43.6853667" lon="12.2206667"><ele>913.0</ele><time>2026-03-22T08:56:32.654Z</time></trkpt><trkpt lat="43.6854667" lon="12.2207267"><ele>909.0</ele><time>2026-03-22T08:56:33.654Z</time></trkpt><trkpt lat="43.6855583" lon="12.2208233"><ele>905.0</ele><time>2026-03-22T08:56:34.654Z</time></trkpt><trkpt lat="43.6856483" lon="12.22096"><ele>905.0</ele><time>2026-03-22T08:56:35.653Z</time></trkpt><trkpt lat="43.685735" lon="12.221115"><ele>905.0</ele><time>2026-03-22T08:56:36.654Z</time></trkpt><trkpt lat="43.685815" lon="12.2212533"><ele>905.0</ele><time>2026-03-22T08:56:37.654Z</time></trkpt><trkpt lat="43.6859117" lon="12.2213783"><ele>905.0</ele><time>2026-03-22T08:56:38.653Z</time></trkpt><trkpt lat="43.6860217" lon="12.2214633"><ele>903.0</ele><time>2026-03-22T08:56:39.654Z</time></trkpt><trkpt lat="43.686155" lon="12.2215033"><ele>901.0</ele><time>2026-03-22T08:56:40.654Z</time></trkpt><trkpt lat="43.6863017" lon="12.2215067"><ele>899.0</ele><time>2026-03-22T08:56:41.654Z</time></trkpt><trkpt lat="43.6864667" lon="12.221475"><ele>899.0</ele><time>2026-03-22T08:56:42.653Z</time></trkpt><trkpt lat="43.68665" lon="12.221425"><ele>899.0</ele><time>2026-03-22T08:56:43.653Z</time></trkpt><trkpt lat="43.6868267" lon="12.2213767"><ele>899.0</ele><time>2026-03-22T08:56:44.654Z</time></trkpt><trkpt lat="43.6869817" lon="12.2213417"><ele>899.25</ele><time>2026-03-22T08:56:45.653Z</time></trkpt><trkpt lat="43.6871117" lon="12.2213217"><ele>899.5</ele><time>2026-03-22T08:56:46.654Z</time></trkpt><trkpt lat="43.6872283" lon="12.2213267"><ele>899.75</ele><time>2026-03-22T08:56:47.654Z</time></trkpt><trkpt lat="43.6873367" lon="12.221365"><ele>900.0</ele><time>2026-03-22T08:56:48.654Z</time></trkpt><trkpt lat="43.6874317" lon="12.2214333"><ele>901.4</ele><time>2026-03-22T08:56:49.653Z</time></trkpt><trkpt lat="43.6875067" lon="12.2215267"><ele>902.8</ele><time>2026-03-22T08:56:50.654Z</time></trkpt><trkpt lat="43.6875533" lon="12.2216383"><ele>904.2</ele><time>2026-03-22T08:56:51.654Z</time></trkpt><trkpt lat="43.687575" lon="12.2217683"><ele>905.6</ele><time>2026-03-22T08:56:52.654Z</time></trkpt><trkpt lat="43.6875633" lon="12.22191"><ele>907.0</ele><time>2026-03-22T08:56:53.653Z</time></trkpt><trkpt lat="43.6875283" lon="12.2220667"><ele>907.0</ele><time>2026-03-22T08:56:54.654Z</time></trkpt><trkpt lat="43.6874817" lon="12.2222067"><ele>907.0</ele><time>2026-03-22T08:56:55.654Z</time></trkpt><trkpt lat="43.6874267" lon="12.2223333"><ele>907.0</ele><time>2026-03-22T08:56:56.654Z</time></trkpt><trkpt lat="43.68736" lon="12.2224433"><ele>907.0</ele><time>2026-03-22T08:56:57.652Z</time></trkpt><trkpt lat="43.687275" lon="12.22255"><ele>907.0</ele><time>2026-03-22T08:56:58.652Z</time></trkpt><trkpt lat="43.687155" lon="12.2226583"><ele>909.5</ele><time>2026-03-22T08:56:59.65Z</time></trkpt><trkpt lat="43.687025" lon="12.2227667"><ele>912.0</ele><time>2026-03-22T08:57:00.651Z</time></trkpt><trkpt lat="43.6869017" lon="12.2228717"><ele>914.5</ele><time>2026-03-22T08:57:01.652Z</time></trkpt><trkpt lat="43.686785" lon="12.222945"><ele>917.0</ele><time>2026-03-22T08:57:02.651Z</time></trkpt><trkpt lat="43.6866717" lon="12.2229933"><ele>917.0</ele><time>2026-03-22T08:57:03.65Z</time></trkpt><trkpt lat="43.68656" lon="12.2230467"><ele>917.0</ele><time>2026-03-22T08:57:04.651Z</time></trkpt><trkpt lat="43.686445" lon="12.2231333"><ele>917.0</ele><time>2026-03-22T08:57:05.65Z</time></trkpt><trkpt lat="43.6863267" lon="12.22324"><ele>917.0</ele><time>2026-03-22T08:57:06.651Z</time></trkpt><trkpt lat="43.686205" lon="12.2233717"><ele>917.75</ele><time>2026-03-22T08:57:07.653Z</time></trkpt><trkpt lat="43.6860833" lon="12.2235"><ele>918.5</ele><time>2026-03-22T08:57:08.65Z</time></trkpt><trkpt lat="43.6859767" lon="12.2236183"><ele>919.25</ele><time>2026-03-22T08:57:09.651Z</time></trkpt><trkpt lat="43.68589" lon="12.22374"><ele>920.0</ele><time>2026-03-22T08:57:10.651Z</time></trkpt><trkpt lat="43.6858217" lon="12.2238667"><ele>910.0</ele><time>2026-03-22T08:57:11.65Z</time></trkpt><trkpt lat="43.6857633" lon="12.22401"><ele>900.0</ele><time>2026-03-22T08:57:12.65Z</time></trkpt><trkpt lat="43.6857233" lon="12.2241767"><ele>890.0</ele><time>2026-03-22T08:57:13.653Z</time></trkpt><trkpt lat="43.68569" lon="12.22434"><ele>880.0</ele><time>2026-03-22T08:57:14.654Z</time></trkpt><trkpt lat="43.68567" lon="12.2244933"><ele>880.0</ele><time>2026-03-22T08:57:15.653Z</time></trkpt><trkpt lat="43.6856533" lon="12.2246283"><ele>880.0</ele><time>2026-03-22T08:57:16.65Z</time></trkpt><trkpt lat="43.6856283" lon="12.22475"><ele>880.0</ele><time>2026-03-22T08:57:17.654Z</time></trkpt><trkpt lat="43.6855917" lon="12.2248567"><ele>880.0</ele><time>2026-03-22T08:57:18.653Z</time></trkpt><trkpt lat="43.685525" lon="12.22496"><ele>880.0</ele><time>2026-03-22T08:57:19.653Z</time></trkpt><trkpt lat="43.685445" lon="12.22506"><ele>875.8</ele><time>2026-03-22T08:57:20.654Z</time></trkpt><trkpt lat="43.685375" lon="12.2251633"><ele>871.6</ele><time>2026-03-22T08:57:21.654Z</time></trkpt><trkpt lat="43.6853217" lon="12.22529"><ele>867.4000000000001</ele><time>2026-03-22T08:57:22.653Z</time></trkpt><trkpt lat="43.6852817" lon="12.2254267"><ele>863.2</ele><time>2026-03-22T08:57:23.654Z</time></trkpt><trkpt lat="43.6852633" lon="12.2255617"><ele>859.0</ele><time>2026-03-22T08:57:24.653Z</time></trkpt><trkpt lat="43.68526" lon="12.2256783"><ele>859.0</ele><time>2026-03-22T08:57:25.653Z</time></trkpt><trkpt lat="43.6852817" lon="12.2257783"><ele>859.0000000000001</ele><time>2026-03-22T08:57:26.65Z</time></trkpt><trkpt lat="43.685325" lon="12.2258667"><ele>859.0000000000001</ele><time>2026-03-22T08:57:27.65Z</time></trkpt><trkpt lat="43.6853833" lon="12.2259467"><ele>859.0</ele><time>2026-03-22T08:57:28.654Z</time></trkpt><trkpt lat="43.68548" lon="12.2260083"><ele>859.0</ele><time>2026-03-22T08:57:29.654Z</time></trkpt><trkpt lat="43.6856117" lon="12.2260383"><ele>859.0</ele><time>2026-03-22T08:57:30.654Z</time></trkpt><trkpt lat="43.6857433" lon="12.2260667"><ele>859.0</ele><time>2026-03-22T08:57:31.651Z</time></trkpt><trkpt lat="43.6858617" lon="12.2261067"><ele>859.0</ele><time>2026-03-22T08:57:32.651Z</time></trkpt><trkpt lat="43.6859633" lon="12.226185"><ele>859.0</ele><time>2026-03-22T08:57:33.651Z</time></trkpt><trkpt lat="43.6860583" lon="12.226305"><ele>856.25</ele><time>2026-03-22T08:57:34.651Z</time></trkpt><trkpt lat="43.686155" lon="12.2264433"><ele>853.5</ele><time>2026-03-22T08:57:35.651Z</time></trkpt><trkpt lat="43.6862533" lon="12.2265717"><ele>850.75</ele><time>2026-03-22T08:57:36.652Z</time></trkpt><trkpt lat="43.6863417" lon="12.2266933"><ele>848.0</ele><time>2026-03-22T08:57:37.651Z</time></trkpt><trkpt lat="43.6864233" lon="12.2267967"><ele>848.0</ele><time>2026-03-22T08:57:38.651Z</time></trkpt><trkpt lat="43.6865117" lon="12.2268867"><ele>848.0</ele><time>2026-03-22T08:57:39.652Z</time></trkpt><trkpt lat="43.6866133" lon="12.2269317"><ele>848.0</ele><time>2026-03-22T08:57:40.653Z</time></trkpt><trkpt lat="43.6867267" lon="12.2269383"><ele>848.0</ele><time>2026-03-22T08:57:41.652Z</time></trkpt><trkpt lat="43.68685" lon="12.2269233"><ele>842.4</ele><time>2026-03-22T08:57:42.656Z</time></trkpt><trkpt lat="43.68696" lon="12.226925"><ele>836.8</ele><time>2026-03-22T08:57:43.653Z</time></trkpt><trkpt lat="43.687075" lon="12.2269517"><ele>831.2</ele><time>2026-03-22T08:57:44.654Z</time></trkpt><trkpt lat="43.6871833" lon="12.2270033"><ele>825.6</ele><time>2026-03-22T08:57:45.651Z</time></trkpt><trkpt lat="43.6872683" lon="12.22707"><ele>820.0</ele><time>2026-03-22T08:57:46.652Z</time></trkpt><trkpt lat="43.6873317" lon="12.2271517"><ele>820.0</ele><time>2026-03-22T08:57:47.651Z</time></trkpt><trkpt lat="43.6873683" lon="12.2272467"><ele>820.0</ele><time>2026-03-22T08:57:48.652Z</time></trkpt><trkpt lat="43.6873817" lon="12.2273583"><ele>820.0</ele><time>2026-03-22T08:57:49.654Z</time></trkpt><trkpt lat="43.687375" lon="12.2274817"><ele>820.0</ele><time>2026-03-22T08:57:50.651Z</time></trkpt><trkpt lat="43.6873467" lon="12.2276183"><ele>820.0</ele><time>2026-03-22T08:57:51.652Z</time></trkpt><trkpt lat="43.6873233" lon="12.2277583"><ele>823.5</ele><time>2026-03-22T08:57:52.652Z</time></trkpt><trkpt lat="43.6873267" lon="12.2278967"><ele>827.0</ele><time>2026-03-22T08:57:53.655Z</time></trkpt><trkpt lat="43.68736" lon="12.2280333"><ele>830.5</ele><time>2026-03-22T08:57:54.655Z</time></trkpt><trkpt lat="43.68742" lon="12.2281783"><ele>834.0</ele><time>2026-03-22T08:57:55.655Z</time></trkpt><trkpt lat="43.687505" lon="12.22834"><ele>836.0</ele><time>2026-03-22T08:57:56.654Z</time></trkpt><trkpt lat="43.6876183" lon="12.2285"><ele>838.0</ele><time>2026-03-22T08:57:57.654Z</time></trkpt><trkpt lat="43.6877433" lon="12.2286367"><ele>840.0</ele><time>2026-03-22T08:57:58.654Z</time></trkpt><trkpt lat="43.68787" lon="12.2287567"><ele>839.75</ele><time>2026-03-22T08:57:59.655Z</time></trkpt><trkpt lat="43.6879967" lon="12.2288467"><ele>839.5</ele><time>2026-03-22T08:58:00.655Z</time></trkpt><trkpt lat="43.6881317" lon="12.2289133"><ele>839.25</ele><time>2026-03-22T08:58:01.654Z</time></trkpt><trkpt lat="43.68827" lon="12.228965"><ele>839.0</ele><time>2026-03-22T08:58:02.654Z</time></trkpt><trkpt lat="43.688395" lon="12.2290017"><ele>839.0</ele><time>2026-03-22T08:58:03.654Z</time></trkpt><trkpt lat="43.6885083" lon="12.229015"><ele>839.0</ele><time>2026-03-22T08:58:04.655Z</time></trkpt><trkpt lat="43.6886167" lon="12.229"><ele>839.0</ele><time>2026-03-22T08:58:05.654Z</time></trkpt><trkpt lat="43.6887183" lon="12.22898"><ele>839.0</ele><time>2026-03-22T08:58:06.655Z</time></trkpt><trkpt lat="43.68881" lon="12.2289617"><ele>839.0</ele><time>2026-03-22T08:58:07.655Z</time></trkpt><trkpt lat="43.6888883" lon="12.2289667"><ele>833.6</ele><time>2026-03-22T08:58:08.654Z</time></trkpt><trkpt lat="43.688945" lon="12.229005"><ele>828.2</ele><time>2026-03-22T08:58:09.655Z</time></trkpt><trkpt lat="43.6889967" lon="12.229175"><ele>822.8000000000001</ele><time>2026-03-22T08:58:11.654Z</time></trkpt><trkpt lat="43.6889917" lon="12.2293067"><ele>817.4000000000001</ele><time>2026-03-22T08:58:12.654Z</time></trkpt><trkpt lat="43.68899" lon="12.2294417"><ele>812.0</ele><time>2026-03-22T08:58:13.654Z</time></trkpt><trkpt lat="43.689005" lon="12.2295583"><ele>812.0</ele><time>2026-03-22T08:58:14.654Z</time></trkpt><trkpt lat="43.6890417" lon="12.22967"><ele>812.0</ele><time>2026-03-22T08:58:15.656Z</time></trkpt><trkpt lat="43.6891233" lon="12.22977"><ele>812.0</ele><time>2026-03-22T08:58:16.653Z</time></trkpt><trkpt lat="43.6892" lon="12.229845"><ele>812.0</ele><time>2026-03-22T08:58:17.653Z</time></trkpt><trkpt lat="43.6892767" lon="12.22992"><ele>812.0</ele><time>2026-03-22T08:58:18.653Z</time></trkpt><trkpt lat="43.689345" lon="12.230045"><ele>814.0</ele><time>2026-03-22T08:58:19.652Z</time></trkpt><trkpt lat="43.689415" lon="12.2301983"><ele>816.0</ele><time>2026-03-22T08:58:20.652Z</time></trkpt><trkpt lat="43.6894783" lon="12.2303433"><ele>818.0</ele><time>2026-03-22T08:58:21.653Z</time></trkpt><trkpt lat="43.689525" lon="12.230475"><ele>820.0</ele><time>2026-03-22T08:58:22.654Z</time></trkpt><trkpt lat="43.6895533" lon="12.2306067"><ele>812.25</ele><time>2026-03-22T08:58:23.655Z</time></trkpt><trkpt lat="43.6895633" lon="12.230755"><ele>804.5</ele><time>2026-03-22T08:58:24.654Z</time></trkpt><trkpt lat="43.689555" lon="12.230915"><ele>796.75</ele><time>2026-03-22T08:58:25.652Z</time></trkpt><trkpt lat="43.68953" lon="12.23108"><ele>789.0</ele><time>2026-03-22T08:58:26.654Z</time></trkpt><trkpt lat="43.689495" lon="12.231235"><ele>789.0</ele><time>2026-03-22T08:58:27.656Z</time></trkpt><trkpt lat="43.6894467" lon="12.2313833"><ele>789.0</ele><time>2026-03-22T08:58:28.655Z</time></trkpt><trkpt lat="43.689395" lon="12.23153"><ele>789.0</ele><time>2026-03-22T08:58:29.654Z</time></trkpt><trkpt lat="43.6893467" lon="12.231685"><ele>789.0</ele><time>2026-03-22T08:58:30.654Z</time></trkpt><trkpt lat="43.6893017" lon="12.2318467"><ele>790.0</ele><time>2026-03-22T08:58:31.654Z</time></trkpt><trkpt lat="43.6892583" lon="12.2320117"><ele>791.0</ele><time>2026-03-22T08:58:32.654Z</time></trkpt><trkpt lat="43.6892183" lon="12.2321733"><ele>792.0</ele><time>2026-03-22T08:58:33.655Z</time></trkpt><trkpt lat="43.6891817" lon="12.2323383"><ele>793.0</ele><time>2026-03-22T08:58:34.654Z</time></trkpt><trkpt lat="43.6891567" lon="12.2325"><ele>793.0</ele><time>2026-03-22T08:58:35.656Z</time></trkpt><trkpt lat="43.689145" lon="12.232655"><ele>793.0</ele><time>2026-03-22T08:58:36.655Z</time></trkpt><trkpt lat="43.68915" lon="12.2328033"><ele>793.0</ele><time>2026-03-22T08:58:37.655Z</time></trkpt><trkpt lat="43.6891733" lon="12.2329383"><ele>793.0</ele><time>2026-03-22T08:58:38.655Z</time></trkpt><trkpt lat="43.6892217" lon="12.233055"><ele>793.0</ele><time>2026-03-22T08:58:39.654Z</time></trkpt><trkpt lat="43.6892917" lon="12.23315"><ele>792.75</ele><time>2026-03-22T08:58:40.654Z</time></trkpt><trkpt lat="43.6893917" lon="12.23322"><ele>792.5</ele><time>2026-03-22T08:58:41.655Z</time></trkpt><trkpt lat="43.6895233" lon="12.2332817"><ele>792.25</ele><time>2026-03-22T08:58:42.655Z</time></trkpt><trkpt lat="43.6896867" lon="12.2333267"><ele>792.0</ele><time>2026-03-22T08:58:43.655Z</time></trkpt><trkpt lat="43.6898717" lon="12.233355"><ele>786.6666666666667</ele><time>2026-03-22T08:58:44.654Z</time></trkpt><trkpt lat="43.6900517" lon="12.2333833"><ele>781.3333333333334</ele><time>2026-03-22T08:58:45.654Z</time></trkpt><trkpt lat="43.6902133" lon="12.2334183"><ele>776.0</ele><time>2026-03-22T08:58:46.652Z</time></trkpt><trkpt lat="43.6903617" lon="12.2334567"><ele>774.0</ele><time>2026-03-22T08:58:47.651Z</time></trkpt><trkpt lat="43.690495" lon="12.2334833"><ele>772.0</ele><time>2026-03-22T08:58:48.652Z</time></trkpt><trkpt lat="43.69062" lon="12.233485"><ele>770.0</ele><time>2026-03-22T08:58:49.652Z</time></trkpt><trkpt lat="43.690745" lon="12.2334667"><ele>768.0</ele><time>2026-03-22T08:58:50.652Z</time></trkpt><trkpt lat="43.69086" lon="12.23342"><ele>768.0</ele><time>2026-03-22T08:58:51.652Z</time></trkpt><trkpt lat="43.690975" lon="12.2333367"><ele>768.0</ele><time>2026-03-22T08:58:52.651Z</time></trkpt><trkpt lat="43.6910783" lon="12.2332233"><ele>768.0</ele><time>2026-03-22T08:58:53.654Z</time></trkpt><trkpt lat="43.6911783" lon="12.2330917"><ele>768.0</ele><time>2026-03-22T08:58:54.654Z</time></trkpt><trkpt lat="43.6912717" lon="12.23296"><ele>766.75</ele><time>2026-03-22T08:58:55.652Z</time></trkpt><trkpt lat="43.69134" lon="12.2328083"><ele>765.5</ele><time>2026-03-22T08:58:56.655Z</time></trkpt><trkpt lat="43.691395" lon="12.2326333"><ele>764.25</ele><time>2026-03-22T08:58:57.655Z</time></trkpt><trkpt lat="43.6914467" lon="12.232435"><ele>763.0</ele><time>2026-03-22T08:58:58.655Z</time></trkpt><trkpt lat="43.6914967" lon="12.232225"><ele>761.3333333333334</ele><time>2026-03-22T08:58:59.654Z</time></trkpt><trkpt lat="43.6915383" lon="12.2320133"><ele>759.6666666666666</ele><time>2026-03-22T08:59:00.652Z</time></trkpt><trkpt lat="43.69156" lon="12.231785"><ele>758.0</ele><time>2026-03-22T08:59:01.652Z</time></trkpt><trkpt lat="43.6915633" lon="12.2315433"><ele>757.6666666666666</ele><time>2026-03-22T08:59:02.651Z</time></trkpt><trkpt lat="43.6915583" lon="12.231295"><ele>757.3333333333334</ele><time>2026-03-22T08:59:03.653Z</time></trkpt><trkpt lat="43.6915517" lon="12.2310383"><ele>757.0</ele><time>2026-03-22T08:59:04.652Z</time></trkpt><trkpt lat="43.6915417" lon="12.2307933"><ele>755.3333333333334</ele><time>2026-03-22T08:59:05.654Z</time></trkpt><trkpt lat="43.69154" lon="12.230565"><ele>753.6666666666666</ele><time>2026-03-22T08:59:06.653Z</time></trkpt><trkpt lat="43.6915417" lon="12.2303583"><ele>752.0</ele><time>2026-03-22T08:59:07.652Z</time></trkpt><trkpt lat="43.69155" lon="12.2301617"><ele>752.0</ele><time>2026-03-22T08:59:08.652Z</time></trkpt><trkpt lat="43.6915733" lon="12.2299733"><ele>752.0</ele><time>2026-03-22T08:59:09.652Z</time></trkpt><trkpt lat="43.6916183" lon="12.2297833"><ele>752.0</ele><time>2026-03-22T08:59:10.654Z</time></trkpt><trkpt lat="43.6916833" lon="12.2295917"><ele>752.0</ele><time>2026-03-22T08:59:11.654Z</time></trkpt><trkpt lat="43.6917683" lon="12.2293917"><ele>750.6666666666666</ele><time>2026-03-22T08:59:12.654Z</time></trkpt><trkpt lat="43.6918583" lon="12.22918"><ele>749.3333333333334</ele><time>2026-03-22T08:59:13.655Z</time></trkpt><trkpt lat="43.6919483" lon="12.228975"><ele>748.0</ele><time>2026-03-22T08:59:14.655Z</time></trkpt><trkpt lat="43.6920267" lon="12.2287733"><ele>748.0</ele><time>2026-03-22T08:59:15.655Z</time></trkpt><trkpt lat="43.6921017" lon="12.2285783"><ele>748.0</ele><time>2026-03-22T08:59:16.651Z</time></trkpt><trkpt lat="43.6921733" lon="12.22839"><ele>748.0</ele><time>2026-03-22T08:59:17.651Z</time></trkpt><trkpt lat="43.6922467" lon="12.2282183"><ele>748.0</ele><time>2026-03-22T08:59:18.653Z</time></trkpt><trkpt lat="43.69232" lon="12.22807"><ele>748.0</ele><time>2026-03-22T08:59:19.653Z</time></trkpt><trkpt lat="43.6923783" lon="12.2279417"><ele>748.0</ele><time>2026-03-22T08:59:20.653Z</time></trkpt><trkpt lat="43.6924033" lon="12.2278067"><ele>748.0</ele><time>2026-03-22T08:59:21.653Z</time></trkpt><trkpt lat="43.6923933" lon="12.2276583"><ele>748.0</ele><time>2026-03-22T08:59:22.653Z</time></trkpt><trkpt lat="43.6923667" lon="12.22749"><ele>748.25</ele><time>2026-03-22T08:59:23.652Z</time></trkpt><trkpt lat="43.6923333" lon="12.2273017"><ele>748.5</ele><time>2026-03-22T08:59:24.652Z</time></trkpt><trkpt lat="43.6923017" lon="12.2271"><ele>748.75</ele><time>2026-03-22T08:59:25.655Z</time></trkpt><trkpt lat="43.6922633" lon="12.2269183"><ele>749.0</ele><time>2026-03-22T08:59:26.653Z</time></trkpt><trkpt lat="43.6922233" lon="12.2267783"><ele>749.0</ele><time>2026-03-22T08:59:27.653Z</time></trkpt><trkpt lat="43.6921867" lon="12.22668"><ele>749.0</ele><time>2026-03-22T08:59:28.653Z</time></trkpt><trkpt lat="43.69214" lon="12.2265433"><ele>749.0</ele><time>2026-03-22T08:59:30.655Z</time></trkpt><trkpt lat="43.6921283" lon="12.2264133"><ele>749.0</ele><time>2026-03-22T09:07:33.654Z</time></trkpt><trkpt lat="43.6921117" lon="12.22627"><ele>749.0</ele><time>2026-03-22T09:07:35.655Z</time></trkpt><trkpt lat="43.6920817" lon="12.2260867"><ele>749.0</ele><time>2026-03-22T09:07:37.654Z</time></trkpt><trkpt lat="43.6920667" lon="12.22598"><ele>749.0</ele><time>2026-03-22T09:07:38.654Z</time></trkpt><trkpt lat="43.6920567" lon="12.2258533"><ele>749.0</ele><time>2026-03-22T09:07:39.655Z</time></trkpt><trkpt lat="43.6920433" lon="12.2257083"><ele>749.0</ele><time>2026-03-22T09:07:40.654Z</time></trkpt><trkpt lat="43.6920283" lon="12.2255533"><ele>749.0</ele><time>2026-03-22T09:07:41.654Z</time></trkpt><trkpt lat="43.6920167" lon="12.225385"><ele>749.0</ele><time>2026-03-22T09:07:42.654Z</time></trkpt><trkpt lat="43.6920033" lon="12.2252017"><ele>749.0</ele><time>2026-03-22T09:07:43.651Z</time></trkpt><trkpt lat="43.6919883" lon="12.225015"><ele>749.0</ele><time>2026-03-22T09:07:44.655Z</time></trkpt><trkpt lat="43.6919817" lon="12.2248267"><ele>749.0</ele><time>2026-03-22T09:07:45.654Z</time></trkpt><trkpt lat="43.6919667" lon="12.2246333"><ele>749.5</ele><time>2026-03-22T09:07:46.651Z</time></trkpt><trkpt lat="43.6919517" lon="12.2244317"><ele>750.0</ele><time>2026-03-22T09:07:47.654Z</time></trkpt><trkpt lat="43.69194" lon="12.2242317"><ele>750.5</ele><time>2026-03-22T09:07:48.655Z</time></trkpt><trkpt lat="43.6919433" lon="12.2240417"><ele>751.0</ele><time>2026-03-22T09:07:49.651Z</time></trkpt><trkpt lat="43.69196" lon="12.22386"><ele>749.0</ele><time>2026-03-22T09:07:50.651Z</time></trkpt><trkpt lat="43.69199" lon="12.2236783"><ele>747.0</ele><time>2026-03-22T09:07:51.654Z</time></trkpt><trkpt lat="43.69204" lon="12.223495"><ele>745.0</ele><time>2026-03-22T09:07:52.655Z</time></trkpt><trkpt lat="43.6921117" lon="12.223305"><ele>743.0</ele><time>2026-03-22T09:07:53.651Z</time></trkpt><trkpt lat="43.6921883" lon="12.2231083"><ele>739.0</ele><time>2026-03-22T09:07:54.655Z</time></trkpt><trkpt lat="43.6922667" lon="12.2229"><ele>735.0</ele><time>2026-03-22T09:07:55.654Z</time></trkpt><trkpt lat="43.6923467" lon="12.222685"><ele>731.0</ele><time>2026-03-22T09:07:56.654Z</time></trkpt><trkpt lat="43.69243" lon="12.222465"><ele>726.0</ele><time>2026-03-22T09:07:57.654Z</time></trkpt><trkpt lat="43.6925167" lon="12.2222433"><ele>721.0</ele><time>2026-03-22T09:07:58.655Z</time></trkpt><trkpt lat="43.6926" lon="12.2220233"><ele>716.0</ele><time>2026-03-22T09:07:59.655Z</time></trkpt><trkpt lat="43.6926833" lon="12.22181"><ele>717.6666666666666</ele><time>2026-03-22T09:08:00.654Z</time></trkpt><trkpt lat="43.6927583" lon="12.2215983"><ele>719.3333333333334</ele><time>2026-03-22T09:08:01.653Z</time></trkpt><trkpt lat="43.6928267" lon="12.2213933"><ele>721.0</ele><time>2026-03-22T09:08:02.655Z</time></trkpt><trkpt lat="43.692895" lon="12.2212017"><ele>721.0</ele><time>2026-03-22T09:08:03.65Z</time></trkpt><trkpt lat="43.6929633" lon="12.221035"><ele>721.0</ele><time>2026-03-22T09:08:04.651Z</time></trkpt><trkpt lat="43.6930267" lon="12.2209083"><ele>721.0</ele><time>2026-03-22T09:08:05.652Z</time></trkpt><trkpt lat="43.6930967" lon="12.2208033"><ele>721.0</ele><time>2026-03-22T09:08:06.651Z</time></trkpt><trkpt lat="43.6931817" lon="12.2207083"><ele>718.25</ele><time>2026-03-22T09:08:07.654Z</time></trkpt><trkpt lat="43.6932667" lon="12.2206017"><ele>715.5</ele><time>2026-03-22T09:08:08.654Z</time></trkpt><trkpt lat="43.693345" lon="12.22047"><ele>712.75</ele><time>2026-03-22T09:08:09.654Z</time></trkpt><trkpt lat="43.6934067" lon="12.220305"><ele>710.0</ele><time>2026-03-22T09:08:10.654Z</time></trkpt><trkpt lat="43.6934517" lon="12.2201167"><ele>710.0</ele><time>2026-03-22T09:08:11.654Z</time></trkpt><trkpt lat="43.6934883" lon="12.2199133"><ele>710.0</ele><time>2026-03-22T09:08:12.654Z</time></trkpt><trkpt lat="43.6935233" lon="12.2196933"><ele>710.0</ele><time>2026-03-22T09:08:13.655Z</time></trkpt><trkpt lat="43.69356" lon="12.2194783"><ele>709.0</ele><time>2026-03-22T09:08:14.655Z</time></trkpt><trkpt lat="43.693605" lon="12.2192633"><ele>708.0</ele><time>2026-03-22T09:08:15.655Z</time></trkpt><trkpt lat="43.69366" lon="12.219045"><ele>707.0</ele><time>2026-03-22T09:08:16.654Z</time></trkpt><trkpt lat="43.69372" lon="12.21882"><ele>707.0</ele><time>2026-03-22T09:08:17.655Z</time></trkpt><trkpt lat="43.69378" lon="12.2185917"><ele>707.0</ele><time>2026-03-22T09:08:18.655Z</time></trkpt><trkpt lat="43.6938367" lon="12.21836"><ele>707.0</ele><time>2026-03-22T09:08:19.653Z</time></trkpt><trkpt lat="43.69389" lon="12.218125"><ele>706.6666666666666</ele><time>2026-03-22T09:08:20.655Z</time></trkpt><trkpt lat="43.6939417" lon="12.2178833"><ele>706.3333333333334</ele><time>2026-03-22T09:08:21.655Z</time></trkpt><trkpt lat="43.693995" lon="12.2176433"><ele>706.0</ele><time>2026-03-22T09:08:22.655Z</time></trkpt><trkpt lat="43.6940483" lon="12.2174067"><ele>705.3333333333334</ele><time>2026-03-22T09:08:23.655Z</time></trkpt><trkpt lat="43.6940967" lon="12.217185"><ele>704.6666666666666</ele><time>2026-03-22T09:08:24.654Z</time></trkpt><trkpt lat="43.6941383" lon="12.2169683"><ele>704.0</ele><time>2026-03-22T09:08:25.65Z</time></trkpt><trkpt lat="43.6941817" lon="12.2167667"><ele>704.0</ele><time>2026-03-22T09:08:26.655Z</time></trkpt><trkpt lat="43.6942267" lon="12.216585"><ele>704.0</ele><time>2026-03-22T09:08:27.653Z</time></trkpt><trkpt lat="43.6942733" lon="12.2164233"><ele>704.0</ele><time>2026-03-22T09:08:28.655Z</time></trkpt><trkpt lat="43.6943267" lon="12.2162817"><ele>704.0</ele><time>2026-03-22T09:08:29.654Z</time></trkpt><trkpt lat="43.6944" lon="12.21615"><ele>707.5</ele><time>2026-03-22T09:08:30.654Z</time></trkpt><trkpt lat="43.6944883" lon="12.2160317"><ele>711.0</ele><time>2026-03-22T09:08:31.654Z</time></trkpt><trkpt lat="43.6945917" lon="12.215925"><ele>714.5</ele><time>2026-03-22T09:08:32.655Z</time></trkpt><trkpt lat="43.694685" lon="12.2158083"><ele>718.0</ele><time>2026-03-22T09:08:33.654Z</time></trkpt><trkpt lat="43.6947467" lon="12.2156767"><ele>716.25</ele><time>2026-03-22T09:08:34.655Z</time></trkpt><trkpt lat="43.6947783" lon="12.215525"><ele>714.5</ele><time>2026-03-22T09:08:35.655Z</time></trkpt><trkpt lat="43.6947967" lon="12.2153417"><ele>712.75</ele><time>2026-03-22T09:08:36.654Z</time></trkpt><trkpt lat="43.6948033" lon="12.2151317"><ele>711.0</ele><time>2026-03-22T09:08:37.653Z</time></trkpt><trkpt lat="43.6948" lon="12.2149183"><ele>708.0</ele><time>2026-03-22T09:08:38.656Z</time></trkpt><trkpt lat="43.6948" lon="12.2147183"><ele>705.0</ele><time>2026-03-22T09:08:39.655Z</time></trkpt><trkpt lat="43.6948067" lon="12.2145333"><ele>702.0</ele><time>2026-03-22T09:08:40.655Z</time></trkpt><trkpt lat="43.694825" lon="12.214345"><ele>699.0</ele><time>2026-03-22T09:08:41.655Z</time></trkpt><trkpt lat="43.6948617" lon="12.2141483"><ele>696.75</ele><time>2026-03-22T09:08:42.655Z</time></trkpt><trkpt lat="43.69491" lon="12.2139433"><ele>694.5</ele><time>2026-03-22T09:08:43.653Z</time></trkpt><trkpt lat="43.6949617" lon="12.2137533"><ele>692.25</ele><time>2026-03-22T09:08:44.655Z</time></trkpt><trkpt lat="43.695005" lon="12.2135817"><ele>690.0</ele><time>2026-03-22T09:08:45.655Z</time></trkpt><trkpt lat="43.6950217" lon="12.2134083"><ele>690.0</ele><time>2026-03-22T09:08:46.654Z</time></trkpt><trkpt lat="43.6950117" lon="12.213225"><ele>690.0</ele><time>2026-03-22T09:08:47.655Z</time></trkpt><trkpt lat="43.695" lon="12.2130483"><ele>690.0</ele><time>2026-03-22T09:08:48.655Z</time></trkpt><trkpt lat="43.6950033" lon="12.2128783"><ele>690.0</ele><time>2026-03-22T09:08:49.654Z</time></trkpt><trkpt lat="43.695025" lon="12.2127"><ele>687.3333333333334</ele><time>2026-03-22T09:08:50.654Z</time></trkpt><trkpt lat="43.6950733" lon="12.2125217"><ele>684.6666666666667</ele><time>2026-03-22T09:08:51.65Z</time></trkpt><trkpt lat="43.69515" lon="12.2123383"><ele>682.0</ele><time>2026-03-22T09:08:52.655Z</time></trkpt><trkpt lat="43.6952433" lon="12.212155"><ele>686.0</ele><time>2026-03-22T09:08:53.654Z</time></trkpt><trkpt lat="43.69534" lon="12.2119867"><ele>690.0</ele><time>2026-03-22T09:08:54.655Z</time></trkpt><trkpt lat="43.695425" lon="12.2118317"><ele>694.0</ele><time>2026-03-22T09:08:55.653Z</time></trkpt><trkpt lat="43.695485" lon="12.2116833"><ele>698.0</ele><time>2026-03-22T09:08:56.655Z</time></trkpt><trkpt lat="43.6955233" lon="12.2115067"><ele>693.75</ele><time>2026-03-22T09:08:57.655Z</time></trkpt><trkpt lat="43.6955383" lon="12.211315"><ele>689.5</ele><time>2026-03-22T09:08:58.655Z</time></trkpt><trkpt lat="43.695555" lon="12.21113"><ele>685.25</ele><time>2026-03-22T09:08:59.655Z</time></trkpt><trkpt lat="43.6955867" lon="12.210975"><ele>681.0</ele><time>2026-03-22T09:09:00.651Z</time></trkpt><trkpt lat="43.6956467" lon="12.2108567"><ele>681.0</ele><time>2026-03-22T09:09:01.654Z</time></trkpt><trkpt lat="43.6957367" lon="12.21075"><ele>681.0</ele><time>2026-03-22T09:09:02.656Z</time></trkpt><trkpt lat="43.6958417" lon="12.210645"><ele>681.0</ele><time>2026-03-22T09:09:03.655Z</time></trkpt><trkpt lat="43.69594" lon="12.2105317"><ele>681.0</ele><time>2026-03-22T09:09:04.654Z</time></trkpt><trkpt lat="43.6960183" lon="12.210385"><ele>681.5</ele><time>2026-03-22T09:09:05.655Z</time></trkpt><trkpt lat="43.6960683" lon="12.2102067"><ele>682.0</ele><time>2026-03-22T09:09:06.654Z</time></trkpt><trkpt lat="43.696095" lon="12.2100017"><ele>682.5</ele><time>2026-03-22T09:09:07.654Z</time></trkpt><trkpt lat="43.696105" lon="12.20979"><ele>683.0</ele><time>2026-03-22T09:09:08.655Z</time></trkpt><trkpt lat="43.6961183" lon="12.2095867"><ele>683.0</ele><time>2026-03-22T09:09:09.655Z</time></trkpt><trkpt lat="43.6961383" lon="12.209385"><ele>683.0</ele><time>2026-03-22T09:09:10.655Z</time></trkpt><trkpt lat="43.6961767" lon="12.2091767"><ele>683.0</ele><time>2026-03-22T09:09:11.654Z</time></trkpt><trkpt lat="43.6962333" lon="12.2089633"><ele>678.0</ele><time>2026-03-22T09:09:12.655Z</time></trkpt><trkpt lat="43.6963117" lon="12.2087433"><ele>673.0</ele><time>2026-03-22T09:09:13.655Z</time></trkpt><trkpt lat="43.6964017" lon="12.2085233"><ele>668.0</ele><time>2026-03-22T09:09:14.655Z</time></trkpt><trkpt lat="43.69649" lon="12.2083067"><ele>663.6666666666666</ele><time>2026-03-22T09:09:15.654Z</time></trkpt><trkpt lat="43.6965667" lon="12.2080883"><ele>659.3333333333334</ele><time>2026-03-22T09:09:16.655Z</time></trkpt><trkpt lat="43.6966233" lon="12.2078617"><ele>655.0</ele><time>2026-03-22T09:09:17.655Z</time></trkpt><trkpt lat="43.6966533" lon="12.20762"><ele>655.0</ele><time>2026-03-22T09:09:18.654Z</time></trkpt><trkpt lat="43.6966783" lon="12.207365"><ele>655.0</ele><time>2026-03-22T09:09:19.654Z</time></trkpt><trkpt lat="43.6967133" lon="12.2071067"><ele>655.0</ele><time>2026-03-22T09:09:20.655Z</time></trkpt><trkpt lat="43.6967533" lon="12.2068467"><ele>652.0</ele><time>2026-03-22T09:09:21.654Z</time></trkpt><trkpt lat="43.6967967" lon="12.2065867"><ele>649.0</ele><time>2026-03-22T09:09:22.655Z</time></trkpt><trkpt lat="43.69684" lon="12.2063367"><ele>646.0</ele><time>2026-03-22T09:09:23.655Z</time></trkpt><trkpt lat="43.6968817" lon="12.2061033"><ele>645.0</ele><time>2026-03-22T09:09:24.654Z</time></trkpt><trkpt lat="43.6969217" lon="12.20588"><ele>644.0</ele><time>2026-03-22T09:09:25.653Z</time></trkpt><trkpt lat="43.6969717" lon="12.2056683"><ele>643.0</ele><time>2026-03-22T09:09:26.655Z</time></trkpt><trkpt lat="43.6970317" lon="12.2054667"><ele>643.0</ele><time>2026-03-22T09:09:27.65Z</time></trkpt><trkpt lat="43.6971083" lon="12.2052733"><ele>643.0</ele><time>2026-03-22T09:09:28.65Z</time></trkpt><trkpt lat="43.697195" lon="12.2050883"><ele>643.0</ele><time>2026-03-22T09:09:29.651Z</time></trkpt><trkpt lat="43.69729" lon="12.2048983"><ele>639.3333333333334</ele><time>2026-03-22T09:09:30.651Z</time></trkpt><trkpt lat="43.69739" lon="12.2046933"><ele>635.6666666666666</ele><time>2026-03-22T09:09:31.65Z</time></trkpt><trkpt lat="43.6974933" lon="12.2044867"><ele>632.0</ele><time>2026-03-22T09:09:32.651Z</time></trkpt><trkpt lat="43.6976017" lon="12.2042817"><ele>632.0</ele><time>2026-03-22T09:09:33.651Z</time></trkpt><trkpt lat="43.697715" lon="12.2040767"><ele>632.0</ele><time>2026-03-22T09:09:34.65Z</time></trkpt><trkpt lat="43.6978233" lon="12.2038733"><ele>632.0</ele><time>2026-03-22T09:09:35.65Z</time></trkpt><trkpt lat="43.6979267" lon="12.2036717"><ele>631.0</ele><time>2026-03-22T09:09:36.65Z</time></trkpt><trkpt lat="43.698025" lon="12.2034717"><ele>630.0</ele><time>2026-03-22T09:09:37.65Z</time></trkpt><trkpt lat="43.6981167" lon="12.2032717"><ele>629.0</ele><time>2026-03-22T09:09:38.651Z</time></trkpt><trkpt lat="43.698205" lon="12.2030683"><ele>626.0</ele><time>2026-03-22T09:09:39.65Z</time></trkpt><trkpt lat="43.698295" lon="12.2028533"><ele>623.0</ele><time>2026-03-22T09:09:40.652Z</time></trkpt><trkpt lat="43.6983817" lon="12.2026333"><ele>620.0</ele><time>2026-03-22T09:09:41.651Z</time></trkpt><trkpt lat="43.6984683" lon="12.20242"><ele>618.0</ele><time>2026-03-22T09:09:42.65Z</time></trkpt><trkpt lat="43.69855" lon="12.2022167"><ele>616.0</ele><time>2026-03-22T09:09:43.652Z</time></trkpt><trkpt lat="43.698625" lon="12.2020367"><ele>614.0</ele><time>2026-03-22T09:09:44.655Z</time></trkpt><trkpt lat="43.6986983" lon="12.201875"><ele>614.0</ele><time>2026-03-22T09:09:45.655Z</time></trkpt><trkpt lat="43.6987833" lon="12.2017567"><ele>614.0</ele><time>2026-03-22T09:09:46.651Z</time></trkpt><trkpt lat="43.6988817" lon="12.2016833"><ele>614.0</ele><time>2026-03-22T09:09:47.651Z</time></trkpt><trkpt lat="43.69899" lon="12.2016483"><ele>614.0</ele><time>2026-03-22T09:09:48.65Z</time></trkpt><trkpt lat="43.69912" lon="12.201645"><ele>614.0</ele><time>2026-03-22T09:09:49.651Z</time></trkpt><trkpt lat="43.69928" lon="12.2016633"><ele>614.0</ele><time>2026-03-22T09:09:50.652Z</time></trkpt><trkpt lat="43.699445" lon="12.20169"><ele>614.0</ele><time>2026-03-22T09:09:51.651Z</time></trkpt><trkpt lat="43.6996033" lon="12.20172"><ele>613.5</ele><time>2026-03-22T09:09:52.65Z</time></trkpt><trkpt lat="43.6997483" lon="12.2017467"><ele>613.0</ele><time>2026-03-22T09:09:53.651Z</time></trkpt><trkpt lat="43.6998783" lon="12.20174"><ele>612.5</ele><time>2026-03-22T09:09:54.65Z</time></trkpt><trkpt lat="43.6999983" lon="12.2017033"><ele>612.0</ele><time>2026-03-22T09:09:55.65Z</time></trkpt><trkpt lat="43.7001233" lon="12.20161"><ele>607.0</ele><time>2026-03-22T09:09:56.651Z</time></trkpt><trkpt lat="43.70026" lon="12.2014933"><ele>602.0</ele><time>2026-03-22T09:09:57.651Z</time></trkpt><trkpt lat="43.70041" lon="12.20135"><ele>597.0</ele><time>2026-03-22T09:09:58.65Z</time></trkpt><trkpt lat="43.700565" lon="12.2011983"><ele>597.0</ele><time>2026-03-22T09:09:59.652Z</time></trkpt><trkpt lat="43.7007133" lon="12.2010683"><ele>597.0</ele><time>2026-03-22T09:10:00.654Z</time></trkpt><trkpt lat="43.7008567" lon="12.2009783"><ele>597.0</ele><time>2026-03-22T09:10:01.655Z</time></trkpt><trkpt lat="43.700985" lon="12.2009033"><ele>598.25</ele><time>2026-03-22T09:10:02.655Z</time></trkpt><trkpt lat="43.70109" lon="12.2008067"><ele>599.5</ele><time>2026-03-22T09:10:03.654Z</time></trkpt><trkpt lat="43.70117" lon="12.20067"><ele>600.75</ele><time>2026-03-22T09:10:04.655Z</time></trkpt><trkpt lat="43.7012283" lon="12.2004883"><ele>602.0</ele><time>2026-03-22T09:10:05.655Z</time></trkpt><trkpt lat="43.7012733" lon="12.2002717"><ele>598.3333333333333</ele><time>2026-03-22T09:10:06.655Z</time></trkpt><trkpt lat="43.701315" lon="12.2000417"><ele>594.6666666666666</ele><time>2026-03-22T09:10:07.656Z</time></trkpt><trkpt lat="43.7013533" lon="12.1998217"><ele>591.0</ele><time>2026-03-22T09:10:08.655Z</time></trkpt><trkpt lat="43.701395" lon="12.199645"><ele>587.6</ele><time>2026-03-22T09:10:09.655Z</time></trkpt><trkpt lat="43.701445" lon="12.1995117"><ele>584.2</ele><time>2026-03-22T09:10:10.655Z</time></trkpt><trkpt lat="43.70151" lon="12.19942"><ele>580.8</ele><time>2026-03-22T09:10:11.655Z</time></trkpt><trkpt lat="43.7015933" lon="12.1993733"><ele>577.4</ele><time>2026-03-22T09:10:12.654Z</time></trkpt><trkpt lat="43.70169" lon="12.1993583"><ele>574.0</ele><time>2026-03-22T09:10:13.655Z</time></trkpt><trkpt lat="43.701795" lon="12.199375"><ele>571.5</ele><time>2026-03-22T09:10:14.655Z</time></trkpt><trkpt lat="43.70192" lon="12.1994267"><ele>569.0</ele><time>2026-03-22T09:10:15.654Z</time></trkpt><trkpt lat="43.7020333" lon="12.1994967"><ele>566.5</ele><time>2026-03-22T09:10:16.651Z</time></trkpt><trkpt lat="43.702125" lon="12.1995833"><ele>564.0</ele><time>2026-03-22T09:10:17.65Z</time></trkpt><trkpt lat="43.7022183" lon="12.1996983"><ele>568.25</ele><time>2026-03-22T09:10:18.651Z</time></trkpt><trkpt lat="43.702315" lon="12.199835"><ele>572.5</ele><time>2026-03-22T09:10:19.651Z</time></trkpt><trkpt lat="43.7024133" lon="12.1999817"><ele>576.75</ele><time>2026-03-22T09:10:20.65Z</time></trkpt><trkpt lat="43.7025217" lon="12.2001117"><ele>581.0</ele><time>2026-03-22T09:10:21.65Z</time></trkpt><trkpt lat="43.70265" lon="12.2002133"><ele>575.0</ele><time>2026-03-22T09:10:22.65Z</time></trkpt><trkpt lat="43.7028" lon="12.2002833"><ele>569.0</ele><time>2026-03-22T09:10:23.653Z</time></trkpt><trkpt lat="43.7029783" lon="12.2003383"><ele>563.0</ele><time>2026-03-22T09:10:24.654Z</time></trkpt><trkpt lat="43.7031583" lon="12.2003817"><ele>563.0</ele><time>2026-03-22T09:10:25.655Z</time></trkpt><trkpt lat="43.7033183" lon="12.2004233"><ele>563.0</ele><time>2026-03-22T09:10:26.655Z</time></trkpt><trkpt lat="43.7034867" lon="12.20047"><ele>563.0</ele><time>2026-03-22T09:10:27.654Z</time></trkpt><trkpt lat="43.7036567" lon="12.2005233"><ele>560.3333333333333</ele><time>2026-03-22T09:10:28.654Z</time></trkpt><trkpt lat="43.703825" lon="12.20056"><ele>557.6666666666666</ele><time>2026-03-22T09:10:29.654Z</time></trkpt><trkpt lat="43.704" lon="12.2005683"><ele>555.0</ele><time>2026-03-22T09:10:30.65Z</time></trkpt><trkpt lat="43.7041717" lon="12.2005333"><ele>555.0</ele><time>2026-03-22T09:10:31.654Z</time></trkpt><trkpt lat="43.70434" lon="12.2004817"><ele>555.0</ele><time>2026-03-22T09:10:32.654Z</time></trkpt><trkpt lat="43.7045" lon="12.20043"><ele>555.0</ele><time>2026-03-22T09:10:33.654Z</time></trkpt><trkpt lat="43.70465" lon="12.2003883"><ele>553.5</ele><time>2026-03-22T09:10:34.654Z</time></trkpt><trkpt lat="43.704785" lon="12.2003467"><ele>552.0</ele><time>2026-03-22T09:10:35.655Z</time></trkpt><trkpt lat="43.7049017" lon="12.20031"><ele>550.5</ele><time>2026-03-22T09:10:36.654Z</time></trkpt><trkpt lat="43.705005" lon="12.2002867"><ele>549.0</ele><time>2026-03-22T09:10:37.653Z</time></trkpt><trkpt lat="43.7051" lon="12.200275"><ele>549.0</ele><time>2026-03-22T09:10:38.653Z</time></trkpt><trkpt lat="43.7051983" lon="12.2002817"><ele>549.0</ele><time>2026-03-22T09:10:39.655Z</time></trkpt><trkpt lat="43.705305" lon="12.200315"><ele>549.0</ele><time>2026-03-22T09:10:40.654Z</time></trkpt><trkpt lat="43.7054317" lon="12.2003733"><ele>549.0</ele><time>2026-03-22T09:10:41.655Z</time></trkpt><trkpt lat="43.705565" lon="12.20046"><ele>548.3333333333334</ele><time>2026-03-22T09:10:42.653Z</time></trkpt><trkpt lat="43.7057033" lon="12.20056"><ele>547.6666666666667</ele><time>2026-03-22T09:10:43.654Z</time></trkpt><trkpt lat="43.7058533" lon="12.2006683"><ele>547.0</ele><time>2026-03-22T09:10:44.654Z</time></trkpt><trkpt lat="43.7060117" lon="12.2007617"><ele>545.25</ele><time>2026-03-22T09:10:45.655Z</time></trkpt><trkpt lat="43.70615" lon="12.20085"><ele>543.5</ele><time>2026-03-22T09:10:46.65Z</time></trkpt><trkpt lat="43.7062633" lon="12.2009633"><ele>541.75</ele><time>2026-03-22T09:10:47.651Z</time></trkpt><trkpt lat="43.70635" lon="12.20111"><ele>540.0</ele><time>2026-03-22T09:10:48.652Z</time></trkpt><trkpt lat="43.7064233" lon="12.2012983"><ele>541.6666666666666</ele><time>2026-03-22T09:10:49.652Z</time></trkpt><trkpt lat="43.7064933" lon="12.201515"><ele>543.3333333333333</ele><time>2026-03-22T09:10:50.652Z</time></trkpt><trkpt lat="43.7065733" lon="12.201745"><ele>545.0</ele><time>2026-03-22T09:10:51.651Z</time></trkpt><trkpt lat="43.7066567" lon="12.2019833"><ele>545.0</ele><time>2026-03-22T09:10:52.651Z</time></trkpt><trkpt lat="43.706745" lon="12.202225"><ele>545.0</ele><time>2026-03-22T09:10:53.654Z</time></trkpt><trkpt lat="43.7068367" lon="12.2024683"><ele>545.0</ele><time>2026-03-22T09:10:54.655Z</time></trkpt><trkpt lat="43.7069267" lon="12.2027067"><ele>543.3333333333333</ele><time>2026-03-22T09:10:55.653Z</time></trkpt><trkpt lat="43.7070183" lon="12.2029267"><ele>541.6666666666666</ele><time>2026-03-22T09:10:56.654Z</time></trkpt><trkpt lat="43.7071083" lon="12.203135"><ele>540.0</ele><time>2026-03-22T09:10:57.655Z</time></trkpt><trkpt lat="43.70718" lon="12.2033217"><ele>540.0</ele><time>2026-03-22T09:10:58.655Z</time></trkpt><trkpt lat="43.70722" lon="12.2034983"><ele>540.0</ele><time>2026-03-22T09:10:59.654Z</time></trkpt><trkpt lat="43.7072283" lon="12.203675"><ele>540.0</ele><time>2026-03-22T09:11:00.654Z</time></trkpt><trkpt lat="43.7072217" lon="12.2038417"><ele>540.0</ele><time>2026-03-22T09:11:01.654Z</time></trkpt><trkpt lat="43.7071967" lon="12.2039833"><ele>540.1666666666666</ele><time>2026-03-22T09:11:02.654Z</time></trkpt><trkpt lat="43.7071983" lon="12.204105"><ele>540.3333333333334</ele><time>2026-03-22T09:11:03.655Z</time></trkpt><trkpt lat="43.7072167" lon="12.2042033"><ele>540.5</ele><time>2026-03-22T09:11:04.654Z</time></trkpt><trkpt lat="43.7072583" lon="12.2042717"><ele>540.6666666666667</ele><time>2026-03-22T09:11:05.654Z</time></trkpt><trkpt lat="43.7073417" lon="12.2043033"><ele>540.8333333333334</ele><time>2026-03-22T09:11:06.654Z</time></trkpt><trkpt lat="43.7074717" lon="12.2042833"><ele>541.0</ele><time>2026-03-22T09:11:07.654Z</time></trkpt><trkpt lat="43.7076017" lon="12.204255"><ele>541.0</ele><time>2026-03-22T09:11:08.654Z</time></trkpt><trkpt lat="43.7077167" lon="12.2042117"><ele>541.0</ele><time>2026-03-22T09:11:09.655Z</time></trkpt><trkpt lat="43.70782" lon="12.204105"><ele>541.0</ele><time>2026-03-22T09:11:10.655Z</time></trkpt><trkpt lat="43.7079333" lon="12.2039533"><ele>541.0</ele><time>2026-03-22T09:11:11.654Z</time></trkpt><trkpt lat="43.70804" lon="12.2038483"><ele>541.5</ele><time>2026-03-22T09:11:12.654Z</time></trkpt><trkpt lat="43.7081483" lon="12.203815"><ele>542.0</ele><time>2026-03-22T09:11:13.654Z</time></trkpt><trkpt lat="43.70827" lon="12.2038283"><ele>542.5</ele><time>2026-03-22T09:11:14.655Z</time></trkpt><trkpt lat="43.7084017" lon="12.2038683"><ele>543.0</ele><time>2026-03-22T09:11:15.654Z</time></trkpt><trkpt lat="43.7085483" lon="12.2039283"><ele>544.3333333333334</ele><time>2026-03-22T09:11:16.65Z</time></trkpt><trkpt lat="43.70871" lon="12.2039867"><ele>545.6666666666667</ele><time>2026-03-22T09:11:17.651Z</time></trkpt><trkpt lat="43.70888" lon="12.2040467"><ele>547.0</ele><time>2026-03-22T09:11:18.651Z</time></trkpt><trkpt lat="43.7090533" lon="12.2041067"><ele>548.3333333333334</ele><time>2026-03-22T09:11:19.65Z</time></trkpt><trkpt lat="43.709225" lon="12.2041717"><ele>549.6666666666666</ele><time>2026-03-22T09:11:20.651Z</time></trkpt><trkpt lat="43.7093967" lon="12.2042367"><ele>551.0</ele><time>2026-03-22T09:11:21.65Z</time></trkpt><trkpt lat="43.709565" lon="12.2042983"><ele>551.25</ele><time>2026-03-22T09:11:22.65Z</time></trkpt><trkpt lat="43.7097233" lon="12.2043533"><ele>551.5</ele><time>2026-03-22T09:11:23.653Z</time></trkpt><trkpt lat="43.7098467" lon="12.20442"><ele>551.75</ele><time>2026-03-22T09:11:24.655Z</time></trkpt><trkpt lat="43.7099417" lon="12.2045167"><ele>552.0</ele><time>2026-03-22T09:11:25.653Z</time></trkpt><trkpt lat="43.7100083" lon="12.20465"><ele>552.0</ele><time>2026-03-22T09:11:26.655Z</time></trkpt><trkpt lat="43.7100433" lon="12.2048217"><ele>552.0</ele><time>2026-03-22T09:11:27.654Z</time></trkpt><trkpt lat="43.7100567" lon="12.205025"><ele>552.0</ele><time>2026-03-22T09:11:28.653Z</time></trkpt><trkpt lat="43.7100783" lon="12.2052183"><ele>552.0</ele><time>2026-03-22T09:11:29.653Z</time></trkpt><trkpt lat="43.7101267" lon="12.205385"><ele>553.25</ele><time>2026-03-22T09:11:30.653Z</time></trkpt><trkpt lat="43.7102117" lon="12.2055233"><ele>554.5</ele><time>2026-03-22T09:11:31.655Z</time></trkpt><trkpt lat="43.710325" lon="12.2056417"><ele>555.75</ele><time>2026-03-22T09:11:32.653Z</time></trkpt><trkpt lat="43.71045" lon="12.2057417"><ele>557.0</ele><time>2026-03-22T09:11:33.654Z</time></trkpt><trkpt lat="43.71056" lon="12.20583"><ele>559.2</ele><time>2026-03-22T09:11:34.653Z</time></trkpt><trkpt lat="43.710655" lon="12.2059083"><ele>561.4000000000001</ele><time>2026-03-22T09:11:35.654Z</time></trkpt><trkpt lat="43.7107417" lon="12.2059583"><ele>563.5999999999999</ele><time>2026-03-22T09:11:36.653Z</time></trkpt><trkpt lat="43.7108333" lon="12.2059867"><ele>565.8</ele><time>2026-03-22T09:11:37.653Z</time></trkpt><trkpt lat="43.7109333" lon="12.2059583"><ele>568.0</ele><time>2026-03-22T09:11:38.655Z</time></trkpt><trkpt lat="43.7110333" lon="12.2058883"><ele>568.75</ele><time>2026-03-22T09:11:39.653Z</time></trkpt><trkpt lat="43.71113" lon="12.205785"><ele>569.5</ele><time>2026-03-22T09:11:40.654Z</time></trkpt><trkpt lat="43.7112133" lon="12.2056733"><ele>570.25</ele><time>2026-03-22T09:11:41.654Z</time></trkpt><trkpt lat="43.7112967" lon="12.2055533"><ele>571.0</ele><time>2026-03-22T09:11:42.653Z</time></trkpt><trkpt lat="43.711375" lon="12.205415"><ele>568.3333333333334</ele><time>2026-03-22T09:11:43.654Z</time></trkpt><trkpt lat="43.711435" lon="12.2052567"><ele>565.6666666666666</ele><time>2026-03-22T09:11:44.654Z</time></trkpt><trkpt lat="43.7114733" lon="12.20505"><ele>563.0</ele><time>2026-03-22T09:11:45.654Z</time></trkpt><trkpt lat="43.7114983" lon="12.204815"><ele>560.6666666666666</ele><time>2026-03-22T09:11:46.655Z</time></trkpt><trkpt lat="43.7115133" lon="12.2045567"><ele>558.3333333333334</ele><time>2026-03-22T09:11:47.654Z</time></trkpt><trkpt lat="43.7115267" lon="12.2042883"><ele>556.0</ele><time>2026-03-22T09:11:48.653Z</time></trkpt><trkpt lat="43.7115467" lon="12.2040317"><ele>555.0</ele><time>2026-03-22T09:11:49.654Z</time></trkpt><trkpt lat="43.7115633" lon="12.2038067"><ele>554.0</ele><time>2026-03-22T09:11:50.654Z</time></trkpt><trkpt lat="43.711585" lon="12.20362"><ele>553.0</ele><time>2026-03-22T09:11:51.65Z</time></trkpt><trkpt lat="43.7116183" lon="12.203455"><ele>552.0</ele><time>2026-03-22T09:11:52.651Z</time></trkpt><trkpt lat="43.7116817" lon="12.2032917"><ele>550.3333333333334</ele><time>2026-03-22T09:11:53.653Z</time></trkpt><trkpt lat="43.71177" lon="12.2031167"><ele>548.6666666666667</ele><time>2026-03-22T09:11:54.655Z</time></trkpt><trkpt lat="43.71187" lon="12.20294"><ele>547.0</ele><time>2026-03-22T09:11:55.654Z</time></trkpt><trkpt lat="43.7119733" lon="12.20278"><ele>547.0</ele><time>2026-03-22T09:11:56.654Z</time></trkpt><trkpt lat="43.7120833" lon="12.2026533"><ele>547.0</ele><time>2026-03-22T09:11:57.655Z</time></trkpt><trkpt lat="43.7122017" lon="12.2025683"><ele>547.0</ele><time>2026-03-22T09:11:58.655Z</time></trkpt><trkpt lat="43.7123283" lon="12.20253"><ele>547.0</ele><time>2026-03-22T09:11:59.654Z</time></trkpt><trkpt lat="43.7124633" lon="12.202545"><ele>547.0</ele><time>2026-03-22T09:12:00.654Z</time></trkpt><trkpt lat="43.7126" lon="12.2025867"><ele>547.0</ele><time>2026-03-22T09:12:01.653Z</time></trkpt><trkpt lat="43.7127233" lon="12.20262"><ele>547.0</ele><time>2026-03-22T09:12:02.655Z</time></trkpt><trkpt lat="43.7128333" lon="12.2026133"><ele>547.0</ele><time>2026-03-22T09:12:03.655Z</time></trkpt><trkpt lat="43.7129233" lon="12.202555"><ele>547.6</ele><time>2026-03-22T09:12:04.654Z</time></trkpt><trkpt lat="43.7129867" lon="12.202445"><ele>548.2</ele><time>2026-03-22T09:12:05.654Z</time></trkpt><trkpt lat="43.713035" lon="12.20232"><ele>548.8</ele><time>2026-03-22T09:12:06.653Z</time></trkpt><trkpt lat="43.7130517" lon="12.20219"><ele>549.4</ele><time>2026-03-22T09:12:07.653Z</time></trkpt><trkpt lat="43.7130033" lon="12.202025"><ele>550.0</ele><time>2026-03-22T09:12:08.654Z</time></trkpt><trkpt lat="43.7129067" lon="12.20188"><ele>550.0</ele><time>2026-03-22T09:12:09.654Z</time></trkpt><trkpt lat="43.7127767" lon="12.2017617"><ele>550.0</ele><time>2026-03-22T09:12:10.653Z</time></trkpt><trkpt lat="43.71265" lon="12.20168"><ele>550.0</ele><time>2026-03-22T09:12:11.654Z</time></trkpt><trkpt lat="43.71253" lon="12.2016133"><ele>550.0</ele><time>2026-03-22T09:12:12.654Z</time></trkpt><trkpt lat="43.7124167" lon="12.201535"><ele>549.1666666666667</ele><time>2026-03-22T09:12:13.653Z</time></trkpt><trkpt lat="43.7123233" lon="12.201455"><ele>548.3333333333334</ele><time>2026-03-22T09:12:14.654Z</time></trkpt><trkpt lat="43.7122667" lon="12.201365"><ele>547.5</ele><time>2026-03-22T09:12:15.655Z</time></trkpt><trkpt lat="43.7122317" lon="12.201265"><ele>546.6666666666666</ele><time>2026-03-22T09:12:16.654Z</time></trkpt><trkpt lat="43.7122183" lon="12.201165"><ele>545.8333333333333</ele><time>2026-03-22T09:12:17.653Z</time></trkpt><trkpt lat="43.7122217" lon="12.201055"><ele>545.0</ele><time>2026-03-22T09:12:18.65Z</time></trkpt><trkpt lat="43.71224" lon="12.2009317"><ele>545.0</ele><time>2026-03-22T09:12:19.653Z</time></trkpt><trkpt lat="43.71228" lon="12.2007833"><ele>545.0</ele><time>2026-03-22T09:12:20.654Z</time></trkpt><trkpt lat="43.7123367" lon="12.2006333"><ele>545.0</ele><time>2026-03-22T09:12:21.655Z</time></trkpt><trkpt lat="43.7124" lon="12.2004933"><ele>545.0</ele><time>2026-03-22T09:12:22.653Z</time></trkpt><trkpt lat="43.71245" lon="12.2003733"><ele>544.0</ele><time>2026-03-22T09:12:23.653Z</time></trkpt><trkpt lat="43.71249" lon="12.2002633"><ele>543.0</ele><time>2026-03-22T09:12:24.654Z</time></trkpt><trkpt lat="43.712535" lon="12.200175"><ele>542.0</ele><time>2026-03-22T09:12:25.654Z</time></trkpt><trkpt lat="43.712585" lon="12.2001117"><ele>541.0</ele><time>2026-03-22T09:12:26.654Z</time></trkpt><trkpt lat="43.71264" lon="12.1999817"><ele>540.0</ele><time>2026-03-22T09:12:28.653Z</time></trkpt><trkpt lat="43.7126283" lon="12.19989"><ele>539.0</ele><time>2026-03-22T09:12:29.654Z</time></trkpt><trkpt lat="43.712575" lon="12.19979"><ele>537.0</ele><time>2026-03-22T09:12:30.651Z</time></trkpt><trkpt lat="43.7124767" lon="12.1996733"><ele>535.0</ele><time>2026-03-22T09:12:31.654Z</time></trkpt><trkpt lat="43.7123617" lon="12.1995483"><ele>533.0</ele><time>2026-03-22T09:12:32.653Z</time></trkpt><trkpt lat="43.7122583" lon="12.19943"><ele>531.0</ele><time>2026-03-22T09:12:33.654Z</time></trkpt><trkpt lat="43.71216" lon="12.1993417"><ele>531.0</ele><time>2026-03-22T09:12:34.655Z</time></trkpt><trkpt lat="43.71205" lon="12.1992933"><ele>531.0</ele><time>2026-03-22T09:12:35.654Z</time></trkpt><trkpt lat="43.7119233" lon="12.1993033"><ele>531.0</ele><time>2026-03-22T09:12:36.653Z</time></trkpt><trkpt lat="43.7117933" lon="12.1993517"><ele>531.0</ele><time>2026-03-22T09:12:37.655Z</time></trkpt><trkpt lat="43.7116567" lon="12.1994333"><ele>536.25</ele><time>2026-03-22T09:12:38.654Z</time></trkpt><trkpt lat="43.711515" lon="12.199535"><ele>541.5</ele><time>2026-03-22T09:12:39.654Z</time></trkpt><trkpt lat="43.7113833" lon="12.199615"><ele>546.75</ele><time>2026-03-22T09:12:40.654Z</time></trkpt><trkpt lat="43.7112617" lon="12.1996533"><ele>552.0</ele><time>2026-03-22T09:12:41.653Z</time></trkpt><trkpt lat="43.71114" lon="12.1996467"><ele>553.75</ele><time>2026-03-22T09:12:42.654Z</time></trkpt><trkpt lat="43.7110117" lon="12.1996"><ele>555.5</ele><time>2026-03-22T09:12:43.654Z</time></trkpt><trkpt lat="43.71088" lon="12.1995133"><ele>557.25</ele><time>2026-03-22T09:12:44.653Z</time></trkpt><trkpt lat="43.7107767" lon="12.1994"><ele>559.0</ele><time>2026-03-22T09:12:45.654Z</time></trkpt><trkpt lat="43.710715" lon="12.1992917"><ele>559.0</ele><time>2026-03-22T09:12:46.654Z</time></trkpt><trkpt lat="43.710695" lon="12.1991817"><ele>559.0</ele><time>2026-03-22T09:12:47.654Z</time></trkpt><trkpt lat="43.71074" lon="12.19909"><ele>559.0</ele><time>2026-03-22T09:12:48.653Z</time></trkpt><trkpt lat="43.7107917" lon="12.199"><ele>559.0</ele><time>2026-03-22T09:12:49.654Z</time></trkpt><trkpt lat="43.710835" lon="12.198885"><ele>559.0</ele><time>2026-03-22T09:12:50.653Z</time></trkpt><trkpt lat="43.7108767" lon="12.1987367"><ele>562.0</ele><time>2026-03-22T09:12:51.654Z</time></trkpt><trkpt lat="43.7108933" lon="12.1985967"><ele>565.0</ele><time>2026-03-22T09:12:52.655Z</time></trkpt><trkpt lat="43.7108983" lon="12.1984617"><ele>568.0</ele><time>2026-03-22T09:12:53.653Z</time></trkpt><trkpt lat="43.7108767" lon="12.19833"><ele>571.0</ele><time>2026-03-22T09:12:54.655Z</time></trkpt><trkpt lat="43.7108467" lon="12.198195"><ele>574.0</ele><time>2026-03-22T09:12:55.655Z</time></trkpt><trkpt lat="43.710785" lon="12.19811"><ele>575.8</ele><time>2026-03-22T09:12:56.654Z</time></trkpt><trkpt lat="43.710695" lon="12.1980667"><ele>577.5999999999999</ele><time>2026-03-22T09:12:57.65Z</time></trkpt><trkpt lat="43.710605" lon="12.1980017"><ele>579.4</ele><time>2026-03-22T09:12:58.651Z</time></trkpt><trkpt lat="43.7105317" lon="12.1978933"><ele>581.1999999999999</ele><time>2026-03-22T09:12:59.653Z</time></trkpt><trkpt lat="43.7104733" lon="12.19775"><ele>583.0</ele><time>2026-03-22T09:13:00.654Z</time></trkpt><trkpt lat="43.7104467" lon="12.1975833"><ele>583.0</ele><time>2026-03-22T09:13:01.654Z</time></trkpt><trkpt lat="43.7104617" lon="12.197405"><ele>583.0</ele><time>2026-03-22T09:13:02.654Z</time></trkpt><trkpt lat="43.710495" lon="12.1972217"><ele>583.0</ele><time>2026-03-22T09:13:03.653Z</time></trkpt><trkpt lat="43.710505" lon="12.1970217"><ele>583.0</ele><time>2026-03-22T09:13:04.657Z</time></trkpt><trkpt lat="43.7104917" lon="12.19682"><ele>582.6666666666667</ele><time>2026-03-22T09:13:05.652Z</time></trkpt><trkpt lat="43.7104417" lon="12.1966067"><ele>582.3333333333334</ele><time>2026-03-22T09:13:06.654Z</time></trkpt><trkpt lat="43.7103833" lon="12.1963867"><ele>582.0</ele><time>2026-03-22T09:13:07.653Z</time></trkpt><trkpt lat="43.710315" lon="12.1961617"><ele>581.25</ele><time>2026-03-22T09:13:08.653Z</time></trkpt><trkpt lat="43.710245" lon="12.19596"><ele>580.5</ele><time>2026-03-22T09:13:09.654Z</time></trkpt><trkpt lat="43.7101733" lon="12.1957867"><ele>579.75</ele><time>2026-03-22T09:13:10.653Z</time></trkpt><trkpt lat="43.7100883" lon="12.19565"><ele>579.0</ele><time>2026-03-22T09:13:11.654Z</time></trkpt><trkpt lat="43.7099817" lon="12.1955583"><ele>581.25</ele><time>2026-03-22T09:13:12.654Z</time></trkpt><trkpt lat="43.709855" lon="12.1955333"><ele>583.5</ele><time>2026-03-22T09:13:13.654Z</time></trkpt><trkpt lat="43.7097133" lon="12.19555"><ele>585.75</ele><time>2026-03-22T09:13:14.653Z</time></trkpt><trkpt lat="43.70956" lon="12.1955883"><ele>588.0</ele><time>2026-03-22T09:13:15.654Z</time></trkpt><trkpt lat="43.7094017" lon="12.195625"><ele>592.6666666666666</ele><time>2026-03-22T09:13:16.651Z</time></trkpt><trkpt lat="43.7092433" lon="12.1956517"><ele>597.3333333333333</ele><time>2026-03-22T09:13:17.651Z</time></trkpt><trkpt lat="43.7090817" lon="12.19568"><ele>602.0</ele><time>2026-03-22T09:13:18.65Z</time></trkpt><trkpt lat="43.7089367" lon="12.195695"><ele>602.0</ele><time>2026-03-22T09:13:19.65Z</time></trkpt><trkpt lat="43.7087933" lon="12.1957117"><ele>602.0</ele><time>2026-03-22T09:13:20.651Z</time></trkpt><trkpt lat="43.7086567" lon="12.195725"><ele>602.0</ele><time>2026-03-22T09:13:21.65Z</time></trkpt><trkpt lat="43.7085217" lon="12.1957467"><ele>602.0</ele><time>2026-03-22T09:13:22.651Z</time></trkpt><trkpt lat="43.7084017" lon="12.1957433"><ele>602.6</ele><time>2026-03-22T09:13:23.654Z</time></trkpt><trkpt lat="43.7082933" lon="12.195725"><ele>603.2</ele><time>2026-03-22T09:13:24.653Z</time></trkpt><trkpt lat="43.7081983" lon="12.1957017"><ele>603.8</ele><time>2026-03-22T09:13:25.654Z</time></trkpt><trkpt lat="43.7081133" lon="12.1956683"><ele>604.4</ele><time>2026-03-22T09:13:26.654Z</time></trkpt><trkpt lat="43.7080417" lon="12.195625"><ele>605.0</ele><time>2026-03-22T09:13:27.653Z</time></trkpt><trkpt lat="43.7079717" lon="12.1955617"><ele>608.25</ele><time>2026-03-22T09:13:28.654Z</time></trkpt><trkpt lat="43.707895" lon="12.1954683"><ele>611.5</ele><time>2026-03-22T09:13:29.654Z</time></trkpt><trkpt lat="43.7078" lon="12.1953617"><ele>614.75</ele><time>2026-03-22T09:13:30.654Z</time></trkpt><trkpt lat="43.7076783" lon="12.19525"><ele>618.0</ele><time>2026-03-22T09:13:31.654Z</time></trkpt><trkpt lat="43.70755" lon="12.1951233"><ele>620.0</ele><time>2026-03-22T09:13:32.654Z</time></trkpt><trkpt lat="43.7074083" lon="12.1949867"><ele>622.0</ele><time>2026-03-22T09:13:33.654Z</time></trkpt><trkpt lat="43.7072567" lon="12.1948433"><ele>624.0</ele><time>2026-03-22T09:13:34.655Z</time></trkpt><trkpt lat="43.7070933" lon="12.1946867"><ele>626.3333333333334</ele><time>2026-03-22T09:13:35.654Z</time></trkpt><trkpt lat="43.70692" lon="12.1945233"><ele>628.6666666666667</ele><time>2026-03-22T09:13:36.655Z</time></trkpt><trkpt lat="43.7067483" lon="12.1943533"><ele>631.0</ele><time>2026-03-22T09:13:37.655Z</time></trkpt><trkpt lat="43.7065733" lon="12.1941733"><ele>634.6666666666667</ele><time>2026-03-22T09:13:38.653Z</time></trkpt><trkpt lat="43.7063933" lon="12.1939883"><ele>638.3333333333334</ele><time>2026-03-22T09:13:39.654Z</time></trkpt><trkpt lat="43.706215" lon="12.19381"><ele>642.0</ele><time>2026-03-22T09:13:40.655Z</time></trkpt><trkpt lat="43.7060417" lon="12.193645"><ele>642.0</ele><time>2026-03-22T09:13:41.653Z</time></trkpt><trkpt lat="43.7058633" lon="12.1935117"><ele>642.0</ele><time>2026-03-22T09:13:42.653Z</time></trkpt><trkpt lat="43.7056617" lon="12.193435"><ele>642.0</ele><time>2026-03-22T09:13:43.654Z</time></trkpt><trkpt lat="43.7054467" lon="12.1934117"><ele>643.0</ele><time>2026-03-22T09:13:44.659Z</time></trkpt><trkpt lat="43.705225" lon="12.193415"><ele>644.0</ele><time>2026-03-22T09:13:45.653Z</time></trkpt><trkpt lat="43.7050117" lon="12.1934183"><ele>645.0</ele><time>2026-03-22T09:13:46.65Z</time></trkpt><trkpt lat="43.7048133" lon="12.1934133"><ele>645.0</ele><time>2026-03-22T09:13:47.654Z</time></trkpt><trkpt lat="43.7046333" lon="12.1933833"><ele>645.0</ele><time>2026-03-22T09:13:48.651Z</time></trkpt><trkpt lat="43.7044767" lon="12.1933183"><ele>645.0</ele><time>2026-03-22T09:13:49.654Z</time></trkpt><trkpt lat="43.7043567" lon="12.193215"><ele>646.5</ele><time>2026-03-22T09:13:50.653Z</time></trkpt><trkpt lat="43.704285" lon="12.1930717"><ele>648.0</ele><time>2026-03-22T09:13:51.654Z</time></trkpt><trkpt lat="43.704265" lon="12.1928933"><ele>649.5</ele><time>2026-03-22T09:13:52.655Z</time></trkpt><trkpt lat="43.70429" lon="12.1927017"><ele>651.0</ele><time>2026-03-22T09:13:53.654Z</time></trkpt><trkpt lat="43.7043517" lon="12.1925133"><ele>652.6666666666666</ele><time>2026-03-22T09:13:54.655Z</time></trkpt><trkpt lat="43.70445" lon="12.1923567"><ele>654.3333333333333</ele><time>2026-03-22T09:13:55.654Z</time></trkpt><trkpt lat="43.7045817" lon="12.1922533"><ele>656.0</ele><time>2026-03-22T09:13:56.654Z</time></trkpt><trkpt lat="43.7047683" lon="12.1922083"><ele>657.6666666666666</ele><time>2026-03-22T09:13:57.654Z</time></trkpt><trkpt lat="43.70498" lon="12.19218"><ele>659.3333333333334</ele><time>2026-03-22T09:13:58.654Z</time></trkpt><trkpt lat="43.705185" lon="12.1921267"><ele>661.0</ele><time>2026-03-22T09:13:59.654Z</time></trkpt><trkpt lat="43.7053867" lon="12.192065"><ele>661.0</ele><time>2026-03-22T09:14:00.655Z</time></trkpt><trkpt lat="43.705565" lon="12.192005"><ele>661.0</ele><time>2026-03-22T09:14:01.653Z</time></trkpt><trkpt lat="43.70571" lon="12.191935"><ele>661.0</ele><time>2026-03-22T09:14:02.65Z</time></trkpt><trkpt lat="43.70582" lon="12.1918433"><ele>661.0</ele><time>2026-03-22T09:14:03.654Z</time></trkpt><trkpt lat="43.7059017" lon="12.1917133"><ele>661.0</ele><time>2026-03-22T09:14:04.654Z</time></trkpt><trkpt lat="43.7059517" lon="12.1915517"><ele>661.0</ele><time>2026-03-22T09:14:05.653Z</time></trkpt><trkpt lat="43.70596" lon="12.191365"><ele>661.0</ele><time>2026-03-22T09:14:06.654Z</time></trkpt><trkpt lat="43.7059167" lon="12.1911783"><ele>664.75</ele><time>2026-03-22T09:14:07.654Z</time></trkpt><trkpt lat="43.7058217" lon="12.1910333"><ele>668.5</ele><time>2026-03-22T09:14:08.653Z</time></trkpt><trkpt lat="43.7057033" lon="12.1909267"><ele>672.25</ele><time>2026-03-22T09:14:09.655Z</time></trkpt><trkpt lat="43.705555" lon="12.1908783"><ele>676.0</ele><time>2026-03-22T09:14:10.654Z</time></trkpt><trkpt lat="43.7053817" lon="12.190875"><ele>676.0</ele><time>2026-03-22T09:14:11.651Z</time></trkpt><trkpt lat="43.705185" lon="12.1908983"><ele>676.0</ele><time>2026-03-22T09:14:12.654Z</time></trkpt><trkpt lat="43.704975" lon="12.1909283"><ele>676.0</ele><time>2026-03-22T09:14:13.653Z</time></trkpt><trkpt lat="43.7047533" lon="12.190945"><ele>676.0</ele><time>2026-03-22T09:14:14.651Z</time></trkpt><trkpt lat="43.7045267" lon="12.1909167"><ele>676.0</ele><time>2026-03-22T09:14:15.655Z</time></trkpt><trkpt lat="43.7042967" lon="12.190845"><ele>675.5</ele><time>2026-03-22T09:14:16.654Z</time></trkpt><trkpt lat="43.7040633" lon="12.19075"><ele>675.0</ele><time>2026-03-22T09:14:17.651Z</time></trkpt><trkpt lat="43.7038283" lon="12.1906467"><ele>678.6666666666666</ele><time>2026-03-22T09:14:18.655Z</time></trkpt><trkpt lat="43.7036083" lon="12.1905417"><ele>682.3333333333333</ele><time>2026-03-22T09:14:19.654Z</time></trkpt><trkpt lat="43.7034133" lon="12.1904367"><ele>686.0</ele><time>2026-03-22T09:14:20.654Z</time></trkpt><trkpt lat="43.703245" lon="12.190315"><ele>686.0</ele><time>2026-03-22T09:14:21.654Z</time></trkpt><trkpt lat="43.703105" lon="12.1901633"><ele>686.0</ele><time>2026-03-22T09:14:22.653Z</time></trkpt><trkpt lat="43.7029917" lon="12.189985"><ele>686.0</ele><time>2026-03-22T09:14:23.654Z</time></trkpt><trkpt lat="43.7029117" lon="12.18978"><ele>688.6666666666666</ele><time>2026-03-22T09:14:24.654Z</time></trkpt><trkpt lat="43.7028833" lon="12.1895467"><ele>691.3333333333334</ele><time>2026-03-22T09:14:25.654Z</time></trkpt><trkpt lat="43.7028883" lon="12.1893117"><ele>694.0</ele><time>2026-03-22T09:14:26.651Z</time></trkpt><trkpt lat="43.7029267" lon="12.1890717"><ele>692.3333333333334</ele><time>2026-03-22T09:14:27.655Z</time></trkpt><trkpt lat="43.703005" lon="12.18886"><ele>690.6666666666666</ele><time>2026-03-22T09:14:28.654Z</time></trkpt><trkpt lat="43.7031133" lon="12.18869"><ele>689.0</ele><time>2026-03-22T09:14:29.654Z</time></trkpt><trkpt lat="43.7032483" lon="12.1885417"><ele>689.0</ele><time>2026-03-22T09:14:30.655Z</time></trkpt><trkpt lat="43.7033967" lon="12.1883817"><ele>689.0</ele><time>2026-03-22T09:14:31.655Z</time></trkpt><trkpt lat="43.703555" lon="12.1882133"><ele>689.0</ele><time>2026-03-22T09:14:32.654Z</time></trkpt><trkpt lat="43.7037217" lon="12.1880467"><ele>690.0</ele><time>2026-03-22T09:14:33.653Z</time></trkpt><trkpt lat="43.703895" lon="12.1878767"><ele>691.0</ele><time>2026-03-22T09:14:34.651Z</time></trkpt><trkpt lat="43.70407" lon="12.187705"><ele>692.0</ele><time>2026-03-22T09:14:35.654Z</time></trkpt><trkpt lat="43.704245" lon="12.1875267"><ele>692.0</ele><time>2026-03-22T09:14:36.653Z</time></trkpt><trkpt lat="43.7044217" lon="12.18734"><ele>692.0</ele><time>2026-03-22T09:14:37.653Z</time></trkpt><trkpt lat="43.7046033" lon="12.18715"><ele>692.0</ele><time>2026-03-22T09:14:38.655Z</time></trkpt><trkpt lat="43.70478" lon="12.186965"><ele>692.0</ele><time>2026-03-22T09:14:39.653Z</time></trkpt><trkpt lat="43.70495" lon="12.186775"><ele>692.0</ele><time>2026-03-22T09:14:40.653Z</time></trkpt><trkpt lat="43.7051233" lon="12.18658"><ele>695.5</ele><time>2026-03-22T09:14:41.654Z</time></trkpt><trkpt lat="43.70529" lon="12.1863683"><ele>699.0</ele><time>2026-03-22T09:14:42.654Z</time></trkpt><trkpt lat="43.7054517" lon="12.1861517"><ele>699.0</ele><time>2026-03-22T09:14:43.654Z</time></trkpt><trkpt lat="43.70561" lon="12.1859333"><ele>699.0</ele><time>2026-03-22T09:14:44.653Z</time></trkpt><trkpt lat="43.7057683" lon="12.1857167"><ele>699.0</ele><time>2026-03-22T09:14:45.653Z</time></trkpt><trkpt lat="43.7059233" lon="12.1855083"><ele>699.0</ele><time>2026-03-22T09:14:46.653Z</time></trkpt><trkpt lat="43.7060733" lon="12.1852967"><ele>699.0</ele><time>2026-03-22T09:14:47.653Z</time></trkpt><trkpt lat="43.7062217" lon="12.1850883"><ele>699.0</ele><time>2026-03-22T09:14:48.653Z</time></trkpt><trkpt lat="43.7063583" lon="12.1848983"><ele>697.0</ele><time>2026-03-22T09:14:49.654Z</time></trkpt><trkpt lat="43.7064917" lon="12.184725"><ele>695.0</ele><time>2026-03-22T09:14:50.653Z</time></trkpt><trkpt lat="43.7066183" lon="12.184565"><ele>693.0</ele><time>2026-03-22T09:14:51.653Z</time></trkpt><trkpt lat="43.7067533" lon="12.1844317"><ele>693.0</ele><time>2026-03-22T09:14:52.654Z</time></trkpt><trkpt lat="43.7069083" lon="12.1843317"><ele>693.0</ele><time>2026-03-22T09:14:53.653Z</time></trkpt><trkpt lat="43.707075" lon="12.1842717"><ele>693.0</ele><time>2026-03-22T09:14:54.654Z</time></trkpt><trkpt lat="43.7072517" lon="12.18425"><ele>692.6666666666666</ele><time>2026-03-22T09:14:55.653Z</time></trkpt><trkpt lat="43.707435" lon="12.1842533"><ele>692.3333333333333</ele><time>2026-03-22T09:14:56.653Z</time></trkpt><trkpt lat="43.7076233" lon="12.1842817"><ele>692.0</ele><time>2026-03-22T09:14:57.653Z</time></trkpt><trkpt lat="43.7078083" lon="12.18431"><ele>692.0</ele><time>2026-03-22T09:14:58.653Z</time></trkpt><trkpt lat="43.7079833" lon="12.1843217"><ele>692.0</ele><time>2026-03-22T09:14:59.654Z</time></trkpt><trkpt lat="43.7081483" lon="12.18431"><ele>692.0</ele><time>2026-03-22T09:15:00.653Z</time></trkpt><trkpt lat="43.7083133" lon="12.1842633"><ele>692.0</ele><time>2026-03-22T09:15:01.654Z</time></trkpt><trkpt lat="43.7084733" lon="12.1841783"><ele>692.0</ele><time>2026-03-22T09:15:02.653Z</time></trkpt><trkpt lat="43.7086267" lon="12.1840383"><ele>692.0</ele><time>2026-03-22T09:15:03.654Z</time></trkpt><trkpt lat="43.7087683" lon="12.1838517"><ele>693.6666666666666</ele><time>2026-03-22T09:15:04.654Z</time></trkpt><trkpt lat="43.7089" lon="12.1836333"><ele>695.3333333333334</ele><time>2026-03-22T09:15:05.654Z</time></trkpt><trkpt lat="43.7090117" lon="12.1834117"><ele>697.0</ele><time>2026-03-22T09:15:06.653Z</time></trkpt><trkpt lat="43.709115" lon="12.1832033"><ele>695.6666666666667</ele><time>2026-03-22T09:15:07.654Z</time></trkpt><trkpt lat="43.70921" lon="12.1830133"><ele>694.3333333333334</ele><time>2026-03-22T09:15:08.655Z</time></trkpt><trkpt lat="43.709295" lon="12.1828267"><ele>693.0</ele><time>2026-03-22T09:15:09.653Z</time></trkpt><trkpt lat="43.70937" lon="12.1826517"><ele>695.75</ele><time>2026-03-22T09:15:10.654Z</time></trkpt><trkpt lat="43.7094333" lon="12.1824783"><ele>698.5</ele><time>2026-03-22T09:15:11.654Z</time></trkpt><trkpt lat="43.7094917" lon="12.1823083"><ele>701.25</ele><time>2026-03-22T09:15:12.654Z</time></trkpt><trkpt lat="43.709545" lon="12.1821517"><ele>704.0</ele><time>2026-03-22T09:15:13.658Z</time></trkpt><trkpt lat="43.70959" lon="12.1820233"><ele>704.8000000000001</ele><time>2026-03-22T09:15:14.653Z</time></trkpt><trkpt lat="43.70963" lon="12.181905"><ele>705.6</ele><time>2026-03-22T09:15:15.653Z</time></trkpt><trkpt lat="43.7096683" lon="12.18179"><ele>706.4</ele><time>2026-03-22T09:15:16.65Z</time></trkpt><trkpt lat="43.70971" lon="12.1816767"><ele>707.2</ele><time>2026-03-22T09:15:17.65Z</time></trkpt><trkpt lat="43.7097483" lon="12.1815683"><ele>708.0</ele><time>2026-03-22T09:15:18.651Z</time></trkpt><trkpt lat="43.7097833" lon="12.18146"><ele>708.5999999999999</ele><time>2026-03-22T09:15:19.65Z</time></trkpt><trkpt lat="43.7098233" lon="12.1813483"><ele>709.1999999999999</ele><time>2026-03-22T09:15:20.65Z</time></trkpt><trkpt lat="43.709865" lon="12.1812283"><ele>709.8</ele><time>2026-03-22T09:15:21.651Z</time></trkpt><trkpt lat="43.7099067" lon="12.181105"><ele>710.4</ele><time>2026-03-22T09:15:22.651Z</time></trkpt><trkpt lat="43.7099517" lon="12.1809667"><ele>711.0</ele><time>2026-03-22T09:15:23.65Z</time></trkpt><trkpt lat="43.710005" lon="12.1808133"><ele>711.75</ele><time>2026-03-22T09:15:24.651Z</time></trkpt><trkpt lat="43.710065" lon="12.180655"><ele>712.5</ele><time>2026-03-22T09:15:25.651Z</time></trkpt><trkpt lat="43.7101217" lon="12.1804867"><ele>713.25</ele><time>2026-03-22T09:15:26.651Z</time></trkpt><trkpt lat="43.71018" lon="12.18031"><ele>714.0</ele><time>2026-03-22T09:15:27.651Z</time></trkpt><trkpt lat="43.710235" lon="12.1801183"><ele>717.0</ele><time>2026-03-22T09:15:28.651Z</time></trkpt><trkpt lat="43.7102783" lon="12.17991"><ele>720.0</ele><time>2026-03-22T09:15:29.65Z</time></trkpt><trkpt lat="43.7103017" lon="12.1796683"><ele>723.0</ele><time>2026-03-22T09:15:30.654Z</time></trkpt><trkpt lat="43.7102983" lon="12.1794133"><ele>722.3333333333334</ele><time>2026-03-22T09:15:31.654Z</time></trkpt><trkpt lat="43.7102733" lon="12.1791517"><ele>721.6666666666667</ele><time>2026-03-22T09:15:32.654Z</time></trkpt><trkpt lat="43.7102433" lon="12.1788833"><ele>721.0</ele><time>2026-03-22T09:15:33.654Z</time></trkpt><trkpt lat="43.71022" lon="12.1786083"><ele>721.0</ele><time>2026-03-22T09:15:34.653Z</time></trkpt><trkpt lat="43.7102183" lon="12.1783417"><ele>721.0</ele><time>2026-03-22T09:15:35.652Z</time></trkpt><trkpt lat="43.7102467" lon="12.1780833"><ele>721.0</ele><time>2026-03-22T09:15:36.651Z</time></trkpt><trkpt lat="43.710305" lon="12.1778317"><ele>728.6666666666667</ele><time>2026-03-22T09:15:37.651Z</time></trkpt><trkpt lat="43.710395" lon="12.17759"><ele>736.3333333333334</ele><time>2026-03-22T09:15:38.654Z</time></trkpt><trkpt lat="43.7104983" lon="12.17735"><ele>744.0</ele><time>2026-03-22T09:15:39.654Z</time></trkpt><trkpt lat="43.71059" lon="12.17711"><ele>745.3333333333334</ele><time>2026-03-22T09:15:40.654Z</time></trkpt><trkpt lat="43.71066" lon="12.1768583"><ele>746.6666666666667</ele><time>2026-03-22T09:15:41.649Z</time></trkpt><trkpt lat="43.7107" lon="12.17659"><ele>748.0</ele><time>2026-03-22T09:15:42.65Z</time></trkpt><trkpt lat="43.71072" lon="12.17631"><ele>751.3333333333334</ele><time>2026-03-22T09:15:43.652Z</time></trkpt><trkpt lat="43.7107117" lon="12.1760217"><ele>754.6666666666666</ele><time>2026-03-22T09:15:44.655Z</time></trkpt><trkpt lat="43.7106867" lon="12.1757233"><ele>758.0</ele><time>2026-03-22T09:15:45.654Z</time></trkpt><trkpt lat="43.7106583" lon="12.1754167"><ele>760.5</ele><time>2026-03-22T09:15:46.744Z</time></trkpt><trkpt lat="43.710635" lon="12.1751067"><ele>763.0</ele><time>2026-03-22T09:15:47.65Z</time></trkpt><trkpt lat="43.7106117" lon="12.17479"><ele>764.3333333333334</ele><time>2026-03-22T09:15:48.651Z</time></trkpt><trkpt lat="43.71059" lon="12.1744833"><ele>765.6666666666666</ele><time>2026-03-22T09:15:49.65Z</time></trkpt><trkpt lat="43.7105633" lon="12.17419"><ele>767.0</ele><time>2026-03-22T09:15:50.65Z</time></trkpt><trkpt lat="43.7105217" lon="12.1739083"><ele>772.6666666666666</ele><time>2026-03-22T09:15:51.651Z</time></trkpt><trkpt lat="43.7104567" lon="12.1736433"><ele>778.3333333333333</ele><time>2026-03-22T09:15:52.651Z</time></trkpt><trkpt lat="43.71036" lon="12.1733983"><ele>784.0</ele><time>2026-03-22T09:15:53.651Z</time></trkpt><trkpt lat="43.710255" lon="12.173165"><ele>778.3333333333333</ele><time>2026-03-22T09:15:54.65Z</time></trkpt><trkpt lat="43.710165" lon="12.1729283"><ele>772.6666666666666</ele><time>2026-03-22T09:15:55.651Z</time></trkpt><trkpt lat="43.7101183" lon="12.1726717"><ele>767.0</ele><time>2026-03-22T09:15:56.65Z</time></trkpt><trkpt lat="43.7101017" lon="12.17241"><ele>768.6666666666666</ele><time>2026-03-22T09:15:57.651Z</time></trkpt><trkpt lat="43.71012" lon="12.17215"><ele>770.3333333333333</ele><time>2026-03-22T09:15:58.653Z</time></trkpt><trkpt lat="43.7101733" lon="12.1719083"><ele>772.0</ele><time>2026-03-22T09:15:59.654Z</time></trkpt><trkpt lat="43.7102417" lon="12.1716883"><ele>777.75</ele><time>2026-03-22T09:16:00.653Z</time></trkpt><trkpt lat="43.7102983" lon="12.17149"><ele>783.5</ele><time>2026-03-22T09:16:01.655Z</time></trkpt><trkpt lat="43.7103333" lon="12.171305"><ele>789.25</ele><time>2026-03-22T09:16:02.653Z</time></trkpt><trkpt lat="43.7103617" lon="12.171145"><ele>795.0</ele><time>2026-03-22T09:16:03.654Z</time></trkpt><trkpt lat="43.7103867" lon="12.1710033"><ele>795.0</ele><time>2026-03-22T09:16:04.654Z</time></trkpt><trkpt lat="43.710405" lon="12.1708617"><ele>795.0</ele><time>2026-03-22T09:16:05.651Z</time></trkpt><trkpt lat="43.7104183" lon="12.1707167"><ele>795.0</ele><time>2026-03-22T09:16:06.651Z</time></trkpt><trkpt lat="43.7104317" lon="12.17057"><ele>795.0</ele><time>2026-03-22T09:16:07.652Z</time></trkpt><trkpt lat="43.710445" lon="12.170425"><ele>795.0</ele><time>2026-03-22T09:16:08.652Z</time></trkpt><trkpt lat="43.7104583" lon="12.1702817"><ele>796.4</ele><time>2026-03-22T09:16:09.652Z</time></trkpt><trkpt lat="43.7104733" lon="12.1701367"><ele>797.8</ele><time>2026-03-22T09:16:10.651Z</time></trkpt><trkpt lat="43.7104867" lon="12.1699917"><ele>799.2</ele><time>2026-03-22T09:16:11.652Z</time></trkpt><trkpt lat="43.7105" lon="12.1698467"><ele>800.6</ele><time>2026-03-22T09:16:12.65Z</time></trkpt><trkpt lat="43.710515" lon="12.16969"><ele>802.0</ele><time>2026-03-22T09:16:13.653Z</time></trkpt><trkpt lat="43.7103933" lon="12.16886"><ele>802.0</ele><time>2026-03-22T09:16:14.65Z</time></trkpt><trkpt lat="43.710395" lon="12.1685783"><ele>802.0</ele><time>2026-03-22T09:16:15.652Z</time></trkpt><trkpt lat="43.71036" lon="12.1682067"><ele>799.6666666666666</ele><time>2026-03-22T09:16:16.652Z</time></trkpt><trkpt lat="43.7103467" lon="12.1678833"><ele>797.3333333333333</ele><time>2026-03-22T09:16:17.651Z</time></trkpt><trkpt lat="43.71034" lon="12.16759"><ele>795.0</ele><time>2026-03-22T09:16:18.651Z</time></trkpt><trkpt lat="43.7104383" lon="12.1673483"><ele>792.0</ele><time>2026-03-22T09:16:19.651Z</time></trkpt><trkpt lat="43.710545" lon="12.1670883"><ele>789.0</ele><time>2026-03-22T09:16:20.65Z</time></trkpt><trkpt lat="43.7106517" lon="12.166825"><ele>786.0</ele><time>2026-03-22T09:16:21.65Z</time></trkpt><trkpt lat="43.7107567" lon="12.1665517"><ele>779.5</ele><time>2026-03-22T09:16:22.651Z</time></trkpt><trkpt lat="43.710865" lon="12.1662733"><ele>773.0</ele><time>2026-03-22T09:16:23.651Z</time></trkpt><trkpt lat="43.71097" lon="12.1659917"><ele>773.0</ele><time>2026-03-22T09:16:24.651Z</time></trkpt><trkpt lat="43.71107" lon="12.1657117"><ele>773.0</ele><time>2026-03-22T09:16:25.65Z</time></trkpt><trkpt lat="43.71117" lon="12.165445"><ele>773.0</ele><time>2026-03-22T09:16:26.65Z</time></trkpt><trkpt lat="43.7112717" lon="12.165185"><ele>775.0</ele><time>2026-03-22T09:16:27.65Z</time></trkpt><trkpt lat="43.7113783" lon="12.1649267"><ele>777.0</ele><time>2026-03-22T09:16:28.65Z</time></trkpt><trkpt lat="43.71149" lon="12.16467"><ele>779.0</ele><time>2026-03-22T09:16:29.654Z</time></trkpt><trkpt lat="43.7116033" lon="12.1644183"><ele>779.0</ele><time>2026-03-22T09:16:30.65Z</time></trkpt><trkpt lat="43.71172" lon="12.164175"><ele>779.0</ele><time>2026-03-22T09:16:31.652Z</time></trkpt><trkpt lat="43.7118317" lon="12.163945"><ele>779.0</ele><time>2026-03-22T09:16:32.65Z</time></trkpt><trkpt lat="43.71195" lon="12.1637317"><ele>780.3333333333334</ele><time>2026-03-22T09:16:33.65Z</time></trkpt><trkpt lat="43.7120833" lon="12.1635517"><ele>781.6666666666667</ele><time>2026-03-22T09:16:34.651Z</time></trkpt><trkpt lat="43.7122183" lon="12.1634017"><ele>783.0</ele><time>2026-03-22T09:16:35.65Z</time></trkpt><trkpt lat="43.7123367" lon="12.1632533"><ele>782.5</ele><time>2026-03-22T09:16:36.65Z</time></trkpt><trkpt lat="43.7124183" lon="12.1630917"><ele>782.0</ele><time>2026-03-22T09:16:37.653Z</time></trkpt><trkpt lat="43.7124567" lon="12.1629133"><ele>781.5</ele><time>2026-03-22T09:16:38.653Z</time></trkpt><trkpt lat="43.7124567" lon="12.162715"><ele>781.0</ele><time>2026-03-22T09:16:39.65Z</time></trkpt><trkpt lat="43.7124117" lon="12.1624983"><ele>785.0</ele><time>2026-03-22T09:16:40.653Z</time></trkpt><trkpt lat="43.7123333" lon="12.1622867"><ele>789.0</ele><time>2026-03-22T09:16:41.653Z</time></trkpt><trkpt lat="43.7122417" lon="12.1621"><ele>793.0</ele><time>2026-03-22T09:16:42.654Z</time></trkpt><trkpt lat="43.7121333" lon="12.1619617"><ele>793.0</ele><time>2026-03-22T09:16:43.653Z</time></trkpt><trkpt lat="43.712005" lon="12.161875"><ele>793.0</ele><time>2026-03-22T09:16:44.654Z</time></trkpt><trkpt lat="43.7118417" lon="12.1618417"><ele>793.0</ele><time>2026-03-22T09:16:45.653Z</time></trkpt><trkpt lat="43.711665" lon="12.1618367"><ele>789.0</ele><time>2026-03-22T09:16:46.65Z</time></trkpt><trkpt lat="43.7115017" lon="12.1618283"><ele>785.0</ele><time>2026-03-22T09:16:47.651Z</time></trkpt><trkpt lat="43.7113583" lon="12.1617917"><ele>781.0</ele><time>2026-03-22T09:16:48.651Z</time></trkpt><trkpt lat="43.71123" lon="12.161695"><ele>781.0</ele><time>2026-03-22T09:16:49.651Z</time></trkpt><trkpt lat="43.7111167" lon="12.16154"><ele>781.0</ele><time>2026-03-22T09:16:50.649Z</time></trkpt><trkpt lat="43.7110133" lon="12.1613367"><ele>781.0</ele><time>2026-03-22T09:16:51.651Z</time></trkpt><trkpt lat="43.7109317" lon="12.1611133"><ele>779.6666666666666</ele><time>2026-03-22T09:16:52.651Z</time></trkpt><trkpt lat="43.7108533" lon="12.1608983"><ele>778.3333333333333</ele><time>2026-03-22T09:16:53.65Z</time></trkpt><trkpt lat="43.7107683" lon="12.1607283"><ele>777.0</ele><time>2026-03-22T09:16:54.651Z</time></trkpt><trkpt lat="43.7106567" lon="12.160605"><ele>779.0</ele><time>2026-03-22T09:16:55.65Z</time></trkpt><trkpt lat="43.7105283" lon="12.1605167"><ele>781.0</ele><time>2026-03-22T09:16:56.651Z</time></trkpt><trkpt lat="43.7103633" lon="12.160465"><ele>783.0</ele><time>2026-03-22T09:16:57.651Z</time></trkpt><trkpt lat="43.7101817" lon="12.1604183"><ele>783.0</ele><time>2026-03-22T09:16:58.65Z</time></trkpt><trkpt lat="43.7099967" lon="12.1603367"><ele>783.0</ele><time>2026-03-22T09:16:59.653Z</time></trkpt><trkpt lat="43.70983" lon="12.160225"><ele>783.0</ele><time>2026-03-22T09:17:00.653Z</time></trkpt><trkpt lat="43.7096983" lon="12.1600917"><ele>783.0</ele><time>2026-03-22T09:17:01.654Z</time></trkpt><trkpt lat="43.709595" lon="12.1599483"><ele>783.0</ele><time>2026-03-22T09:17:02.654Z</time></trkpt><trkpt lat="43.70953" lon="12.1598083"><ele>783.0</ele><time>2026-03-22T09:17:03.654Z</time></trkpt><trkpt lat="43.7095083" lon="12.15963"><ele>783.0</ele><time>2026-03-22T09:17:04.654Z</time></trkpt><trkpt lat="43.7095083" lon="12.1594167"><ele>785.3333333333333</ele><time>2026-03-22T09:17:05.654Z</time></trkpt><trkpt lat="43.7095133" lon="12.1591733"><ele>787.6666666666666</ele><time>2026-03-22T09:17:06.653Z</time></trkpt><trkpt lat="43.7095267" lon="12.1588967"><ele>790.0</ele><time>2026-03-22T09:17:07.654Z</time></trkpt><trkpt lat="43.7095383" lon="12.158605"><ele>791.6666666666666</ele><time>2026-03-22T09:17:08.654Z</time></trkpt><trkpt lat="43.7095533" lon="12.1583083"><ele>793.3333333333333</ele><time>2026-03-22T09:17:09.653Z</time></trkpt><trkpt lat="43.70958" lon="12.15801"><ele>795.0</ele><time>2026-03-22T09:17:10.653Z</time></trkpt><trkpt lat="43.7096167" lon="12.1577283"><ele>797.6666666666667</ele><time>2026-03-22T09:17:11.654Z</time></trkpt><trkpt lat="43.7096483" lon="12.1574783"><ele>800.3333333333334</ele><time>2026-03-22T09:17:12.653Z</time></trkpt><trkpt lat="43.7096517" lon="12.1572267"><ele>803.0</ele><time>2026-03-22T09:17:13.654Z</time></trkpt><trkpt lat="43.7096217" lon="12.1569717"><ele>804.3333333333334</ele><time>2026-03-22T09:17:14.653Z</time></trkpt><trkpt lat="43.7095617" lon="12.15671"><ele>805.6666666666667</ele><time>2026-03-22T09:17:15.654Z</time></trkpt><trkpt lat="43.7094917" lon="12.1564367"><ele>807.0</ele><time>2026-03-22T09:17:16.652Z</time></trkpt><trkpt lat="43.70943" lon="12.15615"><ele>801.6666666666667</ele><time>2026-03-22T09:17:17.653Z</time></trkpt><trkpt lat="43.7093733" lon="12.15585"><ele>796.3333333333334</ele><time>2026-03-22T09:17:18.653Z</time></trkpt><trkpt lat="43.70932" lon="12.1555483"><ele>791.0</ele><time>2026-03-22T09:17:19.654Z</time></trkpt><trkpt lat="43.70927" lon="12.1552517"><ele>791.0</ele><time>2026-03-22T09:17:20.651Z</time></trkpt><trkpt lat="43.70922" lon="12.1549767"><ele>791.0</ele><time>2026-03-22T09:17:21.652Z</time></trkpt><trkpt lat="43.7091717" lon="12.15472"><ele>791.0</ele><time>2026-03-22T09:17:22.653Z</time></trkpt><trkpt lat="43.70911" lon="12.1544883"><ele>794.0</ele><time>2026-03-22T09:17:23.654Z</time></trkpt><trkpt lat="43.7090233" lon="12.1542767"><ele>797.0</ele><time>2026-03-22T09:17:24.655Z</time></trkpt><trkpt lat="43.7089133" lon="12.1540817"><ele>800.0</ele><time>2026-03-22T09:17:25.654Z</time></trkpt><trkpt lat="43.708795" lon="12.15391"><ele>801.75</ele><time>2026-03-22T09:17:26.654Z</time></trkpt><trkpt lat="43.7087067" lon="12.1537517"><ele>803.5</ele><time>2026-03-22T09:17:27.655Z</time></trkpt><trkpt lat="43.70866" lon="12.1536"><ele>805.25</ele><time>2026-03-22T09:17:28.655Z</time></trkpt><trkpt lat="43.70866" lon="12.1534467"><ele>807.0</ele><time>2026-03-22T09:17:29.655Z</time></trkpt><trkpt lat="43.7087083" lon="12.15329"><ele>807.0</ele><time>2026-03-22T09:17:30.655Z</time></trkpt><trkpt lat="43.708785" lon="12.1531333"><ele>807.0</ele><time>2026-03-22T09:17:31.654Z</time></trkpt><trkpt lat="43.708855" lon="12.15296"><ele>807.0</ele><time>2026-03-22T09:17:32.655Z</time></trkpt><trkpt lat="43.7089" lon="12.1527433"><ele>807.0</ele><time>2026-03-22T09:17:33.654Z</time></trkpt><trkpt lat="43.7089117" lon="12.15249"><ele>809.6666666666667</ele><time>2026-03-22T09:17:34.655Z</time></trkpt><trkpt lat="43.7088967" lon="12.152225"><ele>812.3333333333334</ele><time>2026-03-22T09:17:35.655Z</time></trkpt><trkpt lat="43.7088667" lon="12.1519917"><ele>815.0</ele><time>2026-03-22T09:17:36.655Z</time></trkpt><trkpt lat="43.70882" lon="12.1518083"><ele>815.0</ele><time>2026-03-22T09:17:37.655Z</time></trkpt><trkpt lat="43.708735" lon="12.1516483"><ele>815.0</ele><time>2026-03-22T09:17:38.654Z</time></trkpt><trkpt lat="43.7086117" lon="12.1515067"><ele>815.0</ele><time>2026-03-22T09:17:39.655Z</time></trkpt><trkpt lat="43.7084583" lon="12.1514083"><ele>814.6666666666667</ele><time>2026-03-22T09:17:40.654Z</time></trkpt><trkpt lat="43.70829" lon="12.15136"><ele>814.3333333333333</ele><time>2026-03-22T09:17:41.655Z</time></trkpt><trkpt lat="43.7081183" lon="12.15136"><ele>814.0</ele><time>2026-03-22T09:17:42.655Z</time></trkpt><trkpt lat="43.7079483" lon="12.15139"><ele>814.0</ele><time>2026-03-22T09:17:43.654Z</time></trkpt><trkpt lat="43.7077917" lon="12.151395"><ele>814.0</ele><time>2026-03-22T09:17:44.655Z</time></trkpt><trkpt lat="43.7076517" lon="12.151345"><ele>814.0</ele><time>2026-03-22T09:17:45.654Z</time></trkpt><trkpt lat="43.7075333" lon="12.151235"><ele>814.0</ele><time>2026-03-22T09:17:46.651Z</time></trkpt><trkpt lat="43.70744" lon="12.15109"><ele>813.3333333333333</ele><time>2026-03-22T09:17:47.651Z</time></trkpt><trkpt lat="43.7073883" lon="12.15087"><ele>812.6666666666667</ele><time>2026-03-22T09:17:48.65Z</time></trkpt><trkpt lat="43.707355" lon="12.1506267"><ele>812.0</ele><time>2026-03-22T09:17:49.652Z</time></trkpt><trkpt lat="43.70732" lon="12.1504033"><ele>812.0</ele><time>2026-03-22T09:17:50.653Z</time></trkpt><trkpt lat="43.7072567" lon="12.1502083"><ele>812.0</ele><time>2026-03-22T09:17:51.651Z</time></trkpt><trkpt lat="43.7071633" lon="12.1500517"><ele>812.0</ele><time>2026-03-22T09:17:52.652Z</time></trkpt><trkpt lat="43.7070483" lon="12.1499433"><ele>812.0</ele><time>2026-03-22T09:17:53.655Z</time></trkpt><trkpt lat="43.706925" lon="12.14989"><ele>812.0</ele><time>2026-03-22T09:17:54.655Z</time></trkpt><trkpt lat="43.7068017" lon="12.1498917"><ele>812.0</ele><time>2026-03-22T09:17:55.654Z</time></trkpt><trkpt lat="43.70669" lon="12.1499517"><ele>812.0</ele><time>2026-03-22T09:17:56.654Z</time></trkpt><trkpt lat="43.7065933" lon="12.150055"><ele>812.0</ele><time>2026-03-22T09:17:57.654Z</time></trkpt><trkpt lat="43.706495" lon="12.1501867"><ele>812.0</ele><time>2026-03-22T09:17:58.655Z</time></trkpt><trkpt lat="43.7063983" lon="12.1503117"><ele>812.0</ele><time>2026-03-22T09:17:59.655Z</time></trkpt><trkpt lat="43.706295" lon="12.1504067"><ele>812.0</ele><time>2026-03-22T09:18:00.655Z</time></trkpt><trkpt lat="43.7061867" lon="12.1504567"><ele>812.0</ele><time>2026-03-22T09:18:01.655Z</time></trkpt><trkpt lat="43.70608" lon="12.1504283"><ele>812.75</ele><time>2026-03-22T09:18:02.655Z</time></trkpt><trkpt lat="43.70598" lon="12.1503467"><ele>813.5</ele><time>2026-03-22T09:18:03.654Z</time></trkpt><trkpt lat="43.7058833" lon="12.1502233"><ele>814.25</ele><time>2026-03-22T09:18:04.655Z</time></trkpt><trkpt lat="43.7057717" lon="12.1500983"><ele>815.0</ele><time>2026-03-22T09:18:05.655Z</time></trkpt><trkpt lat="43.7056433" lon="12.1499883"><ele>815.0</ele><time>2026-03-22T09:18:06.655Z</time></trkpt><trkpt lat="43.7054967" lon="12.14992"><ele>815.0</ele><time>2026-03-22T09:18:07.655Z</time></trkpt><trkpt lat="43.7053517" lon="12.1498667"><ele>815.0</ele><time>2026-03-22T09:18:08.654Z</time></trkpt><trkpt lat="43.70522" lon="12.1498033"><ele>815.0</ele><time>2026-03-22T09:18:09.655Z</time></trkpt><trkpt lat="43.7051267" lon="12.14972"><ele>813.0</ele><time>2026-03-22T09:18:10.655Z</time></trkpt><trkpt lat="43.70507" lon="12.149605"><ele>811.0</ele><time>2026-03-22T09:18:11.65Z</time></trkpt><trkpt lat="43.7050583" lon="12.14948"><ele>809.0</ele><time>2026-03-22T09:18:12.654Z</time></trkpt><trkpt lat="43.705095" lon="12.1493633"><ele>807.0</ele><time>2026-03-22T09:18:13.655Z</time></trkpt><trkpt lat="43.7051517" lon="12.1492517"><ele>805.0</ele><time>2026-03-22T09:18:14.655Z</time></trkpt><trkpt lat="43.70524" lon="12.1491467"><ele>810.0</ele><time>2026-03-22T09:18:15.654Z</time></trkpt><trkpt lat="43.70535" lon="12.1490367"><ele>815.0</ele><time>2026-03-22T09:18:16.654Z</time></trkpt><trkpt lat="43.7054433" lon="12.1489017"><ele>820.0</ele><time>2026-03-22T09:18:17.655Z</time></trkpt><trkpt lat="43.7055267" lon="12.1487467"><ele>825.0</ele><time>2026-03-22T09:18:18.654Z</time></trkpt><trkpt lat="43.7055617" lon="12.14858"><ele>825.0</ele><time>2026-03-22T09:18:19.656Z</time></trkpt><trkpt lat="43.7055483" lon="12.148415"><ele>825.0</ele><time>2026-03-22T09:18:20.654Z</time></trkpt><trkpt lat="43.7055" lon="12.1482683"><ele>825.0</ele><time>2026-03-22T09:18:21.651Z</time></trkpt><trkpt lat="43.70541" lon="12.14814"><ele>825.0</ele><time>2026-03-22T09:18:22.656Z</time></trkpt><trkpt lat="43.70531" lon="12.1480183"><ele>825.5</ele><time>2026-03-22T09:18:23.655Z</time></trkpt><trkpt lat="43.7052367" lon="12.1478733"><ele>826.0</ele><time>2026-03-22T09:18:24.653Z</time></trkpt><trkpt lat="43.7052" lon="12.1477083"><ele>826.5</ele><time>2026-03-22T09:18:25.654Z</time></trkpt><trkpt lat="43.7051967" lon="12.14752"><ele>827.0</ele><time>2026-03-22T09:18:26.655Z</time></trkpt><trkpt lat="43.7051917" lon="12.1473217"><ele>827.0</ele><time>2026-03-22T09:18:27.655Z</time></trkpt><trkpt lat="43.7051567" lon="12.1471283"><ele>827.0</ele><time>2026-03-22T09:18:28.655Z</time></trkpt><trkpt lat="43.7050917" lon="12.1469433"><ele>827.0</ele><time>2026-03-22T09:18:29.655Z</time></trkpt><trkpt lat="43.7050017" lon="12.1467533"><ele>827.0</ele><time>2026-03-22T09:18:30.655Z</time></trkpt><trkpt lat="43.704915" lon="12.14657"><ele>827.0</ele><time>2026-03-22T09:18:31.655Z</time></trkpt><trkpt lat="43.7048467" lon="12.1463733"><ele>827.0</ele><time>2026-03-22T09:18:32.655Z</time></trkpt><trkpt lat="43.7048017" lon="12.1461717"><ele>830.6666666666667</ele><time>2026-03-22T09:18:33.654Z</time></trkpt><trkpt lat="43.704785" lon="12.1459533"><ele>834.3333333333333</ele><time>2026-03-22T09:18:34.651Z</time></trkpt><trkpt lat="43.704785" lon="12.1457183"><ele>838.0</ele><time>2026-03-22T09:18:35.655Z</time></trkpt><trkpt lat="43.7047917" lon="12.145475"><ele>840.0</ele><time>2026-03-22T09:18:36.654Z</time></trkpt><trkpt lat="43.704795" lon="12.14522"><ele>842.0</ele><time>2026-03-22T09:18:37.655Z</time></trkpt><trkpt lat="43.7048017" lon="12.1449667"><ele>844.0</ele><time>2026-03-22T09:18:38.654Z</time></trkpt><trkpt lat="43.7048067" lon="12.14472"><ele>844.3333333333333</ele><time>2026-03-22T09:18:39.654Z</time></trkpt><trkpt lat="43.7048133" lon="12.1444817"><ele>844.6666666666667</ele><time>2026-03-22T09:18:40.655Z</time></trkpt><trkpt lat="43.7048167" lon="12.144275"><ele>845.0</ele><time>2026-03-22T09:18:41.654Z</time></trkpt><trkpt lat="43.704805" lon="12.1440983"><ele>847.0</ele><time>2026-03-22T09:18:42.654Z</time></trkpt><trkpt lat="43.7047683" lon="12.1439433"><ele>849.0</ele><time>2026-03-22T09:18:43.655Z</time></trkpt><trkpt lat="43.7047017" lon="12.14381"><ele>851.0</ele><time>2026-03-22T09:18:44.655Z</time></trkpt><trkpt lat="43.70459" lon="12.143705"><ele>853.0</ele><time>2026-03-22T09:18:45.655Z</time></trkpt><trkpt lat="43.704445" lon="12.1436117"><ele>846.0</ele><time>2026-03-22T09:18:46.654Z</time></trkpt><trkpt lat="43.70432" lon="12.1435167"><ele>839.0</ele><time>2026-03-22T09:18:47.655Z</time></trkpt><trkpt lat="43.7042483" lon="12.1434"><ele>832.0</ele><time>2026-03-22T09:18:48.652Z</time></trkpt><trkpt lat="43.704215" lon="12.1432683"><ele>825.0</ele><time>2026-03-22T09:18:49.654Z</time></trkpt><trkpt lat="43.704225" lon="12.1431333"><ele>823.75</ele><time>2026-03-22T09:18:50.654Z</time></trkpt><trkpt lat="43.7042783" lon="12.1429833"><ele>822.5</ele><time>2026-03-22T09:18:51.654Z</time></trkpt><trkpt lat="43.7043583" lon="12.142815"><ele>821.25</ele><time>2026-03-22T09:18:52.655Z</time></trkpt><trkpt lat="43.7044483" lon="12.14264"><ele>820.0</ele><time>2026-03-22T09:18:53.654Z</time></trkpt><trkpt lat="43.7045517" lon="12.14248"><ele>827.75</ele><time>2026-03-22T09:18:54.655Z</time></trkpt><trkpt lat="43.70465" lon="12.1423467"><ele>835.5</ele><time>2026-03-22T09:18:55.654Z</time></trkpt><trkpt lat="43.7047183" lon="12.1422167"><ele>843.25</ele><time>2026-03-22T09:18:56.655Z</time></trkpt><trkpt lat="43.7047433" lon="12.1420717"><ele>851.0</ele><time>2026-03-22T09:18:57.654Z</time></trkpt><trkpt lat="43.7047333" lon="12.14192"><ele>851.0</ele><time>2026-03-22T09:18:58.65Z</time></trkpt><trkpt lat="43.704675" lon="12.14176"><ele>851.0</ele><time>2026-03-22T09:18:59.655Z</time></trkpt><trkpt lat="43.7045783" lon="12.1415967"><ele>851.0</ele><time>2026-03-22T09:19:00.654Z</time></trkpt><trkpt lat="43.7044567" lon="12.1414367"><ele>846.3333333333334</ele><time>2026-03-22T09:19:01.655Z</time></trkpt><trkpt lat="43.7043133" lon="12.141285"><ele>841.6666666666667</ele><time>2026-03-22T09:19:02.654Z</time></trkpt><trkpt lat="43.7041783" lon="12.14114"><ele>837.0</ele><time>2026-03-22T09:19:03.655Z</time></trkpt><trkpt lat="43.70407" lon="12.14099"><ele>837.0</ele><time>2026-03-22T09:19:04.652Z</time></trkpt><trkpt lat="43.704005" lon="12.1408267"><ele>837.0</ele><time>2026-03-22T09:19:05.655Z</time></trkpt><trkpt lat="43.7040067" lon="12.1406317"><ele>837.0</ele><time>2026-03-22T09:19:06.656Z</time></trkpt><trkpt lat="43.70403" lon="12.1404617"><ele>837.0</ele><time>2026-03-22T09:19:07.654Z</time></trkpt><trkpt lat="43.70409" lon="12.1403267"><ele>834.75</ele><time>2026-03-22T09:19:08.654Z</time></trkpt><trkpt lat="43.7041883" lon="12.1402233"><ele>832.5</ele><time>2026-03-22T09:19:09.655Z</time></trkpt><trkpt lat="43.7043117" lon="12.14014"><ele>830.25</ele><time>2026-03-22T09:19:10.654Z</time></trkpt><trkpt lat="43.704465" lon="12.1400833"><ele>828.0</ele><time>2026-03-22T09:19:11.654Z</time></trkpt><trkpt lat="43.7046367" lon="12.1400633"><ele>832.3333333333333</ele><time>2026-03-22T09:19:12.654Z</time></trkpt><trkpt lat="43.7047917" lon="12.1400267"><ele>836.6666666666666</ele><time>2026-03-22T09:19:13.654Z</time></trkpt><trkpt lat="43.704935" lon="12.139965"><ele>841.0</ele><time>2026-03-22T09:19:14.651Z</time></trkpt><trkpt lat="43.7050633" lon="12.1398733"><ele>841.0</ele><time>2026-03-22T09:19:15.655Z</time></trkpt><trkpt lat="43.7051633" lon="12.1397633"><ele>841.0</ele><time>2026-03-22T09:19:16.655Z</time></trkpt><trkpt lat="43.7052333" lon="12.139645"><ele>841.0</ele><time>2026-03-22T09:19:17.654Z</time></trkpt><trkpt lat="43.7052733" lon="12.1395133"><ele>841.0</ele><time>2026-03-22T09:19:18.655Z</time></trkpt><trkpt lat="43.7052783" lon="12.1393717"><ele>841.0</ele><time>2026-03-22T09:19:19.654Z</time></trkpt><trkpt lat="43.7052533" lon="12.1392467"><ele>841.0</ele><time>2026-03-22T09:19:20.655Z</time></trkpt><trkpt lat="43.7051817" lon="12.1391283"><ele>841.0</ele><time>2026-03-22T09:19:21.654Z</time></trkpt><trkpt lat="43.70509" lon="12.1390117"><ele>841.0</ele><time>2026-03-22T09:19:22.653Z</time></trkpt><trkpt lat="43.704945" lon="12.1388933"><ele>841.0</ele><time>2026-03-22T09:19:23.652Z</time></trkpt><trkpt lat="43.7048167" lon="12.1387767"><ele>842.75</ele><time>2026-03-22T09:19:24.654Z</time></trkpt><trkpt lat="43.704685" lon="12.138685"><ele>844.5</ele><time>2026-03-22T09:19:25.652Z</time></trkpt><trkpt lat="43.7045683" lon="12.138635"><ele>846.25</ele><time>2026-03-22T09:19:26.655Z</time></trkpt><trkpt lat="43.704465" lon="12.1386067"><ele>848.0</ele><time>2026-03-22T09:19:27.651Z</time></trkpt><trkpt lat="43.7043833" lon="12.138575"><ele>848.0</ele><time>2026-03-22T09:19:28.654Z</time></trkpt><trkpt lat="43.7043233" lon="12.1385317"><ele>848.0</ele><time>2026-03-22T09:19:29.655Z</time></trkpt><trkpt lat="43.7043083" lon="12.138425"><ele>848.0</ele><time>2026-03-22T09:19:31.654Z</time></trkpt><trkpt lat="43.7043533" lon="12.138345"><ele>848.0</ele><time>2026-03-22T09:19:32.654Z</time></trkpt><trkpt lat="43.704435" lon="12.13824"><ele>848.0</ele><time>2026-03-22T09:19:33.655Z</time></trkpt><trkpt lat="43.7045283" lon="12.1381183"><ele>846.5</ele><time>2026-03-22T09:19:34.655Z</time></trkpt><trkpt lat="43.70462" lon="12.138"><ele>845.0</ele><time>2026-03-22T09:19:35.655Z</time></trkpt><trkpt lat="43.70472" lon="12.1378783"><ele>843.5</ele><time>2026-03-22T09:19:36.657Z</time></trkpt><trkpt lat="43.7048217" lon="12.1377567"><ele>842.0</ele><time>2026-03-22T09:19:37.651Z</time></trkpt><trkpt lat="43.7049317" lon="12.1376333"><ele>842.0</ele><time>2026-03-22T09:19:38.652Z</time></trkpt><trkpt lat="43.7050317" lon="12.1375133"><ele>842.0</ele><time>2026-03-22T09:19:39.652Z</time></trkpt><trkpt lat="43.70513" lon="12.137395"><ele>842.0</ele><time>2026-03-22T09:19:40.655Z</time></trkpt><trkpt lat="43.7052083" lon="12.1372617"><ele>842.0</ele><time>2026-03-22T09:19:41.651Z</time></trkpt><trkpt lat="43.70527" lon="12.137095"><ele>842.25</ele><time>2026-03-22T09:19:42.653Z</time></trkpt><trkpt lat="43.7053133" lon="12.1369017"><ele>842.5</ele><time>2026-03-22T09:19:43.655Z</time></trkpt><trkpt lat="43.7053383" lon="12.136695"><ele>842.75</ele><time>2026-03-22T09:19:44.654Z</time></trkpt><trkpt lat="43.7053433" lon="12.136495"><ele>843.0</ele><time>2026-03-22T09:19:45.652Z</time></trkpt><trkpt lat="43.705325" lon="12.136315"><ele>840.75</ele><time>2026-03-22T09:19:46.652Z</time></trkpt><trkpt lat="43.7052783" lon="12.1361483"><ele>838.5</ele><time>2026-03-22T09:19:47.655Z</time></trkpt><trkpt lat="43.705185" lon="12.1360017"><ele>836.25</ele><time>2026-03-22T09:19:48.655Z</time></trkpt><trkpt lat="43.70508" lon="12.135875"><ele>834.0</ele><time>2026-03-22T09:19:49.654Z</time></trkpt><trkpt lat="43.704995" lon="12.1357467"><ele>832.2</ele><time>2026-03-22T09:19:50.651Z</time></trkpt><trkpt lat="43.7049417" lon="12.1356"><ele>830.4000000000001</ele><time>2026-03-22T09:19:51.654Z</time></trkpt><trkpt lat="43.7049317" lon="12.1354517"><ele>828.6</ele><time>2026-03-22T09:19:52.655Z</time></trkpt><trkpt lat="43.7049617" lon="12.1353067"><ele>826.8</ele><time>2026-03-22T09:19:53.655Z</time></trkpt><trkpt lat="43.70503" lon="12.1351833"><ele>825.0</ele><time>2026-03-22T09:19:54.654Z</time></trkpt><trkpt lat="43.7051367" lon="12.13509"><ele>824.75</ele><time>2026-03-22T09:19:55.654Z</time></trkpt><trkpt lat="43.7052583" lon="12.13504"><ele>824.5</ele><time>2026-03-22T09:19:56.654Z</time></trkpt><trkpt lat="43.70539" lon="12.1350417"><ele>824.25</ele><time>2026-03-22T09:19:57.655Z</time></trkpt><trkpt lat="43.7055283" lon="12.1351"><ele>824.0</ele><time>2026-03-22T09:19:58.654Z</time></trkpt><trkpt lat="43.7056667" lon="12.1351883"><ele>824.0</ele><time>2026-03-22T09:19:59.655Z</time></trkpt><trkpt lat="43.7058067" lon="12.1352767"><ele>824.0</ele><time>2026-03-22T09:20:00.654Z</time></trkpt><trkpt lat="43.70595" lon="12.1353633"><ele>824.0</ele><time>2026-03-22T09:20:01.655Z</time></trkpt><trkpt lat="43.70609" lon="12.13544"><ele>823.75</ele><time>2026-03-22T09:20:02.654Z</time></trkpt><trkpt lat="43.70622" lon="12.13549"><ele>823.5</ele><time>2026-03-22T09:20:03.655Z</time></trkpt><trkpt lat="43.70634" lon="12.1355083"><ele>823.25</ele><time>2026-03-22T09:20:04.655Z</time></trkpt><trkpt lat="43.7064533" lon="12.13547"><ele>823.0</ele><time>2026-03-22T09:20:05.654Z</time></trkpt><trkpt lat="43.7065567" lon="12.135365"><ele>823.0</ele><time>2026-03-22T09:20:06.655Z</time></trkpt><trkpt lat="43.7066433" lon="12.135205"><ele>823.0</ele><time>2026-03-22T09:20:07.654Z</time></trkpt><trkpt lat="43.7067083" lon="12.1350067"><ele>823.0</ele><time>2026-03-22T09:20:08.655Z</time></trkpt><trkpt lat="43.7067683" lon="12.13479"><ele>821.0</ele><time>2026-03-22T09:20:09.652Z</time></trkpt><trkpt lat="43.7068333" lon="12.1345733"><ele>819.0</ele><time>2026-03-22T09:20:10.655Z</time></trkpt><trkpt lat="43.7069" lon="12.1343683"><ele>817.0</ele><time>2026-03-22T09:20:11.65Z</time></trkpt><trkpt lat="43.7069733" lon="12.1341833"><ele>814.0</ele><time>2026-03-22T09:20:12.653Z</time></trkpt><trkpt lat="43.7070633" lon="12.1340233"><ele>811.0</ele><time>2026-03-22T09:20:13.654Z</time></trkpt><trkpt lat="43.707175" lon="12.1338833"><ele>808.0</ele><time>2026-03-22T09:20:14.653Z</time></trkpt><trkpt lat="43.7073067" lon="12.133765"><ele>808.0</ele><time>2026-03-22T09:20:15.653Z</time></trkpt><trkpt lat="43.7074533" lon="12.1336567"><ele>808.0</ele><time>2026-03-22T09:20:16.655Z</time></trkpt><trkpt lat="43.7076083" lon="12.133555"><ele>808.0</ele><time>2026-03-22T09:20:17.65Z</time></trkpt><trkpt lat="43.707775" lon="12.1334467"><ele>809.6666666666666</ele><time>2026-03-22T09:20:18.654Z</time></trkpt><trkpt lat="43.7079417" lon="12.1333317"><ele>811.3333333333333</ele><time>2026-03-22T09:20:19.654Z</time></trkpt><trkpt lat="43.7080983" lon="12.13323"><ele>813.0</ele><time>2026-03-22T09:20:20.655Z</time></trkpt><trkpt lat="43.7082433" lon="12.1331383"><ele>811.0</ele><time>2026-03-22T09:20:21.655Z</time></trkpt><trkpt lat="43.7083667" lon="12.133045"><ele>809.0</ele><time>2026-03-22T09:20:22.655Z</time></trkpt><trkpt lat="43.70847" lon="12.1329367"><ele>807.0</ele><time>2026-03-22T09:20:23.654Z</time></trkpt><trkpt lat="43.7085567" lon="12.1327983"><ele>805.0</ele><time>2026-03-22T09:20:24.654Z</time></trkpt><trkpt lat="43.7085867" lon="12.1326283"><ele>804.25</ele><time>2026-03-22T09:20:25.655Z</time></trkpt><trkpt lat="43.7085633" lon="12.1324483"><ele>803.5</ele><time>2026-03-22T09:20:26.655Z</time></trkpt><trkpt lat="43.7084983" lon="12.132295"><ele>802.75</ele><time>2026-03-22T09:20:27.654Z</time></trkpt><trkpt lat="43.7084067" lon="12.1321733"><ele>802.0</ele><time>2026-03-22T09:20:28.655Z</time></trkpt><trkpt lat="43.7082833" lon="12.1320883"><ele>798.6666666666666</ele><time>2026-03-22T09:20:29.655Z</time></trkpt><trkpt lat="43.7081267" lon="12.1320367"><ele>795.3333333333333</ele><time>2026-03-22T09:20:30.655Z</time></trkpt><trkpt lat="43.7079417" lon="12.13201"><ele>792.0</ele><time>2026-03-22T09:20:31.651Z</time></trkpt><trkpt lat="43.7077433" lon="12.1319783"><ele>790.6666666666667</ele><time>2026-03-22T09:20:32.654Z</time></trkpt><trkpt lat="43.707545" lon="12.131935"><ele>789.3333333333334</ele><time>2026-03-22T09:20:33.655Z</time></trkpt><trkpt lat="43.7073567" lon="12.1318867"><ele>788.0</ele><time>2026-03-22T09:20:34.654Z</time></trkpt><trkpt lat="43.7071833" lon="12.1318233"><ele>788.0</ele><time>2026-03-22T09:20:35.654Z</time></trkpt><trkpt lat="43.7070133" lon="12.1317417"><ele>788.0</ele><time>2026-03-22T09:20:36.652Z</time></trkpt><trkpt lat="43.7068483" lon="12.13161"><ele>788.0</ele><time>2026-03-22T09:20:37.652Z</time></trkpt><trkpt lat="43.706685" lon="12.1314417"><ele>784.3333333333334</ele><time>2026-03-22T09:20:38.654Z</time></trkpt><trkpt lat="43.7065167" lon="12.1312433"><ele>780.6666666666667</ele><time>2026-03-22T09:20:39.655Z</time></trkpt><trkpt lat="43.7063483" lon="12.131045"><ele>777.0</ele><time>2026-03-22T09:20:40.651Z</time></trkpt><trkpt lat="43.7061917" lon="12.1308683"><ele>774.0</ele><time>2026-03-22T09:20:41.651Z</time></trkpt><trkpt lat="43.7060517" lon="12.1307233"><ele>771.0</ele><time>2026-03-22T09:20:42.652Z</time></trkpt><trkpt lat="43.70592" lon="12.1306117"><ele>768.0</ele><time>2026-03-22T09:20:43.654Z</time></trkpt><trkpt lat="43.7057783" lon="12.13054"><ele>768.0</ele><time>2026-03-22T09:20:44.651Z</time></trkpt><trkpt lat="43.7056183" lon="12.1304967"><ele>768.0</ele><time>2026-03-22T09:20:45.652Z</time></trkpt><trkpt lat="43.7054367" lon="12.1304983"><ele>768.0</ele><time>2026-03-22T09:20:46.651Z</time></trkpt><trkpt lat="43.7052617" lon="12.13051"><ele>768.75</ele><time>2026-03-22T09:20:47.654Z</time></trkpt><trkpt lat="43.7051067" lon="12.1305183"><ele>769.5</ele><time>2026-03-22T09:20:48.651Z</time></trkpt><trkpt lat="43.704975" lon="12.1305083"><ele>770.25</ele><time>2026-03-22T09:20:49.655Z</time></trkpt><trkpt lat="43.7048683" lon="12.1304533"><ele>771.0</ele><time>2026-03-22T09:20:50.655Z</time></trkpt><trkpt lat="43.7047917" lon="12.1303433"><ele>771.0</ele><time>2026-03-22T09:20:51.653Z</time></trkpt><trkpt lat="43.7047433" lon="12.130175"><ele>771.0</ele><time>2026-03-22T09:20:52.652Z</time></trkpt><trkpt lat="43.7047083" lon="12.1299917"><ele>771.0</ele><time>2026-03-22T09:20:53.655Z</time></trkpt><trkpt lat="43.7047067" lon="12.1298017"><ele>771.0</ele><time>2026-03-22T09:20:54.654Z</time></trkpt><trkpt lat="43.7047417" lon="12.129625"><ele>773.5</ele><time>2026-03-22T09:20:55.655Z</time></trkpt><trkpt lat="43.7048067" lon="12.12948"><ele>776.0</ele><time>2026-03-22T09:20:56.651Z</time></trkpt><trkpt lat="43.7049067" lon="12.12936"><ele>778.5</ele><time>2026-03-22T09:20:57.654Z</time></trkpt><trkpt lat="43.705035" lon="12.1292617"><ele>781.0</ele><time>2026-03-22T09:20:58.651Z</time></trkpt><trkpt lat="43.7051783" lon="12.1291633"><ele>782.6666666666666</ele><time>2026-03-22T09:20:59.652Z</time></trkpt><trkpt lat="43.7053383" lon="12.12907"><ele>784.3333333333333</ele><time>2026-03-22T09:21:00.652Z</time></trkpt><trkpt lat="43.7055117" lon="12.1289633"><ele>786.0</ele><time>2026-03-22T09:21:01.655Z</time></trkpt><trkpt lat="43.70568" lon="12.1288567"><ele>786.0</ele><time>2026-03-22T09:21:02.654Z</time></trkpt><trkpt lat="43.7058483" lon="12.1287433"><ele>786.0</ele><time>2026-03-22T09:21:03.651Z</time></trkpt><trkpt lat="43.7060183" lon="12.1286367"><ele>786.0</ele><time>2026-03-22T09:21:04.651Z</time></trkpt><trkpt lat="43.7061867" lon="12.12853"><ele>784.6666666666667</ele><time>2026-03-22T09:21:05.65Z</time></trkpt><trkpt lat="43.706355" lon="12.1284233"><ele>783.3333333333334</ele><time>2026-03-22T09:21:06.655Z</time></trkpt><trkpt lat="43.706535" lon="12.128315"><ele>782.0</ele><time>2026-03-22T09:21:07.653Z</time></trkpt><trkpt lat="43.7067133" lon="12.1282083"><ele>783.3333333333334</ele><time>2026-03-22T09:21:08.654Z</time></trkpt><trkpt lat="43.7068833" lon="12.12811"><ele>784.6666666666667</ele><time>2026-03-22T09:21:09.655Z</time></trkpt><trkpt lat="43.707035" lon="12.1279983"><ele>786.0</ele><time>2026-03-22T09:21:10.654Z</time></trkpt><trkpt lat="43.7071783" lon="12.1278767"><ele>786.0</ele><time>2026-03-22T09:21:11.65Z</time></trkpt><trkpt lat="43.7073183" lon="12.12771"><ele>786.0</ele><time>2026-03-22T09:21:12.655Z</time></trkpt><trkpt lat="43.7074583" lon="12.1275317"><ele>786.0</ele><time>2026-03-22T09:21:13.655Z</time></trkpt><trkpt lat="43.7076017" lon="12.1273433"><ele>781.6666666666667</ele><time>2026-03-22T09:21:14.655Z</time></trkpt><trkpt lat="43.7077517" lon="12.1271417"><ele>777.3333333333334</ele><time>2026-03-22T09:21:15.654Z</time></trkpt><trkpt lat="43.7079083" lon="12.1269333"><ele>773.0</ele><time>2026-03-22T09:21:16.655Z</time></trkpt><trkpt lat="43.708065" lon="12.1267167"><ele>779.5</ele><time>2026-03-22T09:21:17.654Z</time></trkpt><trkpt lat="43.7082283" lon="12.126495"><ele>786.0</ele><time>2026-03-22T09:21:18.655Z</time></trkpt><trkpt lat="43.7084" lon="12.1262867"><ele>775.0</ele><time>2026-03-22T09:21:19.655Z</time></trkpt><trkpt lat="43.7085767" lon="12.12609"><ele>764.0</ele><time>2026-03-22T09:21:20.655Z</time></trkpt><trkpt lat="43.7087633" lon="12.1259033"><ele>771.0</ele><time>2026-03-22T09:21:21.655Z</time></trkpt><trkpt lat="43.7089533" lon="12.1257267"><ele>778.0</ele><time>2026-03-22T09:21:22.654Z</time></trkpt><trkpt lat="43.7091383" lon="12.1255533"><ele>778.0</ele><time>2026-03-22T09:21:23.654Z</time></trkpt><trkpt lat="43.7093117" lon="12.1253783"><ele>778.0</ele><time>2026-03-22T09:21:24.654Z</time></trkpt><trkpt lat="43.7094717" lon="12.1252233"><ele>778.0</ele><time>2026-03-22T09:21:25.657Z</time></trkpt><trkpt lat="43.7096167" lon="12.12508"><ele>779.3333333333333</ele><time>2026-03-22T09:21:26.651Z</time></trkpt><trkpt lat="43.7097583" lon="12.124955"><ele>780.6666666666667</ele><time>2026-03-22T09:21:27.651Z</time></trkpt><trkpt lat="43.709905" lon="12.12488"><ele>782.0</ele><time>2026-03-22T09:21:28.653Z</time></trkpt><trkpt lat="43.710065" lon="12.1248617"><ele>782.0</ele><time>2026-03-22T09:21:29.65Z</time></trkpt><trkpt lat="43.7102317" lon="12.12489"><ele>782.0</ele><time>2026-03-22T09:21:30.654Z</time></trkpt><trkpt lat="43.7104" lon="12.1249233"><ele>782.0</ele><time>2026-03-22T09:21:31.651Z</time></trkpt><trkpt lat="43.7105517" lon="12.1249533"><ele>776.0</ele><time>2026-03-22T09:21:32.654Z</time></trkpt><trkpt lat="43.7106867" lon="12.1249567"><ele>770.0</ele><time>2026-03-22T09:21:33.65Z</time></trkpt><trkpt lat="43.7108183" lon="12.1249117"><ele>764.0</ele><time>2026-03-22T09:21:34.654Z</time></trkpt><trkpt lat="43.7109433" lon="12.124795"><ele>758.0</ele><time>2026-03-22T09:21:35.651Z</time></trkpt><trkpt lat="43.7110467" lon="12.124615"><ele>751.0</ele><time>2026-03-22T09:21:36.651Z</time></trkpt><trkpt lat="43.7111167" lon="12.1243933"><ele>744.0</ele><time>2026-03-22T09:21:37.655Z</time></trkpt><trkpt lat="43.7111567" lon="12.1241617"><ele>737.0</ele><time>2026-03-22T09:21:38.65Z</time></trkpt><trkpt lat="43.711165" lon="12.12391"><ele>736.3333333333333</ele><time>2026-03-22T09:21:39.655Z</time></trkpt><trkpt lat="43.7111617" lon="12.1236433"><ele>735.6666666666666</ele><time>2026-03-22T09:21:40.65Z</time></trkpt><trkpt lat="43.7111533" lon="12.1233883"><ele>735.0</ele><time>2026-03-22T09:21:41.651Z</time></trkpt><trkpt lat="43.7111517" lon="12.1231783"><ele>734.4</ele><time>2026-03-22T09:21:42.654Z</time></trkpt><trkpt lat="43.7111683" lon="12.1229933"><ele>733.8</ele><time>2026-03-22T09:21:43.65Z</time></trkpt><trkpt lat="43.711205" lon="12.1228367"><ele>733.2</ele><time>2026-03-22T09:21:44.65Z</time></trkpt><trkpt lat="43.71127" lon="12.1227333"><ele>732.6</ele><time>2026-03-22T09:21:45.651Z</time></trkpt><trkpt lat="43.7113583" lon="12.1226833"><ele>732.0</ele><time>2026-03-22T09:21:46.65Z</time></trkpt><trkpt lat="43.71147" lon="12.1226817"><ele>732.0</ele><time>2026-03-22T09:21:47.65Z</time></trkpt><trkpt lat="43.7115833" lon="12.1227183"><ele>732.0</ele><time>2026-03-22T09:21:48.651Z</time></trkpt><trkpt lat="43.7116783" lon="12.1228083"><ele>732.0</ele><time>2026-03-22T09:21:49.651Z</time></trkpt><trkpt lat="43.71173" lon="12.12296"><ele>732.0</ele><time>2026-03-22T09:21:50.651Z</time></trkpt><trkpt lat="43.7117467" lon="12.1231567"><ele>733.0</ele><time>2026-03-22T09:21:51.65Z</time></trkpt><trkpt lat="43.7117467" lon="12.1233933"><ele>734.0</ele><time>2026-03-22T09:21:52.653Z</time></trkpt><trkpt lat="43.7117467" lon="12.1236633"><ele>735.0</ele><time>2026-03-22T09:21:53.654Z</time></trkpt><trkpt lat="43.7117533" lon="12.12392"><ele>735.6666666666666</ele><time>2026-03-22T09:21:54.655Z</time></trkpt><trkpt lat="43.7117667" lon="12.1241733"><ele>736.3333333333333</ele><time>2026-03-22T09:21:55.655Z</time></trkpt><trkpt lat="43.7117783" lon="12.1244267"><ele>737.0</ele><time>2026-03-22T09:21:56.655Z</time></trkpt><trkpt lat="43.7117867" lon="12.1246733"><ele>735.0</ele><time>2026-03-22T09:21:57.652Z</time></trkpt><trkpt lat="43.7117733" lon="12.1249117"><ele>733.0</ele><time>2026-03-22T09:21:58.651Z</time></trkpt><trkpt lat="43.71173" lon="12.1251383"><ele>731.0</ele><time>2026-03-22T09:21:59.651Z</time></trkpt><trkpt lat="43.7116667" lon="12.1253667"><ele>731.0</ele><time>2026-03-22T09:22:00.651Z</time></trkpt><trkpt lat="43.711585" lon="12.1255983"><ele>731.0</ele><time>2026-03-22T09:22:01.651Z</time></trkpt><trkpt lat="43.7115033" lon="12.12583"><ele>731.0</ele><time>2026-03-22T09:22:02.651Z</time></trkpt><trkpt lat="43.711425" lon="12.1260567"><ele>729.5</ele><time>2026-03-22T09:22:03.651Z</time></trkpt><trkpt lat="43.71136" lon="12.1262517"><ele>728.0</ele><time>2026-03-22T09:22:04.651Z</time></trkpt><trkpt lat="43.711325" lon="12.1264267"><ele>726.5</ele><time>2026-03-22T09:22:05.65Z</time></trkpt><trkpt lat="43.71133" lon="12.12659"><ele>725.0</ele><time>2026-03-22T09:22:06.653Z</time></trkpt><trkpt lat="43.7113683" lon="12.126735"><ele>724.0</ele><time>2026-03-22T09:22:07.651Z</time></trkpt><trkpt lat="43.7114583" lon="12.1268533"><ele>723.0</ele><time>2026-03-22T09:22:08.65Z</time></trkpt><trkpt lat="43.71159" lon="12.1269433"><ele>722.0</ele><time>2026-03-22T09:22:09.651Z</time></trkpt><trkpt lat="43.71174" lon="12.1269967"><ele>721.0</ele><time>2026-03-22T09:22:10.653Z</time></trkpt><trkpt lat="43.71188" lon="12.12701"><ele>718.25</ele><time>2026-03-22T09:22:11.651Z</time></trkpt><trkpt lat="43.712" lon="12.1269733"><ele>715.5</ele><time>2026-03-22T09:22:12.653Z</time></trkpt><trkpt lat="43.7120917" lon="12.1268883"><ele>712.75</ele><time>2026-03-22T09:22:13.652Z</time></trkpt><trkpt lat="43.7121633" lon="12.126765"><ele>710.0</ele><time>2026-03-22T09:22:14.651Z</time></trkpt><trkpt lat="43.71221" lon="12.1265883"><ele>710.0</ele><time>2026-03-22T09:22:15.65Z</time></trkpt><trkpt lat="43.712245" lon="12.1263917"><ele>710.0</ele><time>2026-03-22T09:22:16.65Z</time></trkpt><trkpt lat="43.712275" lon="12.12617"><ele>710.0</ele><time>2026-03-22T09:22:17.65Z</time></trkpt><trkpt lat="43.7123067" lon="12.1259267"><ele>709.6666666666666</ele><time>2026-03-22T09:22:18.651Z</time></trkpt><trkpt lat="43.7123383" lon="12.1256783"><ele>709.3333333333334</ele><time>2026-03-22T09:22:19.652Z</time></trkpt><trkpt lat="43.7123817" lon="12.12543"><ele>709.0</ele><time>2026-03-22T09:22:20.651Z</time></trkpt><trkpt lat="43.712435" lon="12.1251833"><ele>709.0</ele><time>2026-03-22T09:22:21.65Z</time></trkpt><trkpt lat="43.7125167" lon="12.1249367"><ele>709.0</ele><time>2026-03-22T09:22:22.652Z</time></trkpt><trkpt lat="43.7126133" lon="12.1247"><ele>709.0</ele><time>2026-03-22T09:22:23.653Z</time></trkpt><trkpt lat="43.7127067" lon="12.124475"><ele>703.6666666666667</ele><time>2026-03-22T09:22:24.654Z</time></trkpt><trkpt lat="43.71279" lon="12.1242783"><ele>698.3333333333334</ele><time>2026-03-22T09:22:25.654Z</time></trkpt><trkpt lat="43.7128567" lon="12.124095"><ele>693.0</ele><time>2026-03-22T09:22:26.655Z</time></trkpt><trkpt lat="43.7128983" lon="12.123905"><ele>693.0</ele><time>2026-03-22T09:22:27.655Z</time></trkpt><trkpt lat="43.7129033" lon="12.123685"><ele>693.0</ele><time>2026-03-22T09:22:28.654Z</time></trkpt><trkpt lat="43.712875" lon="12.1234517"><ele>693.0</ele><time>2026-03-22T09:22:29.653Z</time></trkpt><trkpt lat="43.7128433" lon="12.1232233"><ele>693.5</ele><time>2026-03-22T09:22:30.653Z</time></trkpt><trkpt lat="43.7128333" lon="12.12301"><ele>694.0</ele><time>2026-03-22T09:22:31.651Z</time></trkpt><trkpt lat="43.7128467" lon="12.1228167"><ele>694.5</ele><time>2026-03-22T09:22:32.653Z</time></trkpt><trkpt lat="43.71289" lon="12.1226417"><ele>695.0</ele><time>2026-03-22T09:22:33.65Z</time></trkpt><trkpt lat="43.712955" lon="12.1224917"><ele>696.25</ele><time>2026-03-22T09:22:34.651Z</time></trkpt><trkpt lat="43.713045" lon="12.12238"><ele>697.5</ele><time>2026-03-22T09:22:35.65Z</time></trkpt><trkpt lat="43.713155" lon="12.1223217"><ele>698.75</ele><time>2026-03-22T09:22:36.653Z</time></trkpt><trkpt lat="43.71328" lon="12.122315"><ele>700.0</ele><time>2026-03-22T09:22:37.652Z</time></trkpt><trkpt lat="43.7134133" lon="12.1223367"><ele>700.0</ele><time>2026-03-22T09:22:38.652Z</time></trkpt><trkpt lat="43.7135683" lon="12.1223633"><ele>700.0</ele><time>2026-03-22T09:22:39.651Z</time></trkpt><trkpt lat="43.713735" lon="12.1223983"><ele>700.0</ele><time>2026-03-22T09:22:40.653Z</time></trkpt><trkpt lat="43.7139217" lon="12.1224217"><ele>699.0</ele><time>2026-03-22T09:22:41.651Z</time></trkpt><trkpt lat="43.7141033" lon="12.122445"><ele>698.0</ele><time>2026-03-22T09:22:42.651Z</time></trkpt><trkpt lat="43.71427" lon="12.1224817"><ele>697.0</ele><time>2026-03-22T09:22:43.652Z</time></trkpt><trkpt lat="43.7144083" lon="12.12254"><ele>701.5</ele><time>2026-03-22T09:22:44.65Z</time></trkpt><trkpt lat="43.7145133" lon="12.1226333"><ele>706.0</ele><time>2026-03-22T09:22:45.651Z</time></trkpt><trkpt lat="43.7145733" lon="12.1227817"><ele>710.5</ele><time>2026-03-22T09:22:46.65Z</time></trkpt><trkpt lat="43.71457" lon="12.1229983"><ele>715.0</ele><time>2026-03-22T09:22:47.651Z</time></trkpt><trkpt lat="43.714525" lon="12.1232267"><ele>715.0</ele><time>2026-03-22T09:22:48.652Z</time></trkpt><trkpt lat="43.71446" lon="12.1234433"><ele>715.0</ele><time>2026-03-22T09:22:49.651Z</time></trkpt><trkpt lat="43.7144017" lon="12.1236533"><ele>715.0</ele><time>2026-03-22T09:22:50.651Z</time></trkpt><trkpt lat="43.7143767" lon="12.1238583"><ele>715.6666666666667</ele><time>2026-03-22T09:22:51.65Z</time></trkpt><trkpt lat="43.71439" lon="12.124065"><ele>716.3333333333334</ele><time>2026-03-22T09:22:52.651Z</time></trkpt><trkpt lat="43.71444" lon="12.1242717"><ele>717.0</ele><time>2026-03-22T09:22:53.655Z</time></trkpt><trkpt lat="43.7145233" lon="12.1244767"><ele>717.0</ele><time>2026-03-22T09:22:54.655Z</time></trkpt><trkpt lat="43.714625" lon="12.124695"><ele>717.0</ele><time>2026-03-22T09:22:55.654Z</time></trkpt><trkpt lat="43.714735" lon="12.124935"><ele>717.0</ele><time>2026-03-22T09:22:56.654Z</time></trkpt><trkpt lat="43.7148467" lon="12.125185"><ele>717.0</ele><time>2026-03-22T09:22:57.65Z</time></trkpt><trkpt lat="43.7149583" lon="12.1254417"><ele>717.0</ele><time>2026-03-22T09:22:58.654Z</time></trkpt><trkpt lat="43.71506" lon="12.1257133"><ele>717.0</ele><time>2026-03-22T09:22:59.653Z</time></trkpt><trkpt lat="43.7151467" lon="12.12599"><ele>717.6666666666666</ele><time>2026-03-22T09:23:00.654Z</time></trkpt><trkpt lat="43.7152167" lon="12.1262733"><ele>718.3333333333333</ele><time>2026-03-22T09:23:01.651Z</time></trkpt><trkpt lat="43.7152733" lon="12.1265383"><ele>719.0</ele><time>2026-03-22T09:23:02.65Z</time></trkpt><trkpt lat="43.7153267" lon="12.126775"><ele>722.3333333333333</ele><time>2026-03-22T09:23:03.65Z</time></trkpt><trkpt lat="43.7153883" lon="12.1269917"><ele>725.6666666666666</ele><time>2026-03-22T09:23:04.651Z</time></trkpt><trkpt lat="43.71547" lon="12.1271933"><ele>729.0</ele><time>2026-03-22T09:23:05.65Z</time></trkpt><trkpt lat="43.7155917" lon="12.1273867"><ele>727.6666666666666</ele><time>2026-03-22T09:23:06.65Z</time></trkpt><trkpt lat="43.71575" lon="12.12756"><ele>726.3333333333333</ele><time>2026-03-22T09:23:07.651Z</time></trkpt><trkpt lat="43.7159083" lon="12.1277233"><ele>725.0</ele><time>2026-03-22T09:23:08.652Z</time></trkpt><trkpt lat="43.7160433" lon="12.1278667"><ele>728.0</ele><time>2026-03-22T09:23:09.65Z</time></trkpt><trkpt lat="43.716155" lon="12.12798"><ele>731.0</ele><time>2026-03-22T09:23:10.655Z</time></trkpt><trkpt lat="43.7162617" lon="12.12804"><ele>734.0</ele><time>2026-03-22T09:23:11.651Z</time></trkpt><trkpt lat="43.7163683" lon="12.128045"><ele>737.0</ele><time>2026-03-22T09:23:12.655Z</time></trkpt><trkpt lat="43.7164767" lon="12.1279833"><ele>737.0</ele><time>2026-03-22T09:23:13.655Z</time></trkpt><trkpt lat="43.7165567" lon="12.1278533"><ele>737.0</ele><time>2026-03-22T09:23:14.654Z</time></trkpt><trkpt lat="43.7166017" lon="12.1276817"><ele>737.0</ele><time>2026-03-22T09:23:15.654Z</time></trkpt><trkpt lat="43.7165983" lon="12.1274617"><ele>737.0</ele><time>2026-03-22T09:23:16.651Z</time></trkpt><trkpt lat="43.7165633" lon="12.127215"><ele>739.6666666666666</ele><time>2026-03-22T09:23:17.651Z</time></trkpt><trkpt lat="43.7165183" lon="12.1269467"><ele>742.3333333333334</ele><time>2026-03-22T09:23:18.65Z</time></trkpt><trkpt lat="43.716475" lon="12.12668"><ele>745.0</ele><time>2026-03-22T09:23:19.651Z</time></trkpt><trkpt lat="43.7164383" lon="12.1264433"><ele>746.5</ele><time>2026-03-22T09:23:20.65Z</time></trkpt><trkpt lat="43.7164133" lon="12.1262283"><ele>748.0</ele><time>2026-03-22T09:23:21.65Z</time></trkpt><trkpt lat="43.7163967" lon="12.12603"><ele>749.5</ele><time>2026-03-22T09:23:22.652Z</time></trkpt><trkpt lat="43.7163967" lon="12.12584"><ele>751.0</ele><time>2026-03-22T09:23:23.651Z</time></trkpt><trkpt lat="43.71641" lon="12.1256517"><ele>751.0</ele><time>2026-03-22T09:23:24.651Z</time></trkpt><trkpt lat="43.716425" lon="12.1254633"><ele>751.0</ele><time>2026-03-22T09:23:25.651Z</time></trkpt><trkpt lat="43.7164367" lon="12.1252683"><ele>751.0</ele><time>2026-03-22T09:23:26.65Z</time></trkpt><trkpt lat="43.71645" lon="12.125055"><ele>751.0</ele><time>2026-03-22T09:23:27.65Z</time></trkpt><trkpt lat="43.7164617" lon="12.1248367"><ele>749.75</ele><time>2026-03-22T09:23:28.65Z</time></trkpt><trkpt lat="43.71648" lon="12.1246283"><ele>748.5</ele><time>2026-03-22T09:23:29.651Z</time></trkpt><trkpt lat="43.7165167" lon="12.1244417"><ele>747.25</ele><time>2026-03-22T09:23:30.65Z</time></trkpt><trkpt lat="43.716585" lon="12.1242633"><ele>746.0</ele><time>2026-03-22T09:23:31.655Z</time></trkpt><trkpt lat="43.716695" lon="12.1241033"><ele>745.6666666666666</ele><time>2026-03-22T09:23:32.65Z</time></trkpt><trkpt lat="43.7168417" lon="12.1239633"><ele>745.3333333333334</ele><time>2026-03-22T09:23:33.653Z</time></trkpt><trkpt lat="43.7170167" lon="12.1238333"><ele>745.0</ele><time>2026-03-22T09:23:34.652Z</time></trkpt><trkpt lat="43.7171967" lon="12.1236933"><ele>747.3333333333334</ele><time>2026-03-22T09:23:35.652Z</time></trkpt><trkpt lat="43.717375" lon="12.1235467"><ele>749.6666666666666</ele><time>2026-03-22T09:23:36.652Z</time></trkpt><trkpt lat="43.7175517" lon="12.1233983"><ele>752.0</ele><time>2026-03-22T09:23:37.658Z</time></trkpt><trkpt lat="43.7177183" lon="12.1232683"><ele>759.0</ele><time>2026-03-22T09:23:38.65Z</time></trkpt><trkpt lat="43.7178633" lon="12.12315"><ele>766.0</ele><time>2026-03-22T09:23:39.652Z</time></trkpt><trkpt lat="43.7179767" lon="12.1230083"><ele>773.0</ele><time>2026-03-22T09:23:40.653Z</time></trkpt><trkpt lat="43.7180417" lon="12.1228433"><ele>773.0</ele><time>2026-03-22T09:23:41.652Z</time></trkpt><trkpt lat="43.7180617" lon="12.12267"><ele>773.0</ele><time>2026-03-22T09:23:42.655Z</time></trkpt><trkpt lat="43.71805" lon="12.1224983"><ele>773.0</ele><time>2026-03-22T09:23:43.65Z</time></trkpt><trkpt lat="43.7179917" lon="12.1223133"><ele>773.0</ele><time>2026-03-22T09:23:44.655Z</time></trkpt><trkpt lat="43.7178883" lon="12.1221267"><ele>774.6666666666667</ele><time>2026-03-22T09:23:45.653Z</time></trkpt><trkpt lat="43.7177717" lon="12.1219483"><ele>776.3333333333333</ele><time>2026-03-22T09:23:46.654Z</time></trkpt><trkpt lat="43.7176683" lon="12.121785"><ele>778.0</ele><time>2026-03-22T09:23:47.653Z</time></trkpt><trkpt lat="43.7176017" lon="12.12162"><ele>779.5</ele><time>2026-03-22T09:23:48.655Z</time></trkpt><trkpt lat="43.71758" lon="12.1214433"><ele>781.0</ele><time>2026-03-22T09:23:49.654Z</time></trkpt><trkpt lat="43.7176017" lon="12.1212667"><ele>782.5</ele><time>2026-03-22T09:23:50.654Z</time></trkpt><trkpt lat="43.717655" lon="12.1211033"><ele>784.0</ele><time>2026-03-22T09:23:51.654Z</time></trkpt><trkpt lat="43.717745" lon="12.12098"><ele>784.0</ele><time>2026-03-22T09:23:52.657Z</time></trkpt><trkpt lat="43.7178667" lon="12.1209167"><ele>784.0</ele><time>2026-03-22T09:23:53.654Z</time></trkpt><trkpt lat="43.7180017" lon="12.120935"><ele>784.0</ele><time>2026-03-22T09:23:54.654Z</time></trkpt><trkpt lat="43.7181233" lon="12.121015"><ele>784.0</ele><time>2026-03-22T09:23:55.654Z</time></trkpt><trkpt lat="43.7182367" lon="12.12116"><ele>784.0</ele><time>2026-03-22T09:23:56.654Z</time></trkpt><trkpt lat="43.71833" lon="12.121355"><ele>784.0</ele><time>2026-03-22T09:23:57.654Z</time></trkpt><trkpt lat="43.7184017" lon="12.1215833"><ele>784.0</ele><time>2026-03-22T09:23:58.653Z</time></trkpt><trkpt lat="43.7184567" lon="12.121845"><ele>782.0</ele><time>2026-03-22T09:23:59.655Z</time></trkpt><trkpt lat="43.7185017" lon="12.1221283"><ele>780.0</ele><time>2026-03-22T09:24:00.653Z</time></trkpt><trkpt lat="43.7185517" lon="12.122425"><ele>778.0</ele><time>2026-03-22T09:24:01.654Z</time></trkpt><trkpt lat="43.7186133" lon="12.1227267"><ele>784.5</ele><time>2026-03-22T09:24:02.655Z</time></trkpt><trkpt lat="43.7186833" lon="12.1230317"><ele>791.0</ele><time>2026-03-22T09:24:03.653Z</time></trkpt><trkpt lat="43.71876" lon="12.123345"><ele>791.0</ele><time>2026-03-22T09:24:04.655Z</time></trkpt><trkpt lat="43.71885" lon="12.1236533"><ele>791.0</ele><time>2026-03-22T09:24:05.655Z</time></trkpt><trkpt lat="43.718935" lon="12.1239683"><ele>783.0</ele><time>2026-03-22T09:24:06.655Z</time></trkpt><trkpt lat="43.7190217" lon="12.1242867"><ele>775.0</ele><time>2026-03-22T09:24:07.655Z</time></trkpt><trkpt lat="43.7191083" lon="12.1246083"><ele>773.0</ele><time>2026-03-22T09:24:08.657Z</time></trkpt><trkpt lat="43.71919" lon="12.1249267"><ele>771.0</ele><time>2026-03-22T09:24:09.655Z</time></trkpt><trkpt lat="43.7192817" lon="12.1252417"><ele>771.0</ele><time>2026-03-22T09:24:10.654Z</time></trkpt><trkpt lat="43.7193867" lon="12.1255467"><ele>771.0</ele><time>2026-03-22T09:24:11.65Z</time></trkpt><trkpt lat="43.719505" lon="12.1258467"><ele>786.0</ele><time>2026-03-22T09:24:12.656Z</time></trkpt><trkpt lat="43.7196333" lon="12.1261383"><ele>801.0</ele><time>2026-03-22T09:24:13.655Z</time></trkpt><trkpt lat="43.7197667" lon="12.1264217"><ele>798.0</ele><time>2026-03-22T09:24:14.653Z</time></trkpt><trkpt lat="43.7198933" lon="12.1266917"><ele>795.0</ele><time>2026-03-22T09:24:15.654Z</time></trkpt><trkpt lat="43.7199983" lon="12.12697"><ele>795.0</ele><time>2026-03-22T09:24:16.654Z</time></trkpt><trkpt lat="43.7200583" lon="12.1272617"><ele>795.0</ele><time>2026-03-22T09:24:17.655Z</time></trkpt><trkpt lat="43.7200917" lon="12.127565"><ele>795.0</ele><time>2026-03-22T09:24:18.653Z</time></trkpt><trkpt lat="43.720115" lon="12.1278683"><ele>794.6666666666667</ele><time>2026-03-22T09:24:19.654Z</time></trkpt><trkpt lat="43.7201367" lon="12.1281533"><ele>794.3333333333334</ele><time>2026-03-22T09:24:20.654Z</time></trkpt><trkpt lat="43.72017" lon="12.1284283"><ele>794.0</ele><time>2026-03-22T09:24:21.654Z</time></trkpt><trkpt lat="43.72022" lon="12.1287"><ele>802.0</ele><time>2026-03-22T09:24:22.654Z</time></trkpt><trkpt lat="43.720305" lon="12.1289717"><ele>810.0</ele><time>2026-03-22T09:24:23.654Z</time></trkpt><trkpt lat="43.7204" lon="12.1292367"><ele>818.0</ele><time>2026-03-22T09:24:24.654Z</time></trkpt><trkpt lat="43.720505" lon="12.1295033"><ele>818.0</ele><time>2026-03-22T09:24:25.655Z</time></trkpt><trkpt lat="43.7206133" lon="12.1297717"><ele>818.0</ele><time>2026-03-22T09:24:26.655Z</time></trkpt><trkpt lat="43.7207267" lon="12.13004"><ele>818.0</ele><time>2026-03-22T09:24:27.651Z</time></trkpt><trkpt lat="43.7208367" lon="12.1303133"><ele>819.0</ele><time>2026-03-22T09:24:28.654Z</time></trkpt><trkpt lat="43.72094" lon="12.130585"><ele>820.0</ele><time>2026-03-22T09:24:29.655Z</time></trkpt><trkpt lat="43.7210267" lon="12.1308383"><ele>821.0</ele><time>2026-03-22T09:24:30.653Z</time></trkpt><trkpt lat="43.7211083" lon="12.1310617"><ele>821.0</ele><time>2026-03-22T09:24:31.654Z</time></trkpt><trkpt lat="43.7211833" lon="12.13125"><ele>821.0</ele><time>2026-03-22T09:24:32.654Z</time></trkpt><trkpt lat="43.72126" lon="12.1313983"><ele>821.0</ele><time>2026-03-22T09:24:33.655Z</time></trkpt><trkpt lat="43.7213517" lon="12.1314967"><ele>821.0</ele><time>2026-03-22T09:24:34.654Z</time></trkpt><trkpt lat="43.721455" lon="12.1315533"><ele>821.0</ele><time>2026-03-22T09:24:35.654Z</time></trkpt><trkpt lat="43.7215683" lon="12.1315467"><ele>821.0</ele><time>2026-03-22T09:24:36.654Z</time></trkpt><trkpt lat="43.7216733" lon="12.1314817"><ele>821.0</ele><time>2026-03-22T09:24:37.653Z</time></trkpt><trkpt lat="43.7217667" lon="12.131335"><ele>821.0</ele><time>2026-03-22T09:24:38.655Z</time></trkpt><trkpt lat="43.7218367" lon="12.1311967"><ele>823.8</ele><time>2026-03-22T09:24:39.655Z</time></trkpt><trkpt lat="43.721905" lon="12.1310733"><ele>826.5999999999999</ele><time>2026-03-22T09:24:40.654Z</time></trkpt><trkpt lat="43.7219733" lon="12.1309867"><ele>829.4</ele><time>2026-03-22T09:24:41.656Z</time></trkpt><trkpt lat="43.72205" lon="12.1309217"><ele>832.2</ele><time>2026-03-22T09:24:42.655Z</time></trkpt><trkpt lat="43.72214" lon="12.1308933"><ele>835.0</ele><time>2026-03-22T09:24:43.654Z</time></trkpt><trkpt lat="43.722215" lon="12.1309317"><ele>835.0</ele><time>2026-03-22T09:24:44.655Z</time></trkpt><trkpt lat="43.7222867" lon="12.131005"><ele>835.0</ele><time>2026-03-22T09:24:45.655Z</time></trkpt><trkpt lat="43.7223433" lon="12.1311283"><ele>835.0</ele><time>2026-03-22T09:24:46.653Z</time></trkpt><trkpt lat="43.7223767" lon="12.13132"><ele>835.0</ele><time>2026-03-22T09:24:47.65Z</time></trkpt><trkpt lat="43.722415" lon="12.1315033"><ele>832.25</ele><time>2026-03-22T09:24:48.651Z</time></trkpt><trkpt lat="43.7224517" lon="12.1317017"><ele>829.5</ele><time>2026-03-22T09:24:49.654Z</time></trkpt><trkpt lat="43.722475" lon="12.1318783"><ele>826.75</ele><time>2026-03-22T09:24:50.651Z</time></trkpt><trkpt lat="43.722495" lon="12.1320467"><ele>824.0</ele><time>2026-03-22T09:24:51.655Z</time></trkpt><trkpt lat="43.7225017" lon="12.1322"><ele>824.0</ele><time>2026-03-22T09:24:52.651Z</time></trkpt><trkpt lat="43.7224833" lon="12.13237"><ele>824.0</ele><time>2026-03-22T09:24:53.651Z</time></trkpt><trkpt lat="43.7224533" lon="12.1325433"><ele>824.0</ele><time>2026-03-22T09:24:54.654Z</time></trkpt><trkpt lat="43.7224283" lon="12.132705"><ele>824.0</ele><time>2026-03-22T09:24:55.654Z</time></trkpt><trkpt lat="43.7224267" lon="12.1328467"><ele>822.0</ele><time>2026-03-22T09:24:56.651Z</time></trkpt><trkpt lat="43.72246" lon="12.1329833"><ele>820.0</ele><time>2026-03-22T09:24:57.655Z</time></trkpt><trkpt lat="43.7225383" lon="12.13309"><ele>818.0</ele><time>2026-03-22T09:24:58.653Z</time></trkpt><trkpt lat="43.7226433" lon="12.133175"><ele>816.0</ele><time>2026-03-22T09:24:59.654Z</time></trkpt><trkpt lat="43.7227633" lon="12.133245"><ele>815.5</ele><time>2026-03-22T09:25:00.653Z</time></trkpt><trkpt lat="43.72289" lon="12.1333183"><ele>815.0</ele><time>2026-03-22T09:25:01.652Z</time></trkpt><trkpt lat="43.72302" lon="12.1333933"><ele>814.5</ele><time>2026-03-22T09:25:02.651Z</time></trkpt><trkpt lat="43.7231383" lon="12.13349"><ele>814.0</ele><time>2026-03-22T09:25:03.651Z</time></trkpt><trkpt lat="43.72323" lon="12.1336217"><ele>814.0</ele><time>2026-03-22T09:25:04.654Z</time></trkpt><trkpt lat="43.723285" lon="12.133795"><ele>814.0</ele><time>2026-03-22T09:25:05.651Z</time></trkpt><trkpt lat="43.7233367" lon="12.1339767"><ele>814.0</ele><time>2026-03-22T09:25:06.65Z</time></trkpt><trkpt lat="43.72342" lon="12.1341433"><ele>814.0</ele><time>2026-03-22T09:25:07.652Z</time></trkpt><trkpt lat="43.72353" lon="12.1342917"><ele>815.0</ele><time>2026-03-22T09:25:08.65Z</time></trkpt><trkpt lat="43.723675" lon="12.1344167"><ele>816.0</ele><time>2026-03-22T09:25:09.655Z</time></trkpt><trkpt lat="43.7238383" lon="12.1345267"><ele>817.0</ele><time>2026-03-22T09:25:10.652Z</time></trkpt><trkpt lat="43.7239983" lon="12.1346517"><ele>817.0</ele><time>2026-03-22T09:25:11.65Z</time></trkpt><trkpt lat="43.7241483" lon="12.1348017"><ele>817.0</ele><time>2026-03-22T09:25:12.652Z</time></trkpt><trkpt lat="43.7242767" lon="12.1349467"><ele>817.0</ele><time>2026-03-22T09:25:13.652Z</time></trkpt><trkpt lat="43.7243833" lon="12.1350783"><ele>813.4000000000001</ele><time>2026-03-22T09:25:14.652Z</time></trkpt><trkpt lat="43.72448" lon="12.13516"><ele>809.8000000000001</ele><time>2026-03-22T09:25:15.655Z</time></trkpt><trkpt lat="43.7245767" lon="12.1351917"><ele>806.2</ele><time>2026-03-22T09:25:16.651Z</time></trkpt><trkpt lat="43.72467" lon="12.1351667"><ele>802.6</ele><time>2026-03-22T09:25:17.653Z</time></trkpt><trkpt lat="43.7247717" lon="12.1351033"><ele>799.0</ele><time>2026-03-22T09:25:18.651Z</time></trkpt><trkpt lat="43.7248817" lon="12.1350033"><ele>799.0</ele><time>2026-03-22T09:25:19.652Z</time></trkpt><trkpt lat="43.7249933" lon="12.1349183"><ele>799.0</ele><time>2026-03-22T09:25:20.651Z</time></trkpt><trkpt lat="43.725115" lon="12.13487"><ele>799.0</ele><time>2026-03-22T09:25:21.65Z</time></trkpt><trkpt lat="43.72523" lon="12.1348717"><ele>799.0</ele><time>2026-03-22T09:25:22.65Z</time></trkpt><trkpt lat="43.7253383" lon="12.1349217"><ele>799.6</ele><time>2026-03-22T09:25:23.653Z</time></trkpt><trkpt lat="43.725425" lon="12.1350067"><ele>800.2</ele><time>2026-03-22T09:25:24.654Z</time></trkpt><trkpt lat="43.7254983" lon="12.13511"><ele>800.8000000000001</ele><time>2026-03-22T09:25:25.654Z</time></trkpt><trkpt lat="43.72558" lon="12.1351933"><ele>801.4000000000001</ele><time>2026-03-22T09:25:26.653Z</time></trkpt><trkpt lat="43.7256583" lon="12.135275"><ele>802.0</ele><time>2026-03-22T09:25:27.653Z</time></trkpt><trkpt lat="43.725735" lon="12.1353433"><ele>801.9999999999999</ele><time>2026-03-22T09:25:28.654Z</time></trkpt><trkpt lat="43.7258067" lon="12.1354017"><ele>802.0</ele><time>2026-03-22T09:25:29.654Z</time></trkpt><trkpt lat="43.7258733" lon="12.1354517"><ele>802.0</ele><time>2026-03-22T09:25:30.654Z</time></trkpt><trkpt lat="43.7259233" lon="12.135505"><ele>802.0</ele><time>2026-03-22T09:25:31.651Z</time></trkpt><trkpt lat="43.7260033" lon="12.1356383"><ele>801.9999999999999</ele><time>2026-03-22T09:25:33.651Z</time></trkpt><trkpt lat="43.726065" lon="12.1357067"><ele>802.0</ele><time>2026-03-22T09:25:34.651Z</time></trkpt><trkpt lat="43.7261383" lon="12.1357617"><ele>801.2</ele><time>2026-03-22T09:25:35.651Z</time></trkpt><trkpt lat="43.7262267" lon="12.1358017"><ele>800.4000000000001</ele><time>2026-03-22T09:25:36.652Z</time></trkpt><trkpt lat="43.7263217" lon="12.1358517"><ele>799.5999999999999</ele><time>2026-03-22T09:25:37.653Z</time></trkpt><trkpt lat="43.726415" lon="12.1359167"><ele>798.8</ele><time>2026-03-22T09:25:38.651Z</time></trkpt><trkpt lat="43.7265017" lon="12.1359917"><ele>798.0</ele><time>2026-03-22T09:25:39.651Z</time></trkpt><trkpt lat="43.72659" lon="12.1360717"><ele>798.0</ele><time>2026-03-22T09:25:40.655Z</time></trkpt><trkpt lat="43.7266767" lon="12.136155"><ele>798.0</ele><time>2026-03-22T09:25:41.654Z</time></trkpt><trkpt lat="43.7267617" lon="12.1362517"><ele>798.0</ele><time>2026-03-22T09:25:42.654Z</time></trkpt><trkpt lat="43.726835" lon="12.1363733"><ele>798.0</ele><time>2026-03-22T09:25:43.656Z</time></trkpt><trkpt lat="43.7268983" lon="12.136505"><ele>798.0</ele><time>2026-03-22T09:25:44.655Z</time></trkpt><trkpt lat="43.7269667" lon="12.1366367"><ele>798.2</ele><time>2026-03-22T09:25:45.654Z</time></trkpt><trkpt lat="43.7270333" lon="12.1367617"><ele>798.4</ele><time>2026-03-22T09:25:46.654Z</time></trkpt><trkpt lat="43.727095" lon="12.136885"><ele>798.6</ele><time>2026-03-22T09:25:47.65Z</time></trkpt><trkpt lat="43.727155" lon="12.137005"><ele>798.8000000000001</ele><time>2026-03-22T09:25:48.65Z</time></trkpt><trkpt lat="43.7272267" lon="12.13711"><ele>799.0</ele><time>2026-03-22T09:25:49.653Z</time></trkpt><trkpt lat="43.7273167" lon="12.1372017"><ele>799.0</ele><time>2026-03-22T09:25:50.654Z</time></trkpt><trkpt lat="43.7274117" lon="12.137275"><ele>799.0</ele><time>2026-03-22T09:25:51.654Z</time></trkpt><trkpt lat="43.7275083" lon="12.1373333"><ele>799.0</ele><time>2026-03-22T09:25:52.653Z</time></trkpt><trkpt lat="43.727595" lon="12.137375"><ele>799.0</ele><time>2026-03-22T09:25:53.65Z</time></trkpt><trkpt lat="43.7276783" lon="12.1374117"><ele>799.0</ele><time>2026-03-22T09:25:54.651Z</time></trkpt><trkpt lat="43.7277517" lon="12.1374467"><ele>797.1666666666666</ele><time>2026-03-22T09:25:55.651Z</time></trkpt><trkpt lat="43.7278133" lon="12.1374867"><ele>795.3333333333333</ele><time>2026-03-22T09:25:56.651Z</time></trkpt><trkpt lat="43.7278717" lon="12.1375233"><ele>793.5</ele><time>2026-03-22T09:25:57.651Z</time></trkpt><trkpt lat="43.727975" lon="12.137585"><ele>791.6666666666667</ele><time>2026-03-22T09:25:59.651Z</time></trkpt><trkpt lat="43.7280467" lon="12.1376383"><ele>789.8333333333334</ele><time>2026-03-22T09:27:52.652Z</time></trkpt><trkpt lat="43.7281167" lon="12.1376833"><ele>788.0</ele><time>2026-03-22T09:27:54.652Z</time></trkpt><trkpt lat="43.7282183" lon="12.137755"><ele>788.0</ele><time>2026-03-22T09:27:56.651Z</time></trkpt><trkpt lat="43.7282817" lon="12.1378033"><ele>788.0</ele><time>2026-03-22T09:27:57.651Z</time></trkpt><trkpt lat="43.72836" lon="12.137865"><ele>788.0</ele><time>2026-03-22T09:27:58.654Z</time></trkpt><trkpt lat="43.72845" lon="12.1379267"><ele>788.0</ele><time>2026-03-22T09:27:59.654Z</time></trkpt><trkpt lat="43.7285383" lon="12.13798"><ele>788.0</ele><time>2026-03-22T09:28:00.653Z</time></trkpt><trkpt lat="43.72863" lon="12.138035"><ele>790.3333333333334</ele><time>2026-03-22T09:28:01.651Z</time></trkpt><trkpt lat="43.7287167" lon="12.1380917"><ele>792.6666666666667</ele><time>2026-03-22T09:28:02.652Z</time></trkpt><trkpt lat="43.7287917" lon="12.1381383"><ele>795.0</ele><time>2026-03-22T09:28:03.652Z</time></trkpt><trkpt lat="43.7288517" lon="12.1381683"><ele>797.3333333333333</ele><time>2026-03-22T09:28:04.651Z</time></trkpt><trkpt lat="43.7289467" lon="12.1381883"><ele>799.6666666666666</ele><time>2026-03-22T09:28:06.653Z</time></trkpt><trkpt lat="43.7290117" lon="12.138105"><ele>802.0</ele><time>2026-03-22T09:28:09.652Z</time></trkpt><trkpt lat="43.7290433" lon="12.1380017"><ele>801.9999999999999</ele><time>2026-03-22T09:28:11.654Z</time></trkpt><trkpt lat="43.7290517" lon="12.137855"><ele>802.0</ele><time>2026-03-22T09:28:13.656Z</time></trkpt><trkpt lat="43.72905" lon="12.1376883"><ele>802.0</ele><time>2026-03-22T09:28:15.653Z</time></trkpt><trkpt lat="43.7290433" lon="12.1375917"><ele>802.0</ele><time>2026-03-22T09:28:16.65Z</time></trkpt><trkpt lat="43.72903" lon="12.1374917"><ele>801.9999999999999</ele><time>2026-03-22T09:28:17.65Z</time></trkpt><trkpt lat="43.7290167" lon="12.1374"><ele>802.0</ele><time>2026-03-22T09:28:18.651Z</time></trkpt><trkpt lat="43.7289933" lon="12.1372433"><ele>805.4999999999999</ele><time>2026-03-22T09:28:20.65Z</time></trkpt><trkpt lat="43.7289667" lon="12.1371267"><ele>809.0</ele><time>2026-03-22T09:28:22.65Z</time></trkpt><trkpt lat="43.7289333" lon="12.1370183"><ele>812.5</ele><time>2026-03-22T09:28:24.653Z</time></trkpt><trkpt lat="43.7288967" lon="12.1369283"><ele>816.0</ele><time>2026-03-22T09:28:26.65Z</time></trkpt><trkpt lat="43.7288617" lon="12.1368367"><ele>819.4999999999999</ele><time>2026-03-22T09:28:28.651Z</time></trkpt><trkpt lat="43.728815" lon="12.1367267"><ele>823.0</ele><time>2026-03-22T09:28:30.655Z</time></trkpt><trkpt lat="43.7287567" lon="12.1365867"><ele>821.8333333333333</ele><time>2026-03-22T09:28:32.654Z</time></trkpt><trkpt lat="43.7287233" lon="12.1365067"><ele>820.6666666666666</ele><time>2026-03-22T09:28:33.654Z</time></trkpt><trkpt lat="43.7286867" lon="12.1364217"><ele>819.5</ele><time>2026-03-22T09:28:34.655Z</time></trkpt><trkpt lat="43.7286417" lon="12.1363283"><ele>818.3333333333333</ele><time>2026-03-22T09:28:35.654Z</time></trkpt><trkpt lat="43.728595" lon="12.136235"><ele>817.1666666666666</ele><time>2026-03-22T09:28:36.653Z</time></trkpt><trkpt lat="43.72854" lon="12.1361483"><ele>816.0</ele><time>2026-03-22T09:28:37.655Z</time></trkpt><trkpt lat="43.7284883" lon="12.136065"><ele>816.0</ele><time>2026-03-22T09:28:38.651Z</time></trkpt><trkpt lat="43.728445" lon="12.1359917"><ele>816.0</ele><time>2026-03-22T09:28:39.65Z</time></trkpt><trkpt lat="43.7284167" lon="12.1359133"><ele>816.0</ele><time>2026-03-22T09:28:40.654Z</time></trkpt><trkpt lat="43.7283983" lon="12.1358167"><ele>816.0</ele><time>2026-03-22T09:28:41.653Z</time></trkpt><trkpt lat="43.7283967" lon="12.1357167"><ele>816.0</ele><time>2026-03-22T09:28:42.653Z</time></trkpt><trkpt lat="43.7284017" lon="12.13561"><ele>816.0</ele><time>2026-03-22T09:28:43.653Z</time></trkpt><trkpt lat="43.7284183" lon="12.1355017"><ele>816.0</ele><time>2026-03-22T09:28:44.653Z</time></trkpt><trkpt lat="43.7284483" lon="12.1354067"><ele>817.8333333333334</ele><time>2026-03-22T09:28:45.654Z</time></trkpt><trkpt lat="43.728475" lon="12.1353233"><ele>819.6666666666667</ele><time>2026-03-22T09:28:46.65Z</time></trkpt><trkpt lat="43.7285633" lon="12.135235"><ele>821.5</ele><time>2026-03-22T09:28:48.652Z</time></trkpt><trkpt lat="43.7286267" lon="12.135235"><ele>823.3333333333334</ele><time>2026-03-22T09:28:49.65Z</time></trkpt><trkpt lat="43.728705" lon="12.1352717"><ele>825.1666666666667</ele><time>2026-03-22T09:28:50.651Z</time></trkpt><trkpt lat="43.728785" lon="12.1353333"><ele>827.0</ele><time>2026-03-22T09:28:51.65Z</time></trkpt><trkpt lat="43.7288617" lon="12.1354183"><ele>828.4000000000001</ele><time>2026-03-22T09:28:52.654Z</time></trkpt><trkpt lat="43.7289333" lon="12.135515"><ele>829.8000000000001</ele><time>2026-03-22T09:28:53.65Z</time></trkpt><trkpt lat="43.7289983" lon="12.1356233"><ele>831.2</ele><time>2026-03-22T09:28:54.65Z</time></trkpt><trkpt lat="43.729065" lon="12.1357417"><ele>832.6</ele><time>2026-03-22T09:28:55.651Z</time></trkpt><trkpt lat="43.72913" lon="12.13587"><ele>834.0</ele><time>2026-03-22T09:28:56.65Z</time></trkpt><trkpt lat="43.729205" lon="12.135995"><ele>834.0</ele><time>2026-03-22T09:28:57.65Z</time></trkpt><trkpt lat="43.7292883" lon="12.13612"><ele>834.0</ele><time>2026-03-22T09:28:58.655Z</time></trkpt><trkpt lat="43.7293683" lon="12.13624"><ele>834.0</ele><time>2026-03-22T09:28:59.653Z</time></trkpt><trkpt lat="43.7294483" lon="12.1363667"><ele>834.0</ele><time>2026-03-22T09:29:00.654Z</time></trkpt><trkpt lat="43.7295267" lon="12.136505"><ele>838.25</ele><time>2026-03-22T09:29:01.654Z</time></trkpt><trkpt lat="43.7296017" lon="12.1366467"><ele>842.5</ele><time>2026-03-22T09:29:02.655Z</time></trkpt><trkpt lat="43.7296667" lon="12.13679"><ele>846.75</ele><time>2026-03-22T09:29:03.651Z</time></trkpt><trkpt lat="43.7297333" lon="12.1369167"><ele>851.0</ele><time>2026-03-22T09:29:04.653Z</time></trkpt><trkpt lat="43.7298017" lon="12.1370167"><ele>851.0000000000001</ele><time>2026-03-22T09:29:05.651Z</time></trkpt><trkpt lat="43.729875" lon="12.1370833"><ele>851.0</ele><time>2026-03-22T09:29:06.651Z</time></trkpt><trkpt lat="43.7299517" lon="12.1371267"><ele>851.0</ele><time>2026-03-22T09:29:07.651Z</time></trkpt><trkpt lat="43.73003" lon="12.137155"><ele>851.0</ele><time>2026-03-22T09:29:08.654Z</time></trkpt><trkpt lat="43.7301117" lon="12.1371767"><ele>851.0000000000001</ele><time>2026-03-22T09:29:09.651Z</time></trkpt><trkpt lat="43.7301967" lon="12.1372017"><ele>851.0</ele><time>2026-03-22T09:29:10.653Z</time></trkpt><trkpt lat="43.73028" lon="12.1372217"><ele>853.8333333333334</ele><time>2026-03-22T09:29:11.654Z</time></trkpt><trkpt lat="43.730365" lon="12.13724"><ele>856.6666666666667</ele><time>2026-03-22T09:29:12.654Z</time></trkpt><trkpt lat="43.7304433" lon="12.1372533"><ele>859.5</ele><time>2026-03-22T09:29:13.655Z</time></trkpt><trkpt lat="43.7305167" lon="12.1372583"><ele>862.3333333333333</ele><time>2026-03-22T09:29:14.654Z</time></trkpt><trkpt lat="43.73059" lon="12.13724"><ele>865.1666666666666</ele><time>2026-03-22T09:29:15.654Z</time></trkpt><trkpt lat="43.7306633" lon="12.13721"><ele>868.0</ele><time>2026-03-22T09:29:16.652Z</time></trkpt><trkpt lat="43.7307383" lon="12.13717"><ele>867.9999999999999</ele><time>2026-03-22T09:29:17.651Z</time></trkpt><trkpt lat="43.73082" lon="12.1371283"><ele>868.0</ele><time>2026-03-22T09:29:18.65Z</time></trkpt><trkpt lat="43.7309033" lon="12.1370967"><ele>868.0</ele><time>2026-03-22T09:29:19.65Z</time></trkpt><trkpt lat="43.7309933" lon="12.1370817"><ele>868.0</ele><time>2026-03-22T09:29:20.65Z</time></trkpt><trkpt lat="43.73108" lon="12.1370817"><ele>867.9999999999999</ele><time>2026-03-22T09:29:21.65Z</time></trkpt><trkpt lat="43.7311683" lon="12.1371067"><ele>868.0</ele><time>2026-03-22T09:29:22.651Z</time></trkpt><trkpt lat="43.73125" lon="12.1371567"><ele>866.8333333333333</ele><time>2026-03-22T09:29:23.654Z</time></trkpt><trkpt lat="43.7313267" lon="12.1372267"><ele>865.6666666666666</ele><time>2026-03-22T09:29:24.654Z</time></trkpt><trkpt lat="43.7314017" lon="12.13729"><ele>864.5</ele><time>2026-03-22T09:29:25.654Z</time></trkpt><trkpt lat="43.73148" lon="12.1373467"><ele>863.3333333333333</ele><time>2026-03-22T09:29:26.653Z</time></trkpt><trkpt lat="43.7315683" lon="12.13738"><ele>862.1666666666666</ele><time>2026-03-22T09:29:27.653Z</time></trkpt><trkpt lat="43.731655" lon="12.1373983"><ele>861.0</ele><time>2026-03-22T09:29:28.654Z</time></trkpt><trkpt lat="43.7317383" lon="12.1374133"><ele>861.0</ele><time>2026-03-22T09:29:29.649Z</time></trkpt><trkpt lat="43.7318167" lon="12.1374383"><ele>861.0</ele><time>2026-03-22T09:29:30.651Z</time></trkpt><trkpt lat="43.731895" lon="12.137465"><ele>861.0</ele><time>2026-03-22T09:29:31.654Z</time></trkpt><trkpt lat="43.7319783" lon="12.1374883"><ele>861.0</ele><time>2026-03-22T09:29:32.654Z</time></trkpt><trkpt lat="43.7320617" lon="12.1375083"><ele>861.0</ele><time>2026-03-22T09:29:33.653Z</time></trkpt><trkpt lat="43.732145" lon="12.137525"><ele>861.0</ele><time>2026-03-22T09:29:34.654Z</time></trkpt><trkpt lat="43.73223" lon="12.137545"><ele>863.6666666666666</ele><time>2026-03-22T09:29:35.651Z</time></trkpt><trkpt lat="43.7323117" lon="12.1375633"><ele>866.3333333333333</ele><time>2026-03-22T09:29:36.651Z</time></trkpt><trkpt lat="43.7323933" lon="12.1375683"><ele>869.0</ele><time>2026-03-22T09:29:37.651Z</time></trkpt><trkpt lat="43.732475" lon="12.1375683"><ele>871.6666666666666</ele><time>2026-03-22T09:29:38.651Z</time></trkpt><trkpt lat="43.7325483" lon="12.1375533"><ele>874.3333333333333</ele><time>2026-03-22T09:29:39.652Z</time></trkpt><trkpt lat="43.7326167" lon="12.137515"><ele>877.0</ele><time>2026-03-22T09:29:40.652Z</time></trkpt><trkpt lat="43.73267" lon="12.1374667"><ele>881.25</ele><time>2026-03-22T09:29:41.652Z</time></trkpt><trkpt lat="43.7327283" lon="12.1373233"><ele>885.5</ele><time>2026-03-22T09:29:43.654Z</time></trkpt><trkpt lat="43.7327033" lon="12.137175"><ele>889.75</ele><time>2026-03-22T09:29:45.654Z</time></trkpt><trkpt lat="43.7325883" lon="12.1370617"><ele>894.0</ele><time>2026-03-22T09:29:47.651Z</time></trkpt><trkpt lat="43.7325017" lon="12.1369967"><ele>894.0</ele><time>2026-03-22T09:29:48.651Z</time></trkpt><trkpt lat="43.7324317" lon="12.1369283"><ele>894.0000000000001</ele><time>2026-03-22T09:29:49.651Z</time></trkpt><trkpt lat="43.7323667" lon="12.1368533"><ele>894.0000000000001</ele><time>2026-03-22T09:29:50.651Z</time></trkpt><trkpt lat="43.732335" lon="12.1367067"><ele>894.0</ele><time>2026-03-22T09:29:52.65Z</time></trkpt><trkpt lat="43.73239" lon="12.13666"><ele>894.0</ele><time>2026-03-22T09:29:54.653Z</time></trkpt><trkpt lat="43.7324967" lon="12.13666"><ele>894.0</ele><time>2026-03-22T09:29:56.654Z</time></trkpt><trkpt lat="43.7325733" lon="12.136685"><ele>894.0</ele><time>2026-03-22T09:29:57.65Z</time></trkpt><trkpt lat="43.7326533" lon="12.1367083"><ele>894.0</ele><time>2026-03-22T09:29:58.652Z</time></trkpt><trkpt lat="43.7327367" lon="12.1367333"><ele>894.0</ele><time>2026-03-22T09:29:59.651Z</time></trkpt><trkpt lat="43.73282" lon="12.13676"><ele>894.0</ele><time>2026-03-22T09:30:00.65Z</time></trkpt><trkpt lat="43.7328983" lon="12.13679"><ele>894.0</ele><time>2026-03-22T09:30:01.65Z</time></trkpt><trkpt lat="43.7329733" lon="12.1368167"><ele>895.3333333333334</ele><time>2026-03-22T09:30:02.651Z</time></trkpt><trkpt lat="43.733055" lon="12.1368383"><ele>896.6666666666667</ele><time>2026-03-22T09:30:03.65Z</time></trkpt><trkpt lat="43.733135" lon="12.13684"><ele>898.0</ele><time>2026-03-22T09:30:04.654Z</time></trkpt><trkpt lat="43.73321" lon="12.13683"><ele>899.3333333333334</ele><time>2026-03-22T09:30:05.65Z</time></trkpt><trkpt lat="43.7332817" lon="12.136805"><ele>900.6666666666667</ele><time>2026-03-22T09:30:06.65Z</time></trkpt><trkpt lat="43.7333483" lon="12.1367567"><ele>902.0</ele><time>2026-03-22T09:30:07.651Z</time></trkpt><trkpt lat="43.73341" lon="12.1366833"><ele>902.0000000000001</ele><time>2026-03-22T09:30:08.651Z</time></trkpt><trkpt lat="43.73346" lon="12.1366017"><ele>902.0</ele><time>2026-03-22T09:30:09.651Z</time></trkpt><trkpt lat="43.7334983" lon="12.1365067"><ele>902.0</ele><time>2026-03-22T09:30:10.651Z</time></trkpt><trkpt lat="43.73352" lon="12.1364017"><ele>902.0</ele><time>2026-03-22T09:30:11.65Z</time></trkpt><trkpt lat="43.7335317" lon="12.1362917"><ele>902.0000000000001</ele><time>2026-03-22T09:30:12.651Z</time></trkpt><trkpt lat="43.7335467" lon="12.13618"><ele>902.0</ele><time>2026-03-22T09:30:13.651Z</time></trkpt><trkpt lat="43.7335617" lon="12.1360683"><ele>905.3333333333334</ele><time>2026-03-22T09:30:14.654Z</time></trkpt><trkpt lat="43.7335783" lon="12.13596"><ele>908.6666666666667</ele><time>2026-03-22T09:30:15.654Z</time></trkpt><trkpt lat="43.7336033" lon="12.1358583"><ele>912.0</ele><time>2026-03-22T09:30:16.653Z</time></trkpt><trkpt lat="43.73363" lon="12.1357667"><ele>915.3333333333333</ele><time>2026-03-22T09:30:17.654Z</time></trkpt><trkpt lat="43.73368" lon="12.135675"><ele>918.6666666666666</ele><time>2026-03-22T09:30:18.653Z</time></trkpt><trkpt lat="43.733725" lon="12.1356017"><ele>922.0</ele><time>2026-03-22T09:30:19.654Z</time></trkpt><trkpt lat="43.7338367" lon="12.135495"><ele>926.4000000000001</ele><time>2026-03-22T09:30:21.654Z</time></trkpt><trkpt lat="43.733915" lon="12.1354317"><ele>930.8000000000001</ele><time>2026-03-22T09:30:22.654Z</time></trkpt><trkpt lat="43.73399" lon="12.1353667"><ele>935.2</ele><time>2026-03-22T09:30:23.653Z</time></trkpt><trkpt lat="43.73407" lon="12.1352983"><ele>939.6</ele><time>2026-03-22T09:30:24.654Z</time></trkpt><trkpt lat="43.73416" lon="12.135255"><ele>944.0</ele><time>2026-03-22T09:30:25.653Z</time></trkpt><trkpt lat="43.73425" lon="12.1352317"><ele>944.0000000000001</ele><time>2026-03-22T09:30:26.654Z</time></trkpt><trkpt lat="43.7343383" lon="12.1352233"><ele>944.0</ele><time>2026-03-22T09:30:27.651Z</time></trkpt><trkpt lat="43.7344233" lon="12.13523"><ele>944.0</ele><time>2026-03-22T09:30:28.651Z</time></trkpt><trkpt lat="43.7345033" lon="12.135245"><ele>944.0</ele><time>2026-03-22T09:30:29.65Z</time></trkpt><trkpt lat="43.7345817" lon="12.1352717"><ele>944.0000000000001</ele><time>2026-03-22T09:30:30.651Z</time></trkpt><trkpt lat="43.7346583" lon="12.1352867"><ele>944.0</ele><time>2026-03-22T09:30:31.65Z</time></trkpt><trkpt lat="43.73473" lon="12.13528"><ele>944.0000000000001</ele><time>2026-03-22T09:30:32.651Z</time></trkpt><trkpt lat="43.734795" lon="12.1352633"><ele>944.0</ele><time>2026-03-22T09:30:33.651Z</time></trkpt><trkpt lat="43.7348567" lon="12.1352183"><ele>944.0</ele><time>2026-03-22T09:30:34.651Z</time></trkpt><trkpt lat="43.7349217" lon="12.1351533"><ele>944.0</ele><time>2026-03-22T09:30:35.654Z</time></trkpt><trkpt lat="43.7349883" lon="12.135085"><ele>944.0000000000001</ele><time>2026-03-22T09:30:36.652Z</time></trkpt><trkpt lat="43.7350583" lon="12.1350317"><ele>944.0</ele><time>2026-03-22T09:30:37.652Z</time></trkpt><trkpt lat="43.7351283" lon="12.134995"><ele>944.0</ele><time>2026-03-22T09:30:38.652Z</time></trkpt><trkpt lat="43.7352" lon="12.1349783"><ele>944.0</ele><time>2026-03-22T09:30:39.652Z</time></trkpt><trkpt lat="43.7352667" lon="12.1349483"><ele>944.0</ele><time>2026-03-22T09:30:40.654Z</time></trkpt><trkpt lat="43.7353233" lon="12.1349"><ele>944.0</ele><time>2026-03-22T09:30:41.654Z</time></trkpt><trkpt lat="43.7353733" lon="12.1348333"><ele>944.0</ele><time>2026-03-22T09:30:42.65Z</time></trkpt><trkpt lat="43.73543" lon="12.1347517"><ele>944.0</ele><time>2026-03-22T09:30:43.653Z</time></trkpt><trkpt lat="43.73548" lon="12.1346567"><ele>944.0</ele><time>2026-03-22T09:30:44.654Z</time></trkpt><trkpt lat="43.7355317" lon="12.134565"><ele>945.8333333333334</ele><time>2026-03-22T09:30:45.654Z</time></trkpt><trkpt lat="43.7355867" lon="12.1344833"><ele>947.6666666666667</ele><time>2026-03-22T09:30:46.654Z</time></trkpt><trkpt lat="43.7356483" lon="12.1344067"><ele>949.5</ele><time>2026-03-22T09:30:47.654Z</time></trkpt><trkpt lat="43.7357217" lon="12.1343433"><ele>951.3333333333333</ele><time>2026-03-22T09:30:48.654Z</time></trkpt><trkpt lat="43.735795" lon="12.1342917"><ele>953.1666666666666</ele><time>2026-03-22T09:30:49.655Z</time></trkpt><trkpt lat="43.73588" lon="12.1342683"><ele>955.0</ele><time>2026-03-22T09:30:50.654Z</time></trkpt><trkpt lat="43.7359833" lon="12.1342617"><ele>953.8</ele><time>2026-03-22T09:30:51.654Z</time></trkpt><trkpt lat="43.7360817" lon="12.1342467"><ele>952.6</ele><time>2026-03-22T09:30:52.654Z</time></trkpt><trkpt lat="43.73619" lon="12.1342367"><ele>951.4000000000001</ele><time>2026-03-22T09:30:53.65Z</time></trkpt><trkpt lat="43.7362917" lon="12.1342217"><ele>950.2</ele><time>2026-03-22T09:30:54.652Z</time></trkpt><trkpt lat="43.7363817" lon="12.1342067"><ele>949.0</ele><time>2026-03-22T09:30:55.651Z</time></trkpt><trkpt lat="43.736465" lon="12.1341933"><ele>948.9999999999999</ele><time>2026-03-22T09:30:56.65Z</time></trkpt><trkpt lat="43.7365483" lon="12.13418"><ele>949.0</ele><time>2026-03-22T09:30:57.651Z</time></trkpt><trkpt lat="43.736635" lon="12.1341683"><ele>949.0</ele><time>2026-03-22T09:30:58.654Z</time></trkpt><trkpt lat="43.7367233" lon="12.1341583"><ele>949.0</ele><time>2026-03-22T09:30:59.651Z</time></trkpt><trkpt lat="43.7368133" lon="12.1341583"><ele>948.9999999999999</ele><time>2026-03-22T09:31:00.654Z</time></trkpt><trkpt lat="43.7369067" lon="12.1341583"><ele>949.0</ele><time>2026-03-22T09:31:01.651Z</time></trkpt><trkpt lat="43.7370017" lon="12.1341517"><ele>949.8000000000001</ele><time>2026-03-22T09:31:02.652Z</time></trkpt><trkpt lat="43.7371" lon="12.13414"><ele>950.6000000000001</ele><time>2026-03-22T09:31:03.651Z</time></trkpt><trkpt lat="43.737205" lon="12.13413"><ele>951.4</ele><time>2026-03-22T09:31:04.651Z</time></trkpt><trkpt lat="43.7373133" lon="12.1341383"><ele>952.2</ele><time>2026-03-22T09:31:05.651Z</time></trkpt><trkpt lat="43.7374183" lon="12.1341667"><ele>953.0</ele><time>2026-03-22T09:31:06.652Z</time></trkpt><trkpt lat="43.7375333" lon="12.1342"><ele>953.0000000000001</ele><time>2026-03-22T09:31:07.652Z</time></trkpt><trkpt lat="43.7376467" lon="12.134215"><ele>953.0</ele><time>2026-03-22T09:31:08.651Z</time></trkpt><trkpt lat="43.7377433" lon="12.1342083"><ele>953.0</ele><time>2026-03-22T09:31:09.652Z</time></trkpt><trkpt lat="43.737825" lon="12.13419"><ele>953.0</ele><time>2026-03-22T09:31:10.654Z</time></trkpt><trkpt lat="43.7378917" lon="12.1341583"><ele>953.0000000000001</ele><time>2026-03-22T09:31:11.654Z</time></trkpt><trkpt lat="43.7379533" lon="12.1341117"><ele>953.0</ele><time>2026-03-22T09:31:12.654Z</time></trkpt><trkpt lat="43.7380033" lon="12.134035"><ele>955.6666666666667</ele><time>2026-03-22T09:31:13.655Z</time></trkpt><trkpt lat="43.7380533" lon="12.133945"><ele>958.3333333333334</ele><time>2026-03-22T09:31:14.654Z</time></trkpt><trkpt lat="43.7381033" lon="12.1338533"><ele>961.0</ele><time>2026-03-22T09:31:15.654Z</time></trkpt><trkpt lat="43.73816" lon="12.1337767"><ele>963.6666666666667</ele><time>2026-03-22T09:31:16.654Z</time></trkpt><trkpt lat="43.7382183" lon="12.1337167"><ele>966.3333333333334</ele><time>2026-03-22T09:31:17.654Z</time></trkpt><trkpt lat="43.73828" lon="12.1336733"><ele>969.0</ele><time>2026-03-22T09:31:18.654Z</time></trkpt><trkpt lat="43.7383483" lon="12.1336433"><ele>969.0</ele><time>2026-03-22T09:31:19.654Z</time></trkpt><trkpt lat="43.7384267" lon="12.1336217"><ele>969.0000000000001</ele><time>2026-03-22T09:31:20.655Z</time></trkpt><trkpt lat="43.7385183" lon="12.1336017"><ele>969.0000000000001</ele><time>2026-03-22T09:31:21.654Z</time></trkpt><trkpt lat="43.7386067" lon="12.1335883"><ele>969.0</ele><time>2026-03-22T09:31:22.655Z</time></trkpt><trkpt lat="43.7387" lon="12.1335733"><ele>969.0</ele><time>2026-03-22T09:31:23.651Z</time></trkpt><trkpt lat="43.7387983" lon="12.1335517"><ele>967.4000000000001</ele><time>2026-03-22T09:31:24.652Z</time></trkpt><trkpt lat="43.7388967" lon="12.1335233"><ele>965.8000000000001</ele><time>2026-03-22T09:31:25.652Z</time></trkpt><trkpt lat="43.7389933" lon="12.13349"><ele>964.1999999999999</ele><time>2026-03-22T09:31:26.651Z</time></trkpt><trkpt lat="43.7390867" lon="12.1334467"><ele>962.5999999999999</ele><time>2026-03-22T09:31:27.651Z</time></trkpt><trkpt lat="43.7391817" lon="12.1333983"><ele>961.0</ele><time>2026-03-22T09:31:28.651Z</time></trkpt><trkpt lat="43.7392883" lon="12.1333483"><ele>960.5</ele><time>2026-03-22T09:31:29.652Z</time></trkpt><trkpt lat="43.7394" lon="12.133305"><ele>960.0</ele><time>2026-03-22T09:31:30.652Z</time></trkpt><trkpt lat="43.7395133" lon="12.1332733"><ele>959.5</ele><time>2026-03-22T09:31:31.651Z</time></trkpt><trkpt lat="43.7396267" lon="12.1332433"><ele>959.0</ele><time>2026-03-22T09:31:32.651Z</time></trkpt><trkpt lat="43.739735" lon="12.1332167"><ele>960.6</ele><time>2026-03-22T09:31:33.652Z</time></trkpt><trkpt lat="43.7398333" lon="12.133185"><ele>962.2</ele><time>2026-03-22T09:31:34.651Z</time></trkpt><trkpt lat="43.7399283" lon="12.1331533"><ele>963.8000000000001</ele><time>2026-03-22T09:31:35.652Z</time></trkpt><trkpt lat="43.7400217" lon="12.1331217"><ele>965.4000000000001</ele><time>2026-03-22T09:31:36.652Z</time></trkpt><trkpt lat="43.7401067" lon="12.1330933"><ele>967.0</ele><time>2026-03-22T09:31:37.651Z</time></trkpt><trkpt lat="43.7401917" lon="12.1330667"><ele>967.4999999999999</ele><time>2026-03-22T09:31:38.651Z</time></trkpt><trkpt lat="43.7402783" lon="12.1330383"><ele>968.0</ele><time>2026-03-22T09:31:39.652Z</time></trkpt><trkpt lat="43.7403667" lon="12.1330033"><ele>968.5</ele><time>2026-03-22T09:31:40.656Z</time></trkpt><trkpt lat="43.7404517" lon="12.132965"><ele>969.0</ele><time>2026-03-22T09:31:41.654Z</time></trkpt><trkpt lat="43.7405267" lon="12.1329333"><ele>969.4999999999999</ele><time>2026-03-22T09:31:42.655Z</time></trkpt><trkpt lat="43.7405933" lon="12.1328967"><ele>970.0</ele><time>2026-03-22T09:31:43.652Z</time></trkpt><trkpt lat="43.740695" lon="12.1327883"><ele>969.9999999999999</ele><time>2026-03-22T09:31:45.656Z</time></trkpt><trkpt lat="43.7407367" lon="12.1327117"><ele>970.0</ele><time>2026-03-22T09:31:46.651Z</time></trkpt><trkpt lat="43.7407617" lon="12.1326233"><ele>970.0</ele><time>2026-03-22T09:31:47.655Z</time></trkpt><trkpt lat="43.7408183" lon="12.1325117"><ele>970.0</ele><time>2026-03-22T09:31:49.655Z</time></trkpt><trkpt lat="43.7409083" lon="12.1324867"><ele>969.9999999999999</ele><time>2026-03-22T09:31:52.654Z</time></trkpt><trkpt lat="43.7410017" lon="12.1325017"><ele>970.0</ele><time>2026-03-22T09:31:54.655Z</time></trkpt><trkpt lat="43.7411067" lon="12.1325233"><ele>971.2</ele><time>2026-03-22T09:31:56.654Z</time></trkpt><trkpt lat="43.7412067" lon="12.1325833"><ele>972.4</ele><time>2026-03-22T09:31:58.653Z</time></trkpt><trkpt lat="43.74127" lon="12.132635"><ele>973.5999999999999</ele><time>2026-03-22T09:31:59.653Z</time></trkpt><trkpt lat="43.7413433" lon="12.1327"><ele>974.8</ele><time>2026-03-22T09:32:00.652Z</time></trkpt><trkpt lat="43.741415" lon="12.13278"><ele>976.0</ele><time>2026-03-22T09:32:01.653Z</time></trkpt><trkpt lat="43.74148" lon="12.1328717"><ele>976.0</ele><time>2026-03-22T09:32:02.653Z</time></trkpt><trkpt lat="43.741545" lon="12.1329717"><ele>975.9999999999999</ele><time>2026-03-22T09:32:03.652Z</time></trkpt><trkpt lat="43.741605" lon="12.1330767"><ele>975.9999999999999</ele><time>2026-03-22T09:32:04.652Z</time></trkpt><trkpt lat="43.7416667" lon="12.1331917"><ele>976.0</ele><time>2026-03-22T09:32:05.652Z</time></trkpt><trkpt lat="43.7417283" lon="12.1332883"><ele>976.0</ele><time>2026-03-22T09:32:06.653Z</time></trkpt><trkpt lat="43.7417933" lon="12.13337"><ele>975.3333333333333</ele><time>2026-03-22T09:32:07.653Z</time></trkpt><trkpt lat="43.7418617" lon="12.1334567"><ele>974.6666666666666</ele><time>2026-03-22T09:32:08.654Z</time></trkpt><trkpt lat="43.7419217" lon="12.1335517"><ele>974.0</ele><time>2026-03-22T09:32:09.651Z</time></trkpt><trkpt lat="43.7419767" lon="12.13365"><ele>973.3333333333333</ele><time>2026-03-22T09:32:10.652Z</time></trkpt><trkpt lat="43.7420183" lon="12.1337483"><ele>972.6666666666666</ele><time>2026-03-22T09:32:11.652Z</time></trkpt><trkpt lat="43.74206" lon="12.1338383"><ele>972.0</ele><time>2026-03-22T09:32:12.651Z</time></trkpt><trkpt lat="43.742105" lon="12.1339117"><ele>973.6</ele><time>2026-03-22T09:32:13.651Z</time></trkpt><trkpt lat="43.74219" lon="12.134045"><ele>975.2</ele><time>2026-03-22T09:32:15.654Z</time></trkpt><trkpt lat="43.74228" lon="12.134155"><ele>976.8</ele><time>2026-03-22T09:32:17.655Z</time></trkpt><trkpt lat="43.74234" lon="12.1341833"><ele>978.4</ele><time>2026-03-22T09:32:18.655Z</time></trkpt><trkpt lat="43.7424267" lon="12.13419"><ele>980.0</ele><time>2026-03-22T09:32:19.654Z</time></trkpt><trkpt lat="43.7425283" lon="12.13418"><ele>980.0</ele><time>2026-03-22T09:32:20.655Z</time></trkpt><trkpt lat="43.7426333" lon="12.1341633"><ele>980.0</ele><time>2026-03-22T09:32:21.655Z</time></trkpt><trkpt lat="43.74274" lon="12.134155"><ele>980.0</ele><time>2026-03-22T09:32:22.656Z</time></trkpt><trkpt lat="43.7428333" lon="12.13415"><ele>980.0</ele><time>2026-03-22T09:32:23.654Z</time></trkpt><trkpt lat="43.742925" lon="12.1341433"><ele>980.0</ele><time>2026-03-22T09:32:24.654Z</time></trkpt><trkpt lat="43.743005" lon="12.1341333"><ele>981.5000000000001</ele><time>2026-03-22T09:32:25.654Z</time></trkpt><trkpt lat="43.743085" lon="12.1341233"><ele>983.0</ele><time>2026-03-22T09:32:26.655Z</time></trkpt><trkpt lat="43.7431717" lon="12.1341167"><ele>984.5</ele><time>2026-03-22T09:32:27.652Z</time></trkpt><trkpt lat="43.7432567" lon="12.1341133"><ele>986.0</ele><time>2026-03-22T09:32:28.651Z</time></trkpt><trkpt lat="43.7433383" lon="12.13411"><ele>987.5000000000001</ele><time>2026-03-22T09:32:29.651Z</time></trkpt><trkpt lat="43.743415" lon="12.1341067"><ele>989.0</ele><time>2026-03-22T09:32:30.654Z</time></trkpt><trkpt lat="43.743485" lon="12.134115"><ele>989.0000000000001</ele><time>2026-03-22T09:32:31.651Z</time></trkpt><trkpt lat="43.743545" lon="12.1341417"><ele>989.0</ele><time>2026-03-22T09:32:32.655Z</time></trkpt><trkpt lat="43.7436083" lon="12.134195"><ele>989.0</ele><time>2026-03-22T09:32:33.652Z</time></trkpt><trkpt lat="43.7436767" lon="12.1342583"><ele>989.0</ele><time>2026-03-22T09:32:34.652Z</time></trkpt><trkpt lat="43.7437467" lon="12.13433"><ele>989.0000000000001</ele><time>2026-03-22T09:32:35.653Z</time></trkpt><trkpt lat="43.743815" lon="12.1344017"><ele>989.0</ele><time>2026-03-22T09:32:36.652Z</time></trkpt><trkpt lat="43.7438733" lon="12.134475"><ele>990.1666666666667</ele><time>2026-03-22T09:32:37.655Z</time></trkpt><trkpt lat="43.7439283" lon="12.1345667"><ele>991.3333333333334</ele><time>2026-03-22T09:32:38.655Z</time></trkpt><trkpt lat="43.7439717" lon="12.1346667"><ele>992.5</ele><time>2026-03-22T09:32:39.653Z</time></trkpt><trkpt lat="43.7440017" lon="12.134785"><ele>993.6666666666667</ele><time>2026-03-22T09:32:40.651Z</time></trkpt><trkpt lat="43.7440283" lon="12.1349167"><ele>994.8333333333334</ele><time>2026-03-22T09:32:41.652Z</time></trkpt><trkpt lat="43.7440567" lon="12.1350317"><ele>996.0</ele><time>2026-03-22T09:32:42.652Z</time></trkpt><trkpt lat="43.7440783" lon="12.135145"><ele>996.0</ele><time>2026-03-22T09:32:43.653Z</time></trkpt><trkpt lat="43.74411" lon="12.1352417"><ele>996.0</ele><time>2026-03-22T09:32:44.654Z</time></trkpt><trkpt lat="43.744145" lon="12.135335"><ele>996.0</ele><time>2026-03-22T09:32:45.655Z</time></trkpt><trkpt lat="43.7441867" lon="12.1354367"><ele>996.0</ele><time>2026-03-22T09:32:46.654Z</time></trkpt><trkpt lat="43.7442283" lon="12.1355317"><ele>996.0</ele><time>2026-03-22T09:32:47.654Z</time></trkpt><trkpt lat="43.74427" lon="12.1356217"><ele>996.0</ele><time>2026-03-22T09:32:48.655Z</time></trkpt><trkpt lat="43.7443083" lon="12.1357067"><ele>996.0</ele><time>2026-03-22T09:32:49.657Z</time></trkpt><trkpt lat="43.744345" lon="12.1357933"><ele>996.0</ele><time>2026-03-22T09:32:50.655Z</time></trkpt><trkpt lat="43.74437" lon="12.1358767"><ele>996.0</ele><time>2026-03-22T09:32:51.655Z</time></trkpt><trkpt lat="43.7443817" lon="12.135965"><ele>996.0</ele><time>2026-03-22T09:32:52.655Z</time></trkpt><trkpt lat="43.74437" lon="12.13614"><ele>996.0</ele><time>2026-03-22T09:32:54.652Z</time></trkpt><trkpt lat="43.744335" lon="12.13623"><ele>996.0</ele><time>2026-03-22T09:32:55.653Z</time></trkpt><trkpt lat="43.7442833" lon="12.136315"><ele>994.4</ele><time>2026-03-22T09:32:56.655Z</time></trkpt><trkpt lat="43.7442117" lon="12.136395"><ele>992.8</ele><time>2026-03-22T09:32:57.651Z</time></trkpt><trkpt lat="43.7441417" lon="12.1364767"><ele>991.1999999999999</ele><time>2026-03-22T09:32:58.654Z</time></trkpt><trkpt lat="43.7440733" lon="12.13657"><ele>989.5999999999999</ele><time>2026-03-22T09:32:59.653Z</time></trkpt><trkpt lat="43.7440133" lon="12.13668"><ele>988.0</ele><time>2026-03-22T09:33:00.653Z</time></trkpt><trkpt lat="43.74396" lon="12.1368033"><ele>988.0</ele><time>2026-03-22T09:33:01.653Z</time></trkpt><trkpt lat="43.7438983" lon="12.1369333"><ele>988.0</ele><time>2026-03-22T09:33:02.653Z</time></trkpt><trkpt lat="43.7438367" lon="12.1370633"><ele>988.0</ele><time>2026-03-22T09:33:03.651Z</time></trkpt><trkpt lat="43.743775" lon="12.137195"><ele>988.0</ele><time>2026-03-22T09:33:04.653Z</time></trkpt><trkpt lat="43.7437167" lon="12.13733"><ele>989.25</ele><time>2026-03-22T09:33:05.652Z</time></trkpt><trkpt lat="43.74366" lon="12.1374667"><ele>990.5</ele><time>2026-03-22T09:33:06.652Z</time></trkpt><trkpt lat="43.7436083" lon="12.137605"><ele>991.75</ele><time>2026-03-22T09:33:07.652Z</time></trkpt><trkpt lat="43.74356" lon="12.13775"><ele>993.0</ele><time>2026-03-22T09:33:08.651Z</time></trkpt><trkpt lat="43.7435117" lon="12.1378917"><ele>990.4</ele><time>2026-03-22T09:33:09.651Z</time></trkpt><trkpt lat="43.74346" lon="12.1380267"><ele>987.8</ele><time>2026-03-22T09:33:10.653Z</time></trkpt><trkpt lat="43.7433967" lon="12.13815"><ele>985.2</ele><time>2026-03-22T09:33:11.656Z</time></trkpt><trkpt lat="43.7433433" lon="12.13827"><ele>982.6</ele><time>2026-03-22T09:33:12.655Z</time></trkpt><trkpt lat="43.7433083" lon="12.1383917"><ele>980.0</ele><time>2026-03-22T09:33:13.654Z</time></trkpt><trkpt lat="43.74329" lon="12.1385233"><ele>980.0</ele><time>2026-03-22T09:33:14.655Z</time></trkpt><trkpt lat="43.743275" lon="12.13866"><ele>980.0</ele><time>2026-03-22T09:33:15.655Z</time></trkpt><trkpt lat="43.7432683" lon="12.13879"><ele>980.0</ele><time>2026-03-22T09:33:16.652Z</time></trkpt><trkpt lat="43.7432517" lon="12.13892"><ele>980.0</ele><time>2026-03-22T09:33:17.655Z</time></trkpt><trkpt lat="43.7432333" lon="12.1390583"><ele>980.0</ele><time>2026-03-22T09:33:18.654Z</time></trkpt><trkpt lat="43.743215" lon="12.1392"><ele>980.0</ele><time>2026-03-22T09:33:19.654Z</time></trkpt><trkpt lat="43.7431867" lon="12.1393483"><ele>980.0</ele><time>2026-03-22T09:33:20.657Z</time></trkpt><trkpt lat="43.74315" lon="12.1395017"><ele>980.0</ele><time>2026-03-22T09:33:21.655Z</time></trkpt><trkpt lat="43.743105" lon="12.1396567"><ele>980.0</ele><time>2026-03-22T09:33:22.655Z</time></trkpt><trkpt lat="43.7430617" lon="12.139815"><ele>980.25</ele><time>2026-03-22T09:33:23.651Z</time></trkpt><trkpt lat="43.7430267" lon="12.1399783"><ele>980.5</ele><time>2026-03-22T09:33:24.65Z</time></trkpt><trkpt lat="43.74299" lon="12.1401333"><ele>980.75</ele><time>2026-03-22T09:33:25.652Z</time></trkpt><trkpt lat="43.7429467" lon="12.14028"><ele>981.0</ele><time>2026-03-22T09:33:26.651Z</time></trkpt><trkpt lat="43.7428967" lon="12.1404167"><ele>981.0</ele><time>2026-03-22T09:33:27.652Z</time></trkpt><trkpt lat="43.742845" lon="12.1405483"><ele>980.9999999999999</ele><time>2026-03-22T09:33:28.652Z</time></trkpt><trkpt lat="43.742795" lon="12.1406817"><ele>980.9999999999999</ele><time>2026-03-22T09:33:29.652Z</time></trkpt><trkpt lat="43.74274" lon="12.140815"><ele>981.0</ele><time>2026-03-22T09:33:30.651Z</time></trkpt><trkpt lat="43.7426817" lon="12.1409417"><ele>981.0</ele><time>2026-03-22T09:33:31.651Z</time></trkpt><trkpt lat="43.7426183" lon="12.1410683"><ele>979.5</ele><time>2026-03-22T09:33:32.651Z</time></trkpt><trkpt lat="43.7425517" lon="12.14119"><ele>978.0</ele><time>2026-03-22T09:33:33.652Z</time></trkpt><trkpt lat="43.7424767" lon="12.1413067"><ele>976.5</ele><time>2026-03-22T09:33:34.651Z</time></trkpt><trkpt lat="43.7424017" lon="12.1414333"><ele>975.0</ele><time>2026-03-22T09:33:35.65Z</time></trkpt><trkpt lat="43.7423233" lon="12.1415483"><ele>976.6</ele><time>2026-03-22T09:33:36.651Z</time></trkpt><trkpt lat="43.7422467" lon="12.14164"><ele>978.2</ele><time>2026-03-22T09:33:37.651Z</time></trkpt><trkpt lat="43.7421617" lon="12.1417067"><ele>979.8</ele><time>2026-03-22T09:33:38.651Z</time></trkpt><trkpt lat="43.7420733" lon="12.1417633"><ele>981.4</ele><time>2026-03-22T09:33:39.65Z</time></trkpt><trkpt lat="43.7419783" lon="12.1418167"><ele>983.0</ele><time>2026-03-22T09:33:40.651Z</time></trkpt><trkpt lat="43.7418883" lon="12.1418917"><ele>980.75</ele><time>2026-03-22T09:33:41.65Z</time></trkpt><trkpt lat="43.74179" lon="12.1419733"><ele>978.5</ele><time>2026-03-22T09:33:42.651Z</time></trkpt><trkpt lat="43.741695" lon="12.1420583"><ele>976.25</ele><time>2026-03-22T09:33:43.654Z</time></trkpt><trkpt lat="43.7416033" lon="12.142145"><ele>974.0</ele><time>2026-03-22T09:33:44.654Z</time></trkpt><trkpt lat="43.7415" lon="12.1422217"><ele>974.0</ele><time>2026-03-22T09:33:45.654Z</time></trkpt><trkpt lat="43.7413833" lon="12.14229"><ele>974.0</ele><time>2026-03-22T09:33:46.651Z</time></trkpt><trkpt lat="43.74127" lon="12.14235"><ele>974.0</ele><time>2026-03-22T09:33:47.652Z</time></trkpt><trkpt lat="43.7411733" lon="12.14241"><ele>974.0</ele><time>2026-03-22T09:33:48.653Z</time></trkpt><trkpt lat="43.7410883" lon="12.142475"><ele>974.4000000000001</ele><time>2026-03-22T09:33:49.651Z</time></trkpt><trkpt lat="43.7410083" lon="12.1425467"><ele>974.8000000000001</ele><time>2026-03-22T09:33:50.652Z</time></trkpt><trkpt lat="43.7409267" lon="12.142615"><ele>975.1999999999999</ele><time>2026-03-22T09:33:51.651Z</time></trkpt><trkpt lat="43.7408383" lon="12.142675"><ele>975.5999999999999</ele><time>2026-03-22T09:33:52.651Z</time></trkpt><trkpt lat="43.7407467" lon="12.1427267"><ele>976.0</ele><time>2026-03-22T09:33:53.651Z</time></trkpt><trkpt lat="43.7406567" lon="12.14276"><ele>975.9999999999999</ele><time>2026-03-22T09:33:54.652Z</time></trkpt><trkpt lat="43.7405667" lon="12.1427833"><ele>976.0</ele><time>2026-03-22T09:33:55.652Z</time></trkpt><trkpt lat="43.74048" lon="12.1427917"><ele>976.0</ele><time>2026-03-22T09:33:56.651Z</time></trkpt><trkpt lat="43.7404" lon="12.14279"><ele>976.0</ele><time>2026-03-22T09:33:57.652Z</time></trkpt><trkpt lat="43.7403233" lon="12.142775"><ele>975.9999999999999</ele><time>2026-03-22T09:33:58.654Z</time></trkpt><trkpt lat="43.740245" lon="12.1427517"><ele>976.0</ele><time>2026-03-22T09:33:59.652Z</time></trkpt><trkpt lat="43.7401667" lon="12.14273"><ele>974.4999999999999</ele><time>2026-03-22T09:34:00.651Z</time></trkpt><trkpt lat="43.7400817" lon="12.142715"><ele>973.0</ele><time>2026-03-22T09:34:01.653Z</time></trkpt><trkpt lat="43.7399917" lon="12.142715"><ele>971.5</ele><time>2026-03-22T09:34:02.651Z</time></trkpt><trkpt lat="43.7399" lon="12.1427233"><ele>970.0</ele><time>2026-03-22T09:34:03.654Z</time></trkpt><trkpt lat="43.73981" lon="12.14272"><ele>968.4999999999999</ele><time>2026-03-22T09:34:04.652Z</time></trkpt><trkpt lat="43.73972" lon="12.142695"><ele>967.0</ele><time>2026-03-22T09:34:05.654Z</time></trkpt><trkpt lat="43.7396333" lon="12.1426467"><ele>966.9999999999999</ele><time>2026-03-22T09:34:06.652Z</time></trkpt><trkpt lat="43.73956" lon="12.1425933"><ele>967.0</ele><time>2026-03-22T09:34:07.652Z</time></trkpt><trkpt lat="43.7394917" lon="12.1425333"><ele>967.0</ele><time>2026-03-22T09:34:08.651Z</time></trkpt><trkpt lat="43.7394233" lon="12.1424917"><ele>967.0</ele><time>2026-03-22T09:34:09.653Z</time></trkpt><trkpt lat="43.7393517" lon="12.1424833"><ele>966.9999999999999</ele><time>2026-03-22T09:34:10.653Z</time></trkpt><trkpt lat="43.7392733" lon="12.142495"><ele>967.0</ele><time>2026-03-22T09:34:11.654Z</time></trkpt><trkpt lat="43.73919" lon="12.14252"><ele>963.8</ele><time>2026-03-22T09:34:12.654Z</time></trkpt><trkpt lat="43.73911" lon="12.142555"><ele>960.6</ele><time>2026-03-22T09:34:13.655Z</time></trkpt><trkpt lat="43.7390417" lon="12.1425967"><ele>957.3999999999999</ele><time>2026-03-22T09:34:14.654Z</time></trkpt><trkpt lat="43.7389733" lon="12.14272"><ele>954.1999999999999</ele><time>2026-03-22T09:34:16.651Z</time></trkpt><trkpt lat="43.739" lon="12.1428733"><ele>951.0</ele><time>2026-03-22T09:34:18.652Z</time></trkpt><trkpt lat="43.7390567" lon="12.1429483"><ele>951.0</ele><time>2026-03-22T09:34:19.65Z</time></trkpt><trkpt lat="43.739145" lon="12.1430167"><ele>951.0</ele><time>2026-03-22T09:34:20.651Z</time></trkpt><trkpt lat="43.73926" lon="12.1430867"><ele>951.0</ele><time>2026-03-22T09:34:21.651Z</time></trkpt><trkpt lat="43.7393883" lon="12.1431783"><ele>951.0</ele><time>2026-03-22T09:34:22.652Z</time></trkpt><trkpt lat="43.73951" lon="12.143275"><ele>951.25</ele><time>2026-03-22T09:34:23.654Z</time></trkpt><trkpt lat="43.7396217" lon="12.1433717"><ele>951.5</ele><time>2026-03-22T09:34:24.655Z</time></trkpt><trkpt lat="43.7397233" lon="12.14347"><ele>951.75</ele><time>2026-03-22T09:34:25.655Z</time></trkpt><trkpt lat="43.7398117" lon="12.1435733"><ele>952.0</ele><time>2026-03-22T09:34:26.655Z</time></trkpt><trkpt lat="43.73989" lon="12.143665"><ele>951.9999999999999</ele><time>2026-03-22T09:34:27.65Z</time></trkpt><trkpt lat="43.7399583" lon="12.1437433"><ele>952.0</ele><time>2026-03-22T09:34:28.651Z</time></trkpt><trkpt lat="43.7400133" lon="12.143825"><ele>952.0</ele><time>2026-03-22T09:34:29.651Z</time></trkpt><trkpt lat="43.7400533" lon="12.1439117"><ele>952.0</ele><time>2026-03-22T09:34:30.651Z</time></trkpt><trkpt lat="43.7400767" lon="12.1440017"><ele>951.9999999999999</ele><time>2026-03-22T09:34:31.652Z</time></trkpt><trkpt lat="43.7400717" lon="12.1440967"><ele>952.0</ele><time>2026-03-22T09:34:32.652Z</time></trkpt><trkpt lat="43.740045" lon="12.144185"><ele>949.6666666666666</ele><time>2026-03-22T09:34:33.654Z</time></trkpt><trkpt lat="43.7399833" lon="12.14427"><ele>947.3333333333333</ele><time>2026-03-22T09:34:34.652Z</time></trkpt><trkpt lat="43.73992" lon="12.1443533"><ele>945.0</ele><time>2026-03-22T09:34:35.65Z</time></trkpt><trkpt lat="43.739855" lon="12.1444333"><ele>942.6666666666667</ele><time>2026-03-22T09:34:36.651Z</time></trkpt><trkpt lat="43.7397867" lon="12.1445083"><ele>940.3333333333334</ele><time>2026-03-22T09:34:37.652Z</time></trkpt><trkpt lat="43.7397167" lon="12.14457"><ele>938.0</ele><time>2026-03-22T09:34:38.651Z</time></trkpt><trkpt lat="43.7396533" lon="12.144635"><ele>938.0</ele><time>2026-03-22T09:34:39.651Z</time></trkpt><trkpt lat="43.7396083" lon="12.1447"><ele>938.0</ele><time>2026-03-22T09:34:40.652Z</time></trkpt><trkpt lat="43.739545" lon="12.1448417"><ele>938.0</ele><time>2026-03-22T09:34:42.651Z</time></trkpt><trkpt lat="43.7395583" lon="12.14501"><ele>938.0</ele><time>2026-03-22T09:34:44.655Z</time></trkpt><trkpt lat="43.7396033" lon="12.14509"><ele>938.0</ele><time>2026-03-22T09:34:45.655Z</time></trkpt><trkpt lat="43.739665" lon="12.145155"><ele>936.4</ele><time>2026-03-22T09:34:46.65Z</time></trkpt><trkpt lat="43.7397583" lon="12.1452067"><ele>934.8</ele><time>2026-03-22T09:34:47.651Z</time></trkpt><trkpt lat="43.7398433" lon="12.1452617"><ele>933.2</ele><time>2026-03-22T09:34:48.651Z</time></trkpt><trkpt lat="43.7399183" lon="12.14533"><ele>931.6</ele><time>2026-03-22T09:34:49.651Z</time></trkpt><trkpt lat="43.739975" lon="12.1454233"><ele>930.0</ele><time>2026-03-22T09:34:50.65Z</time></trkpt><trkpt lat="43.7400167" lon="12.1455483"><ele>930.0</ele><time>2026-03-22T09:34:51.651Z</time></trkpt><trkpt lat="43.7400317" lon="12.1456533"><ele>930.0</ele><time>2026-03-22T09:34:52.651Z</time></trkpt><trkpt lat="43.7400267" lon="12.1458"><ele>930.0</ele><time>2026-03-22T09:34:54.651Z</time></trkpt><trkpt lat="43.7399167" lon="12.1458783"><ele>930.0</ele><time>2026-03-22T09:34:56.652Z</time></trkpt><trkpt lat="43.7398067" lon="12.1459017"><ele>930.0</ele><time>2026-03-22T09:34:57.652Z</time></trkpt><trkpt lat="43.7396633" lon="12.1459083"><ele>930.3333333333333</ele><time>2026-03-22T09:34:58.652Z</time></trkpt><trkpt lat="43.7394933" lon="12.1459"><ele>930.6666666666666</ele><time>2026-03-22T09:34:59.65Z</time></trkpt><trkpt lat="43.7393333" lon="12.1458683"><ele>931.0</ele><time>2026-03-22T09:35:00.651Z</time></trkpt><trkpt lat="43.7392033" lon="12.1458367"><ele>928.5999999999999</ele><time>2026-03-22T09:35:01.651Z</time></trkpt><trkpt lat="43.7390917" lon="12.1458083"><ele>926.1999999999999</ele><time>2026-03-22T09:35:02.65Z</time></trkpt><trkpt lat="43.738995" lon="12.1457733"><ele>923.8000000000001</ele><time>2026-03-22T09:35:03.654Z</time></trkpt><trkpt lat="43.7389083" lon="12.1457217"><ele>921.4000000000001</ele><time>2026-03-22T09:35:04.652Z</time></trkpt><trkpt lat="43.738835" lon="12.1456667"><ele>919.0</ele><time>2026-03-22T09:35:05.651Z</time></trkpt><trkpt lat="43.73877" lon="12.1456233"><ele>919.0</ele><time>2026-03-22T09:35:06.651Z</time></trkpt><trkpt lat="43.7386617" lon="12.14562"><ele>919.0000000000001</ele><time>2026-03-22T09:35:08.652Z</time></trkpt><trkpt lat="43.7385733" lon="12.1457333"><ele>919.0000000000001</ele><time>2026-03-22T09:35:10.651Z</time></trkpt><trkpt lat="43.7385483" lon="12.1458417"><ele>919.0</ele><time>2026-03-22T09:35:11.651Z</time></trkpt><trkpt lat="43.738525" lon="12.1459917"><ele>919.0</ele><time>2026-03-22T09:35:12.651Z</time></trkpt><trkpt lat="43.7384933" lon="12.1461333"><ele>915.6666666666666</ele><time>2026-03-22T09:35:13.65Z</time></trkpt><trkpt lat="43.738455" lon="12.1462383"><ele>912.3333333333333</ele><time>2026-03-22T09:35:14.651Z</time></trkpt><trkpt lat="43.7384" lon="12.1463133"><ele>909.0</ele><time>2026-03-22T09:35:15.65Z</time></trkpt><trkpt lat="43.73834" lon="12.146365"><ele>905.6666666666667</ele><time>2026-03-22T09:35:16.651Z</time></trkpt><trkpt lat="43.7382617" lon="12.1463783"><ele>902.3333333333334</ele><time>2026-03-22T09:35:17.65Z</time></trkpt><trkpt lat="43.7381633" lon="12.1463517"><ele>899.0</ele><time>2026-03-22T09:35:18.652Z</time></trkpt><trkpt lat="43.7380417" lon="12.1462683"><ele>899.0</ele><time>2026-03-22T09:35:19.653Z</time></trkpt><trkpt lat="43.73794" lon="12.1461783"><ele>899.0000000000001</ele><time>2026-03-22T09:35:20.65Z</time></trkpt><trkpt lat="43.737845" lon="12.1460967"><ele>899.0000000000001</ele><time>2026-03-22T09:35:21.651Z</time></trkpt><trkpt lat="43.7377517" lon="12.1460517"><ele>899.0</ele><time>2026-03-22T09:35:22.651Z</time></trkpt><trkpt lat="43.7376567" lon="12.1460317"><ele>899.0</ele><time>2026-03-22T09:35:23.65Z</time></trkpt><trkpt lat="43.7375567" lon="12.14604"><ele>895.6666666666667</ele><time>2026-03-22T09:35:24.652Z</time></trkpt><trkpt lat="43.7374317" lon="12.1460967"><ele>892.3333333333333</ele><time>2026-03-22T09:35:25.651Z</time></trkpt><trkpt lat="43.7372817" lon="12.14619"><ele>889.0</ele><time>2026-03-22T09:35:26.651Z</time></trkpt><trkpt lat="43.7371267" lon="12.146295"><ele>889.0</ele><time>2026-03-22T09:35:27.65Z</time></trkpt><trkpt lat="43.736975" lon="12.1464033"><ele>889.0</ele><time>2026-03-22T09:35:28.651Z</time></trkpt><trkpt lat="43.7368333" lon="12.1465"><ele>889.0</ele><time>2026-03-22T09:35:29.651Z</time></trkpt><trkpt lat="43.7367033" lon="12.1465717"><ele>895.75</ele><time>2026-03-22T09:35:30.65Z</time></trkpt><trkpt lat="43.7365717" lon="12.14662"><ele>902.5</ele><time>2026-03-22T09:35:31.653Z</time></trkpt><trkpt lat="43.7364367" lon="12.146655"><ele>909.25</ele><time>2026-03-22T09:35:32.65Z</time></trkpt><trkpt lat="43.7363083" lon="12.1466933"><ele>916.0</ele><time>2026-03-22T09:35:33.651Z</time></trkpt><trkpt lat="43.7361983" lon="12.1467333"><ele>916.0</ele><time>2026-03-22T09:35:34.653Z</time></trkpt><trkpt lat="43.7361133" lon="12.146775"><ele>915.9999999999999</ele><time>2026-03-22T09:35:35.65Z</time></trkpt><trkpt lat="43.7360433" lon="12.1468317"><ele>915.9999999999999</ele><time>2026-03-22T09:35:36.651Z</time></trkpt><trkpt lat="43.7359833" lon="12.1469067"><ele>916.0</ele><time>2026-03-22T09:35:37.651Z</time></trkpt><trkpt lat="43.7359333" lon="12.147005"><ele>916.0</ele><time>2026-03-22T09:35:38.651Z</time></trkpt><trkpt lat="43.7358867" lon="12.147145"><ele>914.0</ele><time>2026-03-22T09:35:39.651Z</time></trkpt><trkpt lat="43.7358417" lon="12.1473117"><ele>912.0</ele><time>2026-03-22T09:35:40.655Z</time></trkpt><trkpt lat="43.735795" lon="12.147475"><ele>910.0</ele><time>2026-03-22T09:35:41.655Z</time></trkpt><trkpt lat="43.7357483" lon="12.14761"><ele>908.0</ele><time>2026-03-22T09:35:42.654Z</time></trkpt><trkpt lat="43.735695" lon="12.14771"><ele>908.0</ele><time>2026-03-22T09:35:43.654Z</time></trkpt><trkpt lat="43.7356383" lon="12.1477733"><ele>908.0</ele><time>2026-03-22T09:35:44.655Z</time></trkpt><trkpt lat="43.73557" lon="12.14781"><ele>908.0</ele><time>2026-03-22T09:35:45.65Z</time></trkpt><trkpt lat="43.7354733" lon="12.14782"><ele>908.0</ele><time>2026-03-22T09:35:46.652Z</time></trkpt><trkpt lat="43.7353683" lon="12.147805"><ele>908.0</ele><time>2026-03-22T09:35:47.654Z</time></trkpt><trkpt lat="43.7352517" lon="12.1477633"><ele>907.0</ele><time>2026-03-22T09:35:48.654Z</time></trkpt><trkpt lat="43.73512" lon="12.1476933"><ele>906.0</ele><time>2026-03-22T09:35:49.655Z</time></trkpt><trkpt lat="43.7349933" lon="12.1476117"><ele>905.0</ele><time>2026-03-22T09:35:50.655Z</time></trkpt><trkpt lat="43.7348667" lon="12.1475183"><ele>904.0</ele><time>2026-03-22T09:35:51.653Z</time></trkpt><trkpt lat="43.73476" lon="12.1474217"><ele>901.6</ele><time>2026-03-22T09:35:52.653Z</time></trkpt><trkpt lat="43.734665" lon="12.147325"><ele>899.2</ele><time>2026-03-22T09:35:53.651Z</time></trkpt><trkpt lat="43.7345883" lon="12.14724"><ele>896.8000000000001</ele><time>2026-03-22T09:35:54.652Z</time></trkpt><trkpt lat="43.7345117" lon="12.1471783"><ele>894.4000000000001</ele><time>2026-03-22T09:35:55.653Z</time></trkpt><trkpt lat="43.7344267" lon="12.14714"><ele>892.0</ele><time>2026-03-22T09:35:56.652Z</time></trkpt><trkpt lat="43.7343267" lon="12.1471267"><ele>892.0</ele><time>2026-03-22T09:35:57.652Z</time></trkpt><trkpt lat="43.7342117" lon="12.1471367"><ele>892.0</ele><time>2026-03-22T09:35:58.653Z</time></trkpt><trkpt lat="43.73409" lon="12.1471567"><ele>892.0</ele><time>2026-03-22T09:35:59.652Z</time></trkpt><trkpt lat="43.7339667" lon="12.1471883"><ele>892.0</ele><time>2026-03-22T09:36:00.652Z</time></trkpt><trkpt lat="43.7338467" lon="12.1472417"><ele>892.0</ele><time>2026-03-22T09:36:01.658Z</time></trkpt><trkpt lat="43.7337383" lon="12.1473"><ele>892.0</ele><time>2026-03-22T09:36:02.651Z</time></trkpt><trkpt lat="43.7336483" lon="12.1473633"><ele>892.0</ele><time>2026-03-22T09:36:03.654Z</time></trkpt><trkpt lat="43.7335733" lon="12.14744"><ele>892.0</ele><time>2026-03-22T09:36:04.652Z</time></trkpt><trkpt lat="43.7335233" lon="12.147535"><ele>892.0</ele><time>2026-03-22T09:36:05.651Z</time></trkpt><trkpt lat="43.7334917" lon="12.1476417"><ele>892.8</ele><time>2026-03-22T09:36:06.65Z</time></trkpt><trkpt lat="43.7334733" lon="12.1477583"><ele>893.6</ele><time>2026-03-22T09:36:07.651Z</time></trkpt><trkpt lat="43.7334867" lon="12.1478917"><ele>894.3999999999999</ele><time>2026-03-22T09:36:08.65Z</time></trkpt><trkpt lat="43.73351" lon="12.1480467"><ele>895.1999999999999</ele><time>2026-03-22T09:36:09.651Z</time></trkpt><trkpt lat="43.7335283" lon="12.1482167"><ele>896.0</ele><time>2026-03-22T09:36:10.652Z</time></trkpt><trkpt lat="43.73356" lon="12.1484017"><ele>904.25</ele><time>2026-03-22T09:36:11.652Z</time></trkpt><trkpt lat="43.7335983" lon="12.1485917"><ele>912.5</ele><time>2026-03-22T09:36:12.651Z</time></trkpt><trkpt lat="43.73364" lon="12.148775"><ele>920.75</ele><time>2026-03-22T09:36:13.655Z</time></trkpt><trkpt lat="43.7336817" lon="12.1489433"><ele>929.0</ele><time>2026-03-22T09:36:14.651Z</time></trkpt><trkpt lat="43.73371" lon="12.1490867"><ele>929.0000000000001</ele><time>2026-03-22T09:36:15.651Z</time></trkpt><trkpt lat="43.73372" lon="12.1492033"><ele>929.0</ele><time>2026-03-22T09:36:16.651Z</time></trkpt><trkpt lat="43.7337233" lon="12.1493067"><ele>929.0</ele><time>2026-03-22T09:36:17.654Z</time></trkpt><trkpt lat="43.7337033" lon="12.1493967"><ele>929.0</ele><time>2026-03-22T09:36:18.654Z</time></trkpt><trkpt lat="43.7336517" lon="12.149455"><ele>929.0000000000001</ele><time>2026-03-22T09:36:19.654Z</time></trkpt><trkpt lat="43.7335417" lon="12.1494683"><ele>929.0</ele><time>2026-03-22T09:36:20.654Z</time></trkpt><trkpt lat="43.733435" lon="12.1494833"><ele>920.75</ele><time>2026-03-22T09:36:21.654Z</time></trkpt><trkpt lat="43.7333117" lon="12.14949"><ele>912.5</ele><time>2026-03-22T09:36:22.654Z</time></trkpt><trkpt lat="43.73319" lon="12.1495067"><ele>904.25</ele><time>2026-03-22T09:36:23.651Z</time></trkpt><trkpt lat="43.733075" lon="12.14952"><ele>896.0</ele><time>2026-03-22T09:36:24.652Z</time></trkpt><trkpt lat="43.732975" lon="12.14955"><ele>896.0000000000001</ele><time>2026-03-22T09:36:25.652Z</time></trkpt><trkpt lat="43.7328917" lon="12.1496033"><ele>896.0</ele><time>2026-03-22T09:36:26.651Z</time></trkpt><trkpt lat="43.732825" lon="12.14968"><ele>896.0</ele><time>2026-03-22T09:36:27.651Z</time></trkpt><trkpt lat="43.7327733" lon="12.1497767"><ele>896.0</ele><time>2026-03-22T09:36:28.652Z</time></trkpt><trkpt lat="43.7327433" lon="12.1498817"><ele>896.0000000000001</ele><time>2026-03-22T09:36:29.651Z</time></trkpt><trkpt lat="43.732735" lon="12.1500017"><ele>896.0</ele><time>2026-03-22T09:36:30.652Z</time></trkpt><trkpt lat="43.7327533" lon="12.150135"><ele>901.0</ele><time>2026-03-22T09:36:31.651Z</time></trkpt><trkpt lat="43.7327917" lon="12.1502933"><ele>906.0</ele><time>2026-03-22T09:36:32.651Z</time></trkpt><trkpt lat="43.7328433" lon="12.1504617"><ele>911.0</ele><time>2026-03-22T09:36:33.652Z</time></trkpt><trkpt lat="43.7329033" lon="12.1506217"><ele>916.0</ele><time>2026-03-22T09:36:34.652Z</time></trkpt><trkpt lat="43.732965" lon="12.15077"><ele>917.75</ele><time>2026-03-22T09:36:35.65Z</time></trkpt><trkpt lat="43.73302" lon="12.15092"><ele>919.5</ele><time>2026-03-22T09:36:36.651Z</time></trkpt><trkpt lat="43.7330383" lon="12.1510767"><ele>921.25</ele><time>2026-03-22T09:36:37.654Z</time></trkpt><trkpt lat="43.7330283" lon="12.1512367"><ele>923.0</ele><time>2026-03-22T09:36:38.651Z</time></trkpt><trkpt lat="43.7329933" lon="12.1514033"><ele>923.75</ele><time>2026-03-22T09:36:39.655Z</time></trkpt><trkpt lat="43.7329417" lon="12.1515783"><ele>924.5</ele><time>2026-03-22T09:36:40.651Z</time></trkpt><trkpt lat="43.732885" lon="12.151775"><ele>925.25</ele><time>2026-03-22T09:36:41.658Z</time></trkpt><trkpt lat="43.7328183" lon="12.15196"><ele>926.0</ele><time>2026-03-22T09:36:42.653Z</time></trkpt><trkpt lat="43.7327483" lon="12.15213"><ele>919.5999999999999</ele><time>2026-03-22T09:36:43.655Z</time></trkpt><trkpt lat="43.7326833" lon="12.1522817"><ele>913.1999999999999</ele><time>2026-03-22T09:36:44.654Z</time></trkpt><trkpt lat="43.7326167" lon="12.1524117"><ele>906.8000000000001</ele><time>2026-03-22T09:36:45.651Z</time></trkpt><trkpt lat="43.7325517" lon="12.1525067"><ele>900.4000000000001</ele><time>2026-03-22T09:36:46.655Z</time></trkpt><trkpt lat="43.7324883" lon="12.15258"><ele>894.0</ele><time>2026-03-22T09:36:47.65Z</time></trkpt><trkpt lat="43.732425" lon="12.15264"><ele>894.0</ele><time>2026-03-22T09:36:48.654Z</time></trkpt><trkpt lat="43.73237" lon="12.1526967"><ele>894.0</ele><time>2026-03-22T09:36:49.65Z</time></trkpt><trkpt lat="43.7323117" lon="12.1527967"><ele>894.0</ele><time>2026-03-22T09:36:51.654Z</time></trkpt><trkpt lat="43.7324067" lon="12.1528417"><ele>894.0</ele><time>2026-03-22T09:36:54.654Z</time></trkpt><trkpt lat="43.732515" lon="12.1527767"><ele>894.0</ele><time>2026-03-22T09:36:56.655Z</time></trkpt><trkpt lat="43.7325683" lon="12.1527167"><ele>894.0</ele><time>2026-03-22T09:36:57.654Z</time></trkpt><trkpt lat="43.7326383" lon="12.152655"><ele>894.0</ele><time>2026-03-22T09:36:58.654Z</time></trkpt><trkpt lat="43.7327117" lon="12.1526083"><ele>894.0000000000001</ele><time>2026-03-22T09:36:59.653Z</time></trkpt><trkpt lat="43.732815" lon="12.1526267"><ele>894.0000000000001</ele><time>2026-03-22T09:37:01.655Z</time></trkpt><trkpt lat="43.7328483" lon="12.1527267"><ele>894.0</ele><time>2026-03-22T09:37:03.653Z</time></trkpt><trkpt lat="43.7328017" lon="12.1528917"><ele>894.0</ele><time>2026-03-22T09:37:05.654Z</time></trkpt><trkpt lat="43.7327483" lon="12.1529817"><ele>894.0</ele><time>2026-03-22T09:37:06.654Z</time></trkpt><trkpt lat="43.7326867" lon="12.15308"><ele>894.0000000000001</ele><time>2026-03-22T09:37:07.651Z</time></trkpt><trkpt lat="43.7326283" lon="12.1531883"><ele>894.0000000000001</ele><time>2026-03-22T09:37:08.653Z</time></trkpt><trkpt lat="43.7325783" lon="12.153305"><ele>894.0</ele><time>2026-03-22T09:37:09.65Z</time></trkpt><trkpt lat="43.7325383" lon="12.153445"><ele>894.0</ele><time>2026-03-22T09:37:10.654Z</time></trkpt><trkpt lat="43.7325233" lon="12.1535817"><ele>894.75</ele><time>2026-03-22T09:37:11.65Z</time></trkpt><trkpt lat="43.7325317" lon="12.153715"><ele>895.5</ele><time>2026-03-22T09:37:12.65Z</time></trkpt><trkpt lat="43.7325533" lon="12.153855"><ele>896.25</ele><time>2026-03-22T09:37:13.654Z</time></trkpt><trkpt lat="43.732595" lon="12.1540067"><ele>897.0</ele><time>2026-03-22T09:37:14.655Z</time></trkpt><trkpt lat="43.7326467" lon="12.154175"><ele>897.5</ele><time>2026-03-22T09:37:15.655Z</time></trkpt><trkpt lat="43.7326983" lon="12.1543567"><ele>898.0</ele><time>2026-03-22T09:37:16.651Z</time></trkpt><trkpt lat="43.7327367" lon="12.1545367"><ele>898.5</ele><time>2026-03-22T09:37:17.652Z</time></trkpt><trkpt lat="43.7327467" lon="12.15471"><ele>899.0</ele><time>2026-03-22T09:37:18.651Z</time></trkpt><trkpt lat="43.732735" lon="12.1548833"><ele>898.6</ele><time>2026-03-22T09:37:19.652Z</time></trkpt><trkpt lat="43.73272" lon="12.15505"><ele>898.2</ele><time>2026-03-22T09:37:20.652Z</time></trkpt><trkpt lat="43.7327017" lon="12.1552133"><ele>897.8000000000001</ele><time>2026-03-22T09:37:21.653Z</time></trkpt><trkpt lat="43.7327017" lon="12.15536"><ele>897.4000000000001</ele><time>2026-03-22T09:37:22.652Z</time></trkpt><trkpt lat="43.7327133" lon="12.1554967"><ele>897.0</ele><time>2026-03-22T09:37:23.655Z</time></trkpt><trkpt lat="43.732745" lon="12.1556267"><ele>899.8</ele><time>2026-03-22T09:37:24.654Z</time></trkpt><trkpt lat="43.7327933" lon="12.1557467"><ele>902.6</ele><time>2026-03-22T09:37:25.653Z</time></trkpt><trkpt lat="43.7328617" lon="12.15584"><ele>905.3999999999999</ele><time>2026-03-22T09:37:26.65Z</time></trkpt><trkpt lat="43.7329483" lon="12.1558967"><ele>908.1999999999999</ele><time>2026-03-22T09:37:27.651Z</time></trkpt><trkpt lat="43.73305" lon="12.1559067"><ele>911.0</ele><time>2026-03-22T09:37:28.651Z</time></trkpt><trkpt lat="43.7331617" lon="12.1558883"><ele>911.0</ele><time>2026-03-22T09:37:29.653Z</time></trkpt><trkpt lat="43.7332817" lon="12.1558633"><ele>911.0</ele><time>2026-03-22T09:37:30.655Z</time></trkpt><trkpt lat="43.73341" lon="12.1558433"><ele>911.0</ele><time>2026-03-22T09:37:31.651Z</time></trkpt><trkpt lat="43.7335383" lon="12.1558383"><ele>911.0</ele><time>2026-03-22T09:37:32.651Z</time></trkpt><trkpt lat="43.7336633" lon="12.1558683"><ele>913.25</ele><time>2026-03-22T09:37:33.654Z</time></trkpt><trkpt lat="43.733785" lon="12.15592"><ele>915.5</ele><time>2026-03-22T09:37:34.65Z</time></trkpt><trkpt lat="43.7338883" lon="12.1559883"><ele>917.75</ele><time>2026-03-22T09:37:35.657Z</time></trkpt><trkpt lat="43.7339833" lon="12.1560533"><ele>920.0</ele><time>2026-03-22T09:37:36.654Z</time></trkpt><trkpt lat="43.7340833" lon="12.1560983"><ele>920.0</ele><time>2026-03-22T09:37:37.655Z</time></trkpt><trkpt lat="43.73419" lon="12.1561233"><ele>920.0</ele><time>2026-03-22T09:37:38.655Z</time></trkpt><trkpt lat="43.7343133" lon="12.1561283"><ele>920.0</ele><time>2026-03-22T09:37:39.65Z</time></trkpt><trkpt lat="43.7344483" lon="12.1561067"><ele>920.0</ele><time>2026-03-22T09:37:40.652Z</time></trkpt><trkpt lat="43.7345833" lon="12.1560767"><ele>922.6</ele><time>2026-03-22T09:37:41.653Z</time></trkpt><trkpt lat="43.7346967" lon="12.1560567"><ele>925.2</ele><time>2026-03-22T09:37:42.653Z</time></trkpt><trkpt lat="43.7347933" lon="12.1560567"><ele>927.8</ele><time>2026-03-22T09:37:43.653Z</time></trkpt><trkpt lat="43.7348917" lon="12.156085"><ele>930.4</ele><time>2026-03-22T09:37:44.655Z</time></trkpt><trkpt lat="43.7349733" lon="12.1561467"><ele>933.0</ele><time>2026-03-22T09:37:45.653Z</time></trkpt><trkpt lat="43.73503" lon="12.15625"><ele>933.0</ele><time>2026-03-22T09:37:46.654Z</time></trkpt><trkpt lat="43.7350633" lon="12.15639"><ele>933.0</ele><time>2026-03-22T09:37:47.654Z</time></trkpt><trkpt lat="43.7350933" lon="12.156565"><ele>933.0</ele><time>2026-03-22T09:37:48.653Z</time></trkpt><trkpt lat="43.7351267" lon="12.15677"><ele>933.0</ele><time>2026-03-22T09:37:49.655Z</time></trkpt><trkpt lat="43.735175" lon="12.1569833"><ele>939.0</ele><time>2026-03-22T09:37:50.656Z</time></trkpt><trkpt lat="43.7352133" lon="12.1571817"><ele>945.0</ele><time>2026-03-22T09:37:51.654Z</time></trkpt><trkpt lat="43.73524" lon="12.157375"><ele>951.0</ele><time>2026-03-22T09:37:52.654Z</time></trkpt><trkpt lat="43.7352567" lon="12.1575683"><ele>957.0</ele><time>2026-03-22T09:37:53.653Z</time></trkpt><trkpt lat="43.7352483" lon="12.1577867"><ele>957.0</ele><time>2026-03-22T09:37:54.651Z</time></trkpt><trkpt lat="43.73523" lon="12.158025"><ele>957.0</ele><time>2026-03-22T09:37:55.656Z</time></trkpt><trkpt lat="43.73521" lon="12.1582667"><ele>957.0</ele><time>2026-03-22T09:37:56.65Z</time></trkpt><trkpt lat="43.7351817" lon="12.158505"><ele>942.5</ele><time>2026-03-22T09:37:57.651Z</time></trkpt><trkpt lat="43.7351583" lon="12.1587217"><ele>928.0</ele><time>2026-03-22T09:37:58.65Z</time></trkpt><trkpt lat="43.73514" lon="12.1589233"><ele>913.5</ele><time>2026-03-22T09:37:59.652Z</time></trkpt><trkpt lat="43.73513" lon="12.1591"><ele>899.0</ele><time>2026-03-22T09:38:00.652Z</time></trkpt><trkpt lat="43.7351333" lon="12.1592483"><ele>897.6666666666667</ele><time>2026-03-22T09:38:01.652Z</time></trkpt><trkpt lat="43.7351483" lon="12.159385"><ele>896.3333333333334</ele><time>2026-03-22T09:38:02.65Z</time></trkpt><trkpt lat="43.735175" lon="12.1594883"><ele>895.0</ele><time>2026-03-22T09:38:03.651Z</time></trkpt><trkpt lat="43.7352183" lon="12.1595717"><ele>893.6666666666667</ele><time>2026-03-22T09:38:04.651Z</time></trkpt><trkpt lat="43.7352883" lon="12.1596333"><ele>892.3333333333334</ele><time>2026-03-22T09:38:05.65Z</time></trkpt><trkpt lat="43.7353817" lon="12.159675"><ele>891.0</ele><time>2026-03-22T09:38:06.654Z</time></trkpt><trkpt lat="43.7354917" lon="12.1597017"><ele>901.6666666666667</ele><time>2026-03-22T09:38:07.651Z</time></trkpt><trkpt lat="43.735635" lon="12.159725"><ele>912.3333333333334</ele><time>2026-03-22T09:38:08.651Z</time></trkpt><trkpt lat="43.7357867" lon="12.15977"><ele>923.0</ele><time>2026-03-22T09:38:09.65Z</time></trkpt><trkpt lat="43.7359483" lon="12.15981"><ele>921.6666666666667</ele><time>2026-03-22T09:38:10.651Z</time></trkpt><trkpt lat="43.7361067" lon="12.1598583"><ele>920.3333333333333</ele><time>2026-03-22T09:38:11.651Z</time></trkpt><trkpt lat="43.736265" lon="12.159895"><ele>919.0</ele><time>2026-03-22T09:38:12.655Z</time></trkpt><trkpt lat="43.73643" lon="12.15993"><ele>907.6666666666666</ele><time>2026-03-22T09:38:13.654Z</time></trkpt><trkpt lat="43.7365933" lon="12.1599683"><ele>896.3333333333333</ele><time>2026-03-22T09:38:14.654Z</time></trkpt><trkpt lat="43.736775" lon="12.1600183"><ele>885.0</ele><time>2026-03-22T09:38:15.653Z</time></trkpt><trkpt lat="43.7369733" lon="12.1600633"><ele>883.6666666666667</ele><time>2026-03-22T09:38:16.653Z</time></trkpt><trkpt lat="43.737165" lon="12.160115"><ele>882.3333333333334</ele><time>2026-03-22T09:38:17.655Z</time></trkpt><trkpt lat="43.7373533" lon="12.1601433"><ele>881.0</ele><time>2026-03-22T09:38:18.65Z</time></trkpt><trkpt lat="43.73753" lon="12.1601683"><ele>881.0</ele><time>2026-03-22T09:38:19.652Z</time></trkpt><trkpt lat="43.737705" lon="12.1601717"><ele>881.0</ele><time>2026-03-22T09:38:20.65Z</time></trkpt><trkpt lat="43.7378817" lon="12.16019"><ele>881.0</ele><time>2026-03-22T09:38:21.654Z</time></trkpt><trkpt lat="43.738065" lon="12.1602183"><ele>880.6666666666667</ele><time>2026-03-22T09:38:22.655Z</time></trkpt><trkpt lat="43.7382417" lon="12.1602417"><ele>880.3333333333333</ele><time>2026-03-22T09:38:23.65Z</time></trkpt><trkpt lat="43.73841" lon="12.1602667"><ele>880.0</ele><time>2026-03-22T09:38:24.653Z</time></trkpt><trkpt lat="43.7385667" lon="12.1602883"><ele>878.0</ele><time>2026-03-22T09:38:25.652Z</time></trkpt><trkpt lat="43.73872" lon="12.1603133"><ele>876.0</ele><time>2026-03-22T09:38:26.652Z</time></trkpt><trkpt lat="43.73888" lon="12.16033"><ele>874.0</ele><time>2026-03-22T09:38:27.652Z</time></trkpt><trkpt lat="43.739045" lon="12.1603483"><ele>874.0</ele><time>2026-03-22T09:38:28.652Z</time></trkpt><trkpt lat="43.7392133" lon="12.16038"><ele>874.0</ele><time>2026-03-22T09:38:29.651Z</time></trkpt><trkpt lat="43.7393917" lon="12.160405"><ele>874.0</ele><time>2026-03-22T09:38:30.652Z</time></trkpt><trkpt lat="43.7395817" lon="12.1604267"><ele>871.0</ele><time>2026-03-22T09:38:31.652Z</time></trkpt><trkpt lat="43.739775" lon="12.1604517"><ele>868.0</ele><time>2026-03-22T09:38:32.651Z</time></trkpt><trkpt lat="43.7399567" lon="12.1604717"><ele>865.0</ele><time>2026-03-22T09:38:33.653Z</time></trkpt><trkpt lat="43.7401167" lon="12.16049"><ele>866.0</ele><time>2026-03-22T09:38:34.651Z</time></trkpt><trkpt lat="43.7402667" lon="12.1605083"><ele>867.0</ele><time>2026-03-22T09:38:35.651Z</time></trkpt><trkpt lat="43.74041" lon="12.160525"><ele>868.0</ele><time>2026-03-22T09:38:36.652Z</time></trkpt><trkpt lat="43.7405533" lon="12.1605383"><ele>869.0</ele><time>2026-03-22T09:38:37.652Z</time></trkpt><trkpt lat="43.740695" lon="12.16056"><ele>869.0</ele><time>2026-03-22T09:38:38.653Z</time></trkpt><trkpt lat="43.74083" lon="12.1605867"><ele>869.0</ele><time>2026-03-22T09:38:39.654Z</time></trkpt><trkpt lat="43.7409567" lon="12.16061"><ele>869.0</ele><time>2026-03-22T09:38:40.652Z</time></trkpt><trkpt lat="43.7410783" lon="12.16064"><ele>869.0</ele><time>2026-03-22T09:38:41.653Z</time></trkpt><trkpt lat="43.7411917" lon="12.16068"><ele>865.0</ele><time>2026-03-22T09:38:42.654Z</time></trkpt><trkpt lat="43.741305" lon="12.1607167"><ele>861.0000000000001</ele><time>2026-03-22T09:38:43.655Z</time></trkpt><trkpt lat="43.741415" lon="12.1607483"><ele>857.0</ele><time>2026-03-22T09:38:44.655Z</time></trkpt><trkpt lat="43.74152" lon="12.16076"><ele>853.0</ele><time>2026-03-22T09:38:45.654Z</time></trkpt><trkpt lat="43.74163" lon="12.1607633"><ele>849.0</ele><time>2026-03-22T09:38:46.654Z</time></trkpt><trkpt lat="43.7417567" lon="12.160745"><ele>852.0</ele><time>2026-03-22T09:38:47.655Z</time></trkpt><trkpt lat="43.7419" lon="12.160705"><ele>855.0</ele><time>2026-03-22T09:38:48.655Z</time></trkpt><trkpt lat="43.74205" lon="12.16066"><ele>858.0</ele><time>2026-03-22T09:38:49.651Z</time></trkpt><trkpt lat="43.7422117" lon="12.1606117"><ele>858.0</ele><time>2026-03-22T09:38:50.653Z</time></trkpt><trkpt lat="43.7423767" lon="12.16055"><ele>858.0</ele><time>2026-03-22T09:38:51.654Z</time></trkpt><trkpt lat="43.7425333" lon="12.1604883"><ele>858.0</ele><time>2026-03-22T09:38:52.655Z</time></trkpt><trkpt lat="43.74268" lon="12.1604267"><ele>854.75</ele><time>2026-03-22T09:38:53.653Z</time></trkpt><trkpt lat="43.7428133" lon="12.160355"><ele>851.5</ele><time>2026-03-22T09:38:54.655Z</time></trkpt><trkpt lat="43.74294" lon="12.160285"><ele>848.25</ele><time>2026-03-22T09:38:55.655Z</time></trkpt><trkpt lat="43.7430567" lon="12.16022"><ele>845.0</ele><time>2026-03-22T09:38:56.654Z</time></trkpt><trkpt lat="43.743175" lon="12.1601567"><ele>845.0</ele><time>2026-03-22T09:38:57.654Z</time></trkpt><trkpt lat="43.7432933" lon="12.1601083"><ele>845.0</ele><time>2026-03-22T09:38:58.651Z</time></trkpt><trkpt lat="43.7434067" lon="12.160065"><ele>845.0</ele><time>2026-03-22T09:38:59.65Z</time></trkpt><trkpt lat="43.7435217" lon="12.160035"><ele>845.0</ele><time>2026-03-22T09:39:00.651Z</time></trkpt><trkpt lat="43.7436467" lon="12.1600117"><ele>843.75</ele><time>2026-03-22T09:39:01.651Z</time></trkpt><trkpt lat="43.7437717" lon="12.1600083"><ele>842.5</ele><time>2026-03-22T09:39:02.654Z</time></trkpt><trkpt lat="43.7438917" lon="12.1600117"><ele>841.25</ele><time>2026-03-22T09:39:03.655Z</time></trkpt><trkpt lat="43.7440017" lon="12.160035"><ele>840.0</ele><time>2026-03-22T09:39:04.651Z</time></trkpt><trkpt lat="43.744105" lon="12.160075"><ele>840.0</ele><time>2026-03-22T09:39:05.651Z</time></trkpt><trkpt lat="43.7441917" lon="12.1601467"><ele>840.0</ele><time>2026-03-22T09:39:06.652Z</time></trkpt><trkpt lat="43.7442583" lon="12.1602517"><ele>840.0</ele><time>2026-03-22T09:39:07.65Z</time></trkpt><trkpt lat="43.74431" lon="12.16039"><ele>840.0</ele><time>2026-03-22T09:39:08.65Z</time></trkpt><trkpt lat="43.7443517" lon="12.16056"><ele>840.0</ele><time>2026-03-22T09:39:09.652Z</time></trkpt><trkpt lat="43.7443917" lon="12.160755"><ele>838.3333333333333</ele><time>2026-03-22T09:39:10.651Z</time></trkpt><trkpt lat="43.7444333" lon="12.1609567"><ele>836.6666666666666</ele><time>2026-03-22T09:39:11.65Z</time></trkpt><trkpt lat="43.74447" lon="12.161165"><ele>835.0</ele><time>2026-03-22T09:39:12.65Z</time></trkpt><trkpt lat="43.7444933" lon="12.1613683"><ele>834.0</ele><time>2026-03-22T09:39:13.65Z</time></trkpt><trkpt lat="43.744515" lon="12.161575"><ele>833.0</ele><time>2026-03-22T09:39:14.654Z</time></trkpt><trkpt lat="43.7445417" lon="12.1617783"><ele>832.0</ele><time>2026-03-22T09:39:15.655Z</time></trkpt><trkpt lat="43.74457" lon="12.161975"><ele>831.0</ele><time>2026-03-22T09:39:16.653Z</time></trkpt><trkpt lat="43.7445967" lon="12.1621633"><ele>831.0</ele><time>2026-03-22T09:39:17.65Z</time></trkpt><trkpt lat="43.7446133" lon="12.1623383"><ele>831.0</ele><time>2026-03-22T09:39:18.652Z</time></trkpt><trkpt lat="43.7446083" lon="12.1625033"><ele>831.0</ele><time>2026-03-22T09:39:19.652Z</time></trkpt><trkpt lat="43.74458" lon="12.1626683"><ele>831.0</ele><time>2026-03-22T09:39:20.652Z</time></trkpt><trkpt lat="43.74452" lon="12.162825"><ele>830.6666666666667</ele><time>2026-03-22T09:39:21.651Z</time></trkpt><trkpt lat="43.7444383" lon="12.1629883"><ele>830.3333333333334</ele><time>2026-03-22T09:39:22.652Z</time></trkpt><trkpt lat="43.74434" lon="12.1631517"><ele>830.0</ele><time>2026-03-22T09:39:23.65Z</time></trkpt><trkpt lat="43.7442283" lon="12.1633183"><ele>824.6666666666667</ele><time>2026-03-22T09:39:24.652Z</time></trkpt><trkpt lat="43.744105" lon="12.16349"><ele>819.3333333333333</ele><time>2026-03-22T09:39:25.651Z</time></trkpt><trkpt lat="43.7439717" lon="12.16366"><ele>814.0</ele><time>2026-03-22T09:39:26.65Z</time></trkpt><trkpt lat="43.7438383" lon="12.1638283"><ele>814.0</ele><time>2026-03-22T09:39:27.65Z</time></trkpt><trkpt lat="43.743705" lon="12.16399"><ele>814.0</ele><time>2026-03-22T09:39:28.651Z</time></trkpt><trkpt lat="43.743585" lon="12.1641317"><ele>814.0</ele><time>2026-03-22T09:39:29.657Z</time></trkpt><trkpt lat="43.7434933" lon="12.1642617"><ele>809.75</ele><time>2026-03-22T09:39:30.65Z</time></trkpt><trkpt lat="43.7434317" lon="12.1644"><ele>805.5</ele><time>2026-03-22T09:39:31.654Z</time></trkpt><trkpt lat="43.74341" lon="12.16455"><ele>801.25</ele><time>2026-03-22T09:39:32.654Z</time></trkpt><trkpt lat="43.7434233" lon="12.1647233"><ele>797.0</ele><time>2026-03-22T09:39:33.651Z</time></trkpt><trkpt lat="43.7434633" lon="12.1649167"><ele>796.75</ele><time>2026-03-22T09:39:34.651Z</time></trkpt><trkpt lat="43.7435083" lon="12.1651117"><ele>796.5</ele><time>2026-03-22T09:39:35.651Z</time></trkpt><trkpt lat="43.74354" lon="12.1653083"><ele>796.25</ele><time>2026-03-22T09:39:36.65Z</time></trkpt><trkpt lat="43.7435583" lon="12.1655017"><ele>796.0</ele><time>2026-03-22T09:39:37.652Z</time></trkpt><trkpt lat="43.7435433" lon="12.1656867"><ele>795.75</ele><time>2026-03-22T09:39:38.65Z</time></trkpt><trkpt lat="43.743495" lon="12.1658617"><ele>795.5</ele><time>2026-03-22T09:39:39.654Z</time></trkpt><trkpt lat="43.7434083" lon="12.166025"><ele>795.25</ele><time>2026-03-22T09:39:40.651Z</time></trkpt><trkpt lat="43.7433017" lon="12.1661867"><ele>795.0</ele><time>2026-03-22T09:39:41.657Z</time></trkpt><trkpt lat="43.743185" lon="12.16635"><ele>795.0</ele><time>2026-03-22T09:39:42.653Z</time></trkpt><trkpt lat="43.7430617" lon="12.1665267"><ele>795.0</ele><time>2026-03-22T09:39:43.652Z</time></trkpt><trkpt lat="43.7429333" lon="12.1667133"><ele>795.0</ele><time>2026-03-22T09:39:44.654Z</time></trkpt><trkpt lat="43.7428033" lon="12.1669017"><ele>791.6666666666667</ele><time>2026-03-22T09:39:45.654Z</time></trkpt><trkpt lat="43.7426767" lon="12.16708"><ele>788.3333333333334</ele><time>2026-03-22T09:39:46.653Z</time></trkpt><trkpt lat="43.742555" lon="12.1672467"><ele>785.0</ele><time>2026-03-22T09:39:47.651Z</time></trkpt><trkpt lat="43.7424417" lon="12.1674"><ele>785.0</ele><time>2026-03-22T09:39:48.651Z</time></trkpt><trkpt lat="43.74233" lon="12.1675617"><ele>785.0</ele><time>2026-03-22T09:39:49.652Z</time></trkpt><trkpt lat="43.7422283" lon="12.1677133"><ele>785.0</ele><time>2026-03-22T09:39:50.651Z</time></trkpt><trkpt lat="43.7421333" lon="12.1678417"><ele>785.0</ele><time>2026-03-22T09:39:51.65Z</time></trkpt><trkpt lat="43.74203" lon="12.1679467"><ele>785.0</ele><time>2026-03-22T09:39:52.65Z</time></trkpt><trkpt lat="43.7419083" lon="12.16801"><ele>785.0</ele><time>2026-03-22T09:39:53.65Z</time></trkpt><trkpt lat="43.741775" lon="12.1680433"><ele>785.0</ele><time>2026-03-22T09:39:54.652Z</time></trkpt><trkpt lat="43.7416417" lon="12.1680633"><ele>785.0</ele><time>2026-03-22T09:39:55.65Z</time></trkpt><trkpt lat="43.74152" lon="12.1681033"><ele>781.3333333333334</ele><time>2026-03-22T09:39:56.651Z</time></trkpt><trkpt lat="43.7413933" lon="12.1681817"><ele>777.6666666666667</ele><time>2026-03-22T09:39:57.65Z</time></trkpt><trkpt lat="43.74127" lon="12.1682983"><ele>774.0</ele><time>2026-03-22T09:39:58.651Z</time></trkpt><trkpt lat="43.7411433" lon="12.1684483"><ele>771.3333333333334</ele><time>2026-03-22T09:39:59.65Z</time></trkpt><trkpt lat="43.7410217" lon="12.1686083"><ele>768.6666666666667</ele><time>2026-03-22T09:40:00.654Z</time></trkpt><trkpt lat="43.7408983" lon="12.168765"><ele>766.0</ele><time>2026-03-22T09:40:01.651Z</time></trkpt><trkpt lat="43.740775" lon="12.1689133"><ele>766.0</ele><time>2026-03-22T09:40:02.65Z</time></trkpt><trkpt lat="43.7406533" lon="12.169055"><ele>766.0</ele><time>2026-03-22T09:40:03.651Z</time></trkpt><trkpt lat="43.7405417" lon="12.1692"><ele>766.0</ele><time>2026-03-22T09:40:04.651Z</time></trkpt><trkpt lat="43.7404333" lon="12.1693367"><ele>766.0</ele><time>2026-03-22T09:40:05.65Z</time></trkpt><trkpt lat="43.7403333" lon="12.1694467"><ele>766.0</ele><time>2026-03-22T09:40:06.654Z</time></trkpt><trkpt lat="43.7402333" lon="12.16952"><ele>766.0</ele><time>2026-03-22T09:40:07.65Z</time></trkpt><trkpt lat="43.7401217" lon="12.1695567"><ele>766.0</ele><time>2026-03-22T09:40:08.654Z</time></trkpt><trkpt lat="43.740005" lon="12.1695533"><ele>763.75</ele><time>2026-03-22T09:40:09.654Z</time></trkpt><trkpt lat="43.739885" lon="12.169505"><ele>761.5</ele><time>2026-03-22T09:40:10.651Z</time></trkpt><trkpt lat="43.7397517" lon="12.1694283"><ele>759.25</ele><time>2026-03-22T09:40:11.65Z</time></trkpt><trkpt lat="43.739615" lon="12.1693433"><ele>757.0</ele><time>2026-03-22T09:40:12.651Z</time></trkpt><trkpt lat="43.7394683" lon="12.1692567"><ele>753.75</ele><time>2026-03-22T09:40:13.651Z</time></trkpt><trkpt lat="43.7393233" lon="12.169175"><ele>750.5</ele><time>2026-03-22T09:40:14.654Z</time></trkpt><trkpt lat="43.7391867" lon="12.169105"><ele>747.25</ele><time>2026-03-22T09:40:15.654Z</time></trkpt><trkpt lat="43.73905" lon="12.169035"><ele>744.0</ele><time>2026-03-22T09:40:16.653Z</time></trkpt><trkpt lat="43.738915" lon="12.16897"><ele>743.25</ele><time>2026-03-22T09:40:17.65Z</time></trkpt><trkpt lat="43.7387867" lon="12.1689017"><ele>742.5</ele><time>2026-03-22T09:40:18.651Z</time></trkpt><trkpt lat="43.7386633" lon="12.1688317"><ele>741.75</ele><time>2026-03-22T09:40:19.65Z</time></trkpt><trkpt lat="43.738545" lon="12.1687633"><ele>741.0</ele><time>2026-03-22T09:40:20.651Z</time></trkpt><trkpt lat="43.73843" lon="12.1686967"><ele>738.4</ele><time>2026-03-22T09:40:21.649Z</time></trkpt><trkpt lat="43.7383267" lon="12.1686383"><ele>735.8</ele><time>2026-03-22T09:40:22.651Z</time></trkpt><trkpt lat="43.7382417" lon="12.1685833"><ele>733.1999999999999</ele><time>2026-03-22T09:40:23.651Z</time></trkpt><trkpt lat="43.73816" lon="12.1685317"><ele>730.5999999999999</ele><time>2026-03-22T09:40:24.651Z</time></trkpt><trkpt lat="43.7380717" lon="12.1684883"><ele>728.0</ele><time>2026-03-22T09:40:25.651Z</time></trkpt><trkpt lat="43.73798" lon="12.1684667"><ele>728.0</ele><time>2026-03-22T09:40:26.651Z</time></trkpt><trkpt lat="43.7378883" lon="12.168475"><ele>728.0</ele><time>2026-03-22T09:40:27.65Z</time></trkpt><trkpt lat="43.7378" lon="12.1685017"><ele>728.0</ele><time>2026-03-22T09:40:28.652Z</time></trkpt><trkpt lat="43.7377067" lon="12.16854"><ele>728.0</ele><time>2026-03-22T09:40:29.65Z</time></trkpt><trkpt lat="43.7376183" lon="12.1685817"><ele>728.0</ele><time>2026-03-22T09:40:30.655Z</time></trkpt><trkpt lat="43.7375333" lon="12.168625"><ele>727.8</ele><time>2026-03-22T09:40:31.651Z</time></trkpt><trkpt lat="43.7374467" lon="12.168665"><ele>727.5999999999999</ele><time>2026-03-22T09:40:32.65Z</time></trkpt><trkpt lat="43.7373667" lon="12.1687"><ele>727.4000000000001</ele><time>2026-03-22T09:40:33.651Z</time></trkpt><trkpt lat="43.7372833" lon="12.1687333"><ele>727.2</ele><time>2026-03-22T09:40:34.65Z</time></trkpt><trkpt lat="43.7371967" lon="12.1687733"><ele>727.0</ele><time>2026-03-22T09:40:35.65Z</time></trkpt><trkpt lat="43.7371" lon="12.1688117"><ele>727.0</ele><time>2026-03-22T09:40:36.65Z</time></trkpt><trkpt lat="43.737" lon="12.16884"><ele>727.0</ele><time>2026-03-22T09:40:37.65Z</time></trkpt><trkpt lat="43.7369" lon="12.1688583"><ele>727.0</ele><time>2026-03-22T09:40:38.651Z</time></trkpt><trkpt lat="43.7368033" lon="12.16887"><ele>727.0</ele><time>2026-03-22T09:40:39.651Z</time></trkpt><trkpt lat="43.7367083" lon="12.1688717"><ele>727.0</ele><time>2026-03-22T09:40:40.65Z</time></trkpt><trkpt lat="43.7366183" lon="12.1688633"><ele>727.6</ele><time>2026-03-22T09:40:41.654Z</time></trkpt><trkpt lat="43.73653" lon="12.1688367"><ele>728.2</ele><time>2026-03-22T09:40:42.653Z</time></trkpt><trkpt lat="43.7364417" lon="12.1687983"><ele>728.8</ele><time>2026-03-22T09:40:43.655Z</time></trkpt><trkpt lat="43.7363583" lon="12.1687583"><ele>729.4</ele><time>2026-03-22T09:40:44.65Z</time></trkpt><trkpt lat="43.73627" lon="12.1687217"><ele>730.0</ele><time>2026-03-22T09:40:45.655Z</time></trkpt><trkpt lat="43.73618" lon="12.1686833"><ele>730.0</ele><time>2026-03-22T09:40:46.651Z</time></trkpt><trkpt lat="43.7361" lon="12.1686367"><ele>730.0</ele><time>2026-03-22T09:40:47.651Z</time></trkpt><trkpt lat="43.73604" lon="12.16857"><ele>730.0</ele><time>2026-03-22T09:40:48.65Z</time></trkpt><trkpt lat="43.735985" lon="12.168495"><ele>730.0</ele><time>2026-03-22T09:40:49.65Z</time></trkpt><trkpt lat="43.7359367" lon="12.1684133"><ele>730.0</ele><time>2026-03-22T09:40:50.65Z</time></trkpt><trkpt lat="43.7359017" lon="12.1683233"><ele>730.0</ele><time>2026-03-22T09:40:51.651Z</time></trkpt><trkpt lat="43.73588" lon="12.1682333"><ele>726.5</ele><time>2026-03-22T09:40:52.65Z</time></trkpt><trkpt lat="43.7358633" lon="12.1681383"><ele>723.0</ele><time>2026-03-22T09:40:53.65Z</time></trkpt><trkpt lat="43.73586" lon="12.16804"><ele>719.5</ele><time>2026-03-22T09:40:54.651Z</time></trkpt><trkpt lat="43.7358567" lon="12.1679433"><ele>716.0</ele><time>2026-03-22T09:40:55.651Z</time></trkpt><trkpt lat="43.7358383" lon="12.167855"><ele>712.5</ele><time>2026-03-22T09:40:56.65Z</time></trkpt><trkpt lat="43.7357517" lon="12.1677567"><ele>709.0</ele><time>2026-03-22T09:40:58.65Z</time></trkpt><trkpt lat="43.73564" lon="12.1677417"><ele>709.0</ele><time>2026-03-22T09:41:00.655Z</time></trkpt><trkpt lat="43.7355283" lon="12.1678133"><ele>709.0</ele><time>2026-03-22T09:41:02.652Z</time></trkpt><trkpt lat="43.73548" lon="12.1678783"><ele>709.0</ele><time>2026-03-22T09:41:03.652Z</time></trkpt><trkpt lat="43.735445" lon="12.1679617"><ele>709.0</ele><time>2026-03-22T09:41:04.652Z</time></trkpt><trkpt lat="43.7354117" lon="12.1680417"><ele>709.0</ele><time>2026-03-22T09:41:05.652Z</time></trkpt><trkpt lat="43.7353667" lon="12.16816"><ele>709.0</ele><time>2026-03-22T09:41:07.652Z</time></trkpt><trkpt lat="43.735295" lon="12.1681867"><ele>709.0</ele><time>2026-03-22T09:41:10.654Z</time></trkpt></trkseg></trk></gpx>